<?xml version='1.0' encoding='UTF-8'?><gpx version="1.1" creator="JPX - https://github.com/jenetics/jpx" xmlns="http://www.topografix.com/GPX/1/1"><trk><trkseg><trkpt lat="44.8217593" lon="9.1990416"><ele>405.7142857142857</ele><time>2026-04-26T08:54:23.299Z</time></trkpt><trkpt lat="44.8217627" lon="9.1989465"><ele>405.42857142857144</ele><time>2026-04-26T08:54:32.299Z</time></trkpt><trkpt lat="44.8217573" lon="9.1988554"><ele>405.1428571428571</ele><time>2026-04-26T08:54:37.299Z</time></trkpt><trkpt lat="44.8217475" lon="9.1987596"><ele>404.8571428571429</ele><time>2026-04-26T08:54:39.299Z</time></trkpt><trkpt lat="44.8217444" lon="9.1986394"><ele>404.57142857142856</ele><time>2026-04-26T08:54:41.299Z</time></trkpt><trkpt lat="44.8217694" lon="9.1985449"><ele>404.2857142857143</ele><time>2026-04-26T08:54:43.299Z</time></trkpt><trkpt lat="44.8218143" lon="9.198463"><ele>404.0</ele><time>2026-04-26T08:54:45.299Z</time></trkpt><trkpt lat="44.8218542" lon="9.1983563"><ele>404.66666666666663</ele><time>2026-04-26T08:54:48.299Z</time></trkpt><trkpt lat="44.8218821" lon="9.19822"><ele>405.3333333333333</ele><time>2026-04-26T08:54:51.299Z</time></trkpt><trkpt lat="44.8219016" lon="9.1980858"><ele>406.0</ele><time>2026-04-26T08:54:53.299Z</time></trkpt><trkpt lat="44.8219178" lon="9.1979788"><ele>406.66666666666663</ele><time>2026-04-26T08:54:55.299Z</time></trkpt><trkpt lat="44.8219304" lon="9.1978739"><ele>407.3333333333333</ele><time>2026-04-26T08:54:58.299Z</time></trkpt><trkpt lat="44.8218918" lon="9.1978032"><ele>408.0</ele><time>2026-04-26T08:55:02.299Z</time></trkpt><trkpt lat="44.8218509" lon="9.1978801"><ele>408.0</ele><time>2026-04-26T08:55:07.299Z</time></trkpt><trkpt lat="44.8218231" lon="9.198008"><ele>408.0</ele><time>2026-04-26T08:55:09.299Z</time></trkpt><trkpt lat="44.8218069" lon="9.1981065"><ele>408.0</ele><time>2026-04-26T08:55:10.299Z</time></trkpt><trkpt lat="44.8217956" lon="9.1982485"><ele>408.0</ele><time>2026-04-26T08:55:11.299Z</time></trkpt><trkpt lat="44.8217781" lon="9.1983854"><ele>408.0</ele><time>2026-04-26T08:55:12.299Z</time></trkpt><trkpt lat="44.821765" lon="9.1985134"><ele>407.6666666666667</ele><time>2026-04-26T08:55:13.299Z</time></trkpt><trkpt lat="44.8217546" lon="9.1986278"><ele>407.33333333333337</ele><time>2026-04-26T08:55:14.299Z</time></trkpt><trkpt lat="44.8217376" lon="9.1987394"><ele>407.0</ele><time>2026-04-26T08:55:15.299Z</time></trkpt><trkpt lat="44.8217265" lon="9.198848"><ele>406.6666666666667</ele><time>2026-04-26T08:55:16.298Z</time></trkpt><trkpt lat="44.8217177" lon="9.1989525"><ele>406.33333333333337</ele><time>2026-04-26T08:55:17.299Z</time></trkpt><trkpt lat="44.8217066" lon="9.199054"><ele>406.0</ele><time>2026-04-26T08:55:18.299Z</time></trkpt><trkpt lat="44.8216935" lon="9.1991582"><ele>406.00000000000006</ele><time>2026-04-26T08:55:19.299Z</time></trkpt><trkpt lat="44.8216827" lon="9.1992557"><ele>406.0</ele><time>2026-04-26T08:55:20.299Z</time></trkpt><trkpt lat="44.8216745" lon="9.1993548"><ele>406.0</ele><time>2026-04-26T08:55:21.299Z</time></trkpt><trkpt lat="44.8216683" lon="9.1994544"><ele>406.0</ele><time>2026-04-26T08:55:22.299Z</time></trkpt><trkpt lat="44.8216596" lon="9.1995442"><ele>406.00000000000006</ele><time>2026-04-26T08:55:23.298Z</time></trkpt><trkpt lat="44.8216534" lon="9.1997201"><ele>406.0</ele><time>2026-04-26T08:55:25.298Z</time></trkpt><trkpt lat="44.8216627" lon="9.1998146"><ele>406.42857142857144</ele><time>2026-04-26T08:55:26.299Z</time></trkpt><trkpt lat="44.8216971" lon="9.1998996"><ele>406.8571428571429</ele><time>2026-04-26T08:55:27.298Z</time></trkpt><trkpt lat="44.8217544" lon="9.1999732"><ele>407.2857142857143</ele><time>2026-04-26T08:55:28.299Z</time></trkpt><trkpt lat="44.8218191" lon="9.2000279"><ele>407.7142857142857</ele><time>2026-04-26T08:55:29.299Z</time></trkpt><trkpt lat="44.8218851" lon="9.2000714"><ele>408.14285714285717</ele><time>2026-04-26T08:55:30.299Z</time></trkpt><trkpt lat="44.8219506" lon="9.2001047"><ele>408.57142857142856</ele><time>2026-04-26T08:55:31.299Z</time></trkpt><trkpt lat="44.8220174" lon="9.2001336"><ele>409.0</ele><time>2026-04-26T08:55:32.299Z</time></trkpt><trkpt lat="44.8221335" lon="9.2001686"><ele>409.83333333333337</ele><time>2026-04-26T08:55:34.299Z</time></trkpt><trkpt lat="44.8222004" lon="9.2002061"><ele>410.6666666666667</ele><time>2026-04-26T08:55:35.299Z</time></trkpt><trkpt lat="44.8222738" lon="9.2002389"><ele>411.5</ele><time>2026-04-26T08:55:36.299Z</time></trkpt><trkpt lat="44.8223546" lon="9.2002872"><ele>412.33333333333337</ele><time>2026-04-26T08:55:37.299Z</time></trkpt><trkpt lat="44.8224454" lon="9.2003452"><ele>413.1666666666667</ele><time>2026-04-26T08:55:38.299Z</time></trkpt><trkpt lat="44.8225307" lon="9.2004067"><ele>414.0</ele><time>2026-04-26T08:55:39.299Z</time></trkpt><trkpt lat="44.8226097" lon="9.200462"><ele>414.6666666666667</ele><time>2026-04-26T08:55:40.299Z</time></trkpt><trkpt lat="44.8226802" lon="9.2005247"><ele>415.33333333333337</ele><time>2026-04-26T08:55:41.299Z</time></trkpt><trkpt lat="44.8227414" lon="9.2005874"><ele>416.0</ele><time>2026-04-26T08:55:42.299Z</time></trkpt><trkpt lat="44.8227947" lon="9.2006427"><ele>416.6666666666667</ele><time>2026-04-26T08:55:43.299Z</time></trkpt><trkpt lat="44.8228562" lon="9.200752"><ele>417.33333333333337</ele><time>2026-04-26T08:55:45.299Z</time></trkpt><trkpt lat="44.8228492" lon="9.2008762"><ele>418.0</ele><time>2026-04-26T08:55:47.299Z</time></trkpt><trkpt lat="44.8228173" lon="9.2009581"><ele>418.2</ele><time>2026-04-26T08:55:48.299Z</time></trkpt><trkpt lat="44.822775" lon="9.2010517"><ele>418.4</ele><time>2026-04-26T08:55:49.299Z</time></trkpt><trkpt lat="44.8227315" lon="9.2011545"><ele>418.59999999999997</ele><time>2026-04-26T08:55:50.299Z</time></trkpt><trkpt lat="44.8226884" lon="9.2012722"><ele>418.79999999999995</ele><time>2026-04-26T08:55:51.299Z</time></trkpt><trkpt lat="44.8226532" lon="9.2014002"><ele>419.0</ele><time>2026-04-26T08:55:52.299Z</time></trkpt><trkpt lat="44.8226127" lon="9.2015605"><ele>419.25</ele><time>2026-04-26T08:55:53.299Z</time></trkpt><trkpt lat="44.8225793" lon="9.20173"><ele>419.5</ele><time>2026-04-26T08:55:54.299Z</time></trkpt><trkpt lat="44.8225309" lon="9.2019188"><ele>419.75</ele><time>2026-04-26T08:55:55.299Z</time></trkpt><trkpt lat="44.8224853" lon="9.2020997"><ele>420.0</ele><time>2026-04-26T08:55:56.299Z</time></trkpt><trkpt lat="44.8223888" lon="9.2024401"><ele>420.75</ele><time>2026-04-26T08:55:58.299Z</time></trkpt><trkpt lat="44.8223435" lon="9.2026238"><ele>421.5</ele><time>2026-04-26T08:55:59.299Z</time></trkpt><trkpt lat="44.8222848" lon="9.2028044"><ele>422.25</ele><time>2026-04-26T08:56:00.299Z</time></trkpt><trkpt lat="44.8222342" lon="9.2029757"><ele>423.0</ele><time>2026-04-26T08:56:01.299Z</time></trkpt><trkpt lat="44.8221977" lon="9.2031271"><ele>423.0</ele><time>2026-04-26T08:56:02.299Z</time></trkpt><trkpt lat="44.8221664" lon="9.203256"><ele>423.0</ele><time>2026-04-26T08:56:03.299Z</time></trkpt><trkpt lat="44.8221324" lon="9.2033882"><ele>423.0</ele><time>2026-04-26T08:56:04.299Z</time></trkpt><trkpt lat="44.8221102" lon="9.2035171"><ele>423.0</ele><time>2026-04-26T08:56:05.299Z</time></trkpt><trkpt lat="44.8220825" lon="9.2036676"><ele>423.0</ele><time>2026-04-26T08:56:06.299Z</time></trkpt><trkpt lat="44.822043" lon="9.2038239"><ele>423.0</ele><time>2026-04-26T08:56:07.299Z</time></trkpt><trkpt lat="44.8220078" lon="9.2039757"><ele>423.0</ele><time>2026-04-26T08:56:08.299Z</time></trkpt><trkpt lat="44.8219742" lon="9.2041147"><ele>423.0</ele><time>2026-04-26T08:56:09.299Z</time></trkpt><trkpt lat="44.8219366" lon="9.2042493"><ele>423.0</ele><time>2026-04-26T08:56:10.299Z</time></trkpt><trkpt lat="44.8218967" lon="9.2043667"><ele>423.0</ele><time>2026-04-26T08:56:11.298Z</time></trkpt><trkpt lat="44.8218533" lon="9.2044938"><ele>423.0</ele><time>2026-04-26T08:56:12.299Z</time></trkpt><trkpt lat="44.8218079" lon="9.2046159"><ele>423.0</ele><time>2026-04-26T08:56:13.299Z</time></trkpt><trkpt lat="44.8217767" lon="9.2047616"><ele>423.0</ele><time>2026-04-26T08:56:14.299Z</time></trkpt><trkpt lat="44.8217463" lon="9.2048907"><ele>423.0</ele><time>2026-04-26T08:56:15.299Z</time></trkpt><trkpt lat="44.8216939" lon="9.2050296"><ele>423.0</ele><time>2026-04-26T08:56:16.299Z</time></trkpt><trkpt lat="44.8216425" lon="9.205157"><ele>423.75</ele><time>2026-04-26T08:56:17.299Z</time></trkpt><trkpt lat="44.821567" lon="9.2052868"><ele>424.5</ele><time>2026-04-26T08:56:18.299Z</time></trkpt><trkpt lat="44.8215005" lon="9.2054171"><ele>425.25</ele><time>2026-04-26T08:56:19.299Z</time></trkpt><trkpt lat="44.821435" lon="9.20554"><ele>426.0</ele><time>2026-04-26T08:56:20.299Z</time></trkpt><trkpt lat="44.8209648" lon="9.2062458"><ele>426.0</ele><time>2026-04-26T08:56:25.298Z</time></trkpt><trkpt lat="44.8208689" lon="9.2063921"><ele>426.0</ele><time>2026-04-26T08:56:26.298Z</time></trkpt><trkpt lat="44.820772" lon="9.206531"><ele>426.0</ele><time>2026-04-26T08:56:27.298Z</time></trkpt><trkpt lat="44.8206713" lon="9.2066633"><ele>426.0</ele><time>2026-04-26T08:56:28.298Z</time></trkpt><trkpt lat="44.8205793" lon="9.2068054"><ele>427.5</ele><time>2026-04-26T08:56:29.298Z</time></trkpt><trkpt lat="44.8204895" lon="9.2069451"><ele>429.0</ele><time>2026-04-26T08:56:30.298Z</time></trkpt><trkpt lat="44.8203951" lon="9.2070817"><ele>430.5</ele><time>2026-04-26T08:56:31.298Z</time></trkpt><trkpt lat="44.8203031" lon="9.2072197"><ele>432.0</ele><time>2026-04-26T08:56:32.298Z</time></trkpt><trkpt lat="44.8202114" lon="9.2073651"><ele>435.0</ele><time>2026-04-26T08:56:33.297Z</time></trkpt><trkpt lat="44.8198333" lon="9.2079254"><ele>435.0</ele><time>2026-04-26T08:56:37.298Z</time></trkpt><trkpt lat="44.8197394" lon="9.2080731"><ele>435.0</ele><time>2026-04-26T08:56:38.298Z</time></trkpt><trkpt lat="44.8196516" lon="9.2082038"><ele>435.0</ele><time>2026-04-26T08:56:39.297Z</time></trkpt><trkpt lat="44.8195742" lon="9.2083226"><ele>435.0</ele><time>2026-04-26T08:56:40.298Z</time></trkpt><trkpt lat="44.8194935" lon="9.2084347"><ele>434.6</ele><time>2026-04-26T08:56:41.298Z</time></trkpt><trkpt lat="44.8194181" lon="9.2085431"><ele>434.2</ele><time>2026-04-26T08:56:42.298Z</time></trkpt><trkpt lat="44.8193554" lon="9.2086523"><ele>433.79999999999995</ele><time>2026-04-26T08:56:43.298Z</time></trkpt><trkpt lat="44.8192842" lon="9.2087557"><ele>433.4</ele><time>2026-04-26T08:56:44.298Z</time></trkpt><trkpt lat="44.8192039" lon="9.208874"><ele>433.0</ele><time>2026-04-26T08:56:45.298Z</time></trkpt><trkpt lat="44.8191275" lon="9.2090003"><ele>434.5</ele><time>2026-04-26T08:56:46.298Z</time></trkpt><trkpt lat="44.8190532" lon="9.2091387"><ele>436.0</ele><time>2026-04-26T08:56:47.298Z</time></trkpt><trkpt lat="44.8190031" lon="9.2092964"><ele>437.5</ele><time>2026-04-26T08:56:48.298Z</time></trkpt><trkpt lat="44.8189748" lon="9.209493"><ele>439.0</ele><time>2026-04-26T08:56:49.298Z</time></trkpt><trkpt lat="44.8189777" lon="9.2097096"><ele>440.33333333333337</ele><time>2026-04-26T08:56:50.298Z</time></trkpt><trkpt lat="44.8190138" lon="9.2099261"><ele>441.66666666666663</ele><time>2026-04-26T08:56:51.298Z</time></trkpt><trkpt lat="44.8190675" lon="9.2101373"><ele>443.0</ele><time>2026-04-26T08:56:52.298Z</time></trkpt><trkpt lat="44.81913" lon="9.2103407"><ele>443.0</ele><time>2026-04-26T08:56:53.298Z</time></trkpt><trkpt lat="44.8191796" lon="9.2105437"><ele>443.0</ele><time>2026-04-26T08:56:54.298Z</time></trkpt><trkpt lat="44.8192283" lon="9.2107449"><ele>443.0</ele><time>2026-04-26T08:56:55.298Z</time></trkpt><trkpt lat="44.8193268" lon="9.2111385"><ele>450.0</ele><time>2026-04-26T08:56:57.298Z</time></trkpt><trkpt lat="44.8193739" lon="9.2113377"><ele>457.0</ele><time>2026-04-26T08:56:58.298Z</time></trkpt><trkpt lat="44.8194215" lon="9.211547"><ele>464.0</ele><time>2026-04-26T08:56:59.298Z</time></trkpt><trkpt lat="44.8194747" lon="9.2117481"><ele>464.0</ele><time>2026-04-26T08:57:00.298Z</time></trkpt><trkpt lat="44.8195244" lon="9.2119456"><ele>464.0</ele><time>2026-04-26T08:57:01.298Z</time></trkpt><trkpt lat="44.8196177" lon="9.2123167"><ele>464.0</ele><time>2026-04-26T08:57:03.298Z</time></trkpt><trkpt lat="44.8196547" lon="9.2124885"><ele>462.5</ele><time>2026-04-26T08:57:04.298Z</time></trkpt><trkpt lat="44.8196793" lon="9.2126595"><ele>461.0</ele><time>2026-04-26T08:57:05.298Z</time></trkpt><trkpt lat="44.8196863" lon="9.2128308"><ele>459.5</ele><time>2026-04-26T08:57:06.298Z</time></trkpt><trkpt lat="44.8196568" lon="9.2129919"><ele>458.0</ele><time>2026-04-26T08:57:07.298Z</time></trkpt><trkpt lat="44.8195967" lon="9.2131394"><ele>455.75</ele><time>2026-04-26T08:57:08.298Z</time></trkpt><trkpt lat="44.8194985" lon="9.2132681"><ele>453.5</ele><time>2026-04-26T08:57:09.298Z</time></trkpt><trkpt lat="44.8193735" lon="9.2133655"><ele>451.25</ele><time>2026-04-26T08:57:10.298Z</time></trkpt><trkpt lat="44.819234" lon="9.2134567"><ele>449.0</ele><time>2026-04-26T08:57:11.298Z</time></trkpt><trkpt lat="44.8191147" lon="9.2135384"><ele>448.25</ele><time>2026-04-26T08:57:12.298Z</time></trkpt><trkpt lat="44.8190061" lon="9.2136247"><ele>447.5</ele><time>2026-04-26T08:57:13.298Z</time></trkpt><trkpt lat="44.8188978" lon="9.2137141"><ele>446.75</ele><time>2026-04-26T08:57:14.298Z</time></trkpt><trkpt lat="44.8188014" lon="9.2137949"><ele>446.0</ele><time>2026-04-26T08:57:15.298Z</time></trkpt><trkpt lat="44.8186801" lon="9.2138567"><ele>447.3333333333333</ele><time>2026-04-26T08:57:16.298Z</time></trkpt><trkpt lat="44.8184469" lon="9.2138845"><ele>448.66666666666663</ele><time>2026-04-26T08:57:18.298Z</time></trkpt><trkpt lat="44.8183231" lon="9.213813"><ele>450.0</ele><time>2026-04-26T08:57:19.297Z</time></trkpt><trkpt lat="44.8181999" lon="9.2136909"><ele>450.0</ele><time>2026-04-26T08:57:20.298Z</time></trkpt><trkpt lat="44.8180811" lon="9.2135643"><ele>450.0</ele><time>2026-04-26T08:57:21.298Z</time></trkpt><trkpt lat="44.8179603" lon="9.2134551"><ele>450.0</ele><time>2026-04-26T08:57:22.298Z</time></trkpt><trkpt lat="44.8178454" lon="9.2133547"><ele>450.0</ele><time>2026-04-26T08:57:23.298Z</time></trkpt><trkpt lat="44.8177298" lon="9.2132689"><ele>451.0</ele><time>2026-04-26T08:57:24.298Z</time></trkpt><trkpt lat="44.8176156" lon="9.2131875"><ele>452.0</ele><time>2026-04-26T08:57:25.297Z</time></trkpt><trkpt lat="44.817491" lon="9.2131416"><ele>453.0</ele><time>2026-04-26T08:57:26.298Z</time></trkpt><trkpt lat="44.8173333" lon="9.2131497"><ele>454.0</ele><time>2026-04-26T08:57:27.298Z</time></trkpt><trkpt lat="44.8172025" lon="9.2131616"><ele>454.0</ele><time>2026-04-26T08:57:28.298Z</time></trkpt><trkpt lat="44.8170684" lon="9.2132113"><ele>454.0</ele><time>2026-04-26T08:57:29.298Z</time></trkpt><trkpt lat="44.8169342" lon="9.213276"><ele>454.0</ele><time>2026-04-26T08:57:30.298Z</time></trkpt><trkpt lat="44.8168045" lon="9.2133327"><ele>454.0</ele><time>2026-04-26T08:57:31.298Z</time></trkpt><trkpt lat="44.8166752" lon="9.2133882"><ele>453.5</ele><time>2026-04-26T08:57:32.298Z</time></trkpt><trkpt lat="44.8165417" lon="9.2134389"><ele>453.0</ele><time>2026-04-26T08:57:33.298Z</time></trkpt><trkpt lat="44.8164083" lon="9.213489"><ele>452.5</ele><time>2026-04-26T08:57:34.298Z</time></trkpt><trkpt lat="44.8162692" lon="9.2135476"><ele>452.0</ele><time>2026-04-26T08:57:35.298Z</time></trkpt><trkpt lat="44.8160054" lon="9.2137054"><ele>451.5</ele><time>2026-04-26T08:57:37.298Z</time></trkpt><trkpt lat="44.8158774" lon="9.2138012"><ele>451.0</ele><time>2026-04-26T08:57:38.298Z</time></trkpt><trkpt lat="44.8157538" lon="9.2138999"><ele>450.5</ele><time>2026-04-26T08:57:39.297Z</time></trkpt><trkpt lat="44.815627" lon="9.2139849"><ele>450.0</ele><time>2026-04-26T08:57:40.298Z</time></trkpt><trkpt lat="44.8155013" lon="9.2140557"><ele>451.0</ele><time>2026-04-26T08:57:41.298Z</time></trkpt><trkpt lat="44.8153716" lon="9.2141086"><ele>452.0</ele><time>2026-04-26T08:57:42.298Z</time></trkpt><trkpt lat="44.8152292" lon="9.2141398"><ele>453.0</ele><time>2026-04-26T08:57:43.298Z</time></trkpt><trkpt lat="44.8150623" lon="9.2141439"><ele>454.0</ele><time>2026-04-26T08:57:44.298Z</time></trkpt><trkpt lat="44.8149118" lon="9.21415"><ele>454.0</ele><time>2026-04-26T08:57:45.298Z</time></trkpt><trkpt lat="44.8147732" lon="9.2141559"><ele>454.0</ele><time>2026-04-26T08:57:46.298Z</time></trkpt><trkpt lat="44.8146348" lon="9.2141777"><ele>454.0</ele><time>2026-04-26T08:57:47.298Z</time></trkpt><trkpt lat="44.8145032" lon="9.2142336"><ele>454.0</ele><time>2026-04-26T08:57:48.298Z</time></trkpt><trkpt lat="44.8143808" lon="9.2143285"><ele>455.0</ele><time>2026-04-26T08:57:49.298Z</time></trkpt><trkpt lat="44.8142703" lon="9.2144642"><ele>456.0</ele><time>2026-04-26T08:57:50.298Z</time></trkpt><trkpt lat="44.8141839" lon="9.2146285"><ele>457.0</ele><time>2026-04-26T08:57:51.298Z</time></trkpt><trkpt lat="44.8141065" lon="9.2148113"><ele>458.0</ele><time>2026-04-26T08:57:52.298Z</time></trkpt><trkpt lat="44.8140373" lon="9.2149907"><ele>458.0</ele><time>2026-04-26T08:57:53.298Z</time></trkpt><trkpt lat="44.8139645" lon="9.2151779"><ele>458.0</ele><time>2026-04-26T08:57:54.298Z</time></trkpt><trkpt lat="44.8138887" lon="9.2153806"><ele>458.0</ele><time>2026-04-26T08:57:55.298Z</time></trkpt><trkpt lat="44.8138241" lon="9.2155668"><ele>459.3333333333333</ele><time>2026-04-26T08:57:56.298Z</time></trkpt><trkpt lat="44.8137499" lon="9.2157579"><ele>460.66666666666663</ele><time>2026-04-26T08:57:57.298Z</time></trkpt><trkpt lat="44.8136647" lon="9.2159511"><ele>462.0</ele><time>2026-04-26T08:57:58.297Z</time></trkpt><trkpt lat="44.8135525" lon="9.216135"><ele>462.33333333333337</ele><time>2026-04-26T08:57:59.298Z</time></trkpt><trkpt lat="44.8134116" lon="9.2162999"><ele>462.6666666666667</ele><time>2026-04-26T08:58:00.298Z</time></trkpt><trkpt lat="44.8132512" lon="9.2164438"><ele>463.0</ele><time>2026-04-26T08:58:01.298Z</time></trkpt><trkpt lat="44.8131011" lon="9.2165656"><ele>463.0</ele><time>2026-04-26T08:58:02.298Z</time></trkpt><trkpt lat="44.8129576" lon="9.2166735"><ele>463.0</ele><time>2026-04-26T08:58:03.297Z</time></trkpt><trkpt lat="44.8128159" lon="9.216783"><ele>463.0</ele><time>2026-04-26T08:58:04.297Z</time></trkpt><trkpt lat="44.8126816" lon="9.2168953"><ele>461.33333333333337</ele><time>2026-04-26T08:58:05.298Z</time></trkpt><trkpt lat="44.8125471" lon="9.2170138"><ele>459.66666666666663</ele><time>2026-04-26T08:58:06.298Z</time></trkpt><trkpt lat="44.8124137" lon="9.2171264"><ele>458.0</ele><time>2026-04-26T08:58:07.298Z</time></trkpt><trkpt lat="44.8122945" lon="9.217227"><ele>458.0</ele><time>2026-04-26T08:58:08.298Z</time></trkpt><trkpt lat="44.8120479" lon="9.2174425"><ele>458.0</ele><time>2026-04-26T08:58:10.298Z</time></trkpt><trkpt lat="44.8119201" lon="9.2175444"><ele>458.0</ele><time>2026-04-26T08:58:11.298Z</time></trkpt><trkpt lat="44.8117885" lon="9.2176396"><ele>458.0</ele><time>2026-04-26T08:58:12.298Z</time></trkpt><trkpt lat="44.8116608" lon="9.2177223"><ele>458.0</ele><time>2026-04-26T08:58:13.298Z</time></trkpt><trkpt lat="44.8115378" lon="9.2178008"><ele>458.0</ele><time>2026-04-26T08:58:14.298Z</time></trkpt><trkpt lat="44.8114131" lon="9.2178592"><ele>458.0</ele><time>2026-04-26T08:58:15.298Z</time></trkpt><trkpt lat="44.8112876" lon="9.2179255"><ele>458.0</ele><time>2026-04-26T08:58:16.298Z</time></trkpt><trkpt lat="44.8111726" lon="9.2180051"><ele>458.0</ele><time>2026-04-26T08:58:17.298Z</time></trkpt><trkpt lat="44.8110528" lon="9.2181027"><ele>458.0</ele><time>2026-04-26T08:58:18.298Z</time></trkpt><trkpt lat="44.8109345" lon="9.2182205"><ele>458.0</ele><time>2026-04-26T08:58:19.298Z</time></trkpt><trkpt lat="44.8107317" lon="9.2184889"><ele>458.0</ele><time>2026-04-26T08:58:21.298Z</time></trkpt><trkpt lat="44.8106388" lon="9.2186561"><ele>458.0</ele><time>2026-04-26T08:58:22.298Z</time></trkpt><trkpt lat="44.8105483" lon="9.2188434"><ele>458.0</ele><time>2026-04-26T08:58:23.298Z</time></trkpt><trkpt lat="44.8104692" lon="9.2190362"><ele>460.0</ele><time>2026-04-26T08:58:24.297Z</time></trkpt><trkpt lat="44.8103875" lon="9.2192362"><ele>462.0</ele><time>2026-04-26T08:58:25.298Z</time></trkpt><trkpt lat="44.8103102" lon="9.2194233"><ele>464.0</ele><time>2026-04-26T08:58:26.298Z</time></trkpt><trkpt lat="44.8102406" lon="9.2195982"><ele>464.0</ele><time>2026-04-26T08:58:27.298Z</time></trkpt><trkpt lat="44.8101777" lon="9.219761"><ele>464.0</ele><time>2026-04-26T08:58:28.298Z</time></trkpt><trkpt lat="44.8101111" lon="9.2199085"><ele>464.0</ele><time>2026-04-26T08:58:29.297Z</time></trkpt><trkpt lat="44.8100487" lon="9.2200363"><ele>464.0</ele><time>2026-04-26T08:58:30.298Z</time></trkpt><trkpt lat="44.8099617" lon="9.2201401"><ele>463.4</ele><time>2026-04-26T08:58:31.298Z</time></trkpt><trkpt lat="44.8098741" lon="9.2202235"><ele>462.79999999999995</ele><time>2026-04-26T08:58:32.298Z</time></trkpt><trkpt lat="44.8097823" lon="9.2202923"><ele>462.20000000000005</ele><time>2026-04-26T08:58:33.298Z</time></trkpt><trkpt lat="44.8096855" lon="9.2203427"><ele>461.6</ele><time>2026-04-26T08:58:34.298Z</time></trkpt><trkpt lat="44.809587" lon="9.2203796"><ele>461.0</ele><time>2026-04-26T08:58:35.298Z</time></trkpt><trkpt lat="44.809481" lon="9.2204143"><ele>461.0</ele><time>2026-04-26T08:58:36.298Z</time></trkpt><trkpt lat="44.8093705" lon="9.2204564"><ele>461.0</ele><time>2026-04-26T08:58:37.298Z</time></trkpt><trkpt lat="44.8092476" lon="9.2204997"><ele>461.0</ele><time>2026-04-26T08:58:38.298Z</time></trkpt><trkpt lat="44.8091145" lon="9.2205507"><ele>461.0</ele><time>2026-04-26T08:58:39.298Z</time></trkpt><trkpt lat="44.8089852" lon="9.2206113"><ele>461.75</ele><time>2026-04-26T08:58:40.297Z</time></trkpt><trkpt lat="44.8088611" lon="9.2206885"><ele>462.5</ele><time>2026-04-26T08:58:41.297Z</time></trkpt><trkpt lat="44.8087453" lon="9.220788"><ele>463.25</ele><time>2026-04-26T08:58:42.298Z</time></trkpt><trkpt lat="44.8086509" lon="9.2209263"><ele>464.0</ele><time>2026-04-26T08:58:43.298Z</time></trkpt><trkpt lat="44.8085733" lon="9.2211006"><ele>464.0</ele><time>2026-04-26T08:58:44.298Z</time></trkpt><trkpt lat="44.8085206" lon="9.2212939"><ele>464.0</ele><time>2026-04-26T08:58:45.297Z</time></trkpt><trkpt lat="44.8084744" lon="9.221484"><ele>464.0</ele><time>2026-04-26T08:58:46.298Z</time></trkpt><trkpt lat="44.8084222" lon="9.2216708"><ele>464.0</ele><time>2026-04-26T08:58:47.298Z</time></trkpt><trkpt lat="44.808363" lon="9.2218293"><ele>464.0</ele><time>2026-04-26T08:58:48.298Z</time></trkpt><trkpt lat="44.8082828" lon="9.2219589"><ele>464.0</ele><time>2026-04-26T08:58:49.298Z</time></trkpt><trkpt lat="44.808187" lon="9.2220358"><ele>464.0</ele><time>2026-04-26T08:58:50.298Z</time></trkpt><trkpt lat="44.8080807" lon="9.2220785"><ele>464.0</ele><time>2026-04-26T08:58:51.298Z</time></trkpt><trkpt lat="44.8079691" lon="9.2220908"><ele>464.0</ele><time>2026-04-26T08:58:52.297Z</time></trkpt><trkpt lat="44.8078558" lon="9.2220951"><ele>464.0</ele><time>2026-04-26T08:58:53.298Z</time></trkpt><trkpt lat="44.8077228" lon="9.2220964"><ele>464.0</ele><time>2026-04-26T08:58:54.298Z</time></trkpt><trkpt lat="44.8075821" lon="9.2221094"><ele>464.0</ele><time>2026-04-26T08:58:55.298Z</time></trkpt><trkpt lat="44.8074528" lon="9.2221092"><ele>464.0</ele><time>2026-04-26T08:58:56.298Z</time></trkpt><trkpt lat="44.8073192" lon="9.2221137"><ele>464.0</ele><time>2026-04-26T08:58:57.298Z</time></trkpt><trkpt lat="44.8071814" lon="9.2221408"><ele>464.0</ele><time>2026-04-26T08:58:58.298Z</time></trkpt><trkpt lat="44.8070612" lon="9.2221884"><ele>464.0</ele><time>2026-04-26T08:58:59.298Z</time></trkpt><trkpt lat="44.8069501" lon="9.2222746"><ele>465.25</ele><time>2026-04-26T08:59:00.298Z</time></trkpt><trkpt lat="44.8068515" lon="9.2223932"><ele>466.5</ele><time>2026-04-26T08:59:01.298Z</time></trkpt><trkpt lat="44.8067641" lon="9.2225212"><ele>467.75</ele><time>2026-04-26T08:59:02.298Z</time></trkpt><trkpt lat="44.8066839" lon="9.2226614"><ele>469.0</ele><time>2026-04-26T08:59:03.298Z</time></trkpt><trkpt lat="44.8065951" lon="9.2227923"><ele>469.0</ele><time>2026-04-26T08:59:04.298Z</time></trkpt><trkpt lat="44.8065095" lon="9.2229309"><ele>469.0</ele><time>2026-04-26T08:59:05.298Z</time></trkpt><trkpt lat="44.8064221" lon="9.2230642"><ele>469.0</ele><time>2026-04-26T08:59:06.298Z</time></trkpt><trkpt lat="44.8063567" lon="9.2232005"><ele>469.0</ele><time>2026-04-26T08:59:07.298Z</time></trkpt><trkpt lat="44.8062981" lon="9.223359"><ele>470.25</ele><time>2026-04-26T08:59:08.298Z</time></trkpt><trkpt lat="44.8062775" lon="9.2235188"><ele>471.5</ele><time>2026-04-26T08:59:09.298Z</time></trkpt><trkpt lat="44.8062966" lon="9.223675"><ele>472.75</ele><time>2026-04-26T08:59:10.298Z</time></trkpt><trkpt lat="44.8063501" lon="9.2238214"><ele>474.0</ele><time>2026-04-26T08:59:11.298Z</time></trkpt><trkpt lat="44.8064365" lon="9.2239478"><ele>475.25</ele><time>2026-04-26T08:59:12.298Z</time></trkpt><trkpt lat="44.8065225" lon="9.2240751"><ele>476.5</ele><time>2026-04-26T08:59:13.298Z</time></trkpt><trkpt lat="44.8065872" lon="9.2241995"><ele>477.75</ele><time>2026-04-26T08:59:14.297Z</time></trkpt><trkpt lat="44.8066455" lon="9.2243345"><ele>479.0</ele><time>2026-04-26T08:59:15.298Z</time></trkpt><trkpt lat="44.8066764" lon="9.2244874"><ele>479.0</ele><time>2026-04-26T08:59:16.298Z</time></trkpt><trkpt lat="44.8066866" lon="9.2246351"><ele>479.0</ele><time>2026-04-26T08:59:17.298Z</time></trkpt><trkpt lat="44.8066805" lon="9.2247939"><ele>479.0</ele><time>2026-04-26T08:59:18.298Z</time></trkpt><trkpt lat="44.8066578" lon="9.2249483"><ele>479.0</ele><time>2026-04-26T08:59:19.298Z</time></trkpt><trkpt lat="44.8066245" lon="9.2250893"><ele>479.0</ele><time>2026-04-26T08:59:20.298Z</time></trkpt><trkpt lat="44.8065718" lon="9.2252132"><ele>479.79999999999995</ele><time>2026-04-26T08:59:21.298Z</time></trkpt><trkpt lat="44.8064941" lon="9.2253158"><ele>480.59999999999997</ele><time>2026-04-26T08:59:22.298Z</time></trkpt><trkpt lat="44.8063986" lon="9.2253826"><ele>481.4</ele><time>2026-04-26T08:59:23.298Z</time></trkpt><trkpt lat="44.8062892" lon="9.2254353"><ele>482.2</ele><time>2026-04-26T08:59:24.298Z</time></trkpt><trkpt lat="44.8061706" lon="9.2254591"><ele>483.0</ele><time>2026-04-26T08:59:25.298Z</time></trkpt><trkpt lat="44.8060516" lon="9.2254782"><ele>482.25</ele><time>2026-04-26T08:59:26.298Z</time></trkpt><trkpt lat="44.8059341" lon="9.2255038"><ele>481.5</ele><time>2026-04-26T08:59:27.298Z</time></trkpt><trkpt lat="44.8058251" lon="9.2255478"><ele>480.75</ele><time>2026-04-26T08:59:28.298Z</time></trkpt><trkpt lat="44.8057143" lon="9.2256204"><ele>480.0</ele><time>2026-04-26T08:59:29.298Z</time></trkpt><trkpt lat="44.8056116" lon="9.2257198"><ele>481.4</ele><time>2026-04-26T08:59:30.298Z</time></trkpt><trkpt lat="44.8055257" lon="9.2258422"><ele>482.8</ele><time>2026-04-26T08:59:31.298Z</time></trkpt><trkpt lat="44.8054566" lon="9.2259789"><ele>484.20000000000005</ele><time>2026-04-26T08:59:32.298Z</time></trkpt><trkpt lat="44.8054075" lon="9.2261056"><ele>485.6</ele><time>2026-04-26T08:59:33.298Z</time></trkpt><trkpt lat="44.8053759" lon="9.226242"><ele>487.0</ele><time>2026-04-26T08:59:34.298Z</time></trkpt><trkpt lat="44.8053697" lon="9.2263865"><ele>488.6666666666667</ele><time>2026-04-26T08:59:35.298Z</time></trkpt><trkpt lat="44.8053804" lon="9.2265363"><ele>490.33333333333337</ele><time>2026-04-26T08:59:36.298Z</time></trkpt><trkpt lat="44.8054258" lon="9.2266768"><ele>492.0</ele><time>2026-04-26T08:59:37.298Z</time></trkpt><trkpt lat="44.8055429" lon="9.2269614"><ele>492.0</ele><time>2026-04-26T08:59:39.298Z</time></trkpt><trkpt lat="44.8056007" lon="9.2271259"><ele>492.0</ele><time>2026-04-26T08:59:40.298Z</time></trkpt><trkpt lat="44.8056563" lon="9.2272979"><ele>492.0</ele><time>2026-04-26T08:59:41.298Z</time></trkpt><trkpt lat="44.8057097" lon="9.2274759"><ele>492.0</ele><time>2026-04-26T08:59:42.298Z</time></trkpt><trkpt lat="44.8057533" lon="9.2276536"><ele>492.5</ele><time>2026-04-26T08:59:43.298Z</time></trkpt><trkpt lat="44.8057808" lon="9.2278166"><ele>493.0</ele><time>2026-04-26T08:59:44.298Z</time></trkpt><trkpt lat="44.8057867" lon="9.2279874"><ele>493.5</ele><time>2026-04-26T08:59:45.298Z</time></trkpt><trkpt lat="44.8057626" lon="9.2281668"><ele>494.0</ele><time>2026-04-26T08:59:46.297Z</time></trkpt><trkpt lat="44.8057137" lon="9.2283352"><ele>494.75</ele><time>2026-04-26T08:59:47.298Z</time></trkpt><trkpt lat="44.8056615" lon="9.228507"><ele>495.5</ele><time>2026-04-26T08:59:48.297Z</time></trkpt><trkpt lat="44.8056078" lon="9.228692"><ele>496.25</ele><time>2026-04-26T08:59:49.298Z</time></trkpt><trkpt lat="44.8055545" lon="9.2288677"><ele>497.0</ele><time>2026-04-26T08:59:50.297Z</time></trkpt><trkpt lat="44.8055083" lon="9.2290496"><ele>498.75</ele><time>2026-04-26T08:59:51.298Z</time></trkpt><trkpt lat="44.8054671" lon="9.2292328"><ele>500.5</ele><time>2026-04-26T08:59:52.298Z</time></trkpt><trkpt lat="44.8054334" lon="9.2294241"><ele>502.25</ele><time>2026-04-26T08:59:53.298Z</time></trkpt><trkpt lat="44.805417" lon="9.2296175"><ele>504.0</ele><time>2026-04-26T08:59:54.298Z</time></trkpt><trkpt lat="44.8054071" lon="9.2298055"><ele>505.25</ele><time>2026-04-26T08:59:55.298Z</time></trkpt><trkpt lat="44.8053993" lon="9.2299937"><ele>506.5</ele><time>2026-04-26T08:59:56.298Z</time></trkpt><trkpt lat="44.8053977" lon="9.230189"><ele>507.75</ele><time>2026-04-26T08:59:57.298Z</time></trkpt><trkpt lat="44.8053993" lon="9.230397"><ele>509.0</ele><time>2026-04-26T08:59:58.297Z</time></trkpt><trkpt lat="44.8053892" lon="9.2305968"><ele>509.5</ele><time>2026-04-26T08:59:59.298Z</time></trkpt><trkpt lat="44.8053679" lon="9.2307857"><ele>510.0</ele><time>2026-04-26T09:00:00.298Z</time></trkpt><trkpt lat="44.805339" lon="9.2309568"><ele>510.5</ele><time>2026-04-26T09:00:01.298Z</time></trkpt><trkpt lat="44.8052751" lon="9.2311303"><ele>511.0</ele><time>2026-04-26T09:00:02.298Z</time></trkpt><trkpt lat="44.8051904" lon="9.231283"><ele>509.5</ele><time>2026-04-26T09:00:03.298Z</time></trkpt><trkpt lat="44.8050967" lon="9.2314168"><ele>508.0</ele><time>2026-04-26T09:00:04.297Z</time></trkpt><trkpt lat="44.8050198" lon="9.2315676"><ele>506.5</ele><time>2026-04-26T09:00:05.298Z</time></trkpt><trkpt lat="44.8049648" lon="9.2317501"><ele>505.0</ele><time>2026-04-26T09:00:06.298Z</time></trkpt><trkpt lat="44.804919" lon="9.2319256"><ele>505.0</ele><time>2026-04-26T09:00:07.298Z</time></trkpt><trkpt lat="44.8048725" lon="9.2321125"><ele>505.0</ele><time>2026-04-26T09:00:08.298Z</time></trkpt><trkpt lat="44.8048333" lon="9.2322763"><ele>505.0</ele><time>2026-04-26T09:00:09.298Z</time></trkpt><trkpt lat="44.8048012" lon="9.2324474"><ele>505.0</ele><time>2026-04-26T09:00:10.298Z</time></trkpt><trkpt lat="44.8047728" lon="9.2326207"><ele>505.75</ele><time>2026-04-26T09:00:11.298Z</time></trkpt><trkpt lat="44.8047561" lon="9.2328085"><ele>506.5</ele><time>2026-04-26T09:00:12.298Z</time></trkpt><trkpt lat="44.8047519" lon="9.2330046"><ele>507.25</ele><time>2026-04-26T09:00:13.298Z</time></trkpt><trkpt lat="44.8047503" lon="9.2331996"><ele>508.0</ele><time>2026-04-26T09:00:14.298Z</time></trkpt><trkpt lat="44.804755" lon="9.2334032"><ele>508.0</ele><time>2026-04-26T09:00:15.298Z</time></trkpt><trkpt lat="44.8047659" lon="9.2336055"><ele>508.0</ele><time>2026-04-26T09:00:16.298Z</time></trkpt><trkpt lat="44.8047778" lon="9.2338052"><ele>508.0</ele><time>2026-04-26T09:00:17.298Z</time></trkpt><trkpt lat="44.80479" lon="9.2340117"><ele>508.0</ele><time>2026-04-26T09:00:18.298Z</time></trkpt><trkpt lat="44.8047852" lon="9.2342208"><ele>508.5</ele><time>2026-04-26T09:00:19.298Z</time></trkpt><trkpt lat="44.8047545" lon="9.234421"><ele>509.0</ele><time>2026-04-26T09:00:20.298Z</time></trkpt><trkpt lat="44.8046914" lon="9.2346044"><ele>509.5</ele><time>2026-04-26T09:00:21.298Z</time></trkpt><trkpt lat="44.8046373" lon="9.2347919"><ele>510.0</ele><time>2026-04-26T09:00:22.298Z</time></trkpt><trkpt lat="44.8045888" lon="9.2349729"><ele>511.25</ele><time>2026-04-26T09:00:23.298Z</time></trkpt><trkpt lat="44.8045422" lon="9.2351503"><ele>512.5</ele><time>2026-04-26T09:00:24.298Z</time></trkpt><trkpt lat="44.8044964" lon="9.2353289"><ele>513.75</ele><time>2026-04-26T09:00:25.298Z</time></trkpt><trkpt lat="44.8044542" lon="9.2355112"><ele>515.0</ele><time>2026-04-26T09:00:26.298Z</time></trkpt><trkpt lat="44.8044137" lon="9.2356999"><ele>516.25</ele><time>2026-04-26T09:00:27.298Z</time></trkpt><trkpt lat="44.8043809" lon="9.2358951"><ele>517.5</ele><time>2026-04-26T09:00:28.298Z</time></trkpt><trkpt lat="44.8043576" lon="9.2360964"><ele>518.75</ele><time>2026-04-26T09:00:29.298Z</time></trkpt><trkpt lat="44.8043411" lon="9.2362968"><ele>520.0</ele><time>2026-04-26T09:00:30.298Z</time></trkpt><trkpt lat="44.8043348" lon="9.2364969"><ele>521.0</ele><time>2026-04-26T09:00:31.298Z</time></trkpt><trkpt lat="44.8043317" lon="9.236699"><ele>522.0</ele><time>2026-04-26T09:00:32.298Z</time></trkpt><trkpt lat="44.8043271" lon="9.2369022"><ele>523.0</ele><time>2026-04-26T09:00:33.298Z</time></trkpt><trkpt lat="44.8043212" lon="9.2371056"><ele>524.0</ele><time>2026-04-26T09:00:34.298Z</time></trkpt><trkpt lat="44.8043172" lon="9.23731"><ele>519.5</ele><time>2026-04-26T09:00:35.297Z</time></trkpt><trkpt lat="44.8043082" lon="9.2375101"><ele>515.0</ele><time>2026-04-26T09:00:36.298Z</time></trkpt><trkpt lat="44.8042972" lon="9.2377077"><ele>510.5</ele><time>2026-04-26T09:00:37.298Z</time></trkpt><trkpt lat="44.8042847" lon="9.2379077"><ele>506.0</ele><time>2026-04-26T09:00:38.298Z</time></trkpt><trkpt lat="44.8042741" lon="9.2381104"><ele>506.5</ele><time>2026-04-26T09:00:39.298Z</time></trkpt><trkpt lat="44.8042637" lon="9.2383035"><ele>507.0</ele><time>2026-04-26T09:00:40.297Z</time></trkpt><trkpt lat="44.8042234" lon="9.2384832"><ele>507.5</ele><time>2026-04-26T09:00:41.298Z</time></trkpt><trkpt lat="44.8041524" lon="9.2386603"><ele>508.0</ele><time>2026-04-26T09:00:42.298Z</time></trkpt><trkpt lat="44.8040714" lon="9.2388163"><ele>508.0</ele><time>2026-04-26T09:00:43.297Z</time></trkpt><trkpt lat="44.8039629" lon="9.2389506"><ele>508.0</ele><time>2026-04-26T09:00:44.298Z</time></trkpt><trkpt lat="44.8038379" lon="9.2390657"><ele>508.0</ele><time>2026-04-26T09:00:45.298Z</time></trkpt><trkpt lat="44.8037025" lon="9.2391539"><ele>508.0</ele><time>2026-04-26T09:00:46.298Z</time></trkpt><trkpt lat="44.8035631" lon="9.2392279"><ele>504.0</ele><time>2026-04-26T09:00:47.298Z</time></trkpt><trkpt lat="44.8034227" lon="9.2393"><ele>500.0</ele><time>2026-04-26T09:00:48.298Z</time></trkpt><trkpt lat="44.8032824" lon="9.2393864"><ele>496.0</ele><time>2026-04-26T09:00:49.298Z</time></trkpt><trkpt lat="44.8031421" lon="9.2394667"><ele>496.0</ele><time>2026-04-26T09:00:50.298Z</time></trkpt><trkpt lat="44.8029923" lon="9.2395663"><ele>496.0</ele><time>2026-04-26T09:00:51.298Z</time></trkpt><trkpt lat="44.8028323" lon="9.2396685"><ele>496.0</ele><time>2026-04-26T09:00:52.298Z</time></trkpt><trkpt lat="44.8026714" lon="9.2397678"><ele>499.33333333333337</ele><time>2026-04-26T09:00:53.298Z</time></trkpt><trkpt lat="44.8025112" lon="9.239861"><ele>502.66666666666663</ele><time>2026-04-26T09:00:54.298Z</time></trkpt><trkpt lat="44.80236" lon="9.2399547"><ele>506.0</ele><time>2026-04-26T09:00:55.298Z</time></trkpt><trkpt lat="44.8022298" lon="9.2400426"><ele>506.0</ele><time>2026-04-26T09:00:56.298Z</time></trkpt><trkpt lat="44.8021102" lon="9.2401231"><ele>506.0</ele><time>2026-04-26T09:00:57.298Z</time></trkpt><trkpt lat="44.8019969" lon="9.2401966"><ele>506.0</ele><time>2026-04-26T09:00:58.298Z</time></trkpt><trkpt lat="44.8018838" lon="9.2402666"><ele>506.0</ele><time>2026-04-26T09:00:59.298Z</time></trkpt><trkpt lat="44.8017764" lon="9.2403371"><ele>507.25</ele><time>2026-04-26T09:01:00.298Z</time></trkpt><trkpt lat="44.8016699" lon="9.2404043"><ele>508.5</ele><time>2026-04-26T09:01:01.298Z</time></trkpt><trkpt lat="44.8015623" lon="9.2404683"><ele>509.75</ele><time>2026-04-26T09:01:02.298Z</time></trkpt><trkpt lat="44.8014497" lon="9.2405337"><ele>511.0</ele><time>2026-04-26T09:01:03.298Z</time></trkpt><trkpt lat="44.8013407" lon="9.2406016"><ele>512.5</ele><time>2026-04-26T09:01:04.298Z</time></trkpt><trkpt lat="44.8012388" lon="9.2406738"><ele>514.0</ele><time>2026-04-26T09:01:05.298Z</time></trkpt><trkpt lat="44.8011361" lon="9.2407456"><ele>515.5</ele><time>2026-04-26T09:01:06.298Z</time></trkpt><trkpt lat="44.8010348" lon="9.2408141"><ele>517.0</ele><time>2026-04-26T09:01:07.298Z</time></trkpt><trkpt lat="44.8009231" lon="9.2408848"><ele>517.0</ele><time>2026-04-26T09:01:08.298Z</time></trkpt><trkpt lat="44.8008016" lon="9.240964"><ele>517.0</ele><time>2026-04-26T09:01:09.298Z</time></trkpt><trkpt lat="44.800677" lon="9.2410467"><ele>517.0</ele><time>2026-04-26T09:01:10.298Z</time></trkpt><trkpt lat="44.8005534" lon="9.2411426"><ele>517.0</ele><time>2026-04-26T09:01:11.298Z</time></trkpt><trkpt lat="44.8004287" lon="9.2412569"><ele>517.0</ele><time>2026-04-26T09:01:12.298Z</time></trkpt><trkpt lat="44.8003137" lon="9.2413873"><ele>517.0</ele><time>2026-04-26T09:01:13.298Z</time></trkpt><trkpt lat="44.800196" lon="9.2415227"><ele>517.0</ele><time>2026-04-26T09:01:14.298Z</time></trkpt><trkpt lat="44.8000883" lon="9.2416402"><ele>517.0</ele><time>2026-04-26T09:01:15.298Z</time></trkpt><trkpt lat="44.7999856" lon="9.2417203"><ele>518.2</ele><time>2026-04-26T09:01:16.298Z</time></trkpt><trkpt lat="44.7998861" lon="9.241752"><ele>519.4000000000001</ele><time>2026-04-26T09:01:17.298Z</time></trkpt><trkpt lat="44.7997917" lon="9.2417304"><ele>520.5999999999999</ele><time>2026-04-26T09:01:18.298Z</time></trkpt><trkpt lat="44.7996922" lon="9.24167"><ele>521.8</ele><time>2026-04-26T09:01:19.297Z</time></trkpt><trkpt lat="44.7995992" lon="9.2415607"><ele>523.0</ele><time>2026-04-26T09:01:20.296Z</time></trkpt><trkpt lat="44.7995247" lon="9.2414279"><ele>523.0</ele><time>2026-04-26T09:01:21.297Z</time></trkpt><trkpt lat="44.7994845" lon="9.2412605"><ele>523.0</ele><time>2026-04-26T09:01:22.296Z</time></trkpt><trkpt lat="44.7994696" lon="9.2410723"><ele>523.0</ele><time>2026-04-26T09:01:23.296Z</time></trkpt><trkpt lat="44.7994659" lon="9.2408729"><ele>523.0</ele><time>2026-04-26T09:01:24.297Z</time></trkpt><trkpt lat="44.7994657" lon="9.2406687"><ele>523.5</ele><time>2026-04-26T09:01:25.297Z</time></trkpt><trkpt lat="44.7994611" lon="9.2404768"><ele>524.0</ele><time>2026-04-26T09:01:26.297Z</time></trkpt><trkpt lat="44.7994564" lon="9.2403042"><ele>524.5</ele><time>2026-04-26T09:01:27.297Z</time></trkpt><trkpt lat="44.7994437" lon="9.2401403"><ele>525.0</ele><time>2026-04-26T09:01:28.297Z</time></trkpt><trkpt lat="44.7994234" lon="9.2399798"><ele>525.0</ele><time>2026-04-26T09:01:29.297Z</time></trkpt><trkpt lat="44.799396" lon="9.2398222"><ele>525.0</ele><time>2026-04-26T09:01:30.296Z</time></trkpt><trkpt lat="44.79937" lon="9.2396574"><ele>525.0</ele><time>2026-04-26T09:01:31.297Z</time></trkpt><trkpt lat="44.7993444" lon="9.2394935"><ele>525.0</ele><time>2026-04-26T09:01:32.296Z</time></trkpt><trkpt lat="44.7993319" lon="9.2393254"><ele>524.0</ele><time>2026-04-26T09:01:33.297Z</time></trkpt><trkpt lat="44.7993399" lon="9.2391487"><ele>523.0</ele><time>2026-04-26T09:01:34.297Z</time></trkpt><trkpt lat="44.7993567" lon="9.2389703"><ele>522.0</ele><time>2026-04-26T09:01:35.297Z</time></trkpt><trkpt lat="44.799375" lon="9.2387878"><ele>521.0</ele><time>2026-04-26T09:01:36.297Z</time></trkpt><trkpt lat="44.799395" lon="9.2386054"><ele>520.0</ele><time>2026-04-26T09:01:37.297Z</time></trkpt><trkpt lat="44.7994108" lon="9.2384328"><ele>519.0</ele><time>2026-04-26T09:01:38.297Z</time></trkpt><trkpt lat="44.7994031" lon="9.2382699"><ele>518.0</ele><time>2026-04-26T09:01:39.297Z</time></trkpt><trkpt lat="44.7993811" lon="9.2381228"><ele>517.0</ele><time>2026-04-26T09:01:40.297Z</time></trkpt><trkpt lat="44.7993337" lon="9.237987"><ele>521.75</ele><time>2026-04-26T09:01:41.297Z</time></trkpt><trkpt lat="44.79926" lon="9.237866"><ele>526.5</ele><time>2026-04-26T09:01:42.297Z</time></trkpt><trkpt lat="44.7991569" lon="9.2377654"><ele>531.25</ele><time>2026-04-26T09:01:43.297Z</time></trkpt><trkpt lat="44.799043" lon="9.2376982"><ele>536.0</ele><time>2026-04-26T09:01:44.297Z</time></trkpt><trkpt lat="44.7989286" lon="9.2376613"><ele>536.0</ele><time>2026-04-26T09:01:45.297Z</time></trkpt><trkpt lat="44.7988109" lon="9.2376607"><ele>536.0</ele><time>2026-04-26T09:01:46.297Z</time></trkpt><trkpt lat="44.7986798" lon="9.2376775"><ele>536.0</ele><time>2026-04-26T09:01:47.297Z</time></trkpt><trkpt lat="44.7985451" lon="9.237694"><ele>536.0</ele><time>2026-04-26T09:01:48.297Z</time></trkpt><trkpt lat="44.7984116" lon="9.2376681"><ele>537.0</ele><time>2026-04-26T09:01:49.297Z</time></trkpt><trkpt lat="44.7982859" lon="9.2376046"><ele>538.0</ele><time>2026-04-26T09:01:50.297Z</time></trkpt><trkpt lat="44.7981644" lon="9.2375114"><ele>539.0</ele><time>2026-04-26T09:01:51.297Z</time></trkpt><trkpt lat="44.7980511" lon="9.2374004"><ele>540.0</ele><time>2026-04-26T09:01:52.297Z</time></trkpt><trkpt lat="44.7979473" lon="9.2372809"><ele>540.0</ele><time>2026-04-26T09:01:53.296Z</time></trkpt><trkpt lat="44.7978545" lon="9.2371569"><ele>540.0</ele><time>2026-04-26T09:01:54.296Z</time></trkpt><trkpt lat="44.7977591" lon="9.237049"><ele>540.0</ele><time>2026-04-26T09:01:55.297Z</time></trkpt><trkpt lat="44.797668" lon="9.2369642"><ele>540.0</ele><time>2026-04-26T09:01:56.297Z</time></trkpt><trkpt lat="44.7975769" lon="9.2369084"><ele>541.6</ele><time>2026-04-26T09:01:57.297Z</time></trkpt><trkpt lat="44.7974765" lon="9.2368891"><ele>543.2</ele><time>2026-04-26T09:01:58.297Z</time></trkpt><trkpt lat="44.7973702" lon="9.2368961"><ele>544.8</ele><time>2026-04-26T09:01:59.297Z</time></trkpt><trkpt lat="44.7972626" lon="9.2369058"><ele>546.4</ele><time>2026-04-26T09:02:00.297Z</time></trkpt><trkpt lat="44.797154" lon="9.2369014"><ele>548.0</ele><time>2026-04-26T09:02:01.297Z</time></trkpt><trkpt lat="44.7970493" lon="9.2368668"><ele>548.0</ele><time>2026-04-26T09:02:02.297Z</time></trkpt><trkpt lat="44.7969462" lon="9.2367987"><ele>548.0</ele><time>2026-04-26T09:02:03.297Z</time></trkpt><trkpt lat="44.7968554" lon="9.2366992"><ele>548.0</ele><time>2026-04-26T09:02:04.297Z</time></trkpt><trkpt lat="44.7967854" lon="9.2365894"><ele>548.0</ele><time>2026-04-26T09:02:05.297Z</time></trkpt><trkpt lat="44.7967414" lon="9.2364676"><ele>548.0</ele><time>2026-04-26T09:02:06.297Z</time></trkpt><trkpt lat="44.7967296" lon="9.2363359"><ele>547.0</ele><time>2026-04-26T09:02:07.297Z</time></trkpt><trkpt lat="44.7967532" lon="9.236185"><ele>546.0</ele><time>2026-04-26T09:02:08.296Z</time></trkpt><trkpt lat="44.7967939" lon="9.2360158"><ele>545.0</ele><time>2026-04-26T09:02:09.297Z</time></trkpt><trkpt lat="44.7968433" lon="9.2358304"><ele>544.0</ele><time>2026-04-26T09:02:10.297Z</time></trkpt><trkpt lat="44.7968876" lon="9.2356417"><ele>544.75</ele><time>2026-04-26T09:02:11.297Z</time></trkpt><trkpt lat="44.7969143" lon="9.2354497"><ele>545.5</ele><time>2026-04-26T09:02:12.297Z</time></trkpt><trkpt lat="44.7969372" lon="9.2352638"><ele>546.25</ele><time>2026-04-26T09:02:13.297Z</time></trkpt><trkpt lat="44.7969744" lon="9.2350919"><ele>547.0</ele><time>2026-04-26T09:02:14.297Z</time></trkpt><trkpt lat="44.797025" lon="9.2349459"><ele>547.0</ele><time>2026-04-26T09:02:15.296Z</time></trkpt><trkpt lat="44.7970936" lon="9.2348204"><ele>547.0</ele><time>2026-04-26T09:02:16.297Z</time></trkpt><trkpt lat="44.7971484" lon="9.2347078"><ele>547.0</ele><time>2026-04-26T09:02:17.297Z</time></trkpt><trkpt lat="44.7971728" lon="9.2345869"><ele>547.0</ele><time>2026-04-26T09:02:18.297Z</time></trkpt><trkpt lat="44.797162" lon="9.234467"><ele>547.0</ele><time>2026-04-26T09:02:19.297Z</time></trkpt><trkpt lat="44.7971286" lon="9.2343526"><ele>546.5</ele><time>2026-04-26T09:02:20.297Z</time></trkpt><trkpt lat="44.7970624" lon="9.2342505"><ele>546.0</ele><time>2026-04-26T09:02:21.297Z</time></trkpt><trkpt lat="44.796962" lon="9.2341624"><ele>545.5</ele><time>2026-04-26T09:02:22.297Z</time></trkpt><trkpt lat="44.7968541" lon="9.2340806"><ele>545.0</ele><time>2026-04-26T09:02:23.297Z</time></trkpt><trkpt lat="44.7967393" lon="9.2340165"><ele>550.25</ele><time>2026-04-26T09:02:24.297Z</time></trkpt><trkpt lat="44.7966243" lon="9.2339805"><ele>555.5</ele><time>2026-04-26T09:02:25.297Z</time></trkpt><trkpt lat="44.7965177" lon="9.2339783"><ele>560.75</ele><time>2026-04-26T09:02:26.297Z</time></trkpt><trkpt lat="44.7964078" lon="9.2340198"><ele>566.0</ele><time>2026-04-26T09:02:27.297Z</time></trkpt><trkpt lat="44.7963019" lon="9.2340878"><ele>566.0</ele><time>2026-04-26T09:02:28.297Z</time></trkpt><trkpt lat="44.7961939" lon="9.2341701"><ele>566.0</ele><time>2026-04-26T09:02:29.296Z</time></trkpt><trkpt lat="44.7960912" lon="9.2342455"><ele>566.0</ele><time>2026-04-26T09:02:30.297Z</time></trkpt><trkpt lat="44.7959785" lon="9.2343014"><ele>566.0</ele><time>2026-04-26T09:02:31.297Z</time></trkpt><trkpt lat="44.7958729" lon="9.2343148"><ele>567.6</ele><time>2026-04-26T09:02:32.296Z</time></trkpt><trkpt lat="44.7957718" lon="9.2342793"><ele>569.2</ele><time>2026-04-26T09:02:33.297Z</time></trkpt><trkpt lat="44.795671" lon="9.2341904"><ele>570.8</ele><time>2026-04-26T09:02:34.297Z</time></trkpt><trkpt lat="44.7955844" lon="9.2341258"><ele>572.4</ele><time>2026-04-26T09:02:35.296Z</time></trkpt><trkpt lat="44.7955006" lon="9.2341078"><ele>574.0</ele><time>2026-04-26T09:02:36.297Z</time></trkpt><trkpt lat="44.7954077" lon="9.2341428"><ele>574.0</ele><time>2026-04-26T09:02:37.297Z</time></trkpt><trkpt lat="44.79532" lon="9.2341884"><ele>574.0</ele><time>2026-04-26T09:02:38.296Z</time></trkpt><trkpt lat="44.7952358" lon="9.2342132"><ele>574.0</ele><time>2026-04-26T09:02:39.297Z</time></trkpt><trkpt lat="44.7951526" lon="9.2342058"><ele>574.0</ele><time>2026-04-26T09:02:40.297Z</time></trkpt><trkpt lat="44.7950697" lon="9.2341409"><ele>574.0</ele><time>2026-04-26T09:02:41.297Z</time></trkpt><trkpt lat="44.7950169" lon="9.2340347"><ele>574.2</ele><time>2026-04-26T09:02:42.297Z</time></trkpt><trkpt lat="44.7949961" lon="9.2338873"><ele>574.4</ele><time>2026-04-26T09:02:43.297Z</time></trkpt><trkpt lat="44.7949751" lon="9.2337275"><ele>574.6</ele><time>2026-04-26T09:02:44.297Z</time></trkpt><trkpt lat="44.7949328" lon="9.2335693"><ele>574.8</ele><time>2026-04-26T09:02:45.297Z</time></trkpt><trkpt lat="44.7948641" lon="9.2334621"><ele>575.0</ele><time>2026-04-26T09:02:46.297Z</time></trkpt><trkpt lat="44.7947713" lon="9.2333965"><ele>575.0</ele><time>2026-04-26T09:02:47.297Z</time></trkpt><trkpt lat="44.7946532" lon="9.2333602"><ele>575.0</ele><time>2026-04-26T09:02:48.296Z</time></trkpt><trkpt lat="44.7945207" lon="9.2333466"><ele>575.0</ele><time>2026-04-26T09:02:49.297Z</time></trkpt><trkpt lat="44.7943719" lon="9.2333661"><ele>575.0</ele><time>2026-04-26T09:02:50.297Z</time></trkpt><trkpt lat="44.7942255" lon="9.233421"><ele>576.0</ele><time>2026-04-26T09:02:51.297Z</time></trkpt><trkpt lat="44.7940805" lon="9.2334993"><ele>577.0</ele><time>2026-04-26T09:02:52.296Z</time></trkpt><trkpt lat="44.7939425" lon="9.2335753"><ele>578.0</ele><time>2026-04-26T09:02:53.297Z</time></trkpt><trkpt lat="44.7938111" lon="9.2336355"><ele>579.0</ele><time>2026-04-26T09:02:54.297Z</time></trkpt><trkpt lat="44.7936858" lon="9.2336839"><ele>579.0</ele><time>2026-04-26T09:02:55.296Z</time></trkpt><trkpt lat="44.7935685" lon="9.2337118"><ele>579.0</ele><time>2026-04-26T09:02:56.297Z</time></trkpt><trkpt lat="44.7934472" lon="9.2337166"><ele>579.0</ele><time>2026-04-26T09:02:57.297Z</time></trkpt><trkpt lat="44.7933187" lon="9.2336996"><ele>579.0</ele><time>2026-04-26T09:02:58.297Z</time></trkpt><trkpt lat="44.7931953" lon="9.2336749"><ele>579.75</ele><time>2026-04-26T09:02:59.297Z</time></trkpt><trkpt lat="44.7930732" lon="9.2336432"><ele>580.5</ele><time>2026-04-26T09:03:00.297Z</time></trkpt><trkpt lat="44.7929516" lon="9.2336229"><ele>581.25</ele><time>2026-04-26T09:03:01.297Z</time></trkpt><trkpt lat="44.7928383" lon="9.2336059"><ele>582.0</ele><time>2026-04-26T09:03:02.297Z</time></trkpt><trkpt lat="44.7927313" lon="9.2336174"><ele>582.2</ele><time>2026-04-26T09:03:03.297Z</time></trkpt><trkpt lat="44.7926391" lon="9.233661"><ele>582.4000000000001</ele><time>2026-04-26T09:03:04.297Z</time></trkpt><trkpt lat="44.7925637" lon="9.2337427"><ele>582.5999999999999</ele><time>2026-04-26T09:03:05.297Z</time></trkpt><trkpt lat="44.7925101" lon="9.2338581"><ele>582.8</ele><time>2026-04-26T09:03:06.297Z</time></trkpt><trkpt lat="44.7924821" lon="9.2340088"><ele>583.0</ele><time>2026-04-26T09:03:07.297Z</time></trkpt><trkpt lat="44.7924778" lon="9.2341708"><ele>585.0</ele><time>2026-04-26T09:03:08.297Z</time></trkpt><trkpt lat="44.7924762" lon="9.2343327"><ele>587.0</ele><time>2026-04-26T09:03:09.297Z</time></trkpt><trkpt lat="44.7924715" lon="9.2345102"><ele>589.0</ele><time>2026-04-26T09:03:10.297Z</time></trkpt><trkpt lat="44.7924624" lon="9.2346798"><ele>591.0</ele><time>2026-04-26T09:03:11.297Z</time></trkpt><trkpt lat="44.7924367" lon="9.2348279"><ele>592.8</ele><time>2026-04-26T09:03:12.297Z</time></trkpt><trkpt lat="44.7923956" lon="9.2349424"><ele>594.6</ele><time>2026-04-26T09:03:13.297Z</time></trkpt><trkpt lat="44.7923314" lon="9.2350106"><ele>596.4</ele><time>2026-04-26T09:03:14.297Z</time></trkpt><trkpt lat="44.7922439" lon="9.2350424"><ele>598.2</ele><time>2026-04-26T09:03:15.297Z</time></trkpt><trkpt lat="44.7921385" lon="9.2350251"><ele>600.0</ele><time>2026-04-26T09:03:16.297Z</time></trkpt><trkpt lat="44.7920209" lon="9.2349566"><ele>600.0</ele><time>2026-04-26T09:03:17.297Z</time></trkpt><trkpt lat="44.7919068" lon="9.2348589"><ele>600.0</ele><time>2026-04-26T09:03:18.297Z</time></trkpt><trkpt lat="44.7918029" lon="9.2347636"><ele>600.0</ele><time>2026-04-26T09:03:19.297Z</time></trkpt><trkpt lat="44.7917092" lon="9.2346865"><ele>600.0</ele><time>2026-04-26T09:03:20.297Z</time></trkpt><trkpt lat="44.7916157" lon="9.2346243"><ele>600.2</ele><time>2026-04-26T09:03:21.297Z</time></trkpt><trkpt lat="44.7915169" lon="9.23459"><ele>600.4</ele><time>2026-04-26T09:03:22.297Z</time></trkpt><trkpt lat="44.7914189" lon="9.2345956"><ele>600.6</ele><time>2026-04-26T09:03:23.297Z</time></trkpt><trkpt lat="44.7913188" lon="9.2346445"><ele>600.8</ele><time>2026-04-26T09:03:24.297Z</time></trkpt><trkpt lat="44.7912125" lon="9.2347216"><ele>601.0</ele><time>2026-04-26T09:03:25.297Z</time></trkpt><trkpt lat="44.7910948" lon="9.2348172"><ele>600.0</ele><time>2026-04-26T09:03:26.297Z</time></trkpt><trkpt lat="44.7909652" lon="9.2349119"><ele>599.0</ele><time>2026-04-26T09:03:27.297Z</time></trkpt><trkpt lat="44.7908298" lon="9.2350012"><ele>598.0</ele><time>2026-04-26T09:03:28.297Z</time></trkpt><trkpt lat="44.7906969" lon="9.2350833"><ele>597.0</ele><time>2026-04-26T09:03:29.297Z</time></trkpt><trkpt lat="44.7905802" lon="9.2351652"><ele>597.0</ele><time>2026-04-26T09:03:30.297Z</time></trkpt><trkpt lat="44.7904746" lon="9.235245"><ele>597.0</ele><time>2026-04-26T09:03:31.297Z</time></trkpt><trkpt lat="44.7903764" lon="9.2353388"><ele>597.0</ele><time>2026-04-26T09:03:32.297Z</time></trkpt><trkpt lat="44.790287" lon="9.2354492"><ele>597.0</ele><time>2026-04-26T09:03:33.297Z</time></trkpt><trkpt lat="44.7902104" lon="9.2355759"><ele>597.75</ele><time>2026-04-26T09:03:34.297Z</time></trkpt><trkpt lat="44.7901397" lon="9.2357246"><ele>598.5</ele><time>2026-04-26T09:03:35.297Z</time></trkpt><trkpt lat="44.7900804" lon="9.2358783"><ele>599.25</ele><time>2026-04-26T09:03:36.297Z</time></trkpt><trkpt lat="44.7900219" lon="9.2360351"><ele>600.0</ele><time>2026-04-26T09:03:37.297Z</time></trkpt><trkpt lat="44.7899561" lon="9.236176"><ele>600.0</ele><time>2026-04-26T09:03:38.297Z</time></trkpt><trkpt lat="44.7898732" lon="9.2363049"><ele>600.0</ele><time>2026-04-26T09:03:39.297Z</time></trkpt><trkpt lat="44.7897721" lon="9.2364109"><ele>600.0</ele><time>2026-04-26T09:03:40.297Z</time></trkpt><trkpt lat="44.7896579" lon="9.2365008"><ele>600.0</ele><time>2026-04-26T09:03:41.297Z</time></trkpt><trkpt lat="44.7895428" lon="9.2365887"><ele>600.0</ele><time>2026-04-26T09:03:42.297Z</time></trkpt><trkpt lat="44.7894419" lon="9.2366954"><ele>600.0</ele><time>2026-04-26T09:03:43.297Z</time></trkpt><trkpt lat="44.7893469" lon="9.2368174"><ele>600.0</ele><time>2026-04-26T09:03:44.297Z</time></trkpt><trkpt lat="44.789271" lon="9.2369527"><ele>600.0</ele><time>2026-04-26T09:03:45.297Z</time></trkpt><trkpt lat="44.7892182" lon="9.2370931"><ele>600.0</ele><time>2026-04-26T09:03:46.296Z</time></trkpt><trkpt lat="44.7891709" lon="9.2372365"><ele>600.0</ele><time>2026-04-26T09:03:47.297Z</time></trkpt><trkpt lat="44.7891445" lon="9.2373968"><ele>600.0</ele><time>2026-04-26T09:03:48.297Z</time></trkpt><trkpt lat="44.7891361" lon="9.2375597"><ele>600.0</ele><time>2026-04-26T09:03:49.296Z</time></trkpt><trkpt lat="44.7891173" lon="9.2377158"><ele>601.8</ele><time>2026-04-26T09:03:50.297Z</time></trkpt><trkpt lat="44.7890853" lon="9.2378512"><ele>603.6</ele><time>2026-04-26T09:03:51.297Z</time></trkpt><trkpt lat="44.7890357" lon="9.2379706"><ele>605.4</ele><time>2026-04-26T09:03:52.297Z</time></trkpt><trkpt lat="44.788969" lon="9.2380906"><ele>607.2</ele><time>2026-04-26T09:03:53.296Z</time></trkpt><trkpt lat="44.7888955" lon="9.2382135"><ele>609.0</ele><time>2026-04-26T09:03:54.297Z</time></trkpt><trkpt lat="44.7888187" lon="9.2383342"><ele>609.75</ele><time>2026-04-26T09:03:55.297Z</time></trkpt><trkpt lat="44.7887358" lon="9.2384586"><ele>610.5</ele><time>2026-04-26T09:03:56.297Z</time></trkpt><trkpt lat="44.788637" lon="9.2385721"><ele>611.25</ele><time>2026-04-26T09:03:57.297Z</time></trkpt><trkpt lat="44.7885232" lon="9.2386704"><ele>612.0</ele><time>2026-04-26T09:03:58.297Z</time></trkpt><trkpt lat="44.788396" lon="9.2387523"><ele>612.0</ele><time>2026-04-26T09:03:59.297Z</time></trkpt><trkpt lat="44.7882742" lon="9.2388224"><ele>612.0</ele><time>2026-04-26T09:04:00.297Z</time></trkpt><trkpt lat="44.7881574" lon="9.2388727"><ele>612.0</ele><time>2026-04-26T09:04:01.297Z</time></trkpt><trkpt lat="44.7880531" lon="9.2388934"><ele>612.0</ele><time>2026-04-26T09:04:02.297Z</time></trkpt><trkpt lat="44.7879515" lon="9.2388716"><ele>612.0</ele><time>2026-04-26T09:04:03.297Z</time></trkpt><trkpt lat="44.7878574" lon="9.238827"><ele>612.0</ele><time>2026-04-26T09:04:04.297Z</time></trkpt><trkpt lat="44.7877656" lon="9.2387817"><ele>612.0</ele><time>2026-04-26T09:04:05.296Z</time></trkpt><trkpt lat="44.7876797" lon="9.2387702"><ele>612.0</ele><time>2026-04-26T09:04:06.297Z</time></trkpt><trkpt lat="44.7875998" lon="9.2388059"><ele>612.0</ele><time>2026-04-26T09:04:07.297Z</time></trkpt><trkpt lat="44.7875292" lon="9.2388832"><ele>614.0</ele><time>2026-04-26T09:04:08.297Z</time></trkpt><trkpt lat="44.7874699" lon="9.2390018"><ele>616.0</ele><time>2026-04-26T09:04:09.297Z</time></trkpt><trkpt lat="44.7874211" lon="9.2391614"><ele>618.0</ele><time>2026-04-26T09:04:10.297Z</time></trkpt><trkpt lat="44.7873738" lon="9.239328"><ele>620.0</ele><time>2026-04-26T09:04:11.297Z</time></trkpt><trkpt lat="44.7873173" lon="9.2394933"><ele>620.0</ele><time>2026-04-26T09:04:12.297Z</time></trkpt><trkpt lat="44.7872629" lon="9.2396528"><ele>620.0</ele><time>2026-04-26T09:04:13.297Z</time></trkpt><trkpt lat="44.7872045" lon="9.2398081"><ele>620.0</ele><time>2026-04-26T09:04:14.296Z</time></trkpt><trkpt lat="44.7871402" lon="9.2399417"><ele>620.0</ele><time>2026-04-26T09:04:15.297Z</time></trkpt><trkpt lat="44.787056" lon="9.2400423"><ele>621.25</ele><time>2026-04-26T09:04:16.297Z</time></trkpt><trkpt lat="44.7869581" lon="9.2401116"><ele>622.5</ele><time>2026-04-26T09:04:17.297Z</time></trkpt><trkpt lat="44.7868433" lon="9.2401722"><ele>623.75</ele><time>2026-04-26T09:04:18.297Z</time></trkpt><trkpt lat="44.7867284" lon="9.2402191"><ele>625.0</ele><time>2026-04-26T09:04:19.297Z</time></trkpt><trkpt lat="44.7866169" lon="9.2402541"><ele>625.0</ele><time>2026-04-26T09:04:20.296Z</time></trkpt><trkpt lat="44.7865139" lon="9.2402837"><ele>625.0</ele><time>2026-04-26T09:04:21.297Z</time></trkpt><trkpt lat="44.7864196" lon="9.2403132"><ele>625.0</ele><time>2026-04-26T09:04:22.297Z</time></trkpt><trkpt lat="44.7863323" lon="9.240341"><ele>625.0</ele><time>2026-04-26T09:04:23.297Z</time></trkpt><trkpt lat="44.7862461" lon="9.2403769"><ele>625.0</ele><time>2026-04-26T09:04:24.297Z</time></trkpt><trkpt lat="44.7861555" lon="9.2404128"><ele>625.0</ele><time>2026-04-26T09:04:25.297Z</time></trkpt><trkpt lat="44.7860596" lon="9.2404556"><ele>625.0</ele><time>2026-04-26T09:04:26.297Z</time></trkpt><trkpt lat="44.7859603" lon="9.2405039"><ele>625.0</ele><time>2026-04-26T09:04:27.296Z</time></trkpt><trkpt lat="44.7858642" lon="9.2405678"><ele>625.0</ele><time>2026-04-26T09:04:28.297Z</time></trkpt><trkpt lat="44.7857706" lon="9.2406488"><ele>625.0</ele><time>2026-04-26T09:04:29.297Z</time></trkpt><trkpt lat="44.7856828" lon="9.2407428"><ele>627.0</ele><time>2026-04-26T09:04:30.297Z</time></trkpt><trkpt lat="44.785599" lon="9.2408437"><ele>629.0</ele><time>2026-04-26T09:04:31.297Z</time></trkpt><trkpt lat="44.7855171" lon="9.2409449"><ele>631.0</ele><time>2026-04-26T09:04:32.297Z</time></trkpt><trkpt lat="44.7854354" lon="9.2410398"><ele>633.0</ele><time>2026-04-26T09:04:33.297Z</time></trkpt><trkpt lat="44.7853499" lon="9.241122"><ele>635.0</ele><time>2026-04-26T09:04:34.297Z</time></trkpt><trkpt lat="44.7852577" lon="9.2411959"><ele>634.75</ele><time>2026-04-26T09:04:35.297Z</time></trkpt><trkpt lat="44.7851542" lon="9.2412673"><ele>634.5</ele><time>2026-04-26T09:04:36.297Z</time></trkpt><trkpt lat="44.7850416" lon="9.2413292"><ele>634.25</ele><time>2026-04-26T09:04:37.297Z</time></trkpt><trkpt lat="44.7849204" lon="9.2414001"><ele>634.0</ele><time>2026-04-26T09:04:38.297Z</time></trkpt><trkpt lat="44.7847892" lon="9.2414781"><ele>635.75</ele><time>2026-04-26T09:04:39.297Z</time></trkpt><trkpt lat="44.7846528" lon="9.2415648"><ele>637.5</ele><time>2026-04-26T09:04:40.297Z</time></trkpt><trkpt lat="44.7845316" lon="9.2416383"><ele>639.25</ele><time>2026-04-26T09:04:41.297Z</time></trkpt><trkpt lat="44.7844242" lon="9.2417035"><ele>641.0</ele><time>2026-04-26T09:04:42.297Z</time></trkpt><trkpt lat="44.7843242" lon="9.2417627"><ele>641.0</ele><time>2026-04-26T09:04:43.297Z</time></trkpt><trkpt lat="44.7842359" lon="9.2418217"><ele>641.0</ele><time>2026-04-26T09:04:44.297Z</time></trkpt><trkpt lat="44.7841598" lon="9.241891"><ele>641.0</ele><time>2026-04-26T09:04:45.297Z</time></trkpt><trkpt lat="44.7841018" lon="9.2419774"><ele>641.0</ele><time>2026-04-26T09:04:46.297Z</time></trkpt><trkpt lat="44.7840644" lon="9.2420804"><ele>641.0</ele><time>2026-04-26T09:04:47.297Z</time></trkpt><trkpt lat="44.7840493" lon="9.2422124"><ele>642.8</ele><time>2026-04-26T09:04:48.297Z</time></trkpt><trkpt lat="44.7840558" lon="9.2423586"><ele>644.5999999999999</ele><time>2026-04-26T09:04:49.297Z</time></trkpt><trkpt lat="44.7840698" lon="9.2425091"><ele>646.4</ele><time>2026-04-26T09:04:50.297Z</time></trkpt><trkpt lat="44.784068" lon="9.2426511"><ele>648.2</ele><time>2026-04-26T09:04:51.297Z</time></trkpt><trkpt lat="44.7840312" lon="9.2427833"><ele>650.0</ele><time>2026-04-26T09:04:52.297Z</time></trkpt><trkpt lat="44.7839656" lon="9.2429044"><ele>650.0</ele><time>2026-04-26T09:04:53.297Z</time></trkpt><trkpt lat="44.7838774" lon="9.2430104"><ele>650.0</ele><time>2026-04-26T09:04:54.297Z</time></trkpt><trkpt lat="44.7837803" lon="9.2430955"><ele>650.0</ele><time>2026-04-26T09:04:55.297Z</time></trkpt><trkpt lat="44.783669" lon="9.2431567"><ele>650.0</ele><time>2026-04-26T09:04:56.297Z</time></trkpt><trkpt lat="44.783557" lon="9.2432112"><ele>651.5</ele><time>2026-04-26T09:04:57.297Z</time></trkpt><trkpt lat="44.7834415" lon="9.2432428"><ele>653.0</ele><time>2026-04-26T09:04:58.297Z</time></trkpt><trkpt lat="44.7833298" lon="9.2432694"><ele>654.5</ele><time>2026-04-26T09:04:59.297Z</time></trkpt><trkpt lat="44.7832207" lon="9.2433025"><ele>656.0</ele><time>2026-04-26T09:05:00.296Z</time></trkpt><trkpt lat="44.7831125" lon="9.2433449"><ele>656.0</ele><time>2026-04-26T09:05:01.297Z</time></trkpt><trkpt lat="44.7830096" lon="9.2434098"><ele>656.0</ele><time>2026-04-26T09:05:02.297Z</time></trkpt><trkpt lat="44.7829145" lon="9.2434966"><ele>656.0</ele><time>2026-04-26T09:05:03.297Z</time></trkpt><trkpt lat="44.7828422" lon="9.2436078"><ele>656.0</ele><time>2026-04-26T09:05:04.297Z</time></trkpt><trkpt lat="44.782775" lon="9.2437476"><ele>656.0</ele><time>2026-04-26T09:05:05.297Z</time></trkpt><trkpt lat="44.7827169" lon="9.243907"><ele>656.0</ele><time>2026-04-26T09:05:06.297Z</time></trkpt><trkpt lat="44.78267" lon="9.2440811"><ele>656.0</ele><time>2026-04-26T09:05:07.297Z</time></trkpt><trkpt lat="44.7826138" lon="9.2442533"><ele>656.0</ele><time>2026-04-26T09:05:08.297Z</time></trkpt><trkpt lat="44.7825544" lon="9.244434"><ele>656.75</ele><time>2026-04-26T09:05:09.297Z</time></trkpt><trkpt lat="44.7824931" lon="9.2446224"><ele>657.5</ele><time>2026-04-26T09:05:10.297Z</time></trkpt><trkpt lat="44.782435" lon="9.2448104"><ele>658.25</ele><time>2026-04-26T09:05:11.297Z</time></trkpt><trkpt lat="44.7823794" lon="9.2449841"><ele>659.0</ele><time>2026-04-26T09:05:12.296Z</time></trkpt><trkpt lat="44.7823221" lon="9.2451312"><ele>661.25</ele><time>2026-04-26T09:05:13.297Z</time></trkpt><trkpt lat="44.7822566" lon="9.2452457"><ele>663.5</ele><time>2026-04-26T09:05:14.297Z</time></trkpt><trkpt lat="44.7821751" lon="9.2453413"><ele>665.75</ele><time>2026-04-26T09:05:15.297Z</time></trkpt><trkpt lat="44.7820727" lon="9.2454272"><ele>668.0</ele><time>2026-04-26T09:05:16.297Z</time></trkpt><trkpt lat="44.7819575" lon="9.2455126"><ele>666.5</ele><time>2026-04-26T09:05:17.297Z</time></trkpt><trkpt lat="44.7818289" lon="9.245589"><ele>665.0</ele><time>2026-04-26T09:05:18.297Z</time></trkpt><trkpt lat="44.7816992" lon="9.2456733"><ele>663.5</ele><time>2026-04-26T09:05:19.296Z</time></trkpt><trkpt lat="44.7815693" lon="9.2457574"><ele>662.0</ele><time>2026-04-26T09:05:20.297Z</time></trkpt><trkpt lat="44.7814486" lon="9.2458223"><ele>665.75</ele><time>2026-04-26T09:05:21.297Z</time></trkpt><trkpt lat="44.7813343" lon="9.2458625"><ele>669.5</ele><time>2026-04-26T09:05:22.297Z</time></trkpt><trkpt lat="44.7812237" lon="9.2458602"><ele>673.25</ele><time>2026-04-26T09:05:23.297Z</time></trkpt><trkpt lat="44.7811125" lon="9.2458096"><ele>677.0</ele><time>2026-04-26T09:05:24.296Z</time></trkpt><trkpt lat="44.7810092" lon="9.2457211"><ele>677.75</ele><time>2026-04-26T09:05:25.297Z</time></trkpt><trkpt lat="44.7808998" lon="9.245637"><ele>678.5</ele><time>2026-04-26T09:05:26.297Z</time></trkpt><trkpt lat="44.7807837" lon="9.2455938"><ele>679.25</ele><time>2026-04-26T09:05:27.297Z</time></trkpt><trkpt lat="44.7806792" lon="9.2456054"><ele>680.0</ele><time>2026-04-26T09:05:28.297Z</time></trkpt><trkpt lat="44.7805619" lon="9.2456589"><ele>680.0</ele><time>2026-04-26T09:05:29.297Z</time></trkpt><trkpt lat="44.7804405" lon="9.2457447"><ele>680.0</ele><time>2026-04-26T09:05:30.297Z</time></trkpt><trkpt lat="44.7803023" lon="9.2458361"><ele>680.0</ele><time>2026-04-26T09:05:31.297Z</time></trkpt><trkpt lat="44.7801534" lon="9.2459081"><ele>680.0</ele><time>2026-04-26T09:05:32.296Z</time></trkpt><trkpt lat="44.7800066" lon="9.2459682"><ele>679.75</ele><time>2026-04-26T09:05:33.297Z</time></trkpt><trkpt lat="44.7798583" lon="9.2460215"><ele>679.5</ele><time>2026-04-26T09:05:34.297Z</time></trkpt><trkpt lat="44.7797158" lon="9.2460916"><ele>679.25</ele><time>2026-04-26T09:05:35.297Z</time></trkpt><trkpt lat="44.779579" lon="9.2461569"><ele>679.0</ele><time>2026-04-26T09:05:36.297Z</time></trkpt><trkpt lat="44.7794377" lon="9.2462291"><ele>679.3333333333334</ele><time>2026-04-26T09:05:37.296Z</time></trkpt><trkpt lat="44.7792987" lon="9.2463068"><ele>679.6666666666666</ele><time>2026-04-26T09:05:38.297Z</time></trkpt><trkpt lat="44.7791602" lon="9.2464026"><ele>680.0</ele><time>2026-04-26T09:05:39.297Z</time></trkpt><trkpt lat="44.7790241" lon="9.2465006"><ele>682.75</ele><time>2026-04-26T09:05:40.297Z</time></trkpt><trkpt lat="44.7788822" lon="9.2465879"><ele>685.5</ele><time>2026-04-26T09:05:41.297Z</time></trkpt><trkpt lat="44.778736" lon="9.2466453"><ele>688.25</ele><time>2026-04-26T09:05:42.297Z</time></trkpt><trkpt lat="44.7786064" lon="9.246699"><ele>691.0</ele><time>2026-04-26T09:05:43.297Z</time></trkpt><trkpt lat="44.7784992" lon="9.2467769"><ele>691.0</ele><time>2026-04-26T09:05:44.297Z</time></trkpt><trkpt lat="44.778408" lon="9.2468901"><ele>691.0</ele><time>2026-04-26T09:05:45.297Z</time></trkpt><trkpt lat="44.7783258" lon="9.247034"><ele>691.0</ele><time>2026-04-26T09:05:46.297Z</time></trkpt><trkpt lat="44.7782499" lon="9.2471925"><ele>691.0</ele><time>2026-04-26T09:05:47.297Z</time></trkpt><trkpt lat="44.7781709" lon="9.2473453"><ele>694.0</ele><time>2026-04-26T09:05:48.297Z</time></trkpt><trkpt lat="44.7780906" lon="9.2475104"><ele>697.0</ele><time>2026-04-26T09:05:49.297Z</time></trkpt><trkpt lat="44.7780099" lon="9.2476745"><ele>700.0</ele><time>2026-04-26T09:05:50.297Z</time></trkpt><trkpt lat="44.7779325" lon="9.2478375"><ele>703.0</ele><time>2026-04-26T09:05:51.297Z</time></trkpt><trkpt lat="44.7778568" lon="9.2479984"><ele>703.25</ele><time>2026-04-26T09:05:52.297Z</time></trkpt><trkpt lat="44.7777754" lon="9.2481573"><ele>703.5</ele><time>2026-04-26T09:05:53.297Z</time></trkpt><trkpt lat="44.7776966" lon="9.2483038"><ele>703.75</ele><time>2026-04-26T09:05:54.297Z</time></trkpt><trkpt lat="44.7776121" lon="9.2484217"><ele>704.0</ele><time>2026-04-26T09:05:55.297Z</time></trkpt><trkpt lat="44.7775036" lon="9.2484999"><ele>704.0</ele><time>2026-04-26T09:05:56.297Z</time></trkpt><trkpt lat="44.7773969" lon="9.2485505"><ele>704.0</ele><time>2026-04-26T09:05:57.297Z</time></trkpt><trkpt lat="44.7772859" lon="9.2486018"><ele>704.0</ele><time>2026-04-26T09:05:58.297Z</time></trkpt><trkpt lat="44.7771899" lon="9.2486685"><ele>704.0</ele><time>2026-04-26T09:05:59.297Z</time></trkpt><trkpt lat="44.7771114" lon="9.2487468"><ele>704.0</ele><time>2026-04-26T09:06:00.297Z</time></trkpt><trkpt lat="44.7770673" lon="9.248843"><ele>704.0</ele><time>2026-04-26T09:06:01.297Z</time></trkpt><trkpt lat="44.7770579" lon="9.2489429"><ele>704.0</ele><time>2026-04-26T09:06:02.296Z</time></trkpt><trkpt lat="44.7770846" lon="9.2490368"><ele>704.0</ele><time>2026-04-26T09:06:03.297Z</time></trkpt><trkpt lat="44.7771527" lon="9.2491041"><ele>704.0</ele><time>2026-04-26T09:06:04.297Z</time></trkpt><trkpt lat="44.7772433" lon="9.2491298"><ele>704.0</ele><time>2026-04-26T09:06:05.297Z</time></trkpt><trkpt lat="44.7773459" lon="9.2491169"><ele>704.0</ele><time>2026-04-26T09:06:06.297Z</time></trkpt><trkpt lat="44.7774531" lon="9.2490576"><ele>704.0</ele><time>2026-04-26T09:06:07.297Z</time></trkpt><trkpt lat="44.7775686" lon="9.2489676"><ele>704.0</ele><time>2026-04-26T09:06:08.297Z</time></trkpt><trkpt lat="44.7776813" lon="9.2488826"><ele>704.0</ele><time>2026-04-26T09:06:09.297Z</time></trkpt><trkpt lat="44.7777925" lon="9.2487965"><ele>704.0</ele><time>2026-04-26T09:06:10.296Z</time></trkpt><trkpt lat="44.7779033" lon="9.2486965"><ele>707.0</ele><time>2026-04-26T09:06:11.297Z</time></trkpt><trkpt lat="44.7780134" lon="9.2485948"><ele>710.0</ele><time>2026-04-26T09:06:12.297Z</time></trkpt><trkpt lat="44.7781162" lon="9.2484794"><ele>713.0</ele><time>2026-04-26T09:06:13.297Z</time></trkpt><trkpt lat="44.778211" lon="9.2483622"><ele>716.0</ele><time>2026-04-26T09:06:14.297Z</time></trkpt><trkpt lat="44.77831" lon="9.2482528"><ele>716.0</ele><time>2026-04-26T09:06:15.297Z</time></trkpt><trkpt lat="44.7784132" lon="9.2481653"><ele>716.0</ele><time>2026-04-26T09:06:16.297Z</time></trkpt><trkpt lat="44.7785107" lon="9.2481176"><ele>716.0</ele><time>2026-04-26T09:06:17.297Z</time></trkpt><trkpt lat="44.7785927" lon="9.2481074"><ele>716.0</ele><time>2026-04-26T09:06:18.297Z</time></trkpt><trkpt lat="44.7786568" lon="9.2481295"><ele>716.0</ele><time>2026-04-26T09:06:19.296Z</time></trkpt><trkpt lat="44.7786977" lon="9.2482656"><ele>716.0</ele><time>2026-04-26T09:06:21.297Z</time></trkpt><trkpt lat="44.7786682" lon="9.24835"><ele>716.0</ele><time>2026-04-26T09:06:22.297Z</time></trkpt><trkpt lat="44.7785986" lon="9.2484248"><ele>716.0</ele><time>2026-04-26T09:06:23.297Z</time></trkpt><trkpt lat="44.7785085" lon="9.2484761"><ele>716.0</ele><time>2026-04-26T09:06:24.297Z</time></trkpt><trkpt lat="44.7784092" lon="9.248525"><ele>716.0</ele><time>2026-04-26T09:06:25.297Z</time></trkpt><trkpt lat="44.7783128" lon="9.2485887"><ele>716.0</ele><time>2026-04-26T09:06:26.297Z</time></trkpt><trkpt lat="44.7782377" lon="9.2486861"><ele>716.0</ele><time>2026-04-26T09:06:27.297Z</time></trkpt><trkpt lat="44.7781825" lon="9.2488151"><ele>716.0</ele><time>2026-04-26T09:06:28.297Z</time></trkpt><trkpt lat="44.7781525" lon="9.2489705"><ele>716.0</ele><time>2026-04-26T09:06:29.297Z</time></trkpt><trkpt lat="44.7781346" lon="9.2491354"><ele>716.0</ele><time>2026-04-26T09:06:30.297Z</time></trkpt><trkpt lat="44.7781029" lon="9.2493049"><ele>719.75</ele><time>2026-04-26T09:06:31.297Z</time></trkpt><trkpt lat="44.7780409" lon="9.2494691"><ele>723.5</ele><time>2026-04-26T09:06:32.297Z</time></trkpt><trkpt lat="44.7779597" lon="9.2496299"><ele>727.25</ele><time>2026-04-26T09:06:33.297Z</time></trkpt><trkpt lat="44.7778765" lon="9.2497873"><ele>731.0</ele><time>2026-04-26T09:06:34.297Z</time></trkpt><trkpt lat="44.7777936" lon="9.2499558"><ele>729.5</ele><time>2026-04-26T09:06:35.297Z</time></trkpt><trkpt lat="44.7777006" lon="9.250114"><ele>728.0</ele><time>2026-04-26T09:06:36.297Z</time></trkpt><trkpt lat="44.7775895" lon="9.250252"><ele>726.5</ele><time>2026-04-26T09:06:37.297Z</time></trkpt><trkpt lat="44.7774644" lon="9.2503751"><ele>725.0</ele><time>2026-04-26T09:06:38.297Z</time></trkpt><trkpt lat="44.7773275" lon="9.2504753"><ele>725.0</ele><time>2026-04-26T09:06:39.297Z</time></trkpt><trkpt lat="44.7771897" lon="9.2505555"><ele>725.0</ele><time>2026-04-26T09:06:40.297Z</time></trkpt><trkpt lat="44.7770513" lon="9.2505986"><ele>725.0</ele><time>2026-04-26T09:06:41.297Z</time></trkpt><trkpt lat="44.7769122" lon="9.2506076"><ele>725.0</ele><time>2026-04-26T09:06:42.297Z</time></trkpt><trkpt lat="44.776793" lon="9.2506003"><ele>726.75</ele><time>2026-04-26T09:06:43.297Z</time></trkpt><trkpt lat="44.7766679" lon="9.2505757"><ele>728.5</ele><time>2026-04-26T09:06:44.297Z</time></trkpt><trkpt lat="44.7765566" lon="9.2505653"><ele>730.25</ele><time>2026-04-26T09:06:45.296Z</time></trkpt><trkpt lat="44.7764531" lon="9.2505992"><ele>732.0</ele><time>2026-04-26T09:06:46.297Z</time></trkpt><trkpt lat="44.7763511" lon="9.2506876"><ele>732.0</ele><time>2026-04-26T09:06:47.297Z</time></trkpt><trkpt lat="44.7762602" lon="9.250822"><ele>732.0</ele><time>2026-04-26T09:06:48.297Z</time></trkpt><trkpt lat="44.7761869" lon="9.2509817"><ele>732.0</ele><time>2026-04-26T09:06:49.296Z</time></trkpt><trkpt lat="44.776109" lon="9.251146"><ele>732.0</ele><time>2026-04-26T09:06:50.297Z</time></trkpt><trkpt lat="44.7760149" lon="9.2512942"><ele>732.75</ele><time>2026-04-26T09:06:51.297Z</time></trkpt><trkpt lat="44.7759058" lon="9.2514261"><ele>733.5</ele><time>2026-04-26T09:06:52.297Z</time></trkpt><trkpt lat="44.7757787" lon="9.2515448"><ele>734.25</ele><time>2026-04-26T09:06:53.297Z</time></trkpt><trkpt lat="44.7756474" lon="9.251656"><ele>735.0</ele><time>2026-04-26T09:06:54.297Z</time></trkpt><trkpt lat="44.7755111" lon="9.2517495"><ele>735.0</ele><time>2026-04-26T09:06:55.297Z</time></trkpt><trkpt lat="44.7753686" lon="9.2518306"><ele>735.0</ele><time>2026-04-26T09:06:56.296Z</time></trkpt><trkpt lat="44.7752207" lon="9.2518987"><ele>735.0</ele><time>2026-04-26T09:06:57.297Z</time></trkpt><trkpt lat="44.7750729" lon="9.2519499"><ele>731.25</ele><time>2026-04-26T09:06:58.297Z</time></trkpt><trkpt lat="44.7749342" lon="9.2519971"><ele>727.5</ele><time>2026-04-26T09:06:59.297Z</time></trkpt><trkpt lat="44.774804" lon="9.2520422"><ele>723.75</ele><time>2026-04-26T09:07:00.297Z</time></trkpt><trkpt lat="44.7746893" lon="9.2521175"><ele>720.0</ele><time>2026-04-26T09:07:01.297Z</time></trkpt><trkpt lat="44.7745936" lon="9.2522221"><ele>719.75</ele><time>2026-04-26T09:07:02.297Z</time></trkpt><trkpt lat="44.7745031" lon="9.2523429"><ele>719.5</ele><time>2026-04-26T09:07:03.296Z</time></trkpt><trkpt lat="44.7744191" lon="9.2524673"><ele>719.25</ele><time>2026-04-26T09:07:04.297Z</time></trkpt><trkpt lat="44.774351" lon="9.252604"><ele>719.0</ele><time>2026-04-26T09:07:05.297Z</time></trkpt><trkpt lat="44.7742938" lon="9.2527587"><ele>719.0</ele><time>2026-04-26T09:07:06.297Z</time></trkpt><trkpt lat="44.7742572" lon="9.2529343"><ele>719.0</ele><time>2026-04-26T09:07:07.297Z</time></trkpt><trkpt lat="44.7742419" lon="9.2531217"><ele>719.0</ele><time>2026-04-26T09:07:08.297Z</time></trkpt><trkpt lat="44.7742429" lon="9.2533154"><ele>719.0</ele><time>2026-04-26T09:07:09.297Z</time></trkpt><trkpt lat="44.7742558" lon="9.2535176"><ele>720.75</ele><time>2026-04-26T09:07:10.297Z</time></trkpt><trkpt lat="44.7742897" lon="9.2537234"><ele>722.5</ele><time>2026-04-26T09:07:11.297Z</time></trkpt><trkpt lat="44.7743232" lon="9.2539248"><ele>724.25</ele><time>2026-04-26T09:07:12.297Z</time></trkpt><trkpt lat="44.774355" lon="9.2541099"><ele>726.0</ele><time>2026-04-26T09:07:13.297Z</time></trkpt><trkpt lat="44.7743676" lon="9.2542813"><ele>726.5</ele><time>2026-04-26T09:07:14.297Z</time></trkpt><trkpt lat="44.7743555" lon="9.2544452"><ele>727.0</ele><time>2026-04-26T09:07:15.296Z</time></trkpt><trkpt lat="44.7743149" lon="9.2546098"><ele>727.5</ele><time>2026-04-26T09:07:16.297Z</time></trkpt><trkpt lat="44.7742549" lon="9.2547762"><ele>728.0</ele><time>2026-04-26T09:07:17.297Z</time></trkpt><trkpt lat="44.7741993" lon="9.2549348"><ele>728.5</ele><time>2026-04-26T09:07:18.297Z</time></trkpt><trkpt lat="44.7741568" lon="9.2550881"><ele>729.0</ele><time>2026-04-26T09:07:19.297Z</time></trkpt><trkpt lat="44.7741371" lon="9.255245"><ele>729.5</ele><time>2026-04-26T09:07:20.297Z</time></trkpt><trkpt lat="44.7741468" lon="9.2554071"><ele>730.0</ele><time>2026-04-26T09:07:21.297Z</time></trkpt><trkpt lat="44.7741775" lon="9.2555762"><ele>730.0</ele><time>2026-04-26T09:07:22.297Z</time></trkpt><trkpt lat="44.7742089" lon="9.2557577"><ele>730.0</ele><time>2026-04-26T09:07:23.297Z</time></trkpt><trkpt lat="44.7742393" lon="9.255946"><ele>730.0</ele><time>2026-04-26T09:07:24.296Z</time></trkpt><trkpt lat="44.7742624" lon="9.2561405"><ele>730.0</ele><time>2026-04-26T09:07:25.297Z</time></trkpt><trkpt lat="44.7742818" lon="9.2563368"><ele>731.0</ele><time>2026-04-26T09:07:26.297Z</time></trkpt><trkpt lat="44.7742991" lon="9.2565234"><ele>732.0</ele><time>2026-04-26T09:07:27.297Z</time></trkpt><trkpt lat="44.7742951" lon="9.2567013"><ele>733.0</ele><time>2026-04-26T09:07:28.297Z</time></trkpt><trkpt lat="44.7742542" lon="9.2568766"><ele>734.0</ele><time>2026-04-26T09:07:29.297Z</time></trkpt><trkpt lat="44.7742009" lon="9.2570297"><ele>734.0</ele><time>2026-04-26T09:07:30.296Z</time></trkpt><trkpt lat="44.7741362" lon="9.2571499"><ele>734.0</ele><time>2026-04-26T09:07:31.297Z</time></trkpt><trkpt lat="44.7740511" lon="9.2572391"><ele>734.0</ele><time>2026-04-26T09:07:32.297Z</time></trkpt><trkpt lat="44.7739519" lon="9.2573021"><ele>734.0</ele><time>2026-04-26T09:07:33.297Z</time></trkpt><trkpt lat="44.7738414" lon="9.2573479"><ele>734.0</ele><time>2026-04-26T09:07:34.297Z</time></trkpt><trkpt lat="44.773715" lon="9.2573714"><ele>735.0</ele><time>2026-04-26T09:07:35.297Z</time></trkpt><trkpt lat="44.7735776" lon="9.2573624"><ele>736.0</ele><time>2026-04-26T09:07:36.297Z</time></trkpt><trkpt lat="44.7734351" lon="9.2573447"><ele>737.0</ele><time>2026-04-26T09:07:37.297Z</time></trkpt><trkpt lat="44.773296" lon="9.2573022"><ele>738.0</ele><time>2026-04-26T09:07:38.297Z</time></trkpt><trkpt lat="44.7731492" lon="9.2572481"><ele>736.0</ele><time>2026-04-26T09:07:39.297Z</time></trkpt><trkpt lat="44.773012" lon="9.2571869"><ele>734.0</ele><time>2026-04-26T09:07:40.297Z</time></trkpt><trkpt lat="44.7728764" lon="9.2571133"><ele>732.0</ele><time>2026-04-26T09:07:41.297Z</time></trkpt><trkpt lat="44.7727522" lon="9.2570343"><ele>730.0</ele><time>2026-04-26T09:07:42.297Z</time></trkpt><trkpt lat="44.7726323" lon="9.2569738"><ele>730.0</ele><time>2026-04-26T09:07:43.297Z</time></trkpt><trkpt lat="44.7725073" lon="9.256952"><ele>730.0</ele><time>2026-04-26T09:07:44.297Z</time></trkpt><trkpt lat="44.7723764" lon="9.2569684"><ele>730.0</ele><time>2026-04-26T09:07:45.297Z</time></trkpt><trkpt lat="44.7722295" lon="9.2570045"><ele>730.0</ele><time>2026-04-26T09:07:46.297Z</time></trkpt><trkpt lat="44.7720675" lon="9.2570353"><ele>730.0</ele><time>2026-04-26T09:07:47.297Z</time></trkpt><trkpt lat="44.7719105" lon="9.2570607"><ele>730.0</ele><time>2026-04-26T09:07:48.296Z</time></trkpt><trkpt lat="44.7717562" lon="9.2570663"><ele>730.0</ele><time>2026-04-26T09:07:49.297Z</time></trkpt><trkpt lat="44.771608" lon="9.2570422"><ele>730.0</ele><time>2026-04-26T09:07:50.297Z</time></trkpt><trkpt lat="44.7714658" lon="9.2569848"><ele>730.0</ele><time>2026-04-26T09:07:51.297Z</time></trkpt><trkpt lat="44.7713291" lon="9.2569077"><ele>730.0</ele><time>2026-04-26T09:07:52.297Z</time></trkpt><trkpt lat="44.7712013" lon="9.2568132"><ele>730.0</ele><time>2026-04-26T09:07:53.297Z</time></trkpt><trkpt lat="44.7710785" lon="9.2567314"><ele>730.0</ele><time>2026-04-26T09:07:54.297Z</time></trkpt><trkpt lat="44.7709613" lon="9.2566813"><ele>730.0</ele><time>2026-04-26T09:07:55.297Z</time></trkpt><trkpt lat="44.7708455" lon="9.2566741"><ele>730.0</ele><time>2026-04-26T09:07:56.297Z</time></trkpt><trkpt lat="44.7707391" lon="9.2567224"><ele>730.0</ele><time>2026-04-26T09:07:57.297Z</time></trkpt><trkpt lat="44.7706337" lon="9.2568097"><ele>730.0</ele><time>2026-04-26T09:07:58.297Z</time></trkpt><trkpt lat="44.7705341" lon="9.256926"><ele>730.0</ele><time>2026-04-26T09:07:59.297Z</time></trkpt><trkpt lat="44.7704281" lon="9.2570513"><ele>730.0</ele><time>2026-04-26T09:08:00.297Z</time></trkpt><trkpt lat="44.7703163" lon="9.2571753"><ele>730.0</ele><time>2026-04-26T09:08:01.297Z</time></trkpt><trkpt lat="44.7702095" lon="9.257291"><ele>730.0</ele><time>2026-04-26T09:08:02.297Z</time></trkpt><trkpt lat="44.7701064" lon="9.2574063"><ele>730.0</ele><time>2026-04-26T09:08:03.297Z</time></trkpt><trkpt lat="44.7700152" lon="9.2575334"><ele>730.0</ele><time>2026-04-26T09:08:04.297Z</time></trkpt><trkpt lat="44.7699416" lon="9.2576786"><ele>730.0</ele><time>2026-04-26T09:08:05.297Z</time></trkpt><trkpt lat="44.7698952" lon="9.2578452"><ele>730.0</ele><time>2026-04-26T09:08:06.297Z</time></trkpt><trkpt lat="44.7698686" lon="9.2580179"><ele>730.0</ele><time>2026-04-26T09:08:07.296Z</time></trkpt><trkpt lat="44.769879" lon="9.2581909"><ele>730.0</ele><time>2026-04-26T09:08:08.297Z</time></trkpt><trkpt lat="44.7699128" lon="9.2583684"><ele>730.0</ele><time>2026-04-26T09:08:09.297Z</time></trkpt><trkpt lat="44.7699461" lon="9.2585494"><ele>731.4</ele><time>2026-04-26T09:08:10.297Z</time></trkpt><trkpt lat="44.7699496" lon="9.258714"><ele>732.8</ele><time>2026-04-26T09:08:11.296Z</time></trkpt><trkpt lat="44.7699179" lon="9.258845"><ele>734.2</ele><time>2026-04-26T09:08:12.297Z</time></trkpt><trkpt lat="44.7698488" lon="9.2589536"><ele>735.6</ele><time>2026-04-26T09:08:13.297Z</time></trkpt><trkpt lat="44.7697574" lon="9.2590416"><ele>737.0</ele><time>2026-04-26T09:08:14.297Z</time></trkpt><trkpt lat="44.7696532" lon="9.2591256"><ele>737.25</ele><time>2026-04-26T09:08:15.297Z</time></trkpt><trkpt lat="44.7695388" lon="9.2592052"><ele>737.5</ele><time>2026-04-26T09:08:16.297Z</time></trkpt><trkpt lat="44.7694251" lon="9.2592621"><ele>737.75</ele><time>2026-04-26T09:08:17.296Z</time></trkpt><trkpt lat="44.7693104" lon="9.2592863"><ele>738.0</ele><time>2026-04-26T09:08:18.297Z</time></trkpt><trkpt lat="44.7691748" lon="9.2592838"><ele>736.25</ele><time>2026-04-26T09:08:19.297Z</time></trkpt><trkpt lat="44.7690417" lon="9.2592604"><ele>734.5</ele><time>2026-04-26T09:08:20.296Z</time></trkpt><trkpt lat="44.7689138" lon="9.2592198"><ele>732.75</ele><time>2026-04-26T09:08:21.296Z</time></trkpt><trkpt lat="44.768788" lon="9.259192"><ele>731.0</ele><time>2026-04-26T09:08:22.296Z</time></trkpt><trkpt lat="44.7686576" lon="9.2591959"><ele>731.0</ele><time>2026-04-26T09:08:23.296Z</time></trkpt><trkpt lat="44.768527" lon="9.2592328"><ele>731.0</ele><time>2026-04-26T09:08:24.296Z</time></trkpt><trkpt lat="44.7684063" lon="9.2592816"><ele>731.0</ele><time>2026-04-26T09:08:25.296Z</time></trkpt><trkpt lat="44.7683174" lon="9.2593195"><ele>731.0</ele><time>2026-04-26T09:08:26.296Z</time></trkpt><trkpt lat="44.7682375" lon="9.2593297"><ele>731.0</ele><time>2026-04-26T09:08:27.296Z</time></trkpt><trkpt lat="44.7681582" lon="9.2593009"><ele>730.0</ele><time>2026-04-26T09:08:28.296Z</time></trkpt><trkpt lat="44.7680799" lon="9.2592404"><ele>729.0</ele><time>2026-04-26T09:08:29.296Z</time></trkpt><trkpt lat="44.7680087" lon="9.2591487"><ele>728.0</ele><time>2026-04-26T09:08:30.296Z</time></trkpt><trkpt lat="44.7679402" lon="9.2590187"><ele>727.0</ele><time>2026-04-26T09:08:31.296Z</time></trkpt><trkpt lat="44.7678788" lon="9.2588702"><ele>726.0</ele><time>2026-04-26T09:08:32.296Z</time></trkpt><trkpt lat="44.7678297" lon="9.2587173"><ele>723.75</ele><time>2026-04-26T09:08:33.296Z</time></trkpt><trkpt lat="44.767813" lon="9.2585567"><ele>721.5</ele><time>2026-04-26T09:08:34.296Z</time></trkpt><trkpt lat="44.7678178" lon="9.2583927"><ele>719.25</ele><time>2026-04-26T09:08:35.296Z</time></trkpt><trkpt lat="44.7678377" lon="9.2582225"><ele>717.0</ele><time>2026-04-26T09:08:36.296Z</time></trkpt><trkpt lat="44.7678646" lon="9.2580446"><ele>717.0</ele><time>2026-04-26T09:08:37.296Z</time></trkpt><trkpt lat="44.7678776" lon="9.2578575"><ele>717.0</ele><time>2026-04-26T09:08:38.296Z</time></trkpt><trkpt lat="44.7678669" lon="9.25768"><ele>717.0</ele><time>2026-04-26T09:08:39.296Z</time></trkpt><trkpt lat="44.7678275" lon="9.2575226"><ele>717.0</ele><time>2026-04-26T09:08:40.296Z</time></trkpt><trkpt lat="44.7677637" lon="9.257383"><ele>722.0</ele><time>2026-04-26T09:08:41.296Z</time></trkpt><trkpt lat="44.7676734" lon="9.2572641"><ele>727.0</ele><time>2026-04-26T09:08:42.296Z</time></trkpt><trkpt lat="44.7675716" lon="9.2571597"><ele>732.0</ele><time>2026-04-26T09:08:43.296Z</time></trkpt><trkpt lat="44.7674591" lon="9.2570517"><ele>737.0</ele><time>2026-04-26T09:08:44.296Z</time></trkpt><trkpt lat="44.7673574" lon="9.2569288"><ele>737.0</ele><time>2026-04-26T09:08:45.295Z</time></trkpt><trkpt lat="44.767272" lon="9.2567887"><ele>737.0</ele><time>2026-04-26T09:08:46.295Z</time></trkpt><trkpt lat="44.767203" lon="9.2566276"><ele>737.0</ele><time>2026-04-26T09:08:47.296Z</time></trkpt><trkpt lat="44.767156" lon="9.256453"><ele>737.0</ele><time>2026-04-26T09:08:48.296Z</time></trkpt><trkpt lat="44.767123" lon="9.2562655"><ele>735.6666666666666</ele><time>2026-04-26T09:08:49.296Z</time></trkpt><trkpt lat="44.7670908" lon="9.2560638"><ele>734.3333333333334</ele><time>2026-04-26T09:08:50.296Z</time></trkpt><trkpt lat="44.7670587" lon="9.2558552"><ele>733.0</ele><time>2026-04-26T09:08:51.296Z</time></trkpt><trkpt lat="44.7670325" lon="9.2556387"><ele>732.3333333333334</ele><time>2026-04-26T09:08:52.296Z</time></trkpt><trkpt lat="44.7670093" lon="9.2554165"><ele>731.6666666666666</ele><time>2026-04-26T09:08:53.296Z</time></trkpt><trkpt lat="44.7669748" lon="9.2551891"><ele>731.0</ele><time>2026-04-26T09:08:54.296Z</time></trkpt><trkpt lat="44.7669349" lon="9.2549672"><ele>729.6666666666666</ele><time>2026-04-26T09:08:55.296Z</time></trkpt><trkpt lat="44.7668859" lon="9.2547551"><ele>728.3333333333334</ele><time>2026-04-26T09:08:56.296Z</time></trkpt><trkpt lat="44.7668311" lon="9.2545408"><ele>727.0</ele><time>2026-04-26T09:08:57.296Z</time></trkpt><trkpt lat="44.7667706" lon="9.2543203"><ele>734.3333333333334</ele><time>2026-04-26T09:08:58.296Z</time></trkpt><trkpt lat="44.7667066" lon="9.2541147"><ele>741.6666666666666</ele><time>2026-04-26T09:08:59.296Z</time></trkpt><trkpt lat="44.7666418" lon="9.2539143"><ele>749.0</ele><time>2026-04-26T09:09:00.296Z</time></trkpt><trkpt lat="44.7665698" lon="9.2537266"><ele>749.0</ele><time>2026-04-26T09:09:01.296Z</time></trkpt><trkpt lat="44.7665012" lon="9.2535368"><ele>749.0</ele><time>2026-04-26T09:09:02.296Z</time></trkpt><trkpt lat="44.7664309" lon="9.2533557"><ele>749.0</ele><time>2026-04-26T09:09:03.295Z</time></trkpt><trkpt lat="44.7663587" lon="9.2531883"><ele>749.0</ele><time>2026-04-26T09:09:04.296Z</time></trkpt><trkpt lat="44.7662566" lon="9.2530456"><ele>747.5</ele><time>2026-04-26T09:09:05.296Z</time></trkpt><trkpt lat="44.7661552" lon="9.2529303"><ele>746.0</ele><time>2026-04-26T09:09:06.296Z</time></trkpt><trkpt lat="44.7660468" lon="9.2528391"><ele>744.5</ele><time>2026-04-26T09:09:07.296Z</time></trkpt><trkpt lat="44.7659281" lon="9.2527615"><ele>743.0</ele><time>2026-04-26T09:09:08.296Z</time></trkpt><trkpt lat="44.7657945" lon="9.2526959"><ele>748.3333333333333</ele><time>2026-04-26T09:09:09.296Z</time></trkpt><trkpt lat="44.7656573" lon="9.2526203"><ele>753.6666666666666</ele><time>2026-04-26T09:09:10.295Z</time></trkpt><trkpt lat="44.7655077" lon="9.2525372"><ele>759.0</ele><time>2026-04-26T09:09:11.296Z</time></trkpt><trkpt lat="44.7653566" lon="9.2524385"><ele>759.0</ele><time>2026-04-26T09:09:12.295Z</time></trkpt><trkpt lat="44.7652104" lon="9.2523567"><ele>759.0</ele><time>2026-04-26T09:09:13.296Z</time></trkpt><trkpt lat="44.7650765" lon="9.2522761"><ele>759.0</ele><time>2026-04-26T09:09:14.296Z</time></trkpt><trkpt lat="44.7649507" lon="9.252202"><ele>759.0</ele><time>2026-04-26T09:09:15.296Z</time></trkpt><trkpt lat="44.7648275" lon="9.2521337"><ele>758.5</ele><time>2026-04-26T09:09:16.296Z</time></trkpt><trkpt lat="44.7647124" lon="9.2520798"><ele>758.0</ele><time>2026-04-26T09:09:17.295Z</time></trkpt><trkpt lat="44.7645977" lon="9.2520476"><ele>757.5</ele><time>2026-04-26T09:09:18.296Z</time></trkpt><trkpt lat="44.7644713" lon="9.2520492"><ele>757.0</ele><time>2026-04-26T09:09:19.296Z</time></trkpt><trkpt lat="44.7643431" lon="9.2520565"><ele>757.0</ele><time>2026-04-26T09:09:20.295Z</time></trkpt><trkpt lat="44.7642062" lon="9.2520835"><ele>757.0</ele><time>2026-04-26T09:09:21.295Z</time></trkpt><trkpt lat="44.7640664" lon="9.2521113"><ele>757.0</ele><time>2026-04-26T09:09:22.296Z</time></trkpt><trkpt lat="44.76393" lon="9.2521225"><ele>757.0</ele><time>2026-04-26T09:09:23.296Z</time></trkpt><trkpt lat="44.763795" lon="9.2521142"><ele>757.0</ele><time>2026-04-26T09:09:24.296Z</time></trkpt><trkpt lat="44.7636634" lon="9.2520826"><ele>757.0</ele><time>2026-04-26T09:09:25.296Z</time></trkpt><trkpt lat="44.7635281" lon="9.2520234"><ele>757.0</ele><time>2026-04-26T09:09:26.296Z</time></trkpt><trkpt lat="44.7633942" lon="9.2519352"><ele>757.0</ele><time>2026-04-26T09:09:27.296Z</time></trkpt><trkpt lat="44.7632539" lon="9.2518443"><ele>757.0</ele><time>2026-04-26T09:09:28.296Z</time></trkpt><trkpt lat="44.7631305" lon="9.2517599"><ele>757.0</ele><time>2026-04-26T09:09:29.296Z</time></trkpt><trkpt lat="44.7630078" lon="9.2517083"><ele>757.0</ele><time>2026-04-26T09:09:30.296Z</time></trkpt><trkpt lat="44.7628799" lon="9.2517024"><ele>757.0</ele><time>2026-04-26T09:09:31.296Z</time></trkpt><trkpt lat="44.7627619" lon="9.2517675"><ele>754.6666666666667</ele><time>2026-04-26T09:09:32.296Z</time></trkpt><trkpt lat="44.7626503" lon="9.2519"><ele>752.3333333333334</ele><time>2026-04-26T09:09:33.296Z</time></trkpt><trkpt lat="44.7625405" lon="9.2520724"><ele>750.0</ele><time>2026-04-26T09:09:34.296Z</time></trkpt><trkpt lat="44.762429" lon="9.2522446"><ele>754.6666666666666</ele><time>2026-04-26T09:09:35.296Z</time></trkpt><trkpt lat="44.7623201" lon="9.2524115"><ele>759.3333333333333</ele><time>2026-04-26T09:09:36.295Z</time></trkpt><trkpt lat="44.7621987" lon="9.2525603"><ele>764.0</ele><time>2026-04-26T09:09:37.296Z</time></trkpt><trkpt lat="44.7620809" lon="9.2526827"><ele>764.0</ele><time>2026-04-26T09:09:38.296Z</time></trkpt><trkpt lat="44.7619602" lon="9.252777"><ele>764.0</ele><time>2026-04-26T09:09:39.296Z</time></trkpt><trkpt lat="44.7618446" lon="9.2528514"><ele>764.0</ele><time>2026-04-26T09:09:40.296Z</time></trkpt><trkpt lat="44.7617315" lon="9.2528966"><ele>764.0</ele><time>2026-04-26T09:09:41.296Z</time></trkpt><trkpt lat="44.7616082" lon="9.2529193"><ele>762.5</ele><time>2026-04-26T09:09:42.296Z</time></trkpt><trkpt lat="44.7614824" lon="9.2528967"><ele>761.0</ele><time>2026-04-26T09:09:43.296Z</time></trkpt><trkpt lat="44.7613556" lon="9.2528363"><ele>759.5</ele><time>2026-04-26T09:09:44.296Z</time></trkpt><trkpt lat="44.7612291" lon="9.2527372"><ele>758.0</ele><time>2026-04-26T09:09:45.295Z</time></trkpt><trkpt lat="44.7611171" lon="9.2526194"><ele>759.5</ele><time>2026-04-26T09:09:46.296Z</time></trkpt><trkpt lat="44.7610182" lon="9.2524962"><ele>761.0</ele><time>2026-04-26T09:09:47.296Z</time></trkpt><trkpt lat="44.7609436" lon="9.2523636"><ele>762.5</ele><time>2026-04-26T09:09:48.296Z</time></trkpt><trkpt lat="44.7608953" lon="9.2522204"><ele>764.0</ele><time>2026-04-26T09:09:49.296Z</time></trkpt><trkpt lat="44.7608677" lon="9.2520644"><ele>764.0</ele><time>2026-04-26T09:09:50.296Z</time></trkpt><trkpt lat="44.7608416" lon="9.2519244"><ele>764.0</ele><time>2026-04-26T09:09:51.296Z</time></trkpt><trkpt lat="44.7608039" lon="9.2518038"><ele>764.0</ele><time>2026-04-26T09:09:52.296Z</time></trkpt><trkpt lat="44.7607518" lon="9.2516982"><ele>764.0</ele><time>2026-04-26T09:09:53.295Z</time></trkpt><trkpt lat="44.7606698" lon="9.2516152"><ele>764.0</ele><time>2026-04-26T09:09:54.296Z</time></trkpt><trkpt lat="44.760557" lon="9.251561"><ele>764.0</ele><time>2026-04-26T09:09:55.296Z</time></trkpt><trkpt lat="44.760431" lon="9.2515147"><ele>764.0</ele><time>2026-04-26T09:09:56.296Z</time></trkpt><trkpt lat="44.7603096" lon="9.2514778"><ele>764.0</ele><time>2026-04-26T09:09:57.296Z</time></trkpt><trkpt lat="44.7601981" lon="9.251446"><ele>764.0</ele><time>2026-04-26T09:09:58.295Z</time></trkpt><trkpt lat="44.7601049" lon="9.2514566"><ele>765.5</ele><time>2026-04-26T09:09:59.296Z</time></trkpt><trkpt lat="44.7600197" lon="9.2515158"><ele>767.0</ele><time>2026-04-26T09:10:00.296Z</time></trkpt><trkpt lat="44.759946" lon="9.2516248"><ele>768.5</ele><time>2026-04-26T09:10:01.295Z</time></trkpt><trkpt lat="44.7598954" lon="9.2517777"><ele>770.0</ele><time>2026-04-26T09:10:02.295Z</time></trkpt><trkpt lat="44.7598493" lon="9.2519497"><ele>770.0</ele><time>2026-04-26T09:10:03.295Z</time></trkpt><trkpt lat="44.7597918" lon="9.2521279"><ele>770.0</ele><time>2026-04-26T09:10:04.295Z</time></trkpt><trkpt lat="44.7597348" lon="9.2523045"><ele>770.0</ele><time>2026-04-26T09:10:05.296Z</time></trkpt><trkpt lat="44.7596727" lon="9.2524832"><ele>770.0</ele><time>2026-04-26T09:10:06.296Z</time></trkpt><trkpt lat="44.7596031" lon="9.2526743"><ele>772.3333333333334</ele><time>2026-04-26T09:10:07.296Z</time></trkpt><trkpt lat="44.7595319" lon="9.2528704"><ele>774.6666666666667</ele><time>2026-04-26T09:10:08.296Z</time></trkpt><trkpt lat="44.7594629" lon="9.253066"><ele>777.0</ele><time>2026-04-26T09:10:09.295Z</time></trkpt><trkpt lat="44.7594018" lon="9.2532557"><ele>775.5</ele><time>2026-04-26T09:10:10.296Z</time></trkpt><trkpt lat="44.7593375" lon="9.2534488"><ele>774.0</ele><time>2026-04-26T09:10:11.296Z</time></trkpt><trkpt lat="44.7592722" lon="9.2536301"><ele>772.5</ele><time>2026-04-26T09:10:12.296Z</time></trkpt><trkpt lat="44.7592014" lon="9.2537998"><ele>771.0</ele><time>2026-04-26T09:10:13.296Z</time></trkpt><trkpt lat="44.7591175" lon="9.253951"><ele>774.0</ele><time>2026-04-26T09:10:14.296Z</time></trkpt><trkpt lat="44.7590235" lon="9.2540822"><ele>777.0</ele><time>2026-04-26T09:10:15.296Z</time></trkpt><trkpt lat="44.7589317" lon="9.2541795"><ele>780.0</ele><time>2026-04-26T09:10:16.296Z</time></trkpt><trkpt lat="44.7588337" lon="9.2542368"><ele>783.0</ele><time>2026-04-26T09:10:17.296Z</time></trkpt><trkpt lat="44.758724" lon="9.2542658"><ele>783.0</ele><time>2026-04-26T09:10:18.296Z</time></trkpt><trkpt lat="44.7586058" lon="9.2542871"><ele>783.0</ele><time>2026-04-26T09:10:19.295Z</time></trkpt><trkpt lat="44.7584708" lon="9.2543093"><ele>783.0</ele><time>2026-04-26T09:10:20.296Z</time></trkpt><trkpt lat="44.75833" lon="9.2543334"><ele>783.0</ele><time>2026-04-26T09:10:21.295Z</time></trkpt><trkpt lat="44.7581886" lon="9.2543547"><ele>782.25</ele><time>2026-04-26T09:10:22.296Z</time></trkpt><trkpt lat="44.7580662" lon="9.2543844"><ele>781.5</ele><time>2026-04-26T09:10:23.296Z</time></trkpt><trkpt lat="44.7579566" lon="9.2544325"><ele>780.75</ele><time>2026-04-26T09:10:24.296Z</time></trkpt><trkpt lat="44.7578684" lon="9.2545179"><ele>780.0</ele><time>2026-04-26T09:10:25.296Z</time></trkpt><trkpt lat="44.7577988" lon="9.254631"><ele>780.0</ele><time>2026-04-26T09:10:26.296Z</time></trkpt><trkpt lat="44.7577576" lon="9.2547707"><ele>780.0</ele><time>2026-04-26T09:10:27.296Z</time></trkpt><trkpt lat="44.7577382" lon="9.2549346"><ele>780.0</ele><time>2026-04-26T09:10:28.296Z</time></trkpt><trkpt lat="44.7577335" lon="9.2551084"><ele>780.0</ele><time>2026-04-26T09:10:29.296Z</time></trkpt><trkpt lat="44.7577177" lon="9.2552751"><ele>780.25</ele><time>2026-04-26T09:10:30.296Z</time></trkpt><trkpt lat="44.7576796" lon="9.2554259"><ele>780.5</ele><time>2026-04-26T09:10:31.296Z</time></trkpt><trkpt lat="44.7576104" lon="9.2555631"><ele>780.75</ele><time>2026-04-26T09:10:32.296Z</time></trkpt><trkpt lat="44.7575203" lon="9.2556792"><ele>781.0</ele><time>2026-04-26T09:10:33.296Z</time></trkpt><trkpt lat="44.75741" lon="9.2557876"><ele>783.75</ele><time>2026-04-26T09:10:34.295Z</time></trkpt><trkpt lat="44.7572929" lon="9.2559011"><ele>786.5</ele><time>2026-04-26T09:10:35.295Z</time></trkpt><trkpt lat="44.7571711" lon="9.2560159"><ele>789.25</ele><time>2026-04-26T09:10:36.296Z</time></trkpt><trkpt lat="44.7570483" lon="9.2561376"><ele>792.0</ele><time>2026-04-26T09:10:37.296Z</time></trkpt><trkpt lat="44.7569297" lon="9.2562703"><ele>793.75</ele><time>2026-04-26T09:10:38.296Z</time></trkpt><trkpt lat="44.7568108" lon="9.2563946"><ele>795.5</ele><time>2026-04-26T09:10:39.296Z</time></trkpt><trkpt lat="44.7566952" lon="9.256506"><ele>797.25</ele><time>2026-04-26T09:10:40.296Z</time></trkpt><trkpt lat="44.7565797" lon="9.2566123"><ele>799.0</ele><time>2026-04-26T09:10:41.296Z</time></trkpt><trkpt lat="44.7564712" lon="9.2567247"><ele>799.0</ele><time>2026-04-26T09:10:42.296Z</time></trkpt><trkpt lat="44.7563725" lon="9.2568527"><ele>799.0</ele><time>2026-04-26T09:10:43.296Z</time></trkpt><trkpt lat="44.7562837" lon="9.2569767"><ele>799.0</ele><time>2026-04-26T09:10:44.296Z</time></trkpt><trkpt lat="44.7562121" lon="9.2570977"><ele>799.0</ele><time>2026-04-26T09:10:45.296Z</time></trkpt><trkpt lat="44.7561548" lon="9.2572246"><ele>804.25</ele><time>2026-04-26T09:10:46.296Z</time></trkpt><trkpt lat="44.7561235" lon="9.2573833"><ele>809.5</ele><time>2026-04-26T09:10:47.296Z</time></trkpt><trkpt lat="44.7561169" lon="9.2575466"><ele>814.75</ele><time>2026-04-26T09:10:48.296Z</time></trkpt><trkpt lat="44.7561212" lon="9.2577243"><ele>820.0</ele><time>2026-04-26T09:10:49.296Z</time></trkpt><trkpt lat="44.7561292" lon="9.2579037"><ele>820.0</ele><time>2026-04-26T09:10:50.296Z</time></trkpt><trkpt lat="44.7561306" lon="9.258086"><ele>820.0</ele><time>2026-04-26T09:10:51.295Z</time></trkpt><trkpt lat="44.7561113" lon="9.2582708"><ele>820.0</ele><time>2026-04-26T09:10:52.296Z</time></trkpt><trkpt lat="44.7560726" lon="9.2584546"><ele>820.0</ele><time>2026-04-26T09:10:53.296Z</time></trkpt><trkpt lat="44.7560269" lon="9.2586196"><ele>819.0</ele><time>2026-04-26T09:10:54.296Z</time></trkpt><trkpt lat="44.7559769" lon="9.258773"><ele>818.0</ele><time>2026-04-26T09:10:55.296Z</time></trkpt><trkpt lat="44.7559165" lon="9.2589083"><ele>817.0</ele><time>2026-04-26T09:10:56.296Z</time></trkpt><trkpt lat="44.7558472" lon="9.2590438"><ele>816.0</ele><time>2026-04-26T09:10:57.296Z</time></trkpt><trkpt lat="44.7557638" lon="9.2591644"><ele>816.0</ele><time>2026-04-26T09:10:58.296Z</time></trkpt><trkpt lat="44.7556746" lon="9.2592843"><ele>816.0</ele><time>2026-04-26T09:10:59.296Z</time></trkpt><trkpt lat="44.7555808" lon="9.2594153"><ele>816.0</ele><time>2026-04-26T09:11:00.296Z</time></trkpt><trkpt lat="44.7554831" lon="9.25955"><ele>816.0</ele><time>2026-04-26T09:11:01.296Z</time></trkpt><trkpt lat="44.7553806" lon="9.2596645"><ele>816.0</ele><time>2026-04-26T09:11:02.296Z</time></trkpt><trkpt lat="44.7552787" lon="9.2597636"><ele>816.0</ele><time>2026-04-26T09:11:03.296Z</time></trkpt><trkpt lat="44.7551856" lon="9.2598527"><ele>816.0</ele><time>2026-04-26T09:11:04.295Z</time></trkpt><trkpt lat="44.7550989" lon="9.2599429"><ele>816.0</ele><time>2026-04-26T09:11:05.296Z</time></trkpt><trkpt lat="44.7550345" lon="9.2600551"><ele>816.0</ele><time>2026-04-26T09:11:06.296Z</time></trkpt><trkpt lat="44.7550013" lon="9.2602133"><ele>816.5</ele><time>2026-04-26T09:11:07.296Z</time></trkpt><trkpt lat="44.7549875" lon="9.2603772"><ele>817.0</ele><time>2026-04-26T09:11:08.296Z</time></trkpt><trkpt lat="44.7549935" lon="9.2605567"><ele>817.5</ele><time>2026-04-26T09:11:09.296Z</time></trkpt><trkpt lat="44.7550032" lon="9.2607352"><ele>818.0</ele><time>2026-04-26T09:11:10.296Z</time></trkpt><trkpt lat="44.7550083" lon="9.2609119"><ele>818.0</ele><time>2026-04-26T09:11:11.296Z</time></trkpt><trkpt lat="44.7549965" lon="9.261081"><ele>818.0</ele><time>2026-04-26T09:11:12.296Z</time></trkpt><trkpt lat="44.7549587" lon="9.2612313"><ele>818.0</ele><time>2026-04-26T09:11:13.296Z</time></trkpt><trkpt lat="44.7548912" lon="9.2613642"><ele>818.0</ele><time>2026-04-26T09:11:14.296Z</time></trkpt><trkpt lat="44.7548293" lon="9.2614932"><ele>819.0</ele><time>2026-04-26T09:11:15.296Z</time></trkpt><trkpt lat="44.754784" lon="9.2616225"><ele>820.0</ele><time>2026-04-26T09:11:16.295Z</time></trkpt><trkpt lat="44.7547674" lon="9.2617623"><ele>821.0</ele><time>2026-04-26T09:11:17.296Z</time></trkpt><trkpt lat="44.7547976" lon="9.2619081"><ele>822.0</ele><time>2026-04-26T09:11:18.296Z</time></trkpt><trkpt lat="44.7548322" lon="9.2620638"><ele>823.0</ele><time>2026-04-26T09:11:19.296Z</time></trkpt><trkpt lat="44.7548565" lon="9.2622186"><ele>824.5</ele><time>2026-04-26T09:11:20.296Z</time></trkpt><trkpt lat="44.7548527" lon="9.2623829"><ele>826.0</ele><time>2026-04-26T09:11:21.296Z</time></trkpt><trkpt lat="44.7548281" lon="9.2625532"><ele>827.5</ele><time>2026-04-26T09:11:22.296Z</time></trkpt><trkpt lat="44.7547883" lon="9.2627316"><ele>829.0</ele><time>2026-04-26T09:11:23.296Z</time></trkpt><trkpt lat="44.7547473" lon="9.2629214"><ele>829.0</ele><time>2026-04-26T09:11:24.296Z</time></trkpt><trkpt lat="44.7547134" lon="9.2631063"><ele>829.0</ele><time>2026-04-26T09:11:25.295Z</time></trkpt><trkpt lat="44.7546948" lon="9.2632796"><ele>829.0</ele><time>2026-04-26T09:11:26.296Z</time></trkpt><trkpt lat="44.7547114" lon="9.263443"><ele>829.0</ele><time>2026-04-26T09:11:27.296Z</time></trkpt><trkpt lat="44.7547487" lon="9.2636023"><ele>829.0</ele><time>2026-04-26T09:11:28.296Z</time></trkpt><trkpt lat="44.7547964" lon="9.2637545"><ele>829.0</ele><time>2026-04-26T09:11:29.296Z</time></trkpt><trkpt lat="44.7548284" lon="9.263908"><ele>829.0</ele><time>2026-04-26T09:11:30.296Z</time></trkpt><trkpt lat="44.7548358" lon="9.2640739"><ele>829.0</ele><time>2026-04-26T09:11:31.296Z</time></trkpt><trkpt lat="44.7548163" lon="9.2642443"><ele>829.0</ele><time>2026-04-26T09:11:32.296Z</time></trkpt><trkpt lat="44.7547873" lon="9.2644274"><ele>829.0</ele><time>2026-04-26T09:11:33.295Z</time></trkpt><trkpt lat="44.7547583" lon="9.264616"><ele>829.0</ele><time>2026-04-26T09:11:34.296Z</time></trkpt><trkpt lat="44.7547316" lon="9.2648001"><ele>829.0</ele><time>2026-04-26T09:11:35.295Z</time></trkpt><trkpt lat="44.7547003" lon="9.2649723"><ele>830.75</ele><time>2026-04-26T09:11:36.296Z</time></trkpt><trkpt lat="44.7546543" lon="9.2651244"><ele>832.5</ele><time>2026-04-26T09:11:37.296Z</time></trkpt><trkpt lat="44.7545898" lon="9.265244"><ele>834.25</ele><time>2026-04-26T09:11:38.296Z</time></trkpt><trkpt lat="44.7545017" lon="9.2653259"><ele>836.0</ele><time>2026-04-26T09:11:39.296Z</time></trkpt><trkpt lat="44.7543853" lon="9.2653769"><ele>832.6666666666667</ele><time>2026-04-26T09:11:40.296Z</time></trkpt><trkpt lat="44.7542469" lon="9.2654143"><ele>829.3333333333333</ele><time>2026-04-26T09:11:41.296Z</time></trkpt><trkpt lat="44.7540984" lon="9.2654609"><ele>826.0</ele><time>2026-04-26T09:11:42.296Z</time></trkpt><trkpt lat="44.7539439" lon="9.2655156"><ele>826.0</ele><time>2026-04-26T09:11:43.296Z</time></trkpt><trkpt lat="44.7537899" lon="9.2655712"><ele>826.0</ele><time>2026-04-26T09:11:44.296Z</time></trkpt><trkpt lat="44.7536323" lon="9.2656226"><ele>826.0</ele><time>2026-04-26T09:11:45.296Z</time></trkpt><trkpt lat="44.7534688" lon="9.2656563"><ele>829.3333333333333</ele><time>2026-04-26T09:11:46.296Z</time></trkpt><trkpt lat="44.7533001" lon="9.2656774"><ele>832.6666666666667</ele><time>2026-04-26T09:11:47.296Z</time></trkpt><trkpt lat="44.7531293" lon="9.2656769"><ele>836.0</ele><time>2026-04-26T09:11:48.296Z</time></trkpt><trkpt lat="44.7529557" lon="9.2656536"><ele>836.0</ele><time>2026-04-26T09:11:49.296Z</time></trkpt><trkpt lat="44.7527785" lon="9.2656147"><ele>836.0</ele><time>2026-04-26T09:11:50.296Z</time></trkpt><trkpt lat="44.7526129" lon="9.2655654"><ele>836.0</ele><time>2026-04-26T09:11:51.296Z</time></trkpt><trkpt lat="44.7524667" lon="9.265515"><ele>833.5</ele><time>2026-04-26T09:11:52.295Z</time></trkpt><trkpt lat="44.7523301" lon="9.2654785"><ele>831.0</ele><time>2026-04-26T09:11:53.296Z</time></trkpt><trkpt lat="44.752208" lon="9.2654691"><ele>828.5</ele><time>2026-04-26T09:11:54.296Z</time></trkpt><trkpt lat="44.7521067" lon="9.2654911"><ele>826.0</ele><time>2026-04-26T09:11:55.296Z</time></trkpt><trkpt lat="44.7520263" lon="9.2655585"><ele>829.5</ele><time>2026-04-26T09:11:56.296Z</time></trkpt><trkpt lat="44.7519719" lon="9.2656801"><ele>833.0</ele><time>2026-04-26T09:11:57.295Z</time></trkpt><trkpt lat="44.7519383" lon="9.2658343"><ele>836.5</ele><time>2026-04-26T09:11:58.296Z</time></trkpt><trkpt lat="44.7519074" lon="9.2660163"><ele>840.0</ele><time>2026-04-26T09:11:59.296Z</time></trkpt><trkpt lat="44.751874" lon="9.2661932"><ele>838.0</ele><time>2026-04-26T09:12:00.295Z</time></trkpt><trkpt lat="44.7518361" lon="9.2663723"><ele>836.0</ele><time>2026-04-26T09:12:01.296Z</time></trkpt><trkpt lat="44.751801" lon="9.2665478"><ele>834.0</ele><time>2026-04-26T09:12:02.295Z</time></trkpt><trkpt lat="44.7517833" lon="9.266712"><ele>832.0</ele><time>2026-04-26T09:12:03.295Z</time></trkpt><trkpt lat="44.7517951" lon="9.266876"><ele>832.0</ele><time>2026-04-26T09:12:04.296Z</time></trkpt><trkpt lat="44.7518169" lon="9.2670396"><ele>832.0</ele><time>2026-04-26T09:12:05.296Z</time></trkpt><trkpt lat="44.7518224" lon="9.2672052"><ele>832.0</ele><time>2026-04-26T09:12:06.296Z</time></trkpt><trkpt lat="44.7518026" lon="9.2673645"><ele>832.0</ele><time>2026-04-26T09:12:07.296Z</time></trkpt><trkpt lat="44.751764" lon="9.2675268"><ele>833.2</ele><time>2026-04-26T09:12:08.296Z</time></trkpt><trkpt lat="44.7517251" lon="9.2676816"><ele>834.4000000000001</ele><time>2026-04-26T09:12:09.296Z</time></trkpt><trkpt lat="44.7517036" lon="9.2678396"><ele>835.5999999999999</ele><time>2026-04-26T09:12:10.296Z</time></trkpt><trkpt lat="44.7517123" lon="9.2679962"><ele>836.8</ele><time>2026-04-26T09:12:11.296Z</time></trkpt><trkpt lat="44.7517271" lon="9.2681441"><ele>838.0</ele><time>2026-04-26T09:12:12.295Z</time></trkpt><trkpt lat="44.7517336" lon="9.2682876"><ele>840.0</ele><time>2026-04-26T09:12:13.295Z</time></trkpt><trkpt lat="44.7517092" lon="9.2684236"><ele>842.0</ele><time>2026-04-26T09:12:14.296Z</time></trkpt><trkpt lat="44.7516515" lon="9.2685484"><ele>844.0</ele><time>2026-04-26T09:12:15.296Z</time></trkpt><trkpt lat="44.7515669" lon="9.2686461"><ele>846.0</ele><time>2026-04-26T09:12:16.296Z</time></trkpt><trkpt lat="44.7514543" lon="9.2687095"><ele>848.0</ele><time>2026-04-26T09:12:17.296Z</time></trkpt><trkpt lat="44.7513122" lon="9.2687384"><ele>848.0</ele><time>2026-04-26T09:12:18.296Z</time></trkpt><trkpt lat="44.7511636" lon="9.2687441"><ele>848.0</ele><time>2026-04-26T09:12:19.296Z</time></trkpt><trkpt lat="44.7510142" lon="9.2687371"><ele>848.0</ele><time>2026-04-26T09:12:20.296Z</time></trkpt><trkpt lat="44.7508664" lon="9.2687204"><ele>848.0</ele><time>2026-04-26T09:12:21.295Z</time></trkpt><trkpt lat="44.7507285" lon="9.2686935"><ele>845.3333333333334</ele><time>2026-04-26T09:12:22.296Z</time></trkpt><trkpt lat="44.7505847" lon="9.2686581"><ele>842.6666666666667</ele><time>2026-04-26T09:12:23.296Z</time></trkpt><trkpt lat="44.7504305" lon="9.2686396"><ele>840.0</ele><time>2026-04-26T09:12:24.296Z</time></trkpt><trkpt lat="44.7502727" lon="9.2686326"><ele>840.0</ele><time>2026-04-26T09:12:25.296Z</time></trkpt><trkpt lat="44.7501171" lon="9.2686306"><ele>840.0</ele><time>2026-04-26T09:12:26.296Z</time></trkpt><trkpt lat="44.7499662" lon="9.2686101"><ele>840.0</ele><time>2026-04-26T09:12:27.296Z</time></trkpt><trkpt lat="44.7498201" lon="9.2685849"><ele>840.0</ele><time>2026-04-26T09:12:28.296Z</time></trkpt><trkpt lat="44.749682" lon="9.2685644"><ele>840.0</ele><time>2026-04-26T09:12:29.295Z</time></trkpt><trkpt lat="44.7495454" lon="9.2685514"><ele>840.0</ele><time>2026-04-26T09:12:30.295Z</time></trkpt><trkpt lat="44.7494002" lon="9.2685569"><ele>840.0</ele><time>2026-04-26T09:12:31.296Z</time></trkpt><trkpt lat="44.7492575" lon="9.2686037"><ele>841.25</ele><time>2026-04-26T09:12:32.296Z</time></trkpt><trkpt lat="44.7491205" lon="9.2686536"><ele>842.5</ele><time>2026-04-26T09:12:33.296Z</time></trkpt><trkpt lat="44.7489813" lon="9.2686972"><ele>843.75</ele><time>2026-04-26T09:12:34.296Z</time></trkpt><trkpt lat="44.7488339" lon="9.2687163"><ele>845.0</ele><time>2026-04-26T09:12:35.295Z</time></trkpt><trkpt lat="44.748692" lon="9.268706"><ele>845.0</ele><time>2026-04-26T09:12:36.296Z</time></trkpt><trkpt lat="44.7485514" lon="9.268681"><ele>845.0</ele><time>2026-04-26T09:12:37.296Z</time></trkpt><trkpt lat="44.7484009" lon="9.268655"><ele>845.0</ele><time>2026-04-26T09:12:38.296Z</time></trkpt><trkpt lat="44.7482479" lon="9.2686324"><ele>845.0</ele><time>2026-04-26T09:12:39.296Z</time></trkpt><trkpt lat="44.7480999" lon="9.2686125"><ele>845.5</ele><time>2026-04-26T09:12:40.296Z</time></trkpt><trkpt lat="44.747975" lon="9.2685948"><ele>846.0</ele><time>2026-04-26T09:12:41.296Z</time></trkpt><trkpt lat="44.7478641" lon="9.2685893"><ele>846.5</ele><time>2026-04-26T09:12:42.296Z</time></trkpt><trkpt lat="44.7477568" lon="9.2685946"><ele>847.0</ele><time>2026-04-26T09:12:43.296Z</time></trkpt><trkpt lat="44.7476594" lon="9.2686653"><ele>847.0</ele><time>2026-04-26T09:12:44.296Z</time></trkpt><trkpt lat="44.7475522" lon="9.2687535"><ele>847.0</ele><time>2026-04-26T09:12:45.296Z</time></trkpt><trkpt lat="44.7474552" lon="9.2688718"><ele>847.0</ele><time>2026-04-26T09:12:46.296Z</time></trkpt><trkpt lat="44.7473634" lon="9.2689966"><ele>847.0</ele><time>2026-04-26T09:12:47.296Z</time></trkpt><trkpt lat="44.7472809" lon="9.2691352"><ele>850.0</ele><time>2026-04-26T09:12:48.295Z</time></trkpt><trkpt lat="44.7472031" lon="9.2692886"><ele>853.0</ele><time>2026-04-26T09:12:49.296Z</time></trkpt><trkpt lat="44.7471406" lon="9.2694649"><ele>856.0</ele><time>2026-04-26T09:12:50.296Z</time></trkpt><trkpt lat="44.7470912" lon="9.2696484"><ele>859.0</ele><time>2026-04-26T09:12:51.296Z</time></trkpt><trkpt lat="44.7470609" lon="9.269867"><ele>862.3333333333333</ele><time>2026-04-26T09:12:52.295Z</time></trkpt><trkpt lat="44.747035" lon="9.2701008"><ele>865.6666666666667</ele><time>2026-04-26T09:12:53.296Z</time></trkpt><trkpt lat="44.7470017" lon="9.2703277"><ele>869.0</ele><time>2026-04-26T09:12:54.296Z</time></trkpt><trkpt lat="44.7469663" lon="9.270552"><ele>873.6666666666667</ele><time>2026-04-26T09:12:55.296Z</time></trkpt><trkpt lat="44.74693" lon="9.270781"><ele>878.3333333333333</ele><time>2026-04-26T09:12:56.296Z</time></trkpt><trkpt lat="44.7468934" lon="9.2710009"><ele>883.0</ele><time>2026-04-26T09:12:57.295Z</time></trkpt><trkpt lat="44.7468497" lon="9.2712315"><ele>875.0</ele><time>2026-04-26T09:12:58.296Z</time></trkpt><trkpt lat="44.746813" lon="9.2714689"><ele>867.0</ele><time>2026-04-26T09:12:59.296Z</time></trkpt><trkpt lat="44.7467928" lon="9.2717091"><ele>859.0</ele><time>2026-04-26T09:13:00.296Z</time></trkpt><trkpt lat="44.7467886" lon="9.271947"><ele>859.0</ele><time>2026-04-26T09:13:01.296Z</time></trkpt><trkpt lat="44.7467908" lon="9.2721762"><ele>859.0</ele><time>2026-04-26T09:13:02.296Z</time></trkpt><trkpt lat="44.7468059" lon="9.2723905"><ele>859.0</ele><time>2026-04-26T09:13:03.295Z</time></trkpt><trkpt lat="44.746821" lon="9.2725991"><ele>859.75</ele><time>2026-04-26T09:13:04.296Z</time></trkpt><trkpt lat="44.7468311" lon="9.2727861"><ele>860.5</ele><time>2026-04-26T09:13:05.296Z</time></trkpt><trkpt lat="44.7468588" lon="9.2729432"><ele>861.25</ele><time>2026-04-26T09:13:06.296Z</time></trkpt><trkpt lat="44.7469054" lon="9.2730687"><ele>862.0</ele><time>2026-04-26T09:13:07.296Z</time></trkpt><trkpt lat="44.7469909" lon="9.2731619"><ele>866.0</ele><time>2026-04-26T09:13:08.296Z</time></trkpt><trkpt lat="44.7471011" lon="9.2732429"><ele>870.0</ele><time>2026-04-26T09:13:09.296Z</time></trkpt><trkpt lat="44.747205" lon="9.2733323"><ele>874.0</ele><time>2026-04-26T09:13:10.296Z</time></trkpt><trkpt lat="44.7473103" lon="9.273448"><ele>878.0</ele><time>2026-04-26T09:13:11.295Z</time></trkpt><trkpt lat="44.7474073" lon="9.2735884"><ele>878.0</ele><time>2026-04-26T09:13:12.296Z</time></trkpt><trkpt lat="44.7474836" lon="9.273744"><ele>878.0</ele><time>2026-04-26T09:13:13.296Z</time></trkpt><trkpt lat="44.7475415" lon="9.2738932"><ele>878.0</ele><time>2026-04-26T09:13:14.296Z</time></trkpt><trkpt lat="44.7475831" lon="9.2740425"><ele>878.0</ele><time>2026-04-26T09:13:15.296Z</time></trkpt><trkpt lat="44.747593" lon="9.2742131"><ele>878.0</ele><time>2026-04-26T09:13:16.296Z</time></trkpt><trkpt lat="44.7475796" lon="9.2743946"><ele>878.0</ele><time>2026-04-26T09:13:17.296Z</time></trkpt><trkpt lat="44.7475433" lon="9.2745791"><ele>878.0</ele><time>2026-04-26T09:13:18.296Z</time></trkpt><trkpt lat="44.7474893" lon="9.2747447"><ele>878.0</ele><time>2026-04-26T09:13:19.296Z</time></trkpt><trkpt lat="44.7474161" lon="9.2748947"><ele>878.0</ele><time>2026-04-26T09:13:20.296Z</time></trkpt><trkpt lat="44.7473198" lon="9.2750193"><ele>878.0</ele><time>2026-04-26T09:13:21.296Z</time></trkpt><trkpt lat="44.7472014" lon="9.27512"><ele>878.0</ele><time>2026-04-26T09:13:22.296Z</time></trkpt><trkpt lat="44.7470754" lon="9.2752182"><ele>878.0</ele><time>2026-04-26T09:13:23.296Z</time></trkpt><trkpt lat="44.7469534" lon="9.2753236"><ele>878.0</ele><time>2026-04-26T09:13:24.296Z</time></trkpt><trkpt lat="44.7468412" lon="9.2754274"><ele>878.0</ele><time>2026-04-26T09:13:25.296Z</time></trkpt><trkpt lat="44.7467534" lon="9.2755388"><ele>878.0</ele><time>2026-04-26T09:13:26.296Z</time></trkpt><trkpt lat="44.7466697" lon="9.2756623"><ele>878.0</ele><time>2026-04-26T09:13:27.296Z</time></trkpt><trkpt lat="44.7465947" lon="9.275793"><ele>878.0</ele><time>2026-04-26T09:13:28.296Z</time></trkpt><trkpt lat="44.7465422" lon="9.2759365"><ele>878.0</ele><time>2026-04-26T09:13:29.295Z</time></trkpt><trkpt lat="44.7465059" lon="9.2760857"><ele>878.0</ele><time>2026-04-26T09:13:30.296Z</time></trkpt><trkpt lat="44.7464696" lon="9.2762518"><ele>878.0</ele><time>2026-04-26T09:13:31.296Z</time></trkpt><trkpt lat="44.7464345" lon="9.2764035"><ele>879.5999999999999</ele><time>2026-04-26T09:13:32.296Z</time></trkpt><trkpt lat="44.7464015" lon="9.2765337"><ele>881.1999999999999</ele><time>2026-04-26T09:13:33.296Z</time></trkpt><trkpt lat="44.7463681" lon="9.2766505"><ele>882.8</ele><time>2026-04-26T09:13:34.296Z</time></trkpt><trkpt lat="44.7463137" lon="9.2767612"><ele>884.4</ele><time>2026-04-26T09:13:35.296Z</time></trkpt><trkpt lat="44.7462468" lon="9.2768413"><ele>886.0</ele><time>2026-04-26T09:13:36.296Z</time></trkpt><trkpt lat="44.746158" lon="9.2768777"><ele>886.0</ele><time>2026-04-26T09:13:37.296Z</time></trkpt><trkpt lat="44.7460567" lon="9.2768684"><ele>885.9999999999999</ele><time>2026-04-26T09:13:38.296Z</time></trkpt><trkpt lat="44.7459495" lon="9.2768623"><ele>885.9999999999999</ele><time>2026-04-26T09:13:39.296Z</time></trkpt><trkpt lat="44.7458512" lon="9.2768928"><ele>886.0</ele><time>2026-04-26T09:13:40.296Z</time></trkpt><trkpt lat="44.7457728" lon="9.2769586"><ele>886.0</ele><time>2026-04-26T09:13:41.296Z</time></trkpt><trkpt lat="44.7457045" lon="9.2770475"><ele>886.4</ele><time>2026-04-26T09:13:42.296Z</time></trkpt><trkpt lat="44.7456509" lon="9.2771604"><ele>886.8</ele><time>2026-04-26T09:13:43.295Z</time></trkpt><trkpt lat="44.7456227" lon="9.2772887"><ele>887.1999999999999</ele><time>2026-04-26T09:13:44.296Z</time></trkpt><trkpt lat="44.7456144" lon="9.2774582"><ele>887.5999999999999</ele><time>2026-04-26T09:13:45.295Z</time></trkpt><trkpt lat="44.7456014" lon="9.2776324"><ele>888.0</ele><time>2026-04-26T09:13:46.296Z</time></trkpt><trkpt lat="44.745584" lon="9.2778001"><ele>888.0</ele><time>2026-04-26T09:13:47.296Z</time></trkpt><trkpt lat="44.7455641" lon="9.277953"><ele>888.0</ele><time>2026-04-26T09:13:48.296Z</time></trkpt><trkpt lat="44.7455402" lon="9.2780792"><ele>888.0</ele><time>2026-04-26T09:13:49.295Z</time></trkpt><trkpt lat="44.7455276" lon="9.278176"><ele>888.0</ele><time>2026-04-26T09:13:50.296Z</time></trkpt><trkpt lat="44.7455255" lon="9.2783445"><ele>888.0</ele><time>2026-04-26T09:13:52.296Z</time></trkpt><trkpt lat="44.7455376" lon="9.278441"><ele>889.0</ele><time>2026-04-26T09:13:53.296Z</time></trkpt><trkpt lat="44.7455634" lon="9.2785481"><ele>890.0</ele><time>2026-04-26T09:13:54.296Z</time></trkpt><trkpt lat="44.7455964" lon="9.2786658"><ele>891.0</ele><time>2026-04-26T09:13:55.295Z</time></trkpt><trkpt lat="44.7456315" lon="9.2787686"><ele>892.0</ele><time>2026-04-26T09:13:56.296Z</time></trkpt><trkpt lat="44.7456772" lon="9.2788497"><ele>893.0</ele><time>2026-04-26T09:13:57.296Z</time></trkpt><trkpt lat="44.7457331" lon="9.2788975"><ele>894.0</ele><time>2026-04-26T09:13:58.296Z</time></trkpt><trkpt lat="44.7458602" lon="9.2788613"><ele>894.0</ele><time>2026-04-26T09:14:00.296Z</time></trkpt><trkpt lat="44.7459218" lon="9.2787767"><ele>894.0000000000001</ele><time>2026-04-26T09:14:01.296Z</time></trkpt><trkpt lat="44.7459806" lon="9.2786708"><ele>894.0000000000001</ele><time>2026-04-26T09:14:02.296Z</time></trkpt><trkpt lat="44.7460344" lon="9.2785493"><ele>894.0</ele><time>2026-04-26T09:14:03.296Z</time></trkpt><trkpt lat="44.7460847" lon="9.2784388"><ele>894.0</ele><time>2026-04-26T09:14:04.296Z</time></trkpt><trkpt lat="44.746147" lon="9.2783416"><ele>895.5</ele><time>2026-04-26T09:14:05.296Z</time></trkpt><trkpt lat="44.7462155" lon="9.2782744"><ele>897.0</ele><time>2026-04-26T09:14:06.296Z</time></trkpt><trkpt lat="44.7462886" lon="9.2782518"><ele>898.5</ele><time>2026-04-26T09:14:07.296Z</time></trkpt><trkpt lat="44.7463627" lon="9.2782713"><ele>900.0</ele><time>2026-04-26T09:14:08.296Z</time></trkpt><trkpt lat="44.7464233" lon="9.27834"><ele>901.5</ele><time>2026-04-26T09:14:09.296Z</time></trkpt><trkpt lat="44.74647" lon="9.2784486"><ele>903.0</ele><time>2026-04-26T09:14:10.296Z</time></trkpt><trkpt lat="44.7465095" lon="9.2785708"><ele>903.0</ele><time>2026-04-26T09:14:11.296Z</time></trkpt><trkpt lat="44.7465552" lon="9.2787055"><ele>903.0</ele><time>2026-04-26T09:14:12.296Z</time></trkpt><trkpt lat="44.7466055" lon="9.2788461"><ele>903.0</ele><time>2026-04-26T09:14:13.296Z</time></trkpt><trkpt lat="44.7466585" lon="9.278997"><ele>903.0</ele><time>2026-04-26T09:14:14.296Z</time></trkpt><trkpt lat="44.7467186" lon="9.2791525"><ele>904.75</ele><time>2026-04-26T09:14:15.295Z</time></trkpt><trkpt lat="44.74678" lon="9.2793133"><ele>906.5</ele><time>2026-04-26T09:14:16.295Z</time></trkpt><trkpt lat="44.7468293" lon="9.2794675"><ele>908.25</ele><time>2026-04-26T09:14:17.296Z</time></trkpt><trkpt lat="44.7468753" lon="9.2796309"><ele>910.0</ele><time>2026-04-26T09:14:18.296Z</time></trkpt><trkpt lat="44.7469051" lon="9.2797923"><ele>914.0</ele><time>2026-04-26T09:14:19.295Z</time></trkpt><trkpt lat="44.7469286" lon="9.2799625"><ele>918.0</ele><time>2026-04-26T09:14:20.296Z</time></trkpt><trkpt lat="44.7469515" lon="9.280131"><ele>922.0</ele><time>2026-04-26T09:14:21.296Z</time></trkpt><trkpt lat="44.7469867" lon="9.2802883"><ele>926.0</ele><time>2026-04-26T09:14:22.296Z</time></trkpt><trkpt lat="44.7470375" lon="9.2804326"><ele>926.0</ele><time>2026-04-26T09:14:23.296Z</time></trkpt><trkpt lat="44.7471027" lon="9.2805619"><ele>926.0</ele><time>2026-04-26T09:14:24.296Z</time></trkpt><trkpt lat="44.7471711" lon="9.280693"><ele>926.0</ele><time>2026-04-26T09:14:25.296Z</time></trkpt><trkpt lat="44.747239" lon="9.2808291"><ele>926.0</ele><time>2026-04-26T09:14:26.296Z</time></trkpt><trkpt lat="44.7473063" lon="9.2809619"><ele>927.25</ele><time>2026-04-26T09:14:27.296Z</time></trkpt><trkpt lat="44.747372" lon="9.2810983"><ele>928.5</ele><time>2026-04-26T09:14:28.296Z</time></trkpt><trkpt lat="44.7474378" lon="9.2812323"><ele>929.75</ele><time>2026-04-26T09:14:29.296Z</time></trkpt><trkpt lat="44.7474978" lon="9.2813692"><ele>931.0</ele><time>2026-04-26T09:14:30.296Z</time></trkpt><trkpt lat="44.7475573" lon="9.2815076"><ele>931.5999999999999</ele><time>2026-04-26T09:14:31.296Z</time></trkpt><trkpt lat="44.7476194" lon="9.2816401"><ele>932.1999999999999</ele><time>2026-04-26T09:14:32.296Z</time></trkpt><trkpt lat="44.7476769" lon="9.2817717"><ele>932.8000000000001</ele><time>2026-04-26T09:14:33.296Z</time></trkpt><trkpt lat="44.7477352" lon="9.2819051"><ele>933.4000000000001</ele><time>2026-04-26T09:14:34.296Z</time></trkpt><trkpt lat="44.747801" lon="9.2820258"><ele>934.0</ele><time>2026-04-26T09:14:35.295Z</time></trkpt><trkpt lat="44.7478743" lon="9.2821172"><ele>938.0</ele><time>2026-04-26T09:14:36.296Z</time></trkpt><trkpt lat="44.7479634" lon="9.2821802"><ele>942.0000000000001</ele><time>2026-04-26T09:14:37.296Z</time></trkpt><trkpt lat="44.7480517" lon="9.2822055"><ele>946.0000000000001</ele><time>2026-04-26T09:14:38.296Z</time></trkpt><trkpt lat="44.7481376" lon="9.2821971"><ele>950.0</ele><time>2026-04-26T09:14:39.296Z</time></trkpt><trkpt lat="44.7482243" lon="9.2821738"><ele>954.0</ele><time>2026-04-26T09:14:40.296Z</time></trkpt><trkpt lat="44.748305" lon="9.2821233"><ele>954.0</ele><time>2026-04-26T09:14:41.296Z</time></trkpt><trkpt lat="44.7483877" lon="9.2820388"><ele>954.0000000000001</ele><time>2026-04-26T09:14:42.296Z</time></trkpt><trkpt lat="44.7484561" lon="9.281942"><ele>954.0000000000001</ele><time>2026-04-26T09:14:43.296Z</time></trkpt><trkpt lat="44.748505" lon="9.2818172"><ele>954.0</ele><time>2026-04-26T09:14:44.296Z</time></trkpt><trkpt lat="44.7485459" lon="9.2816748"><ele>954.0</ele><time>2026-04-26T09:14:45.295Z</time></trkpt><trkpt lat="44.7485868" lon="9.2815349"><ele>959.75</ele><time>2026-04-26T09:14:46.296Z</time></trkpt><trkpt lat="44.7486322" lon="9.2813875"><ele>965.5</ele><time>2026-04-26T09:14:47.296Z</time></trkpt><trkpt lat="44.7486844" lon="9.2812396"><ele>971.25</ele><time>2026-04-26T09:14:48.296Z</time></trkpt><trkpt lat="44.7487283" lon="9.2810973"><ele>977.0</ele><time>2026-04-26T09:14:49.296Z</time></trkpt><trkpt lat="44.7487734" lon="9.2809542"><ele>977.0</ele><time>2026-04-26T09:14:50.296Z</time></trkpt><trkpt lat="44.7488171" lon="9.2808152"><ele>977.0</ele><time>2026-04-26T09:14:51.296Z</time></trkpt><trkpt lat="44.7488648" lon="9.2806849"><ele>977.0</ele><time>2026-04-26T09:14:52.296Z</time></trkpt><trkpt lat="44.7489207" lon="9.2805572"><ele>977.0</ele><time>2026-04-26T09:14:53.296Z</time></trkpt><trkpt lat="44.7489816" lon="9.2804435"><ele>977.0</ele><time>2026-04-26T09:14:54.296Z</time></trkpt><trkpt lat="44.7490473" lon="9.2803476"><ele>978.0</ele><time>2026-04-26T09:14:55.296Z</time></trkpt><trkpt lat="44.7491259" lon="9.280256"><ele>979.0</ele><time>2026-04-26T09:14:56.296Z</time></trkpt><trkpt lat="44.7492149" lon="9.2801755"><ele>980.0</ele><time>2026-04-26T09:14:57.296Z</time></trkpt><trkpt lat="44.7493058" lon="9.2801018"><ele>981.0</ele><time>2026-04-26T09:14:58.296Z</time></trkpt><trkpt lat="44.7494011" lon="9.2800384"><ele>982.0</ele><time>2026-04-26T09:14:59.296Z</time></trkpt><trkpt lat="44.7495028" lon="9.2799893"><ele>982.0</ele><time>2026-04-26T09:15:00.295Z</time></trkpt><trkpt lat="44.7496111" lon="9.2799603"><ele>982.0</ele><time>2026-04-26T09:15:01.296Z</time></trkpt><trkpt lat="44.7497192" lon="9.2799411"><ele>982.0</ele><time>2026-04-26T09:15:02.296Z</time></trkpt><trkpt lat="44.7498264" lon="9.2799312"><ele>982.0</ele><time>2026-04-26T09:15:03.296Z</time></trkpt><trkpt lat="44.7499313" lon="9.279924"><ele>982.0</ele><time>2026-04-26T09:15:04.296Z</time></trkpt><trkpt lat="44.7500315" lon="9.2799211"><ele>982.0</ele><time>2026-04-26T09:15:05.296Z</time></trkpt><trkpt lat="44.750133" lon="9.2799002"><ele>982.0</ele><time>2026-04-26T09:15:06.296Z</time></trkpt><trkpt lat="44.750233" lon="9.2798939"><ele>982.0</ele><time>2026-04-26T09:15:07.296Z</time></trkpt><trkpt lat="44.7503229" lon="9.2799209"><ele>982.0</ele><time>2026-04-26T09:15:08.296Z</time></trkpt><trkpt lat="44.7504052" lon="9.2799749"><ele>982.0</ele><time>2026-04-26T09:15:09.296Z</time></trkpt><trkpt lat="44.7504875" lon="9.2800643"><ele>981.5</ele><time>2026-04-26T09:15:10.296Z</time></trkpt><trkpt lat="44.7505635" lon="9.2801781"><ele>981.0</ele><time>2026-04-26T09:15:11.296Z</time></trkpt><trkpt lat="44.7506372" lon="9.2803082"><ele>980.5</ele><time>2026-04-26T09:15:12.296Z</time></trkpt><trkpt lat="44.7507136" lon="9.2804427"><ele>980.0</ele><time>2026-04-26T09:15:13.296Z</time></trkpt><trkpt lat="44.7507963" lon="9.2805725"><ele>982.0</ele><time>2026-04-26T09:15:14.296Z</time></trkpt><trkpt lat="44.750876" lon="9.2807037"><ele>984.0</ele><time>2026-04-26T09:15:15.295Z</time></trkpt><trkpt lat="44.7509523" lon="9.2808306"><ele>986.0</ele><time>2026-04-26T09:15:16.296Z</time></trkpt><trkpt lat="44.7510219" lon="9.2809504"><ele>988.0</ele><time>2026-04-26T09:15:17.296Z</time></trkpt><trkpt lat="44.7510887" lon="9.2810687"><ele>988.0</ele><time>2026-04-26T09:15:18.296Z</time></trkpt><trkpt lat="44.7511522" lon="9.2811841"><ele>988.0</ele><time>2026-04-26T09:15:19.295Z</time></trkpt><trkpt lat="44.7511983" lon="9.2812843"><ele>988.0</ele><time>2026-04-26T09:15:20.296Z</time></trkpt><trkpt lat="44.7512396" lon="9.2813863"><ele>988.0</ele><time>2026-04-26T09:15:21.296Z</time></trkpt><trkpt lat="44.7512697" lon="9.2815067"><ele>988.0</ele><time>2026-04-26T09:15:22.295Z</time></trkpt><trkpt lat="44.7512881" lon="9.2816463"><ele>990.8</ele><time>2026-04-26T09:15:23.296Z</time></trkpt><trkpt lat="44.751293" lon="9.2817829"><ele>993.5999999999999</ele><time>2026-04-26T09:15:24.296Z</time></trkpt><trkpt lat="44.7512878" lon="9.2819171"><ele>996.4000000000001</ele><time>2026-04-26T09:15:25.296Z</time></trkpt><trkpt lat="44.7512642" lon="9.2820532"><ele>999.2</ele><time>2026-04-26T09:15:26.296Z</time></trkpt><trkpt lat="44.7512374" lon="9.2821769"><ele>1002.0</ele><time>2026-04-26T09:15:27.295Z</time></trkpt><trkpt lat="44.7512117" lon="9.2822952"><ele>1003.8333333333334</ele><time>2026-04-26T09:15:28.296Z</time></trkpt><trkpt lat="44.7511944" lon="9.2824088"><ele>1005.6666666666667</ele><time>2026-04-26T09:15:29.296Z</time></trkpt><trkpt lat="44.7511841" lon="9.2825204"><ele>1007.5</ele><time>2026-04-26T09:15:30.296Z</time></trkpt><trkpt lat="44.7511794" lon="9.2826303"><ele>1009.3333333333334</ele><time>2026-04-26T09:15:31.296Z</time></trkpt><trkpt lat="44.7511873" lon="9.2827352"><ele>1011.1666666666667</ele><time>2026-04-26T09:15:32.295Z</time></trkpt><trkpt lat="44.7511948" lon="9.2828345"><ele>1013.0</ele><time>2026-04-26T09:15:33.296Z</time></trkpt><trkpt lat="44.7511838" lon="9.2829301"><ele>1013.0</ele><time>2026-04-26T09:15:34.295Z</time></trkpt><trkpt lat="44.7511594" lon="9.2830432"><ele>1013.0</ele><time>2026-04-26T09:15:35.296Z</time></trkpt><trkpt lat="44.7511327" lon="9.283166"><ele>1013.0</ele><time>2026-04-26T09:15:36.296Z</time></trkpt><trkpt lat="44.7511024" lon="9.2833049"><ele>1013.0</ele><time>2026-04-26T09:15:37.296Z</time></trkpt><trkpt lat="44.7510733" lon="9.2834553"><ele>1013.0</ele><time>2026-04-26T09:15:38.296Z</time></trkpt><trkpt lat="44.7510456" lon="9.2836161"><ele>1013.25</ele><time>2026-04-26T09:15:39.296Z</time></trkpt><trkpt lat="44.7510362" lon="9.2837766"><ele>1013.5</ele><time>2026-04-26T09:15:40.296Z</time></trkpt><trkpt lat="44.7510339" lon="9.2839417"><ele>1013.75</ele><time>2026-04-26T09:15:41.296Z</time></trkpt><trkpt lat="44.7510353" lon="9.2841045"><ele>1014.0</ele><time>2026-04-26T09:15:42.296Z</time></trkpt><trkpt lat="44.751044" lon="9.2842656"><ele>1018.25</ele><time>2026-04-26T09:15:43.296Z</time></trkpt><trkpt lat="44.7510503" lon="9.2844219"><ele>1022.5</ele><time>2026-04-26T09:15:44.296Z</time></trkpt><trkpt lat="44.751052" lon="9.2845748"><ele>1026.75</ele><time>2026-04-26T09:15:45.295Z</time></trkpt><trkpt lat="44.7510604" lon="9.2847271"><ele>1031.0</ele><time>2026-04-26T09:15:46.296Z</time></trkpt><trkpt lat="44.7510957" lon="9.2850015"><ele>1033.0</ele><time>2026-04-26T09:15:48.296Z</time></trkpt><trkpt lat="44.751128" lon="9.2851198"><ele>1035.0</ele><time>2026-04-26T09:15:49.296Z</time></trkpt><trkpt lat="44.7511739" lon="9.2852331"><ele>1037.0</ele><time>2026-04-26T09:15:50.296Z</time></trkpt><trkpt lat="44.7512303" lon="9.2853423"><ele>1039.0</ele><time>2026-04-26T09:15:51.296Z</time></trkpt><trkpt lat="44.7512873" lon="9.2854581"><ele>1041.0</ele><time>2026-04-26T09:15:52.296Z</time></trkpt><trkpt lat="44.7513431" lon="9.2855769"><ele>1039.8</ele><time>2026-04-26T09:15:53.296Z</time></trkpt><trkpt lat="44.7513807" lon="9.2856965"><ele>1038.6</ele><time>2026-04-26T09:15:54.296Z</time></trkpt><trkpt lat="44.7513928" lon="9.28583"><ele>1037.4</ele><time>2026-04-26T09:15:55.296Z</time></trkpt><trkpt lat="44.7513834" lon="9.2859578"><ele>1036.2</ele><time>2026-04-26T09:15:56.296Z</time></trkpt><trkpt lat="44.751362" lon="9.2860845"><ele>1035.0</ele><time>2026-04-26T09:15:57.296Z</time></trkpt><trkpt lat="44.7513369" lon="9.2863214"><ele>1034.2</ele><time>2026-04-26T09:15:59.296Z</time></trkpt><trkpt lat="44.7513654" lon="9.2864488"><ele>1033.4</ele><time>2026-04-26T09:16:00.296Z</time></trkpt><trkpt lat="44.7514044" lon="9.2865828"><ele>1032.6</ele><time>2026-04-26T09:16:01.296Z</time></trkpt><trkpt lat="44.7514564" lon="9.2867091"><ele>1031.8</ele><time>2026-04-26T09:16:02.296Z</time></trkpt><trkpt lat="44.7515113" lon="9.2868369"><ele>1031.0</ele><time>2026-04-26T09:16:03.296Z</time></trkpt><trkpt lat="44.7515689" lon="9.2869708"><ele>1031.0</ele><time>2026-04-26T09:16:04.296Z</time></trkpt><trkpt lat="44.751624" lon="9.2870907"><ele>1031.0</ele><time>2026-04-26T09:16:05.296Z</time></trkpt><trkpt lat="44.751666" lon="9.2872022"><ele>1031.0</ele><time>2026-04-26T09:16:06.296Z</time></trkpt><trkpt lat="44.7516963" lon="9.2873133"><ele>1031.0</ele><time>2026-04-26T09:16:07.296Z</time></trkpt><trkpt lat="44.7517156" lon="9.2874349"><ele>1031.0</ele><time>2026-04-26T09:16:08.295Z</time></trkpt><trkpt lat="44.7517178" lon="9.2875656"><ele>1031.6666666666667</ele><time>2026-04-26T09:16:09.296Z</time></trkpt><trkpt lat="44.7516971" lon="9.2876945"><ele>1032.3333333333335</ele><time>2026-04-26T09:16:10.296Z</time></trkpt><trkpt lat="44.7516565" lon="9.2878157"><ele>1033.0</ele><time>2026-04-26T09:16:11.296Z</time></trkpt><trkpt lat="44.7516045" lon="9.2879118"><ele>1033.6666666666667</ele><time>2026-04-26T09:16:12.296Z</time></trkpt><trkpt lat="44.7515432" lon="9.2879726"><ele>1034.3333333333333</ele><time>2026-04-26T09:16:13.296Z</time></trkpt><trkpt lat="44.7514591" lon="9.2880206"><ele>1035.0</ele><time>2026-04-26T09:16:14.296Z</time></trkpt><trkpt lat="44.7513777" lon="9.2880462"><ele>1035.0</ele><time>2026-04-26T09:16:15.296Z</time></trkpt><trkpt lat="44.7513077" lon="9.2880795"><ele>1035.0</ele><time>2026-04-26T09:16:16.296Z</time></trkpt><trkpt lat="44.7512468" lon="9.2881246"><ele>1035.0</ele><time>2026-04-26T09:16:17.296Z</time></trkpt><trkpt lat="44.7511861" lon="9.288229"><ele>1035.0</ele><time>2026-04-26T09:16:19.296Z</time></trkpt><trkpt lat="44.751243" lon="9.2883043"><ele>1035.0</ele><time>2026-04-26T09:16:21.296Z</time></trkpt><trkpt lat="44.7513145" lon="9.288306"><ele>1035.0</ele><time>2026-04-26T09:16:22.296Z</time></trkpt><trkpt lat="44.7513953" lon="9.2882777"><ele>1035.0</ele><time>2026-04-26T09:16:23.296Z</time></trkpt><trkpt lat="44.7514852" lon="9.2882137"><ele>1035.0</ele><time>2026-04-26T09:16:24.296Z</time></trkpt><trkpt lat="44.7515902" lon="9.2881071"><ele>1035.0</ele><time>2026-04-26T09:16:25.296Z</time></trkpt><trkpt lat="44.7517121" lon="9.2879738"><ele>1035.0</ele><time>2026-04-26T09:16:26.296Z</time></trkpt><trkpt lat="44.7518408" lon="9.2878559"><ele>1038.0</ele><time>2026-04-26T09:16:27.295Z</time></trkpt><trkpt lat="44.7519717" lon="9.2877579"><ele>1041.0</ele><time>2026-04-26T09:16:28.295Z</time></trkpt><trkpt lat="44.7520938" lon="9.2876763"><ele>1044.0</ele><time>2026-04-26T09:16:29.296Z</time></trkpt><trkpt lat="44.752208" lon="9.2875665"><ele>1047.0</ele><time>2026-04-26T09:16:30.296Z</time></trkpt><trkpt lat="44.7522919" lon="9.2874303"><ele>1047.0</ele><time>2026-04-26T09:16:31.295Z</time></trkpt><trkpt lat="44.7523683" lon="9.2872896"><ele>1047.0</ele><time>2026-04-26T09:16:32.296Z</time></trkpt><trkpt lat="44.7524511" lon="9.2871626"><ele>1047.0</ele><time>2026-04-26T09:16:33.296Z</time></trkpt><trkpt lat="44.752539" lon="9.2870616"><ele>1047.0</ele><time>2026-04-26T09:16:34.296Z</time></trkpt><trkpt lat="44.752632" lon="9.2869694"><ele>1051.0</ele><time>2026-04-26T09:16:35.296Z</time></trkpt><trkpt lat="44.7527192" lon="9.2868863"><ele>1055.0</ele><time>2026-04-26T09:16:36.296Z</time></trkpt><trkpt lat="44.7527851" lon="9.2867965"><ele>1059.0</ele><time>2026-04-26T09:16:37.296Z</time></trkpt><trkpt lat="44.7528315" lon="9.2866954"><ele>1063.0</ele><time>2026-04-26T09:16:38.296Z</time></trkpt><trkpt lat="44.7528487" lon="9.2865825"><ele>1067.0</ele><time>2026-04-26T09:16:39.296Z</time></trkpt><trkpt lat="44.7528417" lon="9.2864464"><ele>1068.0</ele><time>2026-04-26T09:16:40.296Z</time></trkpt><trkpt lat="44.752825" lon="9.2862917"><ele>1069.0</ele><time>2026-04-26T09:16:41.296Z</time></trkpt><trkpt lat="44.7528082" lon="9.2861327"><ele>1070.0</ele><time>2026-04-26T09:16:42.296Z</time></trkpt><trkpt lat="44.7527882" lon="9.2859629"><ele>1071.0</ele><time>2026-04-26T09:16:43.296Z</time></trkpt><trkpt lat="44.7527398" lon="9.2856443"><ele>1070.5</ele><time>2026-04-26T09:16:45.296Z</time></trkpt><trkpt lat="44.7527013" lon="9.2855172"><ele>1070.0</ele><time>2026-04-26T09:16:46.296Z</time></trkpt><trkpt lat="44.7526617" lon="9.2854023"><ele>1069.5</ele><time>2026-04-26T09:16:47.296Z</time></trkpt><trkpt lat="44.7526314" lon="9.2852946"><ele>1069.0</ele><time>2026-04-26T09:16:48.296Z</time></trkpt><trkpt lat="44.7526284" lon="9.2851913"><ele>1068.5</ele><time>2026-04-26T09:16:49.296Z</time></trkpt><trkpt lat="44.7526599" lon="9.285106"><ele>1068.0</ele><time>2026-04-26T09:16:50.295Z</time></trkpt><trkpt lat="44.7527141" lon="9.2850501"><ele>1068.0</ele><time>2026-04-26T09:16:51.296Z</time></trkpt><trkpt lat="44.7527742" lon="9.285009"><ele>1068.0</ele><time>2026-04-26T09:16:52.295Z</time></trkpt><trkpt lat="44.7528495" lon="9.2849719"><ele>1068.0</ele><time>2026-04-26T09:16:53.296Z</time></trkpt><trkpt lat="44.7529398" lon="9.2849494"><ele>1068.0</ele><time>2026-04-26T09:16:54.296Z</time></trkpt><trkpt lat="44.7530432" lon="9.2849194"><ele>1068.0</ele><time>2026-04-26T09:16:55.296Z</time></trkpt><trkpt lat="44.7531561" lon="9.2848748"><ele>1068.0</ele><time>2026-04-26T09:16:56.296Z</time></trkpt><trkpt lat="44.7532503" lon="9.2848124"><ele>1068.0</ele><time>2026-04-26T09:16:57.296Z</time></trkpt><trkpt lat="44.7533186" lon="9.2847173"><ele>1068.0</ele><time>2026-04-26T09:16:58.296Z</time></trkpt><trkpt lat="44.753364" lon="9.2845874"><ele>1068.0</ele><time>2026-04-26T09:16:59.296Z</time></trkpt><trkpt lat="44.7533907" lon="9.2844265"><ele>1068.0</ele><time>2026-04-26T09:17:00.296Z</time></trkpt><trkpt lat="44.7534276" lon="9.2842773"><ele>1069.6</ele><time>2026-04-26T09:17:01.296Z</time></trkpt><trkpt lat="44.7534843" lon="9.2841592"><ele>1071.1999999999998</ele><time>2026-04-26T09:17:02.296Z</time></trkpt><trkpt lat="44.7535645" lon="9.284065"><ele>1072.8</ele><time>2026-04-26T09:17:03.296Z</time></trkpt><trkpt lat="44.7536597" lon="9.2839959"><ele>1074.3999999999999</ele><time>2026-04-26T09:17:04.296Z</time></trkpt><trkpt lat="44.7537671" lon="9.2839364"><ele>1076.0</ele><time>2026-04-26T09:17:05.296Z</time></trkpt><trkpt lat="44.7538721" lon="9.2838808"><ele>1076.0</ele><time>2026-04-26T09:17:06.296Z</time></trkpt><trkpt lat="44.753975" lon="9.2838291"><ele>1076.0</ele><time>2026-04-26T09:17:07.296Z</time></trkpt><trkpt lat="44.7540551" lon="9.2837929"><ele>1076.0</ele><time>2026-04-26T09:17:08.296Z</time></trkpt><trkpt lat="44.754123" lon="9.2837792"><ele>1076.0</ele><time>2026-04-26T09:17:09.296Z</time></trkpt><trkpt lat="44.7542229" lon="9.2838338"><ele>1076.0</ele><time>2026-04-26T09:17:11.296Z</time></trkpt><trkpt lat="44.754305" lon="9.2839384"><ele>1076.0</ele><time>2026-04-26T09:17:13.296Z</time></trkpt><trkpt lat="44.7543631" lon="9.2839753"><ele>1076.0</ele><time>2026-04-26T09:17:14.296Z</time></trkpt><trkpt lat="44.7544316" lon="9.283987"><ele>1076.0</ele><time>2026-04-26T09:17:15.296Z</time></trkpt><trkpt lat="44.7545052" lon="9.2839653"><ele>1076.0</ele><time>2026-04-26T09:17:16.295Z</time></trkpt><trkpt lat="44.7545856" lon="9.2839016"><ele>1076.0</ele><time>2026-04-26T09:17:17.296Z</time></trkpt><trkpt lat="44.7546745" lon="9.283799"><ele>1076.0</ele><time>2026-04-26T09:17:18.296Z</time></trkpt><trkpt lat="44.7547815" lon="9.2836964"><ele>1075.5</ele><time>2026-04-26T09:17:19.296Z</time></trkpt><trkpt lat="44.754901" lon="9.2836089"><ele>1075.0</ele><time>2026-04-26T09:17:20.296Z</time></trkpt><trkpt lat="44.7550189" lon="9.2835436"><ele>1074.5</ele><time>2026-04-26T09:17:21.296Z</time></trkpt><trkpt lat="44.7551395" lon="9.2835055"><ele>1074.0</ele><time>2026-04-26T09:17:22.296Z</time></trkpt><trkpt lat="44.7552616" lon="9.2834932"><ele>1075.25</ele><time>2026-04-26T09:17:23.296Z</time></trkpt><trkpt lat="44.7553775" lon="9.2835087"><ele>1076.5</ele><time>2026-04-26T09:17:24.296Z</time></trkpt><trkpt lat="44.7554824" lon="9.2835524"><ele>1077.75</ele><time>2026-04-26T09:17:25.296Z</time></trkpt><trkpt lat="44.7555816" lon="9.2836339"><ele>1079.0</ele><time>2026-04-26T09:17:26.296Z</time></trkpt><trkpt lat="44.7556763" lon="9.2837278"><ele>1079.0</ele><time>2026-04-26T09:17:27.296Z</time></trkpt><trkpt lat="44.755765" lon="9.283825"><ele>1079.0</ele><time>2026-04-26T09:17:28.296Z</time></trkpt><trkpt lat="44.755826" lon="9.2839152"><ele>1079.0</ele><time>2026-04-26T09:17:29.296Z</time></trkpt><trkpt lat="44.7558706" lon="9.2839968"><ele>1079.0</ele><time>2026-04-26T09:17:30.296Z</time></trkpt><trkpt lat="44.7558926" lon="9.284128"><ele>1079.0</ele><time>2026-04-26T09:17:32.296Z</time></trkpt><trkpt lat="44.7557939" lon="9.2841764"><ele>1081.4</ele><time>2026-04-26T09:17:34.296Z</time></trkpt><trkpt lat="44.7557285" lon="9.2841569"><ele>1083.8000000000002</ele><time>2026-04-26T09:17:35.296Z</time></trkpt><trkpt lat="44.7556447" lon="9.2841164"><ele>1086.1999999999998</ele><time>2026-04-26T09:17:36.296Z</time></trkpt><trkpt lat="44.7555469" lon="9.2840716"><ele>1088.6</ele><time>2026-04-26T09:17:37.296Z</time></trkpt><trkpt lat="44.7554458" lon="9.2840423"><ele>1091.0</ele><time>2026-04-26T09:17:38.296Z</time></trkpt><trkpt lat="44.7553442" lon="9.2840456"><ele>1091.0</ele><time>2026-04-26T09:17:39.296Z</time></trkpt><trkpt lat="44.7552345" lon="9.2840904"><ele>1091.0</ele><time>2026-04-26T09:17:40.296Z</time></trkpt><trkpt lat="44.7551189" lon="9.2841809"><ele>1091.0</ele><time>2026-04-26T09:17:41.296Z</time></trkpt><trkpt lat="44.7549975" lon="9.2843264"><ele>1091.0</ele><time>2026-04-26T09:17:42.296Z</time></trkpt><trkpt lat="44.7548791" lon="9.2844702"><ele>1089.75</ele><time>2026-04-26T09:17:43.296Z</time></trkpt><trkpt lat="44.754758" lon="9.2846078"><ele>1088.5</ele><time>2026-04-26T09:17:44.296Z</time></trkpt><trkpt lat="44.7546402" lon="9.2847318"><ele>1087.25</ele><time>2026-04-26T09:17:45.296Z</time></trkpt><trkpt lat="44.7545272" lon="9.2848422"><ele>1086.0</ele><time>2026-04-26T09:17:46.296Z</time></trkpt><trkpt lat="44.7544162" lon="9.2849262"><ele>1087.2</ele><time>2026-04-26T09:17:47.296Z</time></trkpt><trkpt lat="44.754317" lon="9.2850012"><ele>1088.3999999999999</ele><time>2026-04-26T09:17:48.295Z</time></trkpt><trkpt lat="44.7542422" lon="9.2850796"><ele>1089.6</ele><time>2026-04-26T09:17:49.296Z</time></trkpt><trkpt lat="44.7541764" lon="9.2851711"><ele>1090.8</ele><time>2026-04-26T09:17:50.296Z</time></trkpt><trkpt lat="44.7541322" lon="9.2852792"><ele>1092.0</ele><time>2026-04-26T09:17:51.296Z</time></trkpt><trkpt lat="44.7541127" lon="9.2854085"><ele>1092.0</ele><time>2026-04-26T09:17:52.296Z</time></trkpt><trkpt lat="44.754119" lon="9.2855572"><ele>1092.0</ele><time>2026-04-26T09:17:53.295Z</time></trkpt><trkpt lat="44.754134" lon="9.2857207"><ele>1092.0</ele><time>2026-04-26T09:17:54.295Z</time></trkpt><trkpt lat="44.7541546" lon="9.2858875"><ele>1092.0</ele><time>2026-04-26T09:17:55.295Z</time></trkpt><trkpt lat="44.7541801" lon="9.2860379"><ele>1092.0</ele><time>2026-04-26T09:17:56.295Z</time></trkpt><trkpt lat="44.7542192" lon="9.2861577"><ele>1092.0</ele><time>2026-04-26T09:17:57.295Z</time></trkpt><trkpt lat="44.754271" lon="9.2862584"><ele>1092.0</ele><time>2026-04-26T09:17:58.295Z</time></trkpt><trkpt lat="44.7543458" lon="9.286344"><ele>1092.0</ele><time>2026-04-26T09:17:59.295Z</time></trkpt><trkpt lat="44.7544477" lon="9.2864324"><ele>1092.0</ele><time>2026-04-26T09:18:00.295Z</time></trkpt><trkpt lat="44.7545441" lon="9.2865297"><ele>1096.75</ele><time>2026-04-26T09:18:01.294Z</time></trkpt><trkpt lat="44.754629" lon="9.2866499"><ele>1101.5</ele><time>2026-04-26T09:18:02.295Z</time></trkpt><trkpt lat="44.7546906" lon="9.2867913"><ele>1106.25</ele><time>2026-04-26T09:18:03.295Z</time></trkpt><trkpt lat="44.7547429" lon="9.2869492"><ele>1111.0</ele><time>2026-04-26T09:18:04.295Z</time></trkpt><trkpt lat="44.7547891" lon="9.2871154"><ele>1111.25</ele><time>2026-04-26T09:18:05.295Z</time></trkpt><trkpt lat="44.7548335" lon="9.2872904"><ele>1111.5</ele><time>2026-04-26T09:18:06.295Z</time></trkpt><trkpt lat="44.7548804" lon="9.2874734"><ele>1111.75</ele><time>2026-04-26T09:18:07.295Z</time></trkpt><trkpt lat="44.7549259" lon="9.2876574"><ele>1112.0</ele><time>2026-04-26T09:18:08.295Z</time></trkpt><trkpt lat="44.7549683" lon="9.2878547"><ele>1112.0</ele><time>2026-04-26T09:18:09.295Z</time></trkpt><trkpt lat="44.755006" lon="9.2880567"><ele>1112.0</ele><time>2026-04-26T09:18:10.295Z</time></trkpt><trkpt lat="44.7550393" lon="9.288262"><ele>1112.0</ele><time>2026-04-26T09:18:11.295Z</time></trkpt><trkpt lat="44.7550806" lon="9.2884578"><ele>1112.0</ele><time>2026-04-26T09:18:12.295Z</time></trkpt><trkpt lat="44.7551098" lon="9.2886386"><ele>1111.75</ele><time>2026-04-26T09:18:13.295Z</time></trkpt><trkpt lat="44.7551221" lon="9.2888159"><ele>1111.5</ele><time>2026-04-26T09:18:14.295Z</time></trkpt><trkpt lat="44.755092" lon="9.2889954"><ele>1111.25</ele><time>2026-04-26T09:18:15.295Z</time></trkpt><trkpt lat="44.7550525" lon="9.2891883"><ele>1111.0</ele><time>2026-04-26T09:18:16.295Z</time></trkpt><trkpt lat="44.7550162" lon="9.2893887"><ele>1111.5</ele><time>2026-04-26T09:18:17.295Z</time></trkpt><trkpt lat="44.7550105" lon="9.2896009"><ele>1112.0</ele><time>2026-04-26T09:18:18.295Z</time></trkpt><trkpt lat="44.7550286" lon="9.289809"><ele>1112.5</ele><time>2026-04-26T09:18:19.295Z</time></trkpt><trkpt lat="44.7550524" lon="9.290001"><ele>1113.0</ele><time>2026-04-26T09:18:20.295Z</time></trkpt><trkpt lat="44.7550691" lon="9.2901865"><ele>1113.5</ele><time>2026-04-26T09:18:21.295Z</time></trkpt><trkpt lat="44.7550529" lon="9.2903721"><ele>1114.0</ele><time>2026-04-26T09:18:22.295Z</time></trkpt><trkpt lat="44.7549986" lon="9.2905526"><ele>1114.5</ele><time>2026-04-26T09:18:23.295Z</time></trkpt><trkpt lat="44.7549263" lon="9.2907231"><ele>1115.0</ele><time>2026-04-26T09:18:24.295Z</time></trkpt><trkpt lat="44.7548577" lon="9.2908871"><ele>1116.25</ele><time>2026-04-26T09:18:25.294Z</time></trkpt><trkpt lat="44.7547705" lon="9.2910495"><ele>1117.5</ele><time>2026-04-26T09:18:26.295Z</time></trkpt><trkpt lat="44.7546927" lon="9.2912042"><ele>1118.75</ele><time>2026-04-26T09:18:27.295Z</time></trkpt><trkpt lat="44.7546386" lon="9.2913474"><ele>1120.0</ele><time>2026-04-26T09:18:28.295Z</time></trkpt><trkpt lat="44.7546116" lon="9.2914775"><ele>1121.1666666666665</ele><time>2026-04-26T09:18:29.295Z</time></trkpt><trkpt lat="44.7546218" lon="9.2915975"><ele>1122.3333333333333</ele><time>2026-04-26T09:18:30.294Z</time></trkpt><trkpt lat="44.7546524" lon="9.291685"><ele>1123.5</ele><time>2026-04-26T09:18:31.295Z</time></trkpt><trkpt lat="44.7547332" lon="9.291748"><ele>1124.6666666666667</ele><time>2026-04-26T09:18:33.295Z</time></trkpt><trkpt lat="44.7548205" lon="9.2916497"><ele>1125.8333333333335</ele><time>2026-04-26T09:18:35.295Z</time></trkpt><trkpt lat="44.7548501" lon="9.291548"><ele>1127.0</ele><time>2026-04-26T09:18:36.295Z</time></trkpt><trkpt lat="44.7548835" lon="9.291424"><ele>1125.25</ele><time>2026-04-26T09:18:37.295Z</time></trkpt><trkpt lat="44.7549278" lon="9.2912963"><ele>1123.5</ele><time>2026-04-26T09:18:38.295Z</time></trkpt><trkpt lat="44.7549908" lon="9.2911683"><ele>1121.75</ele><time>2026-04-26T09:18:39.294Z</time></trkpt><trkpt lat="44.7550723" lon="9.2910313"><ele>1120.0</ele><time>2026-04-26T09:18:40.295Z</time></trkpt><trkpt lat="44.7551531" lon="9.2908971"><ele>1126.25</ele><time>2026-04-26T09:18:41.295Z</time></trkpt><trkpt lat="44.7552321" lon="9.2907523"><ele>1132.5</ele><time>2026-04-26T09:18:42.295Z</time></trkpt><trkpt lat="44.7553012" lon="9.2906081"><ele>1138.75</ele><time>2026-04-26T09:18:43.295Z</time></trkpt><trkpt lat="44.7553526" lon="9.2904561"><ele>1145.0</ele><time>2026-04-26T09:18:44.295Z</time></trkpt><trkpt lat="44.7554117" lon="9.2900557"><ele>1145.5</ele><time>2026-04-26T09:18:47.295Z</time></trkpt><trkpt lat="44.7554256" lon="9.2899323"><ele>1146.0</ele><time>2026-04-26T09:18:48.295Z</time></trkpt><trkpt lat="44.7554462" lon="9.2898113"><ele>1146.5</ele><time>2026-04-26T09:18:49.294Z</time></trkpt><trkpt lat="44.7554802" lon="9.2896848"><ele>1147.0</ele><time>2026-04-26T09:18:50.294Z</time></trkpt><trkpt lat="44.7557394" lon="9.2890112"><ele>1146.0</ele><time>2026-04-26T09:18:55.295Z</time></trkpt><trkpt lat="44.7557601" lon="9.2888724"><ele>1145.0</ele><time>2026-04-26T09:18:56.295Z</time></trkpt><trkpt lat="44.7557739" lon="9.2887408"><ele>1144.0</ele><time>2026-04-26T09:18:57.295Z</time></trkpt><trkpt lat="44.7557915" lon="9.2886144"><ele>1143.0</ele><time>2026-04-26T09:18:58.295Z</time></trkpt><trkpt lat="44.7558221" lon="9.2884914"><ele>1142.0</ele><time>2026-04-26T09:18:59.294Z</time></trkpt><trkpt lat="44.7558562" lon="9.2883778"><ele>1142.0</ele><time>2026-04-26T09:19:00.295Z</time></trkpt><trkpt lat="44.7559037" lon="9.2882684"><ele>1142.0</ele><time>2026-04-26T09:19:01.295Z</time></trkpt><trkpt lat="44.7559509" lon="9.288165"><ele>1142.0</ele><time>2026-04-26T09:19:02.295Z</time></trkpt><trkpt lat="44.756004" lon="9.2880656"><ele>1142.0</ele><time>2026-04-26T09:19:03.295Z</time></trkpt><trkpt lat="44.7561335" lon="9.2878887"><ele>1142.0</ele><time>2026-04-26T09:19:05.295Z</time></trkpt><trkpt lat="44.756204" lon="9.2878343"><ele>1142.1666666666667</ele><time>2026-04-26T09:19:06.295Z</time></trkpt><trkpt lat="44.7562679" lon="9.287785"><ele>1142.3333333333335</ele><time>2026-04-26T09:19:07.295Z</time></trkpt><trkpt lat="44.7563574" lon="9.2877114"><ele>1142.5</ele><time>2026-04-26T09:19:09.295Z</time></trkpt><trkpt lat="44.7562898" lon="9.2877101"><ele>1142.6666666666667</ele><time>2026-04-26T09:19:28.295Z</time></trkpt><trkpt lat="44.756217" lon="9.2877731"><ele>1142.8333333333333</ele><time>2026-04-26T09:19:30.295Z</time></trkpt><trkpt lat="44.7561186" lon="9.2878444"><ele>1143.0</ele><time>2026-04-26T09:19:32.295Z</time></trkpt><trkpt lat="44.7560201" lon="9.2879345"><ele>1142.8333333333333</ele><time>2026-04-26T09:19:34.295Z</time></trkpt><trkpt lat="44.7559692" lon="9.2879943"><ele>1142.6666666666667</ele><time>2026-04-26T09:19:35.295Z</time></trkpt><trkpt lat="44.7559162" lon="9.2880615"><ele>1142.5</ele><time>2026-04-26T09:19:36.295Z</time></trkpt><trkpt lat="44.755865" lon="9.2881467"><ele>1142.3333333333335</ele><time>2026-04-26T09:19:37.295Z</time></trkpt><trkpt lat="44.75582" lon="9.2882383"><ele>1142.1666666666667</ele><time>2026-04-26T09:19:38.295Z</time></trkpt><trkpt lat="44.7557733" lon="9.2883467"><ele>1142.0</ele><time>2026-04-26T09:19:39.295Z</time></trkpt><trkpt lat="44.7557383" lon="9.288455"><ele>1142.0</ele><time>2026-04-26T09:19:40.295Z</time></trkpt><trkpt lat="44.7557117" lon="9.2885683"><ele>1142.0</ele><time>2026-04-26T09:19:41.295Z</time></trkpt><trkpt lat="44.7556933" lon="9.2886983"><ele>1142.0</ele><time>2026-04-26T09:19:42.295Z</time></trkpt><trkpt lat="44.7556783" lon="9.28882"><ele>1142.0</ele><time>2026-04-26T09:19:43.295Z</time></trkpt><trkpt lat="44.7556683" lon="9.2889517"><ele>1142.0</ele><time>2026-04-26T09:19:44.295Z</time></trkpt><trkpt lat="44.7556217" lon="9.28923"><ele>1143.0</ele><time>2026-04-26T09:19:46.295Z</time></trkpt><trkpt lat="44.7555767" lon="9.2893617"><ele>1144.0</ele><time>2026-04-26T09:19:47.295Z</time></trkpt><trkpt lat="44.7555167" lon="9.289485"><ele>1145.0</ele><time>2026-04-26T09:19:48.295Z</time></trkpt><trkpt lat="44.7554633" lon="9.2896067"><ele>1146.0</ele><time>2026-04-26T09:19:49.295Z</time></trkpt><trkpt lat="44.7554283" lon="9.2897233"><ele>1147.0</ele><time>2026-04-26T09:19:50.295Z</time></trkpt><trkpt lat="44.7553983" lon="9.289835"><ele>1147.0</ele><time>2026-04-26T09:19:51.295Z</time></trkpt><trkpt lat="44.755385" lon="9.2899583"><ele>1147.0</ele><time>2026-04-26T09:19:52.295Z</time></trkpt><trkpt lat="44.75537" lon="9.2900733"><ele>1147.0</ele><time>2026-04-26T09:19:53.295Z</time></trkpt><trkpt lat="44.7553517" lon="9.2901967"><ele>1147.0</ele><time>2026-04-26T09:19:54.294Z</time></trkpt><trkpt lat="44.75533" lon="9.29031"><ele>1147.0</ele><time>2026-04-26T09:19:55.295Z</time></trkpt><trkpt lat="44.75531" lon="9.29042"><ele>1147.0</ele><time>2026-04-26T09:19:56.295Z</time></trkpt><trkpt lat="44.7552617" lon="9.290535"><ele>1146.6</ele><time>2026-04-26T09:19:57.295Z</time></trkpt><trkpt lat="44.7552067" lon="9.2906433"><ele>1146.2</ele><time>2026-04-26T09:19:58.295Z</time></trkpt><trkpt lat="44.7551483" lon="9.290755"><ele>1145.8</ele><time>2026-04-26T09:19:59.295Z</time></trkpt><trkpt lat="44.7550933" lon="9.2908667"><ele>1145.4</ele><time>2026-04-26T09:20:00.294Z</time></trkpt><trkpt lat="44.7550383" lon="9.29098"><ele>1145.0</ele><time>2026-04-26T09:20:01.295Z</time></trkpt><trkpt lat="44.75498" lon="9.2910833"><ele>1142.0</ele><time>2026-04-26T09:20:02.295Z</time></trkpt><trkpt lat="44.7549183" lon="9.2911767"><ele>1139.0</ele><time>2026-04-26T09:20:03.295Z</time></trkpt><trkpt lat="44.754865" lon="9.2912717"><ele>1136.0</ele><time>2026-04-26T09:20:04.295Z</time></trkpt><trkpt lat="44.7548283" lon="9.2913633"><ele>1133.0</ele><time>2026-04-26T09:20:05.295Z</time></trkpt><trkpt lat="44.754805" lon="9.2914617"><ele>1130.0</ele><time>2026-04-26T09:20:06.295Z</time></trkpt><trkpt lat="44.7547767" lon="9.2916117"><ele>1127.0</ele><time>2026-04-26T09:20:08.295Z</time></trkpt><trkpt lat="44.754745" lon="9.2917117"><ele>1127.0</ele><time>2026-04-26T09:20:10.295Z</time></trkpt><trkpt lat="44.7547533" lon="9.29183"><ele>1127.0</ele><time>2026-04-26T09:20:24.295Z</time></trkpt><trkpt lat="44.7547783" lon="9.291955"><ele>1127.0</ele><time>2026-04-26T09:20:26.295Z</time></trkpt><trkpt lat="44.7548" lon="9.2920417"><ele>1127.0</ele><time>2026-04-26T09:20:27.295Z</time></trkpt><trkpt lat="44.7548167" lon="9.29214"><ele>1127.0</ele><time>2026-04-26T09:20:28.294Z</time></trkpt><trkpt lat="44.7548417" lon="9.2922583"><ele>1127.0</ele><time>2026-04-26T09:20:29.295Z</time></trkpt><trkpt lat="44.754855" lon="9.2923967"><ele>1126.75</ele><time>2026-04-26T09:20:30.295Z</time></trkpt><trkpt lat="44.7548683" lon="9.2925483"><ele>1126.5</ele><time>2026-04-26T09:20:31.295Z</time></trkpt><trkpt lat="44.754855" lon="9.2927067"><ele>1126.25</ele><time>2026-04-26T09:20:32.295Z</time></trkpt><trkpt lat="44.7548233" lon="9.29288"><ele>1126.0</ele><time>2026-04-26T09:20:33.295Z</time></trkpt><trkpt lat="44.7547817" lon="9.2930483"><ele>1126.1666666666665</ele><time>2026-04-26T09:20:34.295Z</time></trkpt><trkpt lat="44.7547433" lon="9.293195"><ele>1126.3333333333333</ele><time>2026-04-26T09:20:35.295Z</time></trkpt><trkpt lat="44.7547217" lon="9.2933317"><ele>1126.5</ele><time>2026-04-26T09:20:36.294Z</time></trkpt><trkpt lat="44.7546983" lon="9.293435"><ele>1126.6666666666667</ele><time>2026-04-26T09:20:37.295Z</time></trkpt><trkpt lat="44.754685" lon="9.2935267"><ele>1126.8333333333335</ele><time>2026-04-26T09:20:38.295Z</time></trkpt><trkpt lat="44.75471" lon="9.2936483"><ele>1127.0</ele><time>2026-04-26T09:20:40.295Z</time></trkpt><trkpt lat="44.7548383" lon="9.2936817"><ele>1127.0</ele><time>2026-04-26T09:20:42.295Z</time></trkpt><trkpt lat="44.7549283" lon="9.2937"><ele>1127.0</ele><time>2026-04-26T09:20:43.295Z</time></trkpt><trkpt lat="44.7550267" lon="9.293745"><ele>1127.0</ele><time>2026-04-26T09:20:44.295Z</time></trkpt><trkpt lat="44.7551233" lon="9.2937983"><ele>1127.0</ele><time>2026-04-26T09:20:45.295Z</time></trkpt><trkpt lat="44.7552333" lon="9.2938333"><ele>1127.0</ele><time>2026-04-26T09:20:46.295Z</time></trkpt><trkpt lat="44.7553517" lon="9.2938433"><ele>1125.0</ele><time>2026-04-26T09:20:47.295Z</time></trkpt><trkpt lat="44.75547" lon="9.29382"><ele>1123.0</ele><time>2026-04-26T09:20:48.295Z</time></trkpt><trkpt lat="44.7555933" lon="9.2937633"><ele>1121.0</ele><time>2026-04-26T09:20:49.295Z</time></trkpt><trkpt lat="44.755725" lon="9.293695"><ele>1119.0</ele><time>2026-04-26T09:20:50.295Z</time></trkpt><trkpt lat="44.7558617" lon="9.293645"><ele>1119.0</ele><time>2026-04-26T09:20:51.295Z</time></trkpt><trkpt lat="44.7559867" lon="9.2936283"><ele>1119.0</ele><time>2026-04-26T09:20:52.295Z</time></trkpt><trkpt lat="44.756095" lon="9.2936183"><ele>1119.0</ele><time>2026-04-26T09:20:53.295Z</time></trkpt><trkpt lat="44.7561767" lon="9.293605"><ele>1119.0</ele><time>2026-04-26T09:20:54.295Z</time></trkpt><trkpt lat="44.7562483" lon="9.2935733"><ele>1119.0</ele><time>2026-04-26T09:20:55.295Z</time></trkpt><trkpt lat="44.7563167" lon="9.293515"><ele>1114.4</ele><time>2026-04-26T09:20:56.294Z</time></trkpt><trkpt lat="44.7563717" lon="9.2934383"><ele>1109.8000000000002</ele><time>2026-04-26T09:20:57.294Z</time></trkpt><trkpt lat="44.7564" lon="9.2933383"><ele>1105.1999999999998</ele><time>2026-04-26T09:20:58.295Z</time></trkpt><trkpt lat="44.7564183" lon="9.2932033"><ele>1100.6</ele><time>2026-04-26T09:20:59.294Z</time></trkpt><trkpt lat="44.75641" lon="9.2930267"><ele>1096.0</ele><time>2026-04-26T09:21:00.295Z</time></trkpt><trkpt lat="44.7564017" lon="9.2928567"><ele>1096.0</ele><time>2026-04-26T09:21:01.295Z</time></trkpt><trkpt lat="44.7564067" lon="9.2926983"><ele>1096.0</ele><time>2026-04-26T09:21:02.295Z</time></trkpt><trkpt lat="44.7564433" lon="9.2925567"><ele>1096.0</ele><time>2026-04-26T09:21:03.295Z</time></trkpt><trkpt lat="44.75649" lon="9.2924383"><ele>1096.0</ele><time>2026-04-26T09:21:04.295Z</time></trkpt><trkpt lat="44.7565483" lon="9.292335"><ele>1096.0</ele><time>2026-04-26T09:21:05.295Z</time></trkpt><trkpt lat="44.7565983" lon="9.292235"><ele>1097.3333333333333</ele><time>2026-04-26T09:21:06.295Z</time></trkpt><trkpt lat="44.7566533" lon="9.29213"><ele>1098.6666666666665</ele><time>2026-04-26T09:21:07.294Z</time></trkpt><trkpt lat="44.7566917" lon="9.2920117"><ele>1100.0</ele><time>2026-04-26T09:21:08.295Z</time></trkpt><trkpt lat="44.7567383" lon="9.2919383"><ele>1101.3333333333333</ele><time>2026-04-26T09:21:09.295Z</time></trkpt><trkpt lat="44.7568133" lon="9.2918717"><ele>1102.6666666666667</ele><time>2026-04-26T09:21:10.295Z</time></trkpt><trkpt lat="44.7568967" lon="9.2918567"><ele>1104.0</ele><time>2026-04-26T09:21:11.294Z</time></trkpt><trkpt lat="44.7569933" lon="9.291905"><ele>1104.0</ele><time>2026-04-26T09:21:12.295Z</time></trkpt><trkpt lat="44.7571033" lon="9.2919667"><ele>1104.0</ele><time>2026-04-26T09:21:13.295Z</time></trkpt><trkpt lat="44.7572067" lon="9.2920467"><ele>1104.0</ele><time>2026-04-26T09:21:14.295Z</time></trkpt><trkpt lat="44.7573467" lon="9.292155"><ele>1104.0</ele><time>2026-04-26T09:21:15.294Z</time></trkpt><trkpt lat="44.7574933" lon="9.2922567"><ele>1098.0</ele><time>2026-04-26T09:21:16.295Z</time></trkpt><trkpt lat="44.7576333" lon="9.2923517"><ele>1092.0</ele><time>2026-04-26T09:21:17.295Z</time></trkpt><trkpt lat="44.75777" lon="9.29244"><ele>1086.0</ele><time>2026-04-26T09:21:18.295Z</time></trkpt><trkpt lat="44.7579033" lon="9.2925233"><ele>1084.25</ele><time>2026-04-26T09:21:19.295Z</time></trkpt><trkpt lat="44.7580167" lon="9.29262"><ele>1082.5</ele><time>2026-04-26T09:21:20.295Z</time></trkpt><trkpt lat="44.758125" lon="9.2927217"><ele>1080.75</ele><time>2026-04-26T09:21:21.295Z</time></trkpt><trkpt lat="44.7582317" lon="9.2928217"><ele>1079.0</ele><time>2026-04-26T09:21:22.294Z</time></trkpt><trkpt lat="44.758315" lon="9.2929083"><ele>1079.0</ele><time>2026-04-26T09:21:23.295Z</time></trkpt><trkpt lat="44.7583783" lon="9.2929767"><ele>1079.0</ele><time>2026-04-26T09:21:24.295Z</time></trkpt><trkpt lat="44.7584433" lon="9.2930133"><ele>1079.0</ele><time>2026-04-26T09:21:25.295Z</time></trkpt><trkpt lat="44.75851" lon="9.2930167"><ele>1079.0</ele><time>2026-04-26T09:21:26.295Z</time></trkpt><trkpt lat="44.7586017" lon="9.292925"><ele>1079.0</ele><time>2026-04-26T09:21:28.295Z</time></trkpt><trkpt lat="44.7586217" lon="9.2928083"><ele>1079.0</ele><time>2026-04-26T09:21:29.295Z</time></trkpt><trkpt lat="44.7586333" lon="9.2926733"><ele>1073.2</ele><time>2026-04-26T09:21:30.295Z</time></trkpt><trkpt lat="44.7586367" lon="9.2925217"><ele>1067.4</ele><time>2026-04-26T09:21:31.294Z</time></trkpt><trkpt lat="44.7586467" lon="9.292375"><ele>1061.6</ele><time>2026-04-26T09:21:32.295Z</time></trkpt><trkpt lat="44.7586683" lon="9.2922333"><ele>1055.8</ele><time>2026-04-26T09:21:33.295Z</time></trkpt><trkpt lat="44.7586917" lon="9.2920967"><ele>1050.0</ele><time>2026-04-26T09:21:34.295Z</time></trkpt><trkpt lat="44.758715" lon="9.29201"><ele>1050.0</ele><time>2026-04-26T09:21:35.295Z</time></trkpt><trkpt lat="44.7587583" lon="9.291935"><ele>1050.0</ele><time>2026-04-26T09:21:36.295Z</time></trkpt><trkpt lat="44.7588233" lon="9.2919633"><ele>1050.0</ele><time>2026-04-26T09:21:38.295Z</time></trkpt><trkpt lat="44.7588217" lon="9.29214"><ele>1050.0</ele><time>2026-04-26T09:21:40.295Z</time></trkpt><trkpt lat="44.7588133" lon="9.2922533"><ele>1050.0</ele><time>2026-04-26T09:21:41.295Z</time></trkpt><trkpt lat="44.7588" lon="9.2923833"><ele>1050.0</ele><time>2026-04-26T09:21:42.295Z</time></trkpt><trkpt lat="44.7587817" lon="9.292565"><ele>1049.25</ele><time>2026-04-26T09:21:43.295Z</time></trkpt><trkpt lat="44.7588017" lon="9.2927517"><ele>1048.5</ele><time>2026-04-26T09:21:44.294Z</time></trkpt><trkpt lat="44.7588567" lon="9.2929367"><ele>1047.75</ele><time>2026-04-26T09:21:45.294Z</time></trkpt><trkpt lat="44.7589117" lon="9.2930917"><ele>1047.0</ele><time>2026-04-26T09:21:46.295Z</time></trkpt><trkpt lat="44.7589467" lon="9.2932183"><ele>1046.6666666666667</ele><time>2026-04-26T09:21:47.295Z</time></trkpt><trkpt lat="44.7589733" lon="9.293345"><ele>1046.3333333333333</ele><time>2026-04-26T09:21:48.295Z</time></trkpt><trkpt lat="44.759" lon="9.29344"><ele>1046.0</ele><time>2026-04-26T09:21:49.295Z</time></trkpt><trkpt lat="44.7590217" lon="9.2935333"><ele>1045.6666666666665</ele><time>2026-04-26T09:21:50.295Z</time></trkpt><trkpt lat="44.7589933" lon="9.293675"><ele>1045.3333333333333</ele><time>2026-04-26T09:21:52.295Z</time></trkpt><trkpt lat="44.7589267" lon="9.2937267"><ele>1045.0</ele><time>2026-04-26T09:21:53.295Z</time></trkpt><trkpt lat="44.7588417" lon="9.2937767"><ele>1045.0</ele><time>2026-04-26T09:21:54.295Z</time></trkpt><trkpt lat="44.7587633" lon="9.2938283"><ele>1045.0</ele><time>2026-04-26T09:21:55.295Z</time></trkpt><trkpt lat="44.75867" lon="9.2939"><ele>1045.0</ele><time>2026-04-26T09:21:56.295Z</time></trkpt><trkpt lat="44.7585933" lon="9.294"><ele>1045.0</ele><time>2026-04-26T09:21:57.294Z</time></trkpt><trkpt lat="44.7585067" lon="9.2941533"><ele>1045.0</ele><time>2026-04-26T09:21:58.295Z</time></trkpt><trkpt lat="44.7584167" lon="9.294305"><ele>1044.8</ele><time>2026-04-26T09:21:59.294Z</time></trkpt><trkpt lat="44.75834" lon="9.2944333"><ele>1044.6</ele><time>2026-04-26T09:22:00.295Z</time></trkpt><trkpt lat="44.758265" lon="9.29454"><ele>1044.4</ele><time>2026-04-26T09:22:01.295Z</time></trkpt><trkpt lat="44.758205" lon="9.29462"><ele>1044.2</ele><time>2026-04-26T09:22:02.294Z</time></trkpt><trkpt lat="44.7581567" lon="9.2947017"><ele>1044.0</ele><time>2026-04-26T09:22:03.295Z</time></trkpt><trkpt lat="44.75822" lon="9.2947867"><ele>1044.0</ele><time>2026-04-26T09:22:06.295Z</time></trkpt><trkpt lat="44.75829" lon="9.2947417"><ele>1044.0</ele><time>2026-04-26T09:22:07.295Z</time></trkpt><trkpt lat="44.7583833" lon="9.2946767"><ele>1044.0</ele><time>2026-04-26T09:22:08.295Z</time></trkpt><trkpt lat="44.7584817" lon="9.2945983"><ele>1044.0</ele><time>2026-04-26T09:22:09.295Z</time></trkpt><trkpt lat="44.7586133" lon="9.2945217"><ele>1044.0</ele><time>2026-04-26T09:22:10.295Z</time></trkpt><trkpt lat="44.7587583" lon="9.2944817"><ele>1041.4</ele><time>2026-04-26T09:22:11.295Z</time></trkpt><trkpt lat="44.7589" lon="9.29448"><ele>1038.8000000000002</ele><time>2026-04-26T09:22:12.295Z</time></trkpt><trkpt lat="44.7590117" lon="9.2944917"><ele>1036.1999999999998</ele><time>2026-04-26T09:22:13.295Z</time></trkpt><trkpt lat="44.759105" lon="9.2944867"><ele>1033.6</ele><time>2026-04-26T09:22:14.295Z</time></trkpt><trkpt lat="44.75918" lon="9.2944533"><ele>1031.0</ele><time>2026-04-26T09:22:15.295Z</time></trkpt><trkpt lat="44.7592433" lon="9.2944017"><ele>1031.0</ele><time>2026-04-26T09:22:16.295Z</time></trkpt><trkpt lat="44.7593183" lon="9.2943533"><ele>1031.0</ele><time>2026-04-26T09:22:17.295Z</time></trkpt><trkpt lat="44.759405" lon="9.2943067"><ele>1031.0</ele><time>2026-04-26T09:22:18.295Z</time></trkpt><trkpt lat="44.7594917" lon="9.2942633"><ele>1031.0</ele><time>2026-04-26T09:22:19.294Z</time></trkpt><trkpt lat="44.7595733" lon="9.2942"><ele>1031.0</ele><time>2026-04-26T09:22:20.295Z</time></trkpt><trkpt lat="44.7596483" lon="9.2941183"><ele>1027.0</ele><time>2026-04-26T09:22:21.295Z</time></trkpt><trkpt lat="44.7597233" lon="9.2939883"><ele>1023.0</ele><time>2026-04-26T09:22:22.294Z</time></trkpt><trkpt lat="44.7598033" lon="9.2938533"><ele>1019.0</ele><time>2026-04-26T09:22:23.295Z</time></trkpt><trkpt lat="44.7598983" lon="9.29373"><ele>1015.0</ele><time>2026-04-26T09:22:24.295Z</time></trkpt><trkpt lat="44.759995" lon="9.2936183"><ele>1015.0</ele><time>2026-04-26T09:22:25.295Z</time></trkpt><trkpt lat="44.7600967" lon="9.2935333"><ele>1015.0</ele><time>2026-04-26T09:22:26.295Z</time></trkpt><trkpt lat="44.7601917" lon="9.2934833"><ele>1015.0</ele><time>2026-04-26T09:22:27.295Z</time></trkpt><trkpt lat="44.760285" lon="9.2934767"><ele>1015.0</ele><time>2026-04-26T09:22:28.295Z</time></trkpt><trkpt lat="44.7603717" lon="9.2935183"><ele>1015.0</ele><time>2026-04-26T09:22:29.295Z</time></trkpt><trkpt lat="44.7604533" lon="9.2935733"><ele>1011.8333333333333</ele><time>2026-04-26T09:22:30.295Z</time></trkpt><trkpt lat="44.7605367" lon="9.2936067"><ele>1008.6666666666666</ele><time>2026-04-26T09:22:31.295Z</time></trkpt><trkpt lat="44.7606083" lon="9.2935933"><ele>1005.5</ele><time>2026-04-26T09:22:32.295Z</time></trkpt><trkpt lat="44.760665" lon="9.29354"><ele>1002.3333333333333</ele><time>2026-04-26T09:22:33.295Z</time></trkpt><trkpt lat="44.7607133" lon="9.293465"><ele>999.1666666666666</ele><time>2026-04-26T09:22:34.295Z</time></trkpt><trkpt lat="44.7607533" lon="9.2933483"><ele>996.0</ele><time>2026-04-26T09:22:35.294Z</time></trkpt><trkpt lat="44.7607933" lon="9.2932167"><ele>996.0</ele><time>2026-04-26T09:22:36.295Z</time></trkpt><trkpt lat="44.7608317" lon="9.2931167"><ele>996.0</ele><time>2026-04-26T09:22:37.295Z</time></trkpt><trkpt lat="44.7608933" lon="9.293055"><ele>996.0</ele><time>2026-04-26T09:22:38.295Z</time></trkpt><trkpt lat="44.760965" lon="9.2930167"><ele>996.0</ele><time>2026-04-26T09:22:39.295Z</time></trkpt><trkpt lat="44.7610367" lon="9.2930117"><ele>996.0</ele><time>2026-04-26T09:22:40.295Z</time></trkpt><trkpt lat="44.7611233" lon="9.293045"><ele>996.0</ele><time>2026-04-26T09:22:41.295Z</time></trkpt><trkpt lat="44.761215" lon="9.2931283"><ele>993.8</ele><time>2026-04-26T09:22:42.295Z</time></trkpt><trkpt lat="44.7613133" lon="9.2931833"><ele>991.5999999999999</ele><time>2026-04-26T09:22:43.295Z</time></trkpt><trkpt lat="44.761395" lon="9.2932133"><ele>989.4</ele><time>2026-04-26T09:22:44.295Z</time></trkpt><trkpt lat="44.7614817" lon="9.2932133"><ele>987.2</ele><time>2026-04-26T09:22:45.294Z</time></trkpt><trkpt lat="44.7615817" lon="9.293175"><ele>985.0</ele><time>2026-04-26T09:22:46.295Z</time></trkpt><trkpt lat="44.76169" lon="9.2931233"><ele>985.25</ele><time>2026-04-26T09:22:47.295Z</time></trkpt><trkpt lat="44.7618" lon="9.2930883"><ele>985.5</ele><time>2026-04-26T09:22:48.295Z</time></trkpt><trkpt lat="44.7619133" lon="9.2930867"><ele>985.75</ele><time>2026-04-26T09:22:49.295Z</time></trkpt><trkpt lat="44.7620133" lon="9.2931367"><ele>986.0</ele><time>2026-04-26T09:22:50.294Z</time></trkpt><trkpt lat="44.7621217" lon="9.2932133"><ele>986.0</ele><time>2026-04-26T09:22:51.294Z</time></trkpt><trkpt lat="44.7622217" lon="9.293325"><ele>986.0</ele><time>2026-04-26T09:22:52.295Z</time></trkpt><trkpt lat="44.7623117" lon="9.2934433"><ele>986.0</ele><time>2026-04-26T09:22:53.295Z</time></trkpt><trkpt lat="44.7624" lon="9.2935367"><ele>986.0</ele><time>2026-04-26T09:22:54.295Z</time></trkpt><trkpt lat="44.7624967" lon="9.29361"><ele>986.0</ele><time>2026-04-26T09:22:55.295Z</time></trkpt><trkpt lat="44.76261" lon="9.29368"><ele>986.0</ele><time>2026-04-26T09:22:56.295Z</time></trkpt><trkpt lat="44.7627117" lon="9.2937567"><ele>986.0</ele><time>2026-04-26T09:22:57.295Z</time></trkpt><trkpt lat="44.7628067" lon="9.2938417"><ele>986.0</ele><time>2026-04-26T09:22:58.295Z</time></trkpt><trkpt lat="44.7628917" lon="9.2939217"><ele>984.8333333333334</ele><time>2026-04-26T09:22:59.295Z</time></trkpt><trkpt lat="44.76296" lon="9.2939683"><ele>983.6666666666667</ele><time>2026-04-26T09:23:00.295Z</time></trkpt><trkpt lat="44.76304" lon="9.2939917"><ele>982.5</ele><time>2026-04-26T09:23:01.295Z</time></trkpt><trkpt lat="44.7631183" lon="9.2939767"><ele>981.3333333333333</ele><time>2026-04-26T09:23:02.295Z</time></trkpt><trkpt lat="44.7631883" lon="9.2939367"><ele>980.1666666666666</ele><time>2026-04-26T09:23:03.295Z</time></trkpt><trkpt lat="44.7632417" lon="9.2938467"><ele>979.0</ele><time>2026-04-26T09:23:04.295Z</time></trkpt><trkpt lat="44.763285" lon="9.293725"><ele>978.9999999999999</ele><time>2026-04-26T09:23:05.295Z</time></trkpt><trkpt lat="44.7633" lon="9.2935833"><ele>979.0</ele><time>2026-04-26T09:23:06.295Z</time></trkpt><trkpt lat="44.7633233" lon="9.2934433"><ele>979.0</ele><time>2026-04-26T09:23:07.295Z</time></trkpt><trkpt lat="44.76336" lon="9.2933433"><ele>979.0</ele><time>2026-04-26T09:23:08.295Z</time></trkpt><trkpt lat="44.7634117" lon="9.293275"><ele>978.9999999999999</ele><time>2026-04-26T09:23:09.295Z</time></trkpt><trkpt lat="44.763475" lon="9.2932517"><ele>979.0</ele><time>2026-04-26T09:23:10.295Z</time></trkpt><trkpt lat="44.7635617" lon="9.2932783"><ele>977.8000000000001</ele><time>2026-04-26T09:23:11.295Z</time></trkpt><trkpt lat="44.7636567" lon="9.29335"><ele>976.6000000000001</ele><time>2026-04-26T09:23:12.295Z</time></trkpt><trkpt lat="44.7637383" lon="9.2933867"><ele>975.4</ele><time>2026-04-26T09:23:13.295Z</time></trkpt><trkpt lat="44.76386" lon="9.2933567"><ele>974.2</ele><time>2026-04-26T09:23:15.295Z</time></trkpt><trkpt lat="44.7639167" lon="9.2933033"><ele>973.0</ele><time>2026-04-26T09:23:16.294Z</time></trkpt><trkpt lat="44.7639817" lon="9.293265"><ele>973.0</ele><time>2026-04-26T09:23:17.295Z</time></trkpt><trkpt lat="44.7640567" lon="9.2932767"><ele>973.0</ele><time>2026-04-26T09:23:18.295Z</time></trkpt><trkpt lat="44.7641183" lon="9.29332"><ele>973.0</ele><time>2026-04-26T09:23:19.295Z</time></trkpt><trkpt lat="44.76416" lon="9.2934117"><ele>973.0</ele><time>2026-04-26T09:23:20.295Z</time></trkpt><trkpt lat="44.7641733" lon="9.2935667"><ele>973.0</ele><time>2026-04-26T09:23:21.295Z</time></trkpt><trkpt lat="44.76417" lon="9.2937717"><ele>971.2</ele><time>2026-04-26T09:23:22.294Z</time></trkpt><trkpt lat="44.7641733" lon="9.2939317"><ele>969.4</ele><time>2026-04-26T09:23:23.295Z</time></trkpt><trkpt lat="44.7641867" lon="9.2940633"><ele>967.6000000000001</ele><time>2026-04-26T09:23:24.295Z</time></trkpt><trkpt lat="44.76423" lon="9.2941617"><ele>965.8000000000001</ele><time>2026-04-26T09:23:25.295Z</time></trkpt><trkpt lat="44.7642967" lon="9.2942433"><ele>964.0</ele><time>2026-04-26T09:23:26.295Z</time></trkpt><trkpt lat="44.76439" lon="9.2943033"><ele>964.0</ele><time>2026-04-26T09:23:27.295Z</time></trkpt><trkpt lat="44.7645183" lon="9.294365"><ele>964.0</ele><time>2026-04-26T09:23:28.295Z</time></trkpt><trkpt lat="44.7646383" lon="9.294455"><ele>964.0</ele><time>2026-04-26T09:23:29.295Z</time></trkpt><trkpt lat="44.764745" lon="9.294535"><ele>964.0</ele><time>2026-04-26T09:23:30.294Z</time></trkpt><trkpt lat="44.7648617" lon="9.294585"><ele>964.0</ele><time>2026-04-26T09:23:31.295Z</time></trkpt><trkpt lat="44.7649683" lon="9.2946233"><ele>964.0000000000001</ele><time>2026-04-26T09:23:32.295Z</time></trkpt><trkpt lat="44.7650417" lon="9.294675"><ele>964.0000000000001</ele><time>2026-04-26T09:23:33.295Z</time></trkpt><trkpt lat="44.7650933" lon="9.2947583"><ele>964.0</ele><time>2026-04-26T09:23:34.295Z</time></trkpt><trkpt lat="44.7651167" lon="9.2948733"><ele>964.0</ele><time>2026-04-26T09:23:35.295Z</time></trkpt><trkpt lat="44.7650967" lon="9.2950233"><ele>962.3333333333333</ele><time>2026-04-26T09:23:36.294Z</time></trkpt><trkpt lat="44.7650933" lon="9.2951567"><ele>960.6666666666666</ele><time>2026-04-26T09:23:37.294Z</time></trkpt><trkpt lat="44.7650983" lon="9.295285"><ele>959.0</ele><time>2026-04-26T09:23:38.295Z</time></trkpt><trkpt lat="44.7651283" lon="9.2953917"><ele>957.3333333333333</ele><time>2026-04-26T09:23:39.295Z</time></trkpt><trkpt lat="44.7651883" lon="9.2954767"><ele>955.6666666666666</ele><time>2026-04-26T09:23:40.295Z</time></trkpt><trkpt lat="44.76526" lon="9.2955383"><ele>954.0</ele><time>2026-04-26T09:23:41.295Z</time></trkpt><trkpt lat="44.7653517" lon="9.2955733"><ele>954.0</ele><time>2026-04-26T09:23:42.295Z</time></trkpt><trkpt lat="44.7654433" lon="9.2955917"><ele>954.0</ele><time>2026-04-26T09:23:43.295Z</time></trkpt><trkpt lat="44.7655533" lon="9.295565"><ele>954.0</ele><time>2026-04-26T09:23:44.295Z</time></trkpt><trkpt lat="44.7656733" lon="9.29552"><ele>954.0</ele><time>2026-04-26T09:23:45.295Z</time></trkpt><trkpt lat="44.7657967" lon="9.29547"><ele>954.0</ele><time>2026-04-26T09:23:46.295Z</time></trkpt><trkpt lat="44.7659183" lon="9.2954217"><ele>954.0000000000001</ele><time>2026-04-26T09:23:47.295Z</time></trkpt><trkpt lat="44.7660217" lon="9.295385"><ele>954.0000000000001</ele><time>2026-04-26T09:23:48.295Z</time></trkpt><trkpt lat="44.7661033" lon="9.2953633"><ele>954.0</ele><time>2026-04-26T09:23:49.295Z</time></trkpt><trkpt lat="44.7661767" lon="9.2953783"><ele>954.0</ele><time>2026-04-26T09:23:50.294Z</time></trkpt><trkpt lat="44.7662317" lon="9.2954317"><ele>953.6</ele><time>2026-04-26T09:23:51.295Z</time></trkpt><trkpt lat="44.7662883" lon="9.2955317"><ele>953.2</ele><time>2026-04-26T09:23:52.295Z</time></trkpt><trkpt lat="44.7663217" lon="9.2956767"><ele>952.8000000000001</ele><time>2026-04-26T09:23:53.295Z</time></trkpt><trkpt lat="44.766355" lon="9.29583"><ele>952.4000000000001</ele><time>2026-04-26T09:23:54.295Z</time></trkpt><trkpt lat="44.7663767" lon="9.29597"><ele>952.0</ele><time>2026-04-26T09:23:55.295Z</time></trkpt><trkpt lat="44.766375" lon="9.29609"><ele>950.4999999999999</ele><time>2026-04-26T09:23:56.295Z</time></trkpt><trkpt lat="44.7663567" lon="9.29621"><ele>949.0</ele><time>2026-04-26T09:23:57.295Z</time></trkpt><trkpt lat="44.7663283" lon="9.29632"><ele>947.5</ele><time>2026-04-26T09:23:58.295Z</time></trkpt><trkpt lat="44.7663017" lon="9.2964317"><ele>946.0</ele><time>2026-04-26T09:23:59.295Z</time></trkpt><trkpt lat="44.7662667" lon="9.2965267"><ele>944.4999999999999</ele><time>2026-04-26T09:24:00.295Z</time></trkpt><trkpt lat="44.7662533" lon="9.2966333"><ele>943.0</ele><time>2026-04-26T09:24:01.295Z</time></trkpt><trkpt lat="44.766265" lon="9.2967267"><ele>941.3333333333333</ele><time>2026-04-26T09:24:02.295Z</time></trkpt><trkpt lat="44.7662783" lon="9.2968267"><ele>939.6666666666666</ele><time>2026-04-26T09:24:03.295Z</time></trkpt><trkpt lat="44.766305" lon="9.2969133"><ele>938.0</ele><time>2026-04-26T09:24:04.295Z</time></trkpt><trkpt lat="44.766375" lon="9.2970333"><ele>936.3333333333333</ele><time>2026-04-26T09:24:06.295Z</time></trkpt><trkpt lat="44.7664867" lon="9.29709"><ele>934.6666666666666</ele><time>2026-04-26T09:24:08.295Z</time></trkpt><trkpt lat="44.766565" lon="9.2971"><ele>933.0</ele><time>2026-04-26T09:24:09.295Z</time></trkpt><trkpt lat="44.76666" lon="9.29709"><ele>933.0</ele><time>2026-04-26T09:24:10.295Z</time></trkpt><trkpt lat="44.7667517" lon="9.2970733"><ele>933.0</ele><time>2026-04-26T09:24:11.294Z</time></trkpt><trkpt lat="44.7668467" lon="9.29705"><ele>933.0</ele><time>2026-04-26T09:24:12.295Z</time></trkpt><trkpt lat="44.7669517" lon="9.2970333"><ele>933.0</ele><time>2026-04-26T09:24:13.295Z</time></trkpt><trkpt lat="44.76707" lon="9.2970283"><ele>933.0</ele><time>2026-04-26T09:24:14.295Z</time></trkpt><trkpt lat="44.7671883" lon="9.29704"><ele>934.0</ele><time>2026-04-26T09:24:15.295Z</time></trkpt><trkpt lat="44.7672967" lon="9.297055"><ele>935.0</ele><time>2026-04-26T09:24:16.295Z</time></trkpt><trkpt lat="44.767395" lon="9.29708"><ele>936.0</ele><time>2026-04-26T09:24:17.295Z</time></trkpt><trkpt lat="44.7674817" lon="9.297115"><ele>937.0</ele><time>2026-04-26T09:24:18.294Z</time></trkpt><trkpt lat="44.7675533" lon="9.297165"><ele>938.0</ele><time>2026-04-26T09:24:19.294Z</time></trkpt><trkpt lat="44.767605" lon="9.297235"><ele>934.0</ele><time>2026-04-26T09:24:20.295Z</time></trkpt><trkpt lat="44.767625" lon="9.297335"><ele>930.0</ele><time>2026-04-26T09:24:21.295Z</time></trkpt><trkpt lat="44.7676083" lon="9.2974733"><ele>926.0</ele><time>2026-04-26T09:24:22.295Z</time></trkpt><trkpt lat="44.7675917" lon="9.2976217"><ele>922.0</ele><time>2026-04-26T09:24:23.295Z</time></trkpt><trkpt lat="44.7675717" lon="9.2977783"><ele>918.0</ele><time>2026-04-26T09:24:24.294Z</time></trkpt><trkpt lat="44.7675667" lon="9.29796"><ele>916.0</ele><time>2026-04-26T09:24:25.295Z</time></trkpt><trkpt lat="44.767575" lon="9.2981317"><ele>914.0</ele><time>2026-04-26T09:24:26.295Z</time></trkpt><trkpt lat="44.7675867" lon="9.2983017"><ele>912.0</ele><time>2026-04-26T09:24:27.294Z</time></trkpt><trkpt lat="44.7676" lon="9.298465"><ele>910.0</ele><time>2026-04-26T09:24:28.295Z</time></trkpt><trkpt lat="44.7676017" lon="9.2986317"><ele>910.0</ele><time>2026-04-26T09:24:29.295Z</time></trkpt><trkpt lat="44.76758" lon="9.2987983"><ele>910.0</ele><time>2026-04-26T09:24:30.295Z</time></trkpt><trkpt lat="44.7675383" lon="9.2989517"><ele>910.0</ele><time>2026-04-26T09:24:31.295Z</time></trkpt><trkpt lat="44.7674733" lon="9.2991017"><ele>910.0</ele><time>2026-04-26T09:24:32.294Z</time></trkpt><trkpt lat="44.76741" lon="9.2992417"><ele>909.2</ele><time>2026-04-26T09:24:33.295Z</time></trkpt><trkpt lat="44.7673567" lon="9.2993783"><ele>908.4</ele><time>2026-04-26T09:24:34.295Z</time></trkpt><trkpt lat="44.7673117" lon="9.2994933"><ele>907.5999999999999</ele><time>2026-04-26T09:24:35.295Z</time></trkpt><trkpt lat="44.7672633" lon="9.2996033"><ele>906.8</ele><time>2026-04-26T09:24:36.295Z</time></trkpt><trkpt lat="44.7672417" lon="9.2997283"><ele>906.0</ele><time>2026-04-26T09:24:37.295Z</time></trkpt><trkpt lat="44.76723" lon="9.29986"><ele>905.4</ele><time>2026-04-26T09:24:38.295Z</time></trkpt><trkpt lat="44.767255" lon="9.2999867"><ele>904.8</ele><time>2026-04-26T09:24:39.295Z</time></trkpt><trkpt lat="44.7673" lon="9.3001167"><ele>904.1999999999999</ele><time>2026-04-26T09:24:40.295Z</time></trkpt><trkpt lat="44.7673567" lon="9.300245"><ele>903.5999999999999</ele><time>2026-04-26T09:24:41.295Z</time></trkpt><trkpt lat="44.76741" lon="9.3003717"><ele>903.0</ele><time>2026-04-26T09:24:42.295Z</time></trkpt><trkpt lat="44.7674417" lon="9.300485"><ele>903.0</ele><time>2026-04-26T09:24:43.295Z</time></trkpt><trkpt lat="44.7674667" lon="9.3006017"><ele>903.0</ele><time>2026-04-26T09:24:44.295Z</time></trkpt><trkpt lat="44.76747" lon="9.300715"><ele>903.0</ele><time>2026-04-26T09:24:45.294Z</time></trkpt><trkpt lat="44.7674517" lon="9.3008217"><ele>903.0</ele><time>2026-04-26T09:24:46.295Z</time></trkpt><trkpt lat="44.7674117" lon="9.3009217"><ele>903.0</ele><time>2026-04-26T09:24:47.295Z</time></trkpt><trkpt lat="44.7673717" lon="9.3010383"><ele>903.0</ele><time>2026-04-26T09:24:48.294Z</time></trkpt><trkpt lat="44.7673317" lon="9.3011567"><ele>903.0</ele><time>2026-04-26T09:24:49.295Z</time></trkpt><trkpt lat="44.7673" lon="9.3012817"><ele>903.0</ele><time>2026-04-26T09:24:50.295Z</time></trkpt><trkpt lat="44.767285" lon="9.3014067"><ele>903.0</ele><time>2026-04-26T09:24:51.295Z</time></trkpt><trkpt lat="44.7672817" lon="9.3015267"><ele>903.0</ele><time>2026-04-26T09:24:52.295Z</time></trkpt><trkpt lat="44.7672867" lon="9.30165"><ele>903.0</ele><time>2026-04-26T09:24:53.295Z</time></trkpt><trkpt lat="44.7673017" lon="9.3017667"><ele>903.0</ele><time>2026-04-26T09:24:54.295Z</time></trkpt><trkpt lat="44.7673433" lon="9.3018817"><ele>902.1666666666666</ele><time>2026-04-26T09:24:55.294Z</time></trkpt><trkpt lat="44.7673833" lon="9.3019817"><ele>901.3333333333333</ele><time>2026-04-26T09:24:56.295Z</time></trkpt><trkpt lat="44.7674367" lon="9.3020583"><ele>900.5</ele><time>2026-04-26T09:24:57.295Z</time></trkpt><trkpt lat="44.7675033" lon="9.302115"><ele>899.6666666666666</ele><time>2026-04-26T09:24:58.295Z</time></trkpt><trkpt lat="44.76758" lon="9.302155"><ele>898.8333333333333</ele><time>2026-04-26T09:24:59.295Z</time></trkpt><trkpt lat="44.7676633" lon="9.3021883"><ele>898.0</ele><time>2026-04-26T09:25:00.295Z</time></trkpt><trkpt lat="44.7677667" lon="9.3022233"><ele>902.2</ele><time>2026-04-26T09:25:01.295Z</time></trkpt><trkpt lat="44.76786" lon="9.302285"><ele>906.4</ele><time>2026-04-26T09:25:02.295Z</time></trkpt><trkpt lat="44.7679483" lon="9.30235"><ele>910.6000000000001</ele><time>2026-04-26T09:25:03.295Z</time></trkpt><trkpt lat="44.768015" lon="9.3024283"><ele>914.8000000000001</ele><time>2026-04-26T09:25:04.295Z</time></trkpt><trkpt lat="44.7680583" lon="9.3025"><ele>919.0</ele><time>2026-04-26T09:25:05.295Z</time></trkpt><trkpt lat="44.76808" lon="9.3026483"><ele>918.9999999999999</ele><time>2026-04-26T09:25:07.295Z</time></trkpt><trkpt lat="44.76805" lon="9.30274"><ele>919.0</ele><time>2026-04-26T09:25:08.295Z</time></trkpt><trkpt lat="44.7679867" lon="9.30283"><ele>919.0</ele><time>2026-04-26T09:25:09.295Z</time></trkpt><trkpt lat="44.7679" lon="9.3029017"><ele>919.0</ele><time>2026-04-26T09:25:10.295Z</time></trkpt><trkpt lat="44.767825" lon="9.3029767"><ele>918.9999999999999</ele><time>2026-04-26T09:25:11.295Z</time></trkpt><trkpt lat="44.7677633" lon="9.3030667"><ele>919.0</ele><time>2026-04-26T09:25:12.295Z</time></trkpt><trkpt lat="44.7677167" lon="9.30317"><ele>912.0</ele><time>2026-04-26T09:25:13.295Z</time></trkpt><trkpt lat="44.7676767" lon="9.3032883"><ele>905.0000000000001</ele><time>2026-04-26T09:25:14.295Z</time></trkpt><trkpt lat="44.7676417" lon="9.3034183"><ele>898.0000000000001</ele><time>2026-04-26T09:25:15.295Z</time></trkpt><trkpt lat="44.7676183" lon="9.3035583"><ele>891.0</ele><time>2026-04-26T09:25:16.295Z</time></trkpt><trkpt lat="44.7676133" lon="9.3037"><ele>884.0</ele><time>2026-04-26T09:25:17.294Z</time></trkpt><trkpt lat="44.7676117" lon="9.303845"><ele>886.0</ele><time>2026-04-26T09:25:18.295Z</time></trkpt><trkpt lat="44.7676317" lon="9.30401"><ele>888.0000000000001</ele><time>2026-04-26T09:25:19.295Z</time></trkpt><trkpt lat="44.7676483" lon="9.3041667"><ele>890.0000000000001</ele><time>2026-04-26T09:25:20.295Z</time></trkpt><trkpt lat="44.7676533" lon="9.3043117"><ele>892.0</ele><time>2026-04-26T09:25:21.295Z</time></trkpt><trkpt lat="44.767645" lon="9.3044433"><ele>894.0</ele><time>2026-04-26T09:25:22.294Z</time></trkpt><trkpt lat="44.767635" lon="9.3045733"><ele>894.0</ele><time>2026-04-26T09:25:23.295Z</time></trkpt><trkpt lat="44.76762" lon="9.304705"><ele>894.0000000000001</ele><time>2026-04-26T09:25:24.294Z</time></trkpt><trkpt lat="44.7676067" lon="9.3048517"><ele>894.0000000000001</ele><time>2026-04-26T09:25:25.295Z</time></trkpt><trkpt lat="44.7675833" lon="9.3049833"><ele>894.0</ele><time>2026-04-26T09:25:26.295Z</time></trkpt><trkpt lat="44.7675767" lon="9.3051217"><ele>894.0</ele><time>2026-04-26T09:25:27.295Z</time></trkpt><trkpt lat="44.767585" lon="9.305255"><ele>895.2</ele><time>2026-04-26T09:25:28.294Z</time></trkpt><trkpt lat="44.7675917" lon="9.305395"><ele>896.4000000000001</ele><time>2026-04-26T09:25:29.295Z</time></trkpt><trkpt lat="44.7676017" lon="9.305535"><ele>897.6</ele><time>2026-04-26T09:25:30.295Z</time></trkpt><trkpt lat="44.7675983" lon="9.3056817"><ele>898.8</ele><time>2026-04-26T09:25:31.295Z</time></trkpt><trkpt lat="44.7675967" lon="9.30583"><ele>900.0</ele><time>2026-04-26T09:25:32.295Z</time></trkpt><trkpt lat="44.767595" lon="9.3059833"><ele>900.4</ele><time>2026-04-26T09:25:33.294Z</time></trkpt><trkpt lat="44.7676" lon="9.3061483"><ele>900.8</ele><time>2026-04-26T09:25:34.295Z</time></trkpt><trkpt lat="44.7676083" lon="9.3063017"><ele>901.2</ele><time>2026-04-26T09:25:35.295Z</time></trkpt><trkpt lat="44.76763" lon="9.3064483"><ele>901.6</ele><time>2026-04-26T09:25:36.295Z</time></trkpt><trkpt lat="44.7676517" lon="9.306595"><ele>902.0</ele><time>2026-04-26T09:25:37.295Z</time></trkpt><trkpt lat="44.7676717" lon="9.3067217"><ele>902.0</ele><time>2026-04-26T09:25:38.295Z</time></trkpt><trkpt lat="44.7676917" lon="9.306825"><ele>902.0</ele><time>2026-04-26T09:25:39.295Z</time></trkpt><trkpt lat="44.76774" lon="9.30694"><ele>902.0</ele><time>2026-04-26T09:25:41.295Z</time></trkpt><trkpt lat="44.7677933" lon="9.3068333"><ele>902.0</ele><time>2026-04-26T09:25:44.295Z</time></trkpt><trkpt lat="44.76779" lon="9.306725"><ele>902.0</ele><time>2026-04-26T09:25:45.295Z</time></trkpt><trkpt lat="44.76777" lon="9.306565"><ele>911.6</ele><time>2026-04-26T09:25:46.294Z</time></trkpt><trkpt lat="44.7677417" lon="9.3064167"><ele>921.2</ele><time>2026-04-26T09:25:47.295Z</time></trkpt><trkpt lat="44.7677233" lon="9.3062867"><ele>930.8</ele><time>2026-04-26T09:25:48.294Z</time></trkpt><trkpt lat="44.76771" lon="9.3061617"><ele>940.4</ele><time>2026-04-26T09:25:49.295Z</time></trkpt><trkpt lat="44.7677283" lon="9.306025"><ele>950.0</ele><time>2026-04-26T09:25:50.295Z</time></trkpt><trkpt lat="44.7677583" lon="9.3058867"><ele>950.0</ele><time>2026-04-26T09:25:51.295Z</time></trkpt><trkpt lat="44.7678067" lon="9.3057483"><ele>950.0</ele><time>2026-04-26T09:25:52.295Z</time></trkpt><trkpt lat="44.7678633" lon="9.305605"><ele>950.0</ele><time>2026-04-26T09:25:53.295Z</time></trkpt><trkpt lat="44.7679217" lon="9.3054567"><ele>950.0</ele><time>2026-04-26T09:25:54.294Z</time></trkpt><trkpt lat="44.7679783" lon="9.3053083"><ele>949.6</ele><time>2026-04-26T09:25:55.295Z</time></trkpt><trkpt lat="44.768035" lon="9.305165"><ele>949.2</ele><time>2026-04-26T09:25:56.295Z</time></trkpt><trkpt lat="44.7680933" lon="9.3050283"><ele>948.8</ele><time>2026-04-26T09:25:57.295Z</time></trkpt><trkpt lat="44.7681483" lon="9.30489"><ele>948.4</ele><time>2026-04-26T09:25:58.295Z</time></trkpt><trkpt lat="44.76818" lon="9.304765"><ele>948.0</ele><time>2026-04-26T09:25:59.295Z</time></trkpt><trkpt lat="44.76819" lon="9.3046417"><ele>945.8</ele><time>2026-04-26T09:26:00.295Z</time></trkpt><trkpt lat="44.7681983" lon="9.30454"><ele>943.5999999999999</ele><time>2026-04-26T09:26:01.295Z</time></trkpt><trkpt lat="44.7682433" lon="9.3043783"><ele>941.4000000000001</ele><time>2026-04-26T09:26:03.295Z</time></trkpt><trkpt lat="44.7682883" lon="9.304295"><ele>939.2</ele><time>2026-04-26T09:26:04.295Z</time></trkpt><trkpt lat="44.7683283" lon="9.3041883"><ele>937.0</ele><time>2026-04-26T09:26:05.294Z</time></trkpt><trkpt lat="44.7683567" lon="9.3040583"><ele>937.0</ele><time>2026-04-26T09:26:06.295Z</time></trkpt><trkpt lat="44.76839" lon="9.3039167"><ele>937.0</ele><time>2026-04-26T09:26:07.295Z</time></trkpt><trkpt lat="44.7684217" lon="9.303765"><ele>937.0</ele><time>2026-04-26T09:26:08.295Z</time></trkpt><trkpt lat="44.7684617" lon="9.30362"><ele>937.0</ele><time>2026-04-26T09:26:09.294Z</time></trkpt><trkpt lat="44.7685033" lon="9.3034983"><ele>937.0</ele><time>2026-04-26T09:26:10.295Z</time></trkpt><trkpt lat="44.76854" lon="9.3033767"><ele>943.8</ele><time>2026-04-26T09:26:11.295Z</time></trkpt><trkpt lat="44.7685733" lon="9.303285"><ele>950.6</ele><time>2026-04-26T09:26:12.295Z</time></trkpt><trkpt lat="44.76866" lon="9.3032067"><ele>957.3999999999999</ele><time>2026-04-26T09:26:14.295Z</time></trkpt><trkpt lat="44.7687533" lon="9.3033267"><ele>964.1999999999999</ele><time>2026-04-26T09:26:16.294Z</time></trkpt><trkpt lat="44.7687783" lon="9.3034567"><ele>971.0</ele><time>2026-04-26T09:26:17.295Z</time></trkpt><trkpt lat="44.7687767" lon="9.3036333"><ele>971.0</ele><time>2026-04-26T09:26:18.295Z</time></trkpt><trkpt lat="44.7687667" lon="9.30382"><ele>971.0</ele><time>2026-04-26T09:26:19.295Z</time></trkpt><trkpt lat="44.76875" lon="9.3040117"><ele>971.0</ele><time>2026-04-26T09:26:20.295Z</time></trkpt><trkpt lat="44.76873" lon="9.3041967"><ele>971.0</ele><time>2026-04-26T09:26:21.295Z</time></trkpt><trkpt lat="44.7687" lon="9.304375"><ele>971.8</ele><time>2026-04-26T09:26:22.295Z</time></trkpt><trkpt lat="44.7686633" lon="9.3045517"><ele>972.5999999999999</ele><time>2026-04-26T09:26:23.295Z</time></trkpt><trkpt lat="44.7686317" lon="9.3047017"><ele>973.4</ele><time>2026-04-26T09:26:24.295Z</time></trkpt><trkpt lat="44.7685917" lon="9.3048367"><ele>974.2</ele><time>2026-04-26T09:26:25.295Z</time></trkpt><trkpt lat="44.768565" lon="9.3049383"><ele>975.0</ele><time>2026-04-26T09:26:26.295Z</time></trkpt><trkpt lat="44.76858" lon="9.3051"><ele>976.5</ele><time>2026-04-26T09:26:28.295Z</time></trkpt><trkpt lat="44.7686133" lon="9.305185"><ele>978.0</ele><time>2026-04-26T09:26:29.295Z</time></trkpt><trkpt lat="44.7686433" lon="9.30528"><ele>979.5</ele><time>2026-04-26T09:26:30.295Z</time></trkpt><trkpt lat="44.7686583" lon="9.30538"><ele>981.0</ele><time>2026-04-26T09:26:31.294Z</time></trkpt><trkpt lat="44.768675" lon="9.305505"><ele>982.5</ele><time>2026-04-26T09:26:32.295Z</time></trkpt><trkpt lat="44.76869" lon="9.305635"><ele>984.0</ele><time>2026-04-26T09:26:33.295Z</time></trkpt><trkpt lat="44.7687" lon="9.30575"><ele>984.0</ele><time>2026-04-26T09:26:34.295Z</time></trkpt><trkpt lat="44.76871" lon="9.3058433"><ele>984.0000000000001</ele><time>2026-04-26T09:26:35.295Z</time></trkpt><trkpt lat="44.7687517" lon="9.3059433"><ele>984.0000000000001</ele><time>2026-04-26T09:26:37.295Z</time></trkpt><trkpt lat="44.7688233" lon="9.3058983"><ele>984.0</ele><time>2026-04-26T09:26:39.295Z</time></trkpt><trkpt lat="44.768865" lon="9.3056983"><ele>984.0</ele><time>2026-04-26T09:26:41.295Z</time></trkpt><trkpt lat="44.7688817" lon="9.3055517"><ele>984.0</ele><time>2026-04-26T09:26:42.295Z</time></trkpt><trkpt lat="44.7688883" lon="9.305405"><ele>984.0</ele><time>2026-04-26T09:26:43.295Z</time></trkpt><trkpt lat="44.7688933" lon="9.3052733"><ele>984.0</ele><time>2026-04-26T09:26:44.295Z</time></trkpt><trkpt lat="44.76891" lon="9.3051583"><ele>984.0</ele><time>2026-04-26T09:26:45.295Z</time></trkpt><trkpt lat="44.76894" lon="9.3050733"><ele>984.0</ele><time>2026-04-26T09:26:46.295Z</time></trkpt><trkpt lat="44.7689933" lon="9.305005"><ele>984.0</ele><time>2026-04-26T09:26:47.295Z</time></trkpt><trkpt lat="44.76906" lon="9.304935"><ele>984.0</ele><time>2026-04-26T09:26:48.295Z</time></trkpt><trkpt lat="44.7691233" lon="9.3048533"><ele>984.0</ele><time>2026-04-26T09:26:49.295Z</time></trkpt><trkpt lat="44.7691667" lon="9.304745"><ele>984.0</ele><time>2026-04-26T09:26:50.295Z</time></trkpt><trkpt lat="44.7691967" lon="9.30463"><ele>984.0</ele><time>2026-04-26T09:26:51.294Z</time></trkpt><trkpt lat="44.7692183" lon="9.3045133"><ele>984.0</ele><time>2026-04-26T09:26:52.295Z</time></trkpt><trkpt lat="44.7692483" lon="9.3044067"><ele>984.0</ele><time>2026-04-26T09:26:53.295Z</time></trkpt><trkpt lat="44.7692867" lon="9.3043067"><ele>982.2</ele><time>2026-04-26T09:26:54.295Z</time></trkpt><trkpt lat="44.7693317" lon="9.3042183"><ele>980.4000000000001</ele><time>2026-04-26T09:26:55.295Z</time></trkpt><trkpt lat="44.7693933" lon="9.3041283"><ele>978.6</ele><time>2026-04-26T09:26:56.294Z</time></trkpt><trkpt lat="44.7694433" lon="9.3040167"><ele>976.8</ele><time>2026-04-26T09:26:57.295Z</time></trkpt><trkpt lat="44.7694817" lon="9.30388"><ele>975.0</ele><time>2026-04-26T09:26:58.295Z</time></trkpt><trkpt lat="44.76952" lon="9.3037383"><ele>980.6666666666666</ele><time>2026-04-26T09:26:59.294Z</time></trkpt><trkpt lat="44.769565" lon="9.3036217"><ele>986.3333333333333</ele><time>2026-04-26T09:27:00.295Z</time></trkpt><trkpt lat="44.7696083" lon="9.3035033"><ele>992.0</ele><time>2026-04-26T09:27:01.295Z</time></trkpt><trkpt lat="44.7696533" lon="9.3033933"><ele>997.6666666666666</ele><time>2026-04-26T09:27:02.295Z</time></trkpt><trkpt lat="44.7696933" lon="9.3033117"><ele>1003.3333333333333</ele><time>2026-04-26T09:27:03.295Z</time></trkpt><trkpt lat="44.7697433" lon="9.3032333"><ele>1009.0</ele><time>2026-04-26T09:27:04.295Z</time></trkpt><trkpt lat="44.7698033" lon="9.3031467"><ele>1007.0</ele><time>2026-04-26T09:27:05.294Z</time></trkpt><trkpt lat="44.7698633" lon="9.3030483"><ele>1005.0000000000001</ele><time>2026-04-26T09:27:06.295Z</time></trkpt><trkpt lat="44.7699217" lon="9.3029533"><ele>1003.0000000000001</ele><time>2026-04-26T09:27:07.294Z</time></trkpt><trkpt lat="44.76999" lon="9.302865"><ele>1001.0</ele><time>2026-04-26T09:27:08.294Z</time></trkpt><trkpt lat="44.77005" lon="9.3027517"><ele>999.0</ele><time>2026-04-26T09:27:09.295Z</time></trkpt><trkpt lat="44.7701033" lon="9.302635"><ele>999.0</ele><time>2026-04-26T09:27:10.295Z</time></trkpt><trkpt lat="44.7701333" lon="9.3024917"><ele>999.0000000000001</ele><time>2026-04-26T09:27:11.295Z</time></trkpt><trkpt lat="44.77015" lon="9.30234"><ele>999.0000000000001</ele><time>2026-04-26T09:27:12.295Z</time></trkpt><trkpt lat="44.77017" lon="9.3022033"><ele>999.0</ele><time>2026-04-26T09:27:13.295Z</time></trkpt><trkpt lat="44.77019" lon="9.3021017"><ele>999.0</ele><time>2026-04-26T09:27:14.295Z</time></trkpt><trkpt lat="44.77027" lon="9.3019817"><ele>1001.8000000000001</ele><time>2026-04-26T09:27:16.295Z</time></trkpt><trkpt lat="44.7703417" lon="9.3019383"><ele>1004.6000000000001</ele><time>2026-04-26T09:27:17.295Z</time></trkpt><trkpt lat="44.7704233" lon="9.3018917"><ele>1007.4</ele><time>2026-04-26T09:27:18.295Z</time></trkpt><trkpt lat="44.7705183" lon="9.3018467"><ele>1010.2</ele><time>2026-04-26T09:27:19.295Z</time></trkpt><trkpt lat="44.7706167" lon="9.3018017"><ele>1013.0</ele><time>2026-04-26T09:27:20.295Z</time></trkpt><trkpt lat="44.7707" lon="9.3017433"><ele>1013.0000000000001</ele><time>2026-04-26T09:27:21.295Z</time></trkpt><trkpt lat="44.770765" lon="9.3016767"><ele>1013.0</ele><time>2026-04-26T09:27:22.295Z</time></trkpt><trkpt lat="44.7708283" lon="9.3015983"><ele>1013.0</ele><time>2026-04-26T09:27:23.295Z</time></trkpt><trkpt lat="44.7708717" lon="9.30151"><ele>1013.0</ele><time>2026-04-26T09:27:24.295Z</time></trkpt><trkpt lat="44.770905" lon="9.301415"><ele>1013.0000000000001</ele><time>2026-04-26T09:27:25.295Z</time></trkpt><trkpt lat="44.77094" lon="9.3013283"><ele>1013.0</ele><time>2026-04-26T09:27:26.295Z</time></trkpt><trkpt lat="44.7709783" lon="9.3012417"><ele>1017.2</ele><time>2026-04-26T09:27:27.295Z</time></trkpt><trkpt lat="44.7710333" lon="9.3011617"><ele>1021.4</ele><time>2026-04-26T09:27:28.295Z</time></trkpt><trkpt lat="44.7710983" lon="9.3010767"><ele>1025.6000000000001</ele><time>2026-04-26T09:27:29.295Z</time></trkpt><trkpt lat="44.771175" lon="9.300985"><ele>1029.8</ele><time>2026-04-26T09:27:30.295Z</time></trkpt><trkpt lat="44.7712583" lon="9.3008933"><ele>1034.0</ele><time>2026-04-26T09:27:31.295Z</time></trkpt><trkpt lat="44.7713467" lon="9.3007983"><ele>1034.0</ele><time>2026-04-26T09:27:32.295Z</time></trkpt><trkpt lat="44.7714483" lon="9.300705"><ele>1034.0</ele><time>2026-04-26T09:27:33.295Z</time></trkpt><trkpt lat="44.7715433" lon="9.3006067"><ele>1034.0</ele><time>2026-04-26T09:27:34.295Z</time></trkpt><trkpt lat="44.7716167" lon="9.300515"><ele>1034.0</ele><time>2026-04-26T09:27:35.294Z</time></trkpt><trkpt lat="44.77168" lon="9.30043"><ele>1034.0</ele><time>2026-04-26T09:27:36.295Z</time></trkpt><trkpt lat="44.7717317" lon="9.3003367"><ele>1032.3333333333335</ele><time>2026-04-26T09:27:37.295Z</time></trkpt><trkpt lat="44.7717717" lon="9.30024"><ele>1030.6666666666667</ele><time>2026-04-26T09:27:38.295Z</time></trkpt><trkpt lat="44.7718067" lon="9.3001467"><ele>1029.0</ele><time>2026-04-26T09:27:39.295Z</time></trkpt><trkpt lat="44.7718417" lon="9.3000367"><ele>1027.3333333333333</ele><time>2026-04-26T09:27:40.295Z</time></trkpt><trkpt lat="44.771885" lon="9.2999167"><ele>1025.6666666666665</ele><time>2026-04-26T09:27:41.295Z</time></trkpt><trkpt lat="44.771935" lon="9.2998017"><ele>1024.0</ele><time>2026-04-26T09:27:42.295Z</time></trkpt><trkpt lat="44.771985" lon="9.2996817"><ele>1027.3333333333333</ele><time>2026-04-26T09:27:43.295Z</time></trkpt><trkpt lat="44.772035" lon="9.2995733"><ele>1030.6666666666665</ele><time>2026-04-26T09:27:44.295Z</time></trkpt><trkpt lat="44.77208" lon="9.29947"><ele>1034.0</ele><time>2026-04-26T09:27:45.295Z</time></trkpt><trkpt lat="44.7721183" lon="9.29937"><ele>1037.3333333333333</ele><time>2026-04-26T09:27:46.295Z</time></trkpt><trkpt lat="44.7721433" lon="9.2992817"><ele>1040.6666666666667</ele><time>2026-04-26T09:27:47.295Z</time></trkpt><trkpt lat="44.7721033" lon="9.2991767"><ele>1044.0</ele><time>2026-04-26T09:27:49.295Z</time></trkpt><trkpt lat="44.7720567" lon="9.2991117"><ele>1044.0</ele><time>2026-04-26T09:27:50.295Z</time></trkpt><trkpt lat="44.7719883" lon="9.2990733"><ele>1044.0</ele><time>2026-04-26T09:27:51.295Z</time></trkpt><trkpt lat="44.7718983" lon="9.2990683"><ele>1044.0</ele><time>2026-04-26T09:27:52.295Z</time></trkpt><trkpt lat="44.7718" lon="9.2990717"><ele>1044.0</ele><time>2026-04-26T09:27:53.295Z</time></trkpt><trkpt lat="44.7716917" lon="9.2990917"><ele>1044.0</ele><time>2026-04-26T09:27:54.295Z</time></trkpt><trkpt lat="44.7715783" lon="9.2990983"><ele>1043.0</ele><time>2026-04-26T09:27:55.295Z</time></trkpt><trkpt lat="44.771435" lon="9.2991367"><ele>1042.0</ele><time>2026-04-26T09:27:56.295Z</time></trkpt><trkpt lat="44.7712967" lon="9.29915"><ele>1041.0</ele><time>2026-04-26T09:27:57.294Z</time></trkpt><trkpt lat="44.7711633" lon="9.2991533"><ele>1040.0</ele><time>2026-04-26T09:27:58.294Z</time></trkpt><trkpt lat="44.77104" lon="9.299165"><ele>1039.4</ele><time>2026-04-26T09:27:59.295Z</time></trkpt><trkpt lat="44.7709267" lon="9.2991933"><ele>1038.8</ele><time>2026-04-26T09:28:00.294Z</time></trkpt><trkpt lat="44.7708183" lon="9.2992067"><ele>1038.2</ele><time>2026-04-26T09:28:01.295Z</time></trkpt><trkpt lat="44.7707183" lon="9.29921"><ele>1037.6</ele><time>2026-04-26T09:28:02.294Z</time></trkpt><trkpt lat="44.77062" lon="9.2992017"><ele>1037.0</ele><time>2026-04-26T09:28:03.295Z</time></trkpt><trkpt lat="44.770545" lon="9.2991833"><ele>1037.0</ele><time>2026-04-26T09:28:04.295Z</time></trkpt><trkpt lat="44.77044" lon="9.2991133"><ele>1037.0</ele><time>2026-04-26T09:28:06.294Z</time></trkpt><trkpt lat="44.7704033" lon="9.29903"><ele>1037.0</ele><time>2026-04-26T09:28:07.295Z</time></trkpt><trkpt lat="44.7703867" lon="9.298915"><ele>1037.0</ele><time>2026-04-26T09:28:08.295Z</time></trkpt><trkpt lat="44.7703933" lon="9.298765"><ele>1037.0</ele><time>2026-04-26T09:28:09.295Z</time></trkpt><trkpt lat="44.7703917" lon="9.2986167"><ele>1036.5</ele><time>2026-04-26T09:28:10.295Z</time></trkpt><trkpt lat="44.7703683" lon="9.29847"><ele>1036.0</ele><time>2026-04-26T09:28:11.295Z</time></trkpt><trkpt lat="44.7703383" lon="9.2983433"><ele>1035.5</ele><time>2026-04-26T09:28:12.295Z</time></trkpt><trkpt lat="44.7703183" lon="9.2982117"><ele>1035.0</ele><time>2026-04-26T09:28:13.294Z</time></trkpt><trkpt lat="44.7703117" lon="9.2980983"><ele>1034.5</ele><time>2026-04-26T09:28:14.295Z</time></trkpt><trkpt lat="44.7703183" lon="9.298"><ele>1034.0</ele><time>2026-04-26T09:28:15.295Z</time></trkpt><trkpt lat="44.7703833" lon="9.29788"><ele>1034.0</ele><time>2026-04-26T09:28:17.295Z</time></trkpt><trkpt lat="44.7705" lon="9.2978767"><ele>1034.0</ele><time>2026-04-26T09:28:19.295Z</time></trkpt><trkpt lat="44.770565" lon="9.2979017"><ele>1034.0</ele><time>2026-04-26T09:28:20.294Z</time></trkpt><trkpt lat="44.7706383" lon="9.2979433"><ele>1034.0</ele><time>2026-04-26T09:28:21.295Z</time></trkpt><trkpt lat="44.77071" lon="9.2979967"><ele>1034.0</ele><time>2026-04-26T09:28:22.295Z</time></trkpt><trkpt lat="44.770765" lon="9.2980717"><ele>1034.0</ele><time>2026-04-26T09:28:23.295Z</time></trkpt><trkpt lat="44.7708133" lon="9.2981683"><ele>1036.3333333333335</ele><time>2026-04-26T09:28:24.295Z</time></trkpt><trkpt lat="44.77085" lon="9.2982617"><ele>1038.6666666666667</ele><time>2026-04-26T09:28:25.295Z</time></trkpt><trkpt lat="44.770905" lon="9.2983367"><ele>1041.0</ele><time>2026-04-26T09:28:26.295Z</time></trkpt><trkpt lat="44.77097" lon="9.298395"><ele>1043.3333333333333</ele><time>2026-04-26T09:28:27.295Z</time></trkpt><trkpt lat="44.7710383" lon="9.2984583"><ele>1045.6666666666665</ele><time>2026-04-26T09:28:28.295Z</time></trkpt><trkpt lat="44.77111" lon="9.2985333"><ele>1048.0</ele><time>2026-04-26T09:28:29.295Z</time></trkpt><trkpt lat="44.7711783" lon="9.2986267"><ele>1049.4</ele><time>2026-04-26T09:28:30.295Z</time></trkpt><trkpt lat="44.771235" lon="9.2986983"><ele>1050.8</ele><time>2026-04-26T09:28:31.295Z</time></trkpt><trkpt lat="44.7713467" lon="9.298735"><ele>1052.2</ele><time>2026-04-26T09:28:33.295Z</time></trkpt><trkpt lat="44.7714233" lon="9.29872"><ele>1053.6</ele><time>2026-04-26T09:28:34.294Z</time></trkpt><trkpt lat="44.7715067" lon="9.29867"><ele>1055.0</ele><time>2026-04-26T09:28:35.295Z</time></trkpt><trkpt lat="44.7715933" lon="9.2985967"><ele>1055.0</ele><time>2026-04-26T09:28:36.295Z</time></trkpt><trkpt lat="44.7716833" lon="9.2985083"><ele>1055.0</ele><time>2026-04-26T09:28:37.295Z</time></trkpt><trkpt lat="44.7717767" lon="9.298435"><ele>1055.0</ele><time>2026-04-26T09:28:38.295Z</time></trkpt><trkpt lat="44.7718767" lon="9.2983717"><ele>1055.0</ele><time>2026-04-26T09:28:39.295Z</time></trkpt><trkpt lat="44.771985" lon="9.2983067"><ele>1055.0</ele><time>2026-04-26T09:28:40.295Z</time></trkpt><trkpt lat="44.7720833" lon="9.2982567"><ele>1057.25</ele><time>2026-04-26T09:28:41.293Z</time></trkpt><trkpt lat="44.7722033" lon="9.298215"><ele>1059.5</ele><time>2026-04-26T09:28:42.294Z</time></trkpt><trkpt lat="44.772325" lon="9.2981767"><ele>1061.75</ele><time>2026-04-26T09:28:43.294Z</time></trkpt><trkpt lat="44.772455" lon="9.29815"><ele>1064.0</ele><time>2026-04-26T09:28:44.294Z</time></trkpt><trkpt lat="44.7725917" lon="9.2981183"><ele>1066.6000000000001</ele><time>2026-04-26T09:28:45.294Z</time></trkpt><trkpt lat="44.7727133" lon="9.2980933"><ele>1069.2</ele><time>2026-04-26T09:28:46.294Z</time></trkpt><trkpt lat="44.772815" lon="9.2980783"><ele>1071.8000000000002</ele><time>2026-04-26T09:28:47.294Z</time></trkpt><trkpt lat="44.7729083" lon="9.2980767"><ele>1074.4</ele><time>2026-04-26T09:28:48.293Z</time></trkpt><trkpt lat="44.7729917" lon="9.29807"><ele>1077.0</ele><time>2026-04-26T09:28:49.294Z</time></trkpt><trkpt lat="44.77306" lon="9.29806"><ele>1079.4</ele><time>2026-04-26T09:28:50.294Z</time></trkpt><trkpt lat="44.773145" lon="9.2979683"><ele>1081.8000000000002</ele><time>2026-04-26T09:28:52.294Z</time></trkpt><trkpt lat="44.7731083" lon="9.2978367"><ele>1084.2</ele><time>2026-04-26T09:28:54.293Z</time></trkpt><trkpt lat="44.773025" lon="9.2977767"><ele>1086.6000000000001</ele><time>2026-04-26T09:28:55.294Z</time></trkpt><trkpt lat="44.7729217" lon="9.297705"><ele>1089.0</ele><time>2026-04-26T09:28:56.294Z</time></trkpt><trkpt lat="44.7728217" lon="9.297625"><ele>1089.0</ele><time>2026-04-26T09:28:57.294Z</time></trkpt><trkpt lat="44.7727233" lon="9.2975367"><ele>1089.0</ele><time>2026-04-26T09:28:58.294Z</time></trkpt><trkpt lat="44.7726467" lon="9.2974483"><ele>1089.0</ele><time>2026-04-26T09:28:59.293Z</time></trkpt><trkpt lat="44.77259" lon="9.2973567"><ele>1089.0</ele><time>2026-04-26T09:29:00.294Z</time></trkpt><trkpt lat="44.7725617" lon="9.2972633"><ele>1089.0</ele><time>2026-04-26T09:29:01.294Z</time></trkpt><trkpt lat="44.7725583" lon="9.2971583"><ele>1089.0</ele><time>2026-04-26T09:29:02.294Z</time></trkpt><trkpt lat="44.772575" lon="9.2970367"><ele>1087.5</ele><time>2026-04-26T09:29:03.294Z</time></trkpt><trkpt lat="44.7725967" lon="9.2969117"><ele>1086.0</ele><time>2026-04-26T09:29:04.294Z</time></trkpt><trkpt lat="44.7726217" lon="9.2967733"><ele>1084.5</ele><time>2026-04-26T09:29:05.293Z</time></trkpt><trkpt lat="44.7726417" lon="9.29666"><ele>1083.0</ele><time>2026-04-26T09:29:06.294Z</time></trkpt><trkpt lat="44.7726717" lon="9.2965617"><ele>1081.5</ele><time>2026-04-26T09:29:07.293Z</time></trkpt><trkpt lat="44.7727167" lon="9.29647"><ele>1080.0</ele><time>2026-04-26T09:29:08.294Z</time></trkpt><trkpt lat="44.7727733" lon="9.2963617"><ele>1084.4</ele><time>2026-04-26T09:29:09.294Z</time></trkpt><trkpt lat="44.7728267" lon="9.296235"><ele>1088.8</ele><time>2026-04-26T09:29:10.294Z</time></trkpt><trkpt lat="44.7728533" lon="9.2960817"><ele>1093.2</ele><time>2026-04-26T09:29:11.294Z</time></trkpt><trkpt lat="44.7728617" lon="9.29594"><ele>1097.6</ele><time>2026-04-26T09:29:12.294Z</time></trkpt><trkpt lat="44.7728733" lon="9.29582"><ele>1102.0</ele><time>2026-04-26T09:29:13.294Z</time></trkpt><trkpt lat="44.772905" lon="9.29571"><ele>1102.0</ele><time>2026-04-26T09:29:14.294Z</time></trkpt><trkpt lat="44.7729683" lon="9.2956117"><ele>1102.0</ele><time>2026-04-26T09:29:15.294Z</time></trkpt><trkpt lat="44.7730467" lon="9.2955267"><ele>1102.0</ele><time>2026-04-26T09:29:16.294Z</time></trkpt><trkpt lat="44.77314" lon="9.29544"><ele>1102.0</ele><time>2026-04-26T09:29:17.294Z</time></trkpt><trkpt lat="44.7732333" lon="9.2953267"><ele>1102.0</ele><time>2026-04-26T09:29:18.294Z</time></trkpt><trkpt lat="44.7733133" lon="9.295205"><ele>1101.0</ele><time>2026-04-26T09:29:19.294Z</time></trkpt><trkpt lat="44.773395" lon="9.295075"><ele>1100.0</ele><time>2026-04-26T09:29:20.294Z</time></trkpt><trkpt lat="44.7734817" lon="9.294935"><ele>1099.0</ele><time>2026-04-26T09:29:21.294Z</time></trkpt><trkpt lat="44.77356" lon="9.294795"><ele>1098.0</ele><time>2026-04-26T09:29:22.294Z</time></trkpt><trkpt lat="44.7736317" lon="9.2946433"><ele>1100.25</ele><time>2026-04-26T09:29:23.294Z</time></trkpt><trkpt lat="44.7737033" lon="9.2944917"><ele>1102.5</ele><time>2026-04-26T09:29:24.294Z</time></trkpt><trkpt lat="44.7737683" lon="9.294345"><ele>1104.75</ele><time>2026-04-26T09:29:25.294Z</time></trkpt><trkpt lat="44.7738283" lon="9.2942233"><ele>1107.0</ele><time>2026-04-26T09:29:26.293Z</time></trkpt><trkpt lat="44.773895" lon="9.29412"><ele>1107.0</ele><time>2026-04-26T09:29:27.294Z</time></trkpt><trkpt lat="44.7739617" lon="9.294045"><ele>1107.0</ele><time>2026-04-26T09:29:28.294Z</time></trkpt><trkpt lat="44.7740117" lon="9.2939833"><ele>1107.0</ele><time>2026-04-26T09:29:29.294Z</time></trkpt><trkpt lat="44.7740967" lon="9.293935"><ele>1107.0</ele><time>2026-04-26T09:29:40.294Z</time></trkpt><trkpt lat="44.7741967" lon="9.2939"><ele>1107.0</ele><time>2026-04-26T09:29:42.293Z</time></trkpt><trkpt lat="44.7742633" lon="9.293905"><ele>1107.0</ele><time>2026-04-26T09:29:43.294Z</time></trkpt><trkpt lat="44.774345" lon="9.2939233"><ele>1106.0</ele><time>2026-04-26T09:29:44.294Z</time></trkpt><trkpt lat="44.77443" lon="9.2939583"><ele>1105.0</ele><time>2026-04-26T09:29:45.294Z</time></trkpt><trkpt lat="44.7745233" lon="9.294005"><ele>1104.0</ele><time>2026-04-26T09:29:46.294Z</time></trkpt><trkpt lat="44.7746317" lon="9.2940667"><ele>1103.0</ele><time>2026-04-26T09:29:47.294Z</time></trkpt><trkpt lat="44.7747317" lon="9.29413"><ele>1102.0</ele><time>2026-04-26T09:29:48.294Z</time></trkpt><trkpt lat="44.7748183" lon="9.29419"><ele>1102.0</ele><time>2026-04-26T09:29:49.294Z</time></trkpt><trkpt lat="44.77491" lon="9.29426"><ele>1102.0</ele><time>2026-04-26T09:29:50.294Z</time></trkpt><trkpt lat="44.775" lon="9.2943283"><ele>1102.0</ele><time>2026-04-26T09:29:51.294Z</time></trkpt><trkpt lat="44.77509" lon="9.294375"><ele>1102.0</ele><time>2026-04-26T09:29:52.294Z</time></trkpt><trkpt lat="44.7751867" lon="9.2944067"><ele>1102.0</ele><time>2026-04-26T09:29:53.294Z</time></trkpt><trkpt lat="44.77529" lon="9.2944283"><ele>1099.75</ele><time>2026-04-26T09:29:54.294Z</time></trkpt><trkpt lat="44.77541" lon="9.294445"><ele>1097.5</ele><time>2026-04-26T09:29:55.293Z</time></trkpt><trkpt lat="44.77553" lon="9.294455"><ele>1095.25</ele><time>2026-04-26T09:29:56.294Z</time></trkpt><trkpt lat="44.77564" lon="9.294455"><ele>1093.0</ele><time>2026-04-26T09:29:57.294Z</time></trkpt><trkpt lat="44.7757383" lon="9.2944367"><ele>1093.0</ele><time>2026-04-26T09:29:58.293Z</time></trkpt><trkpt lat="44.7758267" lon="9.2943983"><ele>1093.0</ele><time>2026-04-26T09:29:59.294Z</time></trkpt><trkpt lat="44.7759083" lon="9.29433"><ele>1093.0</ele><time>2026-04-26T09:30:00.294Z</time></trkpt><trkpt lat="44.7759783" lon="9.2942433"><ele>1093.0</ele><time>2026-04-26T09:30:01.294Z</time></trkpt><trkpt lat="44.77604" lon="9.29415"><ele>1093.0</ele><time>2026-04-26T09:30:02.294Z</time></trkpt><trkpt lat="44.77611" lon="9.2940583"><ele>1092.2</ele><time>2026-04-26T09:30:03.294Z</time></trkpt><trkpt lat="44.7761917" lon="9.2939883"><ele>1091.4</ele><time>2026-04-26T09:30:04.294Z</time></trkpt><trkpt lat="44.7762917" lon="9.293945"><ele>1090.6000000000001</ele><time>2026-04-26T09:30:05.294Z</time></trkpt><trkpt lat="44.7764067" lon="9.2939183"><ele>1089.8</ele><time>2026-04-26T09:30:06.294Z</time></trkpt><trkpt lat="44.7765317" lon="9.29391"><ele>1089.0</ele><time>2026-04-26T09:30:07.294Z</time></trkpt><trkpt lat="44.7766733" lon="9.2939"><ele>1086.0</ele><time>2026-04-26T09:30:08.294Z</time></trkpt><trkpt lat="44.7768" lon="9.2939"><ele>1083.0</ele><time>2026-04-26T09:30:09.294Z</time></trkpt><trkpt lat="44.7769417" lon="9.2938983"><ele>1080.0</ele><time>2026-04-26T09:30:10.294Z</time></trkpt><trkpt lat="44.7770683" lon="9.293905"><ele>1077.0</ele><time>2026-04-26T09:30:11.294Z</time></trkpt><trkpt lat="44.7771833" lon="9.2939117"><ele>1075.1666666666667</ele><time>2026-04-26T09:30:12.294Z</time></trkpt><trkpt lat="44.7772833" lon="9.2939117"><ele>1073.3333333333333</ele><time>2026-04-26T09:30:13.294Z</time></trkpt><trkpt lat="44.7773717" lon="9.2938983"><ele>1071.5</ele><time>2026-04-26T09:30:14.294Z</time></trkpt><trkpt lat="44.7774517" lon="9.293875"><ele>1069.6666666666665</ele><time>2026-04-26T09:30:15.294Z</time></trkpt><trkpt lat="44.7775067" lon="9.2938233"><ele>1067.8333333333333</ele><time>2026-04-26T09:30:16.294Z</time></trkpt><trkpt lat="44.777555" lon="9.293755"><ele>1066.0</ele><time>2026-04-26T09:30:17.294Z</time></trkpt><trkpt lat="44.7775833" lon="9.29367"><ele>1066.0</ele><time>2026-04-26T09:30:18.294Z</time></trkpt><trkpt lat="44.777565" lon="9.2935517"><ele>1066.0</ele><time>2026-04-26T09:30:19.294Z</time></trkpt><trkpt lat="44.77752" lon="9.2934317"><ele>1066.0</ele><time>2026-04-26T09:30:20.294Z</time></trkpt><trkpt lat="44.7774517" lon="9.293315"><ele>1066.0</ele><time>2026-04-26T09:30:21.294Z</time></trkpt><trkpt lat="44.7773617" lon="9.2931933"><ele>1066.0</ele><time>2026-04-26T09:30:22.294Z</time></trkpt><trkpt lat="44.777275" lon="9.2930767"><ele>1064.3333333333333</ele><time>2026-04-26T09:30:23.294Z</time></trkpt><trkpt lat="44.7772083" lon="9.2929683"><ele>1062.6666666666665</ele><time>2026-04-26T09:30:24.293Z</time></trkpt><trkpt lat="44.7771633" lon="9.2928817"><ele>1061.0</ele><time>2026-04-26T09:30:25.294Z</time></trkpt><trkpt lat="44.7771333" lon="9.29278"><ele>1059.3333333333333</ele><time>2026-04-26T09:30:26.293Z</time></trkpt><trkpt lat="44.7771217" lon="9.29268"><ele>1057.6666666666667</ele><time>2026-04-26T09:30:27.293Z</time></trkpt><trkpt lat="44.7771233" lon="9.2925717"><ele>1056.0</ele><time>2026-04-26T09:30:28.294Z</time></trkpt><trkpt lat="44.7771317" lon="9.2924583"><ele>1056.0</ele><time>2026-04-26T09:30:29.293Z</time></trkpt><trkpt lat="44.77714" lon="9.292335"><ele>1056.0</ele><time>2026-04-26T09:30:30.294Z</time></trkpt><trkpt lat="44.7771467" lon="9.2922067"><ele>1056.0</ele><time>2026-04-26T09:30:31.294Z</time></trkpt><trkpt lat="44.7771617" lon="9.2920733"><ele>1056.0</ele><time>2026-04-26T09:30:32.294Z</time></trkpt><trkpt lat="44.77717" lon="9.2919517"><ele>1056.0</ele><time>2026-04-26T09:30:33.294Z</time></trkpt><trkpt lat="44.7771633" lon="9.2918433"><ele>1056.0</ele><time>2026-04-26T09:30:34.294Z</time></trkpt><trkpt lat="44.7771583" lon="9.2917283"><ele>1055.1666666666667</ele><time>2026-04-26T09:30:35.294Z</time></trkpt><trkpt lat="44.77714" lon="9.2916117"><ele>1054.3333333333333</ele><time>2026-04-26T09:30:36.294Z</time></trkpt><trkpt lat="44.77713" lon="9.2914933"><ele>1053.5</ele><time>2026-04-26T09:30:37.294Z</time></trkpt><trkpt lat="44.7771217" lon="9.291365"><ele>1052.6666666666665</ele><time>2026-04-26T09:30:38.294Z</time></trkpt><trkpt lat="44.77713" lon="9.2912383"><ele>1051.8333333333333</ele><time>2026-04-26T09:30:39.294Z</time></trkpt><trkpt lat="44.777165" lon="9.291125"><ele>1051.0</ele><time>2026-04-26T09:30:40.294Z</time></trkpt><trkpt lat="44.7772283" lon="9.291025"><ele>1050.5</ele><time>2026-04-26T09:30:41.293Z</time></trkpt><trkpt lat="44.7773267" lon="9.2909433"><ele>1050.0</ele><time>2026-04-26T09:30:42.293Z</time></trkpt><trkpt lat="44.7774383" lon="9.290865"><ele>1049.5</ele><time>2026-04-26T09:30:43.294Z</time></trkpt><trkpt lat="44.777565" lon="9.2908033"><ele>1049.0</ele><time>2026-04-26T09:30:44.294Z</time></trkpt><trkpt lat="44.7777067" lon="9.2907533"><ele>1046.6666666666667</ele><time>2026-04-26T09:30:45.294Z</time></trkpt><trkpt lat="44.7778583" lon="9.2907033"><ele>1044.3333333333333</ele><time>2026-04-26T09:30:46.294Z</time></trkpt><trkpt lat="44.778015" lon="9.2906533"><ele>1042.0</ele><time>2026-04-26T09:30:47.294Z</time></trkpt><trkpt lat="44.7781717" lon="9.290595"><ele>1041.6666666666665</ele><time>2026-04-26T09:30:48.294Z</time></trkpt><trkpt lat="44.7783217" lon="9.2905283"><ele>1041.3333333333333</ele><time>2026-04-26T09:30:49.294Z</time></trkpt><trkpt lat="44.7784717" lon="9.2904633"><ele>1041.0</ele><time>2026-04-26T09:30:50.294Z</time></trkpt><trkpt lat="44.7786067" lon="9.2904083"><ele>1039.0</ele><time>2026-04-26T09:30:51.294Z</time></trkpt><trkpt lat="44.7787267" lon="9.2903567"><ele>1037.0</ele><time>2026-04-26T09:30:52.293Z</time></trkpt><trkpt lat="44.7788267" lon="9.2903"><ele>1035.0</ele><time>2026-04-26T09:30:53.294Z</time></trkpt><trkpt lat="44.7788917" lon="9.2902083"><ele>1033.0</ele><time>2026-04-26T09:30:54.294Z</time></trkpt><trkpt lat="44.778945" lon="9.2901183"><ele>1031.0</ele><time>2026-04-26T09:30:55.294Z</time></trkpt><trkpt lat="44.7789833" lon="9.2900033"><ele>1031.0</ele><time>2026-04-26T09:30:56.294Z</time></trkpt><trkpt lat="44.7790067" lon="9.2898833"><ele>1031.0</ele><time>2026-04-26T09:30:57.294Z</time></trkpt><trkpt lat="44.7790017" lon="9.2897417"><ele>1031.0</ele><time>2026-04-26T09:30:58.294Z</time></trkpt><trkpt lat="44.7789983" lon="9.2895817"><ele>1031.0</ele><time>2026-04-26T09:30:59.293Z</time></trkpt><trkpt lat="44.7789917" lon="9.2894233"><ele>1031.0</ele><time>2026-04-26T09:31:00.294Z</time></trkpt><trkpt lat="44.778975" lon="9.2892783"><ele>1030.2</ele><time>2026-04-26T09:31:01.294Z</time></trkpt><trkpt lat="44.7789417" lon="9.2891483"><ele>1029.3999999999999</ele><time>2026-04-26T09:31:02.294Z</time></trkpt><trkpt lat="44.7788817" lon="9.2890217"><ele>1028.6</ele><time>2026-04-26T09:31:03.294Z</time></trkpt><trkpt lat="44.7788" lon="9.2889"><ele>1027.8</ele><time>2026-04-26T09:31:04.293Z</time></trkpt><trkpt lat="44.7787067" lon="9.2887867"><ele>1027.0</ele><time>2026-04-26T09:31:05.294Z</time></trkpt><trkpt lat="44.7786167" lon="9.2886767"><ele>1026.8</ele><time>2026-04-26T09:31:06.294Z</time></trkpt><trkpt lat="44.7785217" lon="9.2885767"><ele>1026.6</ele><time>2026-04-26T09:31:07.294Z</time></trkpt><trkpt lat="44.7784417" lon="9.2884783"><ele>1026.3999999999999</ele><time>2026-04-26T09:31:08.294Z</time></trkpt><trkpt lat="44.7783733" lon="9.2883833"><ele>1026.2</ele><time>2026-04-26T09:31:09.294Z</time></trkpt><trkpt lat="44.7783217" lon="9.28828"><ele>1026.0</ele><time>2026-04-26T09:31:10.294Z</time></trkpt><trkpt lat="44.77831" lon="9.2881617"><ele>1024.8</ele><time>2026-04-26T09:31:11.294Z</time></trkpt><trkpt lat="44.7783233" lon="9.2880533"><ele>1023.5999999999999</ele><time>2026-04-26T09:31:12.294Z</time></trkpt><trkpt lat="44.7783767" lon="9.2879467"><ele>1022.4</ele><time>2026-04-26T09:31:13.293Z</time></trkpt><trkpt lat="44.7784467" lon="9.2878283"><ele>1021.2</ele><time>2026-04-26T09:31:14.293Z</time></trkpt><trkpt lat="44.7785117" lon="9.2876917"><ele>1020.0</ele><time>2026-04-26T09:31:15.293Z</time></trkpt><trkpt lat="44.7785783" lon="9.28753"><ele>1017.0</ele><time>2026-04-26T09:31:16.294Z</time></trkpt><trkpt lat="44.778635" lon="9.2873533"><ele>1014.0</ele><time>2026-04-26T09:31:17.294Z</time></trkpt><trkpt lat="44.77869" lon="9.2871883"><ele>1011.0</ele><time>2026-04-26T09:31:18.294Z</time></trkpt><trkpt lat="44.77876" lon="9.2870333"><ele>1008.0</ele><time>2026-04-26T09:31:19.294Z</time></trkpt><trkpt lat="44.7788433" lon="9.2869017"><ele>1007.5</ele><time>2026-04-26T09:31:20.294Z</time></trkpt><trkpt lat="44.778935" lon="9.2867867"><ele>1007.0</ele><time>2026-04-26T09:31:21.294Z</time></trkpt><trkpt lat="44.7790333" lon="9.2866733"><ele>1006.5</ele><time>2026-04-26T09:31:22.294Z</time></trkpt><trkpt lat="44.7791267" lon="9.2865567"><ele>1006.0</ele><time>2026-04-26T09:31:23.294Z</time></trkpt><trkpt lat="44.7792117" lon="9.286445"><ele>1005.5</ele><time>2026-04-26T09:31:24.294Z</time></trkpt><trkpt lat="44.7793017" lon="9.2863317"><ele>1005.0</ele><time>2026-04-26T09:31:25.294Z</time></trkpt><trkpt lat="44.779395" lon="9.286225"><ele>1004.5</ele><time>2026-04-26T09:31:26.294Z</time></trkpt><trkpt lat="44.7795" lon="9.28613"><ele>1004.0</ele><time>2026-04-26T09:31:27.294Z</time></trkpt><trkpt lat="44.7796067" lon="9.286055"><ele>1001.5</ele><time>2026-04-26T09:31:28.294Z</time></trkpt><trkpt lat="44.7797267" lon="9.2860117"><ele>999.0</ele><time>2026-04-26T09:31:29.294Z</time></trkpt><trkpt lat="44.779835" lon="9.2859817"><ele>996.5</ele><time>2026-04-26T09:31:30.294Z</time></trkpt><trkpt lat="44.7799483" lon="9.28597"><ele>994.0</ele><time>2026-04-26T09:31:31.294Z</time></trkpt><trkpt lat="44.7800667" lon="9.28597"><ele>992.2</ele><time>2026-04-26T09:31:32.294Z</time></trkpt><trkpt lat="44.7801867" lon="9.2859633"><ele>990.4000000000001</ele><time>2026-04-26T09:31:33.294Z</time></trkpt><trkpt lat="44.7802917" lon="9.2859283"><ele>988.6</ele><time>2026-04-26T09:31:34.294Z</time></trkpt><trkpt lat="44.7803817" lon="9.2858633"><ele>986.8</ele><time>2026-04-26T09:31:35.294Z</time></trkpt><trkpt lat="44.780445" lon="9.2857717"><ele>985.0</ele><time>2026-04-26T09:31:36.294Z</time></trkpt><trkpt lat="44.7804967" lon="9.2856617"><ele>982.8</ele><time>2026-04-26T09:31:37.293Z</time></trkpt><trkpt lat="44.780525" lon="9.2855317"><ele>980.6</ele><time>2026-04-26T09:31:38.294Z</time></trkpt><trkpt lat="44.7805367" lon="9.2853917"><ele>978.4000000000001</ele><time>2026-04-26T09:31:39.293Z</time></trkpt><trkpt lat="44.78051" lon="9.285245"><ele>976.2</ele><time>2026-04-26T09:31:40.293Z</time></trkpt><trkpt lat="44.7804667" lon="9.2851"><ele>974.0</ele><time>2026-04-26T09:31:41.294Z</time></trkpt><trkpt lat="44.7804033" lon="9.28498"><ele>974.0</ele><time>2026-04-26T09:31:42.294Z</time></trkpt><trkpt lat="44.7803217" lon="9.2848683"><ele>974.0</ele><time>2026-04-26T09:31:43.293Z</time></trkpt><trkpt lat="44.780215" lon="9.2847683"><ele>974.0</ele><time>2026-04-26T09:31:44.294Z</time></trkpt><trkpt lat="44.7801017" lon="9.2846783"><ele>974.0</ele><time>2026-04-26T09:31:45.294Z</time></trkpt><trkpt lat="44.7799783" lon="9.2845867"><ele>975.0</ele><time>2026-04-26T09:31:46.294Z</time></trkpt><trkpt lat="44.7798867" lon="9.284495"><ele>976.0000000000001</ele><time>2026-04-26T09:31:47.294Z</time></trkpt><trkpt lat="44.77982" lon="9.2843983"><ele>977.0000000000001</ele><time>2026-04-26T09:31:48.294Z</time></trkpt><trkpt lat="44.7797717" lon="9.2842967"><ele>978.0</ele><time>2026-04-26T09:31:49.294Z</time></trkpt><trkpt lat="44.7797483" lon="9.28419"><ele>979.0</ele><time>2026-04-26T09:31:50.294Z</time></trkpt><trkpt lat="44.7797483" lon="9.2840733"><ele>979.0</ele><time>2026-04-26T09:31:51.294Z</time></trkpt><trkpt lat="44.7797683" lon="9.2839633"><ele>979.0000000000001</ele><time>2026-04-26T09:31:52.294Z</time></trkpt><trkpt lat="44.7798167" lon="9.2838633"><ele>979.0000000000001</ele><time>2026-04-26T09:31:53.293Z</time></trkpt><trkpt lat="44.7798817" lon="9.283775"><ele>979.0</ele><time>2026-04-26T09:31:54.294Z</time></trkpt><trkpt lat="44.779965" lon="9.2836967"><ele>979.0</ele><time>2026-04-26T09:31:55.294Z</time></trkpt><trkpt lat="44.7800717" lon="9.2836433"><ele>974.75</ele><time>2026-04-26T09:31:56.294Z</time></trkpt><trkpt lat="44.7801933" lon="9.2836167"><ele>970.5</ele><time>2026-04-26T09:31:57.294Z</time></trkpt><trkpt lat="44.7803283" lon="9.2836283"><ele>966.25</ele><time>2026-04-26T09:31:58.294Z</time></trkpt><trkpt lat="44.7804617" lon="9.2836667"><ele>962.0</ele><time>2026-04-26T09:31:59.294Z</time></trkpt><trkpt lat="44.7805717" lon="9.283725"><ele>962.0</ele><time>2026-04-26T09:32:00.294Z</time></trkpt><trkpt lat="44.7806833" lon="9.2838"><ele>962.0</ele><time>2026-04-26T09:32:01.294Z</time></trkpt><trkpt lat="44.7808" lon="9.2839033"><ele>962.0</ele><time>2026-04-26T09:32:02.294Z</time></trkpt><trkpt lat="44.7809" lon="9.2840117"><ele>962.0</ele><time>2026-04-26T09:32:03.294Z</time></trkpt><trkpt lat="44.78099" lon="9.2841217"><ele>960.25</ele><time>2026-04-26T09:32:04.294Z</time></trkpt><trkpt lat="44.78107" lon="9.2842333"><ele>958.5</ele><time>2026-04-26T09:32:05.294Z</time></trkpt><trkpt lat="44.7811467" lon="9.284345"><ele>956.75</ele><time>2026-04-26T09:32:06.294Z</time></trkpt><trkpt lat="44.7812217" lon="9.2844667"><ele>955.0</ele><time>2026-04-26T09:32:07.294Z</time></trkpt><trkpt lat="44.7812967" lon="9.2845883"><ele>955.0</ele><time>2026-04-26T09:32:08.294Z</time></trkpt><trkpt lat="44.78138" lon="9.28472"><ele>955.0</ele><time>2026-04-26T09:32:09.293Z</time></trkpt><trkpt lat="44.7814717" lon="9.2848683"><ele>955.0</ele><time>2026-04-26T09:32:10.294Z</time></trkpt><trkpt lat="44.7815683" lon="9.2850283"><ele>955.0</ele><time>2026-04-26T09:32:11.294Z</time></trkpt><trkpt lat="44.7816633" lon="9.2851917"><ele>955.75</ele><time>2026-04-26T09:32:12.294Z</time></trkpt><trkpt lat="44.781755" lon="9.2853533"><ele>956.5</ele><time>2026-04-26T09:32:13.294Z</time></trkpt><trkpt lat="44.7818583" lon="9.285515"><ele>957.25</ele><time>2026-04-26T09:32:14.294Z</time></trkpt><trkpt lat="44.78196" lon="9.2856633"><ele>958.0</ele><time>2026-04-26T09:32:15.294Z</time></trkpt><trkpt lat="44.7820667" lon="9.28579"><ele>955.2</ele><time>2026-04-26T09:32:16.294Z</time></trkpt><trkpt lat="44.782165" lon="9.2858983"><ele>952.4</ele><time>2026-04-26T09:32:17.293Z</time></trkpt><trkpt lat="44.7822633" lon="9.2859917"><ele>949.6000000000001</ele><time>2026-04-26T09:32:18.294Z</time></trkpt><trkpt lat="44.7823433" lon="9.2860867"><ele>946.8000000000001</ele><time>2026-04-26T09:32:19.294Z</time></trkpt><trkpt lat="44.7824117" lon="9.2861917"><ele>944.0</ele><time>2026-04-26T09:32:20.294Z</time></trkpt><trkpt lat="44.7824617" lon="9.286325"><ele>946.0</ele><time>2026-04-26T09:32:21.294Z</time></trkpt><trkpt lat="44.7825017" lon="9.2864783"><ele>948.0000000000001</ele><time>2026-04-26T09:32:22.293Z</time></trkpt><trkpt lat="44.7825367" lon="9.286635"><ele>950.0000000000001</ele><time>2026-04-26T09:32:23.294Z</time></trkpt><trkpt lat="44.7825633" lon="9.28678"><ele>952.0</ele><time>2026-04-26T09:32:24.294Z</time></trkpt><trkpt lat="44.782585" lon="9.2869083"><ele>954.0</ele><time>2026-04-26T09:32:25.293Z</time></trkpt><trkpt lat="44.78261" lon="9.2870167"><ele>952.0</ele><time>2026-04-26T09:32:26.294Z</time></trkpt><trkpt lat="44.78271" lon="9.2871217"><ele>950.0000000000001</ele><time>2026-04-26T09:32:28.294Z</time></trkpt><trkpt lat="44.782775" lon="9.2871267"><ele>948.0000000000001</ele><time>2026-04-26T09:32:29.294Z</time></trkpt><trkpt lat="44.7828533" lon="9.2871167"><ele>946.0</ele><time>2026-04-26T09:32:30.294Z</time></trkpt><trkpt lat="44.7829367" lon="9.2870833"><ele>944.0</ele><time>2026-04-26T09:32:31.294Z</time></trkpt><trkpt lat="44.7830317" lon="9.2870217"><ele>944.0</ele><time>2026-04-26T09:32:32.294Z</time></trkpt><trkpt lat="44.7831233" lon="9.2869067"><ele>944.0</ele><time>2026-04-26T09:32:33.294Z</time></trkpt><trkpt lat="44.7832133" lon="9.2867467"><ele>944.0</ele><time>2026-04-26T09:32:34.294Z</time></trkpt><trkpt lat="44.7833067" lon="9.2865817"><ele>944.0</ele><time>2026-04-26T09:32:35.294Z</time></trkpt><trkpt lat="44.7834117" lon="9.2864383"><ele>941.75</ele><time>2026-04-26T09:32:36.294Z</time></trkpt><trkpt lat="44.7835083" lon="9.2863167"><ele>939.5</ele><time>2026-04-26T09:32:37.294Z</time></trkpt><trkpt lat="44.7836083" lon="9.2862333"><ele>937.25</ele><time>2026-04-26T09:32:38.294Z</time></trkpt><trkpt lat="44.783705" lon="9.28613"><ele>935.0</ele><time>2026-04-26T09:32:39.294Z</time></trkpt><trkpt lat="44.78379" lon="9.286045"><ele>935.0</ele><time>2026-04-26T09:32:40.294Z</time></trkpt><trkpt lat="44.783885" lon="9.2859733"><ele>935.0</ele><time>2026-04-26T09:32:41.294Z</time></trkpt><trkpt lat="44.7839783" lon="9.2859167"><ele>935.0</ele><time>2026-04-26T09:32:42.294Z</time></trkpt><trkpt lat="44.7840783" lon="9.2858667"><ele>935.0</ele><time>2026-04-26T09:32:43.294Z</time></trkpt><trkpt lat="44.7841783" lon="9.285815"><ele>935.0</ele><time>2026-04-26T09:32:44.294Z</time></trkpt><trkpt lat="44.7842733" lon="9.2857817"><ele>934.8</ele><time>2026-04-26T09:32:45.294Z</time></trkpt><trkpt lat="44.784375" lon="9.28576"><ele>934.6</ele><time>2026-04-26T09:32:46.294Z</time></trkpt><trkpt lat="44.784485" lon="9.2857583"><ele>934.4000000000001</ele><time>2026-04-26T09:32:47.294Z</time></trkpt><trkpt lat="44.7846017" lon="9.28577"><ele>934.2</ele><time>2026-04-26T09:32:48.294Z</time></trkpt><trkpt lat="44.78472" lon="9.285795"><ele>934.0</ele><time>2026-04-26T09:32:49.293Z</time></trkpt><trkpt lat="44.7848533" lon="9.285825"><ele>934.0</ele><time>2026-04-26T09:32:50.294Z</time></trkpt><trkpt lat="44.784975" lon="9.2858433"><ele>934.0</ele><time>2026-04-26T09:32:51.294Z</time></trkpt><trkpt lat="44.7850983" lon="9.2858533"><ele>934.0</ele><time>2026-04-26T09:32:52.294Z</time></trkpt><trkpt lat="44.7852167" lon="9.2858483"><ele>934.0</ele><time>2026-04-26T09:32:53.294Z</time></trkpt><trkpt lat="44.7853333" lon="9.2858267"><ele>932.25</ele><time>2026-04-26T09:32:54.294Z</time></trkpt><trkpt lat="44.7854533" lon="9.2858017"><ele>930.5</ele><time>2026-04-26T09:32:55.294Z</time></trkpt><trkpt lat="44.785575" lon="9.2857683"><ele>928.75</ele><time>2026-04-26T09:32:56.294Z</time></trkpt><trkpt lat="44.7856967" lon="9.2857417"><ele>927.0</ele><time>2026-04-26T09:32:57.294Z</time></trkpt><trkpt lat="44.7858167" lon="9.28571"><ele>927.0</ele><time>2026-04-26T09:32:58.294Z</time></trkpt><trkpt lat="44.7859383" lon="9.2856783"><ele>927.0</ele><time>2026-04-26T09:32:59.293Z</time></trkpt><trkpt lat="44.7860567" lon="9.28565"><ele>927.0</ele><time>2026-04-26T09:33:00.294Z</time></trkpt><trkpt lat="44.7861783" lon="9.2856233"><ele>927.0</ele><time>2026-04-26T09:33:01.294Z</time></trkpt><trkpt lat="44.7862983" lon="9.2855917"><ele>920.25</ele><time>2026-04-26T09:33:02.294Z</time></trkpt><trkpt lat="44.78642" lon="9.2855633"><ele>913.5</ele><time>2026-04-26T09:33:03.293Z</time></trkpt><trkpt lat="44.7865383" lon="9.285545"><ele>906.75</ele><time>2026-04-26T09:33:04.294Z</time></trkpt><trkpt lat="44.7866533" lon="9.285545"><ele>900.0</ele><time>2026-04-26T09:33:05.294Z</time></trkpt><trkpt lat="44.7867767" lon="9.28554"><ele>899.8</ele><time>2026-04-26T09:33:06.293Z</time></trkpt><trkpt lat="44.7868883" lon="9.2855683"><ele>899.6</ele><time>2026-04-26T09:33:07.294Z</time></trkpt><trkpt lat="44.7869883" lon="9.2855933"><ele>899.4000000000001</ele><time>2026-04-26T09:33:08.294Z</time></trkpt><trkpt lat="44.787055" lon="9.2856333"><ele>899.2</ele><time>2026-04-26T09:33:09.294Z</time></trkpt><trkpt lat="44.78712" lon="9.2856933"><ele>899.0</ele><time>2026-04-26T09:33:10.294Z</time></trkpt><trkpt lat="44.78719" lon="9.2857783"><ele>899.0000000000001</ele><time>2026-04-26T09:33:11.294Z</time></trkpt><trkpt lat="44.787255" lon="9.2858667"><ele>899.0</ele><time>2026-04-26T09:33:12.294Z</time></trkpt><trkpt lat="44.78732" lon="9.2859367"><ele>899.0</ele><time>2026-04-26T09:33:13.293Z</time></trkpt><trkpt lat="44.7873933" lon="9.2859967"><ele>899.0</ele><time>2026-04-26T09:33:14.294Z</time></trkpt><trkpt lat="44.78746" lon="9.2860183"><ele>899.0000000000001</ele><time>2026-04-26T09:33:15.293Z</time></trkpt><trkpt lat="44.7875233" lon="9.2860167"><ele>899.0</ele><time>2026-04-26T09:33:16.294Z</time></trkpt><trkpt lat="44.7876" lon="9.2860067"><ele>896.0</ele><time>2026-04-26T09:33:17.294Z</time></trkpt><trkpt lat="44.7877017" lon="9.2859717"><ele>893.0000000000001</ele><time>2026-04-26T09:33:18.294Z</time></trkpt><trkpt lat="44.7878183" lon="9.2859583"><ele>890.0000000000001</ele><time>2026-04-26T09:33:19.294Z</time></trkpt><trkpt lat="44.7879217" lon="9.28593"><ele>887.0</ele><time>2026-04-26T09:33:20.294Z</time></trkpt><trkpt lat="44.788035" lon="9.285935"><ele>884.0</ele><time>2026-04-26T09:33:21.294Z</time></trkpt><trkpt lat="44.788145" lon="9.2860033"><ele>884.0</ele><time>2026-04-26T09:33:22.294Z</time></trkpt><trkpt lat="44.7882517" lon="9.2860817"><ele>884.0</ele><time>2026-04-26T09:33:23.294Z</time></trkpt><trkpt lat="44.7883783" lon="9.286165"><ele>884.0</ele><time>2026-04-26T09:33:24.294Z</time></trkpt><trkpt lat="44.7884833" lon="9.2862367"><ele>884.0</ele><time>2026-04-26T09:33:25.294Z</time></trkpt><trkpt lat="44.7885833" lon="9.2863167"><ele>882.8333333333334</ele><time>2026-04-26T09:33:26.294Z</time></trkpt><trkpt lat="44.788675" lon="9.2863967"><ele>881.6666666666667</ele><time>2026-04-26T09:33:27.294Z</time></trkpt><trkpt lat="44.7887483" lon="9.2864717"><ele>880.5</ele><time>2026-04-26T09:33:28.294Z</time></trkpt><trkpt lat="44.7888067" lon="9.28652"><ele>879.3333333333333</ele><time>2026-04-26T09:33:29.294Z</time></trkpt><trkpt lat="44.788875" lon="9.2865483"><ele>878.1666666666666</ele><time>2026-04-26T09:33:30.294Z</time></trkpt><trkpt lat="44.7889417" lon="9.286545"><ele>877.0</ele><time>2026-04-26T09:33:31.294Z</time></trkpt><trkpt lat="44.7890167" lon="9.2865133"><ele>877.0</ele><time>2026-04-26T09:33:32.294Z</time></trkpt><trkpt lat="44.7891083" lon="9.2864683"><ele>877.0</ele><time>2026-04-26T09:33:33.293Z</time></trkpt><trkpt lat="44.7892033" lon="9.28641"><ele>877.0</ele><time>2026-04-26T09:33:34.294Z</time></trkpt><trkpt lat="44.7893033" lon="9.2863433"><ele>877.0</ele><time>2026-04-26T09:33:35.294Z</time></trkpt><trkpt lat="44.7894133" lon="9.2862817"><ele>877.0</ele><time>2026-04-26T09:33:36.294Z</time></trkpt><trkpt lat="44.7895317" lon="9.2862317"><ele>878.25</ele><time>2026-04-26T09:33:37.293Z</time></trkpt><trkpt lat="44.7896617" lon="9.2861967"><ele>879.5</ele><time>2026-04-26T09:33:38.294Z</time></trkpt><trkpt lat="44.78978" lon="9.2861533"><ele>880.75</ele><time>2026-04-26T09:33:39.293Z</time></trkpt><trkpt lat="44.789895" lon="9.2860883"><ele>882.0</ele><time>2026-04-26T09:33:40.294Z</time></trkpt><trkpt lat="44.7900017" lon="9.2860183"><ele>882.0</ele><time>2026-04-26T09:33:41.294Z</time></trkpt><trkpt lat="44.7900883" lon="9.2859467"><ele>882.0</ele><time>2026-04-26T09:33:42.294Z</time></trkpt><trkpt lat="44.7901767" lon="9.285865"><ele>882.0</ele><time>2026-04-26T09:33:43.294Z</time></trkpt><trkpt lat="44.7902367" lon="9.2857817"><ele>882.0</ele><time>2026-04-26T09:33:44.294Z</time></trkpt><trkpt lat="44.7902967" lon="9.28566"><ele>882.0</ele><time>2026-04-26T09:33:45.294Z</time></trkpt><trkpt lat="44.7903383" lon="9.2855267"><ele>880.4000000000001</ele><time>2026-04-26T09:33:46.294Z</time></trkpt><trkpt lat="44.7903633" lon="9.2854083"><ele>878.8000000000001</ele><time>2026-04-26T09:33:47.294Z</time></trkpt><trkpt lat="44.7903717" lon="9.285285"><ele>877.2</ele><time>2026-04-26T09:33:48.294Z</time></trkpt><trkpt lat="44.7903667" lon="9.2851483"><ele>875.6</ele><time>2026-04-26T09:33:49.294Z</time></trkpt><trkpt lat="44.79035" lon="9.2849917"><ele>874.0</ele><time>2026-04-26T09:33:50.294Z</time></trkpt><trkpt lat="44.790325" lon="9.28484"><ele>872.4999999999999</ele><time>2026-04-26T09:33:51.294Z</time></trkpt><trkpt lat="44.7903033" lon="9.2846733"><ele>871.0</ele><time>2026-04-26T09:33:52.294Z</time></trkpt><trkpt lat="44.7902833" lon="9.2845333"><ele>869.5</ele><time>2026-04-26T09:33:53.294Z</time></trkpt><trkpt lat="44.7902733" lon="9.2844283"><ele>868.0</ele><time>2026-04-26T09:33:54.294Z</time></trkpt><trkpt lat="44.7902733" lon="9.2843317"><ele>866.4999999999999</ele><time>2026-04-26T09:33:55.294Z</time></trkpt><trkpt lat="44.790305" lon="9.2842417"><ele>865.0</ele><time>2026-04-26T09:33:56.294Z</time></trkpt><trkpt lat="44.7903667" lon="9.2841517"><ele>865.0</ele><time>2026-04-26T09:33:57.294Z</time></trkpt><trkpt lat="44.7904267" lon="9.2840467"><ele>865.0</ele><time>2026-04-26T09:33:58.294Z</time></trkpt><trkpt lat="44.7904833" lon="9.2839383"><ele>865.0</ele><time>2026-04-26T09:33:59.293Z</time></trkpt><trkpt lat="44.7905333" lon="9.2838067"><ele>865.0</ele><time>2026-04-26T09:34:00.294Z</time></trkpt><trkpt lat="44.79057" lon="9.2836733"><ele>865.0</ele><time>2026-04-26T09:34:01.294Z</time></trkpt><trkpt lat="44.790605" lon="9.28354"><ele>865.2</ele><time>2026-04-26T09:34:02.294Z</time></trkpt><trkpt lat="44.7906533" lon="9.28342"><ele>865.4</ele><time>2026-04-26T09:34:03.294Z</time></trkpt><trkpt lat="44.7907167" lon="9.2833067"><ele>865.5999999999999</ele><time>2026-04-26T09:34:04.294Z</time></trkpt><trkpt lat="44.790785" lon="9.2832017"><ele>865.8</ele><time>2026-04-26T09:34:05.293Z</time></trkpt><trkpt lat="44.7908517" lon="9.28311"><ele>866.0</ele><time>2026-04-26T09:34:06.294Z</time></trkpt><trkpt lat="44.7909233" lon="9.283025"><ele>865.4</ele><time>2026-04-26T09:34:07.294Z</time></trkpt><trkpt lat="44.7909933" lon="9.28296"><ele>864.8</ele><time>2026-04-26T09:34:08.294Z</time></trkpt><trkpt lat="44.7910833" lon="9.2829067"><ele>864.1999999999999</ele><time>2026-04-26T09:34:09.294Z</time></trkpt><trkpt lat="44.7911933" lon="9.282875"><ele>863.5999999999999</ele><time>2026-04-26T09:34:10.294Z</time></trkpt><trkpt lat="44.7913117" lon="9.2828417"><ele>863.0</ele><time>2026-04-26T09:34:11.294Z</time></trkpt><trkpt lat="44.7914283" lon="9.28282"><ele>861.4</ele><time>2026-04-26T09:34:12.294Z</time></trkpt><trkpt lat="44.7915317" lon="9.282815"><ele>859.8</ele><time>2026-04-26T09:34:13.294Z</time></trkpt><trkpt lat="44.791625" lon="9.2828183"><ele>858.2</ele><time>2026-04-26T09:34:14.294Z</time></trkpt><trkpt lat="44.7917033" lon="9.2828167"><ele>856.6</ele><time>2026-04-26T09:34:15.294Z</time></trkpt><trkpt lat="44.791785" lon="9.2827883"><ele>855.0</ele><time>2026-04-26T09:34:16.293Z</time></trkpt><trkpt lat="44.7918717" lon="9.2827317"><ele>850.5</ele><time>2026-04-26T09:34:17.294Z</time></trkpt><trkpt lat="44.791955" lon="9.28266"><ele>846.0</ele><time>2026-04-26T09:34:18.294Z</time></trkpt><trkpt lat="44.792045" lon="9.2825617"><ele>841.5</ele><time>2026-04-26T09:34:19.294Z</time></trkpt><trkpt lat="44.7921417" lon="9.2824533"><ele>837.0</ele><time>2026-04-26T09:34:20.293Z</time></trkpt><trkpt lat="44.7922417" lon="9.28234"><ele>837.75</ele><time>2026-04-26T09:34:21.294Z</time></trkpt><trkpt lat="44.792345" lon="9.2822267"><ele>838.5</ele><time>2026-04-26T09:34:22.294Z</time></trkpt><trkpt lat="44.7924467" lon="9.282115"><ele>839.25</ele><time>2026-04-26T09:34:23.294Z</time></trkpt><trkpt lat="44.7925517" lon="9.2819917"><ele>840.0</ele><time>2026-04-26T09:34:24.294Z</time></trkpt><trkpt lat="44.79264" lon="9.2818633"><ele>837.3333333333334</ele><time>2026-04-26T09:34:25.294Z</time></trkpt><trkpt lat="44.7927067" lon="9.2817233"><ele>834.6666666666667</ele><time>2026-04-26T09:34:26.294Z</time></trkpt><trkpt lat="44.792755" lon="9.2816083"><ele>832.0</ele><time>2026-04-26T09:34:27.294Z</time></trkpt><trkpt lat="44.7927983" lon="9.2814983"><ele>829.3333333333334</ele><time>2026-04-26T09:34:28.294Z</time></trkpt><trkpt lat="44.7928183" lon="9.2814083"><ele>826.6666666666667</ele><time>2026-04-26T09:34:29.294Z</time></trkpt><trkpt lat="44.7928133" lon="9.2813167"><ele>824.0</ele><time>2026-04-26T09:34:30.294Z</time></trkpt><trkpt lat="44.7927883" lon="9.28123"><ele>824.0</ele><time>2026-04-26T09:34:31.294Z</time></trkpt><trkpt lat="44.792745" lon="9.281155"><ele>824.0</ele><time>2026-04-26T09:34:32.294Z</time></trkpt><trkpt lat="44.7926783" lon="9.281085"><ele>824.0</ele><time>2026-04-26T09:34:33.294Z</time></trkpt><trkpt lat="44.7925817" lon="9.2810217"><ele>824.0</ele><time>2026-04-26T09:34:34.294Z</time></trkpt><trkpt lat="44.792485" lon="9.2809783"><ele>824.0</ele><time>2026-04-26T09:34:35.294Z</time></trkpt><trkpt lat="44.7923933" lon="9.280945"><ele>825.6</ele><time>2026-04-26T09:34:36.294Z</time></trkpt><trkpt lat="44.7922983" lon="9.2809183"><ele>827.2</ele><time>2026-04-26T09:34:37.294Z</time></trkpt><trkpt lat="44.7921983" lon="9.2809267"><ele>828.8000000000001</ele><time>2026-04-26T09:34:38.294Z</time></trkpt><trkpt lat="44.7920983" lon="9.2809483"><ele>830.4000000000001</ele><time>2026-04-26T09:34:39.294Z</time></trkpt><trkpt lat="44.7919883" lon="9.2809733"><ele>832.0</ele><time>2026-04-26T09:34:40.294Z</time></trkpt><trkpt lat="44.7918717" lon="9.2810033"><ele>828.25</ele><time>2026-04-26T09:34:41.294Z</time></trkpt><trkpt lat="44.791755" lon="9.2810383"><ele>824.5</ele><time>2026-04-26T09:34:42.294Z</time></trkpt><trkpt lat="44.7916433" lon="9.2810817"><ele>820.75</ele><time>2026-04-26T09:34:43.294Z</time></trkpt><trkpt lat="44.7915317" lon="9.2811333"><ele>817.0</ele><time>2026-04-26T09:34:44.294Z</time></trkpt><trkpt lat="44.7914233" lon="9.281175"><ele>816.9999999999999</ele><time>2026-04-26T09:34:45.294Z</time></trkpt><trkpt lat="44.7913283" lon="9.28121"><ele>817.0</ele><time>2026-04-26T09:34:46.294Z</time></trkpt><trkpt lat="44.7912383" lon="9.2812383"><ele>817.0</ele><time>2026-04-26T09:34:47.294Z</time></trkpt><trkpt lat="44.791165" lon="9.281245"><ele>817.0</ele><time>2026-04-26T09:34:48.294Z</time></trkpt><trkpt lat="44.7910733" lon="9.2811883"><ele>816.9999999999999</ele><time>2026-04-26T09:34:50.294Z</time></trkpt><trkpt lat="44.7910817" lon="9.2810717"><ele>817.0</ele><time>2026-04-26T09:34:52.294Z</time></trkpt><trkpt lat="44.791145" lon="9.2810083"><ele>817.0</ele><time>2026-04-26T09:34:53.294Z</time></trkpt><trkpt lat="44.7912233" lon="9.280945"><ele>817.0</ele><time>2026-04-26T09:34:54.294Z</time></trkpt><trkpt lat="44.7913267" lon="9.2808717"><ele>817.0</ele><time>2026-04-26T09:34:55.294Z</time></trkpt><trkpt lat="44.791435" lon="9.280775"><ele>817.0</ele><time>2026-04-26T09:34:56.294Z</time></trkpt><trkpt lat="44.7915517" lon="9.2806617"><ele>815.0</ele><time>2026-04-26T09:34:57.294Z</time></trkpt><trkpt lat="44.791665" lon="9.2805317"><ele>813.0</ele><time>2026-04-26T09:34:58.293Z</time></trkpt><trkpt lat="44.7917717" lon="9.2803967"><ele>811.0</ele><time>2026-04-26T09:34:59.293Z</time></trkpt><trkpt lat="44.7918833" lon="9.2802217"><ele>811.0</ele><time>2026-04-26T09:35:00.293Z</time></trkpt><trkpt lat="44.791975" lon="9.280035"><ele>811.0</ele><time>2026-04-26T09:35:01.294Z</time></trkpt><trkpt lat="44.7920817" lon="9.2798817"><ele>811.0</ele><time>2026-04-26T09:35:02.293Z</time></trkpt><trkpt lat="44.792175" lon="9.2797633"><ele>811.0</ele><time>2026-04-26T09:35:03.294Z</time></trkpt><trkpt lat="44.7922533" lon="9.2796417"><ele>806.4</ele><time>2026-04-26T09:35:04.294Z</time></trkpt><trkpt lat="44.7923083" lon="9.2795183"><ele>801.8</ele><time>2026-04-26T09:35:05.294Z</time></trkpt><trkpt lat="44.7923383" lon="9.2793883"><ele>797.1999999999999</ele><time>2026-04-26T09:35:06.294Z</time></trkpt><trkpt lat="44.7923567" lon="9.27925"><ele>792.5999999999999</ele><time>2026-04-26T09:35:07.294Z</time></trkpt><trkpt lat="44.7923767" lon="9.279115"><ele>788.0</ele><time>2026-04-26T09:35:08.294Z</time></trkpt><trkpt lat="44.79242" lon="9.278995"><ele>784.5000000000001</ele><time>2026-04-26T09:35:09.294Z</time></trkpt><trkpt lat="44.7924633" lon="9.278915"><ele>781.0</ele><time>2026-04-26T09:35:10.294Z</time></trkpt><trkpt lat="44.7925217" lon="9.2788633"><ele>777.5</ele><time>2026-04-26T09:35:11.294Z</time></trkpt><trkpt lat="44.792595" lon="9.2788333"><ele>774.0</ele><time>2026-04-26T09:35:12.294Z</time></trkpt><trkpt lat="44.792685" lon="9.2788133"><ele>770.5</ele><time>2026-04-26T09:35:13.294Z</time></trkpt><trkpt lat="44.7927833" lon="9.2787867"><ele>767.0</ele><time>2026-04-26T09:35:14.294Z</time></trkpt><trkpt lat="44.79289" lon="9.278755"><ele>766.5</ele><time>2026-04-26T09:35:15.294Z</time></trkpt><trkpt lat="44.7929917" lon="9.2787117"><ele>766.0</ele><time>2026-04-26T09:35:16.293Z</time></trkpt><trkpt lat="44.7931067" lon="9.2786717"><ele>765.5</ele><time>2026-04-26T09:35:17.294Z</time></trkpt><trkpt lat="44.7932183" lon="9.2786283"><ele>765.0</ele><time>2026-04-26T09:35:18.294Z</time></trkpt><trkpt lat="44.7933317" lon="9.2785867"><ele>765.0</ele><time>2026-04-26T09:35:19.294Z</time></trkpt><trkpt lat="44.7934433" lon="9.2785633"><ele>765.0</ele><time>2026-04-26T09:35:20.294Z</time></trkpt><trkpt lat="44.7935567" lon="9.2785633"><ele>765.0</ele><time>2026-04-26T09:35:21.294Z</time></trkpt><trkpt lat="44.793675" lon="9.2785683"><ele>765.0</ele><time>2026-04-26T09:35:22.294Z</time></trkpt><trkpt lat="44.7937883" lon="9.2785583"><ele>762.8</ele><time>2026-04-26T09:35:23.294Z</time></trkpt><trkpt lat="44.7938967" lon="9.27854"><ele>760.6</ele><time>2026-04-26T09:35:24.294Z</time></trkpt><trkpt lat="44.7940033" lon="9.2785167"><ele>758.4000000000001</ele><time>2026-04-26T09:35:25.294Z</time></trkpt><trkpt lat="44.7940967" lon="9.2785033"><ele>756.2</ele><time>2026-04-26T09:35:26.294Z</time></trkpt><trkpt lat="44.7941783" lon="9.2784967"><ele>754.0</ele><time>2026-04-26T09:35:27.293Z</time></trkpt><trkpt lat="44.7942633" lon="9.2785017"><ele>752.4000000000001</ele><time>2026-04-26T09:35:28.294Z</time></trkpt><trkpt lat="44.7943433" lon="9.2785467"><ele>750.8</ele><time>2026-04-26T09:35:29.294Z</time></trkpt><trkpt lat="44.7944067" lon="9.27859"><ele>749.2</ele><time>2026-04-26T09:35:30.294Z</time></trkpt><trkpt lat="44.7944767" lon="9.2786983"><ele>747.5999999999999</ele><time>2026-04-26T09:35:31.294Z</time></trkpt><trkpt lat="44.79453" lon="9.2788433"><ele>746.0</ele><time>2026-04-26T09:35:32.293Z</time></trkpt><trkpt lat="44.7945733" lon="9.27901"><ele>746.0</ele><time>2026-04-26T09:35:33.294Z</time></trkpt><trkpt lat="44.794635" lon="9.2791567"><ele>746.0</ele><time>2026-04-26T09:35:34.294Z</time></trkpt><trkpt lat="44.79469" lon="9.2792933"><ele>746.0</ele><time>2026-04-26T09:35:35.294Z</time></trkpt><trkpt lat="44.794755" lon="9.2794183"><ele>746.0</ele><time>2026-04-26T09:35:36.294Z</time></trkpt><trkpt lat="44.7948233" lon="9.2795633"><ele>746.0</ele><time>2026-04-26T09:35:37.294Z</time></trkpt><trkpt lat="44.794885" lon="9.2797133"><ele>746.0</ele><time>2026-04-26T09:35:38.294Z</time></trkpt><trkpt lat="44.7949367" lon="9.279865"><ele>746.0</ele><time>2026-04-26T09:35:39.293Z</time></trkpt><trkpt lat="44.7949833" lon="9.279995"><ele>746.0</ele><time>2026-04-26T09:35:40.294Z</time></trkpt><trkpt lat="44.7950383" lon="9.2801133"><ele>746.0</ele><time>2026-04-26T09:35:41.294Z</time></trkpt><trkpt lat="44.7951" lon="9.2802067"><ele>747.3333333333333</ele><time>2026-04-26T09:35:42.294Z</time></trkpt><trkpt lat="44.79517" lon="9.28028"><ele>748.6666666666666</ele><time>2026-04-26T09:35:43.294Z</time></trkpt><trkpt lat="44.795235" lon="9.2803517"><ele>750.0</ele><time>2026-04-26T09:35:44.294Z</time></trkpt><trkpt lat="44.795295" lon="9.2804183"><ele>751.3333333333334</ele><time>2026-04-26T09:35:45.294Z</time></trkpt><trkpt lat="44.7953517" lon="9.2804833"><ele>752.6666666666667</ele><time>2026-04-26T09:35:46.294Z</time></trkpt><trkpt lat="44.7954033" lon="9.28055"><ele>754.0</ele><time>2026-04-26T09:35:47.293Z</time></trkpt><trkpt lat="44.7954533" lon="9.28061"><ele>750.0</ele><time>2026-04-26T09:35:48.294Z</time></trkpt><trkpt lat="44.7955517" lon="9.2806767"><ele>746.0</ele><time>2026-04-26T09:35:50.294Z</time></trkpt><trkpt lat="44.7956717" lon="9.2806117"><ele>742.0</ele><time>2026-04-26T09:35:52.294Z</time></trkpt><trkpt lat="44.7957583" lon="9.28053"><ele>738.0</ele><time>2026-04-26T09:35:53.294Z</time></trkpt><trkpt lat="44.7958733" lon="9.2804167"><ele>738.0</ele><time>2026-04-26T09:35:54.294Z</time></trkpt><trkpt lat="44.7959933" lon="9.2803233"><ele>738.0</ele><time>2026-04-26T09:35:55.294Z</time></trkpt><trkpt lat="44.7961" lon="9.28025"><ele>738.0</ele><time>2026-04-26T09:35:56.294Z</time></trkpt><trkpt lat="44.796195" lon="9.2801817"><ele>738.0</ele><time>2026-04-26T09:35:57.294Z</time></trkpt><trkpt lat="44.7962833" lon="9.2801033"><ele>735.8333333333334</ele><time>2026-04-26T09:35:58.294Z</time></trkpt><trkpt lat="44.7963617" lon="9.2800183"><ele>733.6666666666666</ele><time>2026-04-26T09:35:59.294Z</time></trkpt><trkpt lat="44.7964217" lon="9.2799417"><ele>731.5</ele><time>2026-04-26T09:36:00.294Z</time></trkpt><trkpt lat="44.7964667" lon="9.279865"><ele>729.3333333333333</ele><time>2026-04-26T09:36:01.293Z</time></trkpt><trkpt lat="44.796515" lon="9.279795"><ele>727.1666666666666</ele><time>2026-04-26T09:36:02.293Z</time></trkpt><trkpt lat="44.796575" lon="9.2797067"><ele>725.0</ele><time>2026-04-26T09:36:04.294Z</time></trkpt><trkpt lat="44.7966117" lon="9.2797983"><ele>725.0</ele><time>2026-04-26T09:36:07.294Z</time></trkpt><trkpt lat="44.7965783" lon="9.27992"><ele>725.0</ele><time>2026-04-26T09:36:09.294Z</time></trkpt><trkpt lat="44.796485" lon="9.28007"><ele>725.0</ele><time>2026-04-26T09:36:11.294Z</time></trkpt><trkpt lat="44.7964083" lon="9.2801717"><ele>725.0</ele><time>2026-04-26T09:36:12.294Z</time></trkpt><trkpt lat="44.7963383" lon="9.28028"><ele>725.0</ele><time>2026-04-26T09:36:13.294Z</time></trkpt><trkpt lat="44.79626" lon="9.2803983"><ele>725.0</ele><time>2026-04-26T09:36:14.294Z</time></trkpt><trkpt lat="44.7961917" lon="9.2805367"><ele>725.0</ele><time>2026-04-26T09:36:15.294Z</time></trkpt><trkpt lat="44.796145" lon="9.2806517"><ele>725.0</ele><time>2026-04-26T09:36:16.293Z</time></trkpt><trkpt lat="44.7961117" lon="9.2807783"><ele>725.0</ele><time>2026-04-26T09:36:17.294Z</time></trkpt><trkpt lat="44.7960967" lon="9.2809133"><ele>725.0</ele><time>2026-04-26T09:36:18.294Z</time></trkpt><trkpt lat="44.7961033" lon="9.2810583"><ele>724.25</ele><time>2026-04-26T09:36:19.294Z</time></trkpt><trkpt lat="44.7961417" lon="9.281205"><ele>723.5</ele><time>2026-04-26T09:36:20.294Z</time></trkpt><trkpt lat="44.7961983" lon="9.2813567"><ele>722.75</ele><time>2026-04-26T09:36:21.294Z</time></trkpt><trkpt lat="44.7962567" lon="9.281515"><ele>722.0</ele><time>2026-04-26T09:36:22.294Z</time></trkpt><trkpt lat="44.796315" lon="9.28167"><ele>723.8</ele><time>2026-04-26T09:36:23.294Z</time></trkpt><trkpt lat="44.7963683" lon="9.2818067"><ele>725.6</ele><time>2026-04-26T09:36:24.294Z</time></trkpt><trkpt lat="44.7964267" lon="9.2819217"><ele>727.4</ele><time>2026-04-26T09:36:25.294Z</time></trkpt><trkpt lat="44.7964917" lon="9.282005"><ele>729.1999999999999</ele><time>2026-04-26T09:36:26.294Z</time></trkpt><trkpt lat="44.7965567" lon="9.2820533"><ele>731.0</ele><time>2026-04-26T09:36:27.294Z</time></trkpt><trkpt lat="44.7966467" lon="9.28208"><ele>731.0</ele><time>2026-04-26T09:36:28.294Z</time></trkpt><trkpt lat="44.7967567" lon="9.2821183"><ele>731.0</ele><time>2026-04-26T09:36:29.294Z</time></trkpt><trkpt lat="44.7968583" lon="9.282195"><ele>731.0</ele><time>2026-04-26T09:36:30.294Z</time></trkpt><trkpt lat="44.7969483" lon="9.28229"><ele>731.0</ele><time>2026-04-26T09:36:31.294Z</time></trkpt><trkpt lat="44.7970217" lon="9.28241"><ele>729.0</ele><time>2026-04-26T09:36:32.294Z</time></trkpt><trkpt lat="44.7970767" lon="9.282555"><ele>727.0</ele><time>2026-04-26T09:36:33.294Z</time></trkpt><trkpt lat="44.7971417" lon="9.2826967"><ele>725.0</ele><time>2026-04-26T09:36:34.294Z</time></trkpt><trkpt lat="44.7972233" lon="9.2828333"><ele>723.0</ele><time>2026-04-26T09:36:35.293Z</time></trkpt><trkpt lat="44.79731" lon="9.2829567"><ele>723.0</ele><time>2026-04-26T09:36:36.294Z</time></trkpt><trkpt lat="44.79739" lon="9.28305"><ele>723.0</ele><time>2026-04-26T09:36:37.294Z</time></trkpt><trkpt lat="44.79746" lon="9.28317"><ele>723.0</ele><time>2026-04-26T09:36:38.294Z</time></trkpt><trkpt lat="44.7975067" lon="9.2833083"><ele>723.0</ele><time>2026-04-26T09:36:39.293Z</time></trkpt><trkpt lat="44.797545" lon="9.2834533"><ele>723.0</ele><time>2026-04-26T09:36:40.293Z</time></trkpt><trkpt lat="44.7975883" lon="9.2836117"><ele>725.5</ele><time>2026-04-26T09:36:41.294Z</time></trkpt><trkpt lat="44.7976417" lon="9.2837883"><ele>728.0</ele><time>2026-04-26T09:36:42.294Z</time></trkpt><trkpt lat="44.7976983" lon="9.28397"><ele>730.5</ele><time>2026-04-26T09:36:43.294Z</time></trkpt><trkpt lat="44.7977517" lon="9.2841433"><ele>733.0</ele><time>2026-04-26T09:36:44.294Z</time></trkpt><trkpt lat="44.7978033" lon="9.284285"><ele>733.0</ele><time>2026-04-26T09:36:45.294Z</time></trkpt><trkpt lat="44.7978667" lon="9.2843883"><ele>733.0</ele><time>2026-04-26T09:36:46.294Z</time></trkpt><trkpt lat="44.7979367" lon="9.28445"><ele>733.0</ele><time>2026-04-26T09:36:47.294Z</time></trkpt><trkpt lat="44.79802" lon="9.284485"><ele>733.0</ele><time>2026-04-26T09:36:48.294Z</time></trkpt><trkpt lat="44.7981067" lon="9.2845033"><ele>733.0</ele><time>2026-04-26T09:36:49.294Z</time></trkpt><trkpt lat="44.7981867" lon="9.2845083"><ele>733.0</ele><time>2026-04-26T09:36:50.294Z</time></trkpt><trkpt lat="44.79827" lon="9.2845117"><ele>733.0</ele><time>2026-04-26T09:36:51.294Z</time></trkpt><trkpt lat="44.7983483" lon="9.2844917"><ele>733.0</ele><time>2026-04-26T09:36:52.294Z</time></trkpt><trkpt lat="44.7984167" lon="9.284445"><ele>733.0</ele><time>2026-04-26T09:36:53.294Z</time></trkpt><trkpt lat="44.7984667" lon="9.2843683"><ele>733.0</ele><time>2026-04-26T09:36:54.294Z</time></trkpt><trkpt lat="44.7984967" lon="9.2842617"><ele>733.0</ele><time>2026-04-26T09:36:55.294Z</time></trkpt><trkpt lat="44.7985033" lon="9.2841183"><ele>733.0</ele><time>2026-04-26T09:36:56.294Z</time></trkpt><trkpt lat="44.7985267" lon="9.2839767"><ele>739.0</ele><time>2026-04-26T09:36:57.294Z</time></trkpt><trkpt lat="44.7985667" lon="9.2838317"><ele>745.0</ele><time>2026-04-26T09:36:58.293Z</time></trkpt><trkpt lat="44.798615" lon="9.2836917"><ele>751.0</ele><time>2026-04-26T09:36:59.293Z</time></trkpt><trkpt lat="44.798665" lon="9.2835567"><ele>757.0</ele><time>2026-04-26T09:37:00.294Z</time></trkpt><trkpt lat="44.7987233" lon="9.28342"><ele>763.0</ele><time>2026-04-26T09:37:01.294Z</time></trkpt><trkpt lat="44.79878" lon="9.283275"><ele>763.0</ele><time>2026-04-26T09:37:02.294Z</time></trkpt><trkpt lat="44.7988333" lon="9.28312"><ele>763.0</ele><time>2026-04-26T09:37:03.294Z</time></trkpt><trkpt lat="44.7988833" lon="9.2829683"><ele>763.0</ele><time>2026-04-26T09:37:04.294Z</time></trkpt><trkpt lat="44.7989333" lon="9.2828333"><ele>763.0</ele><time>2026-04-26T09:37:05.294Z</time></trkpt><trkpt lat="44.7989783" lon="9.28272"><ele>763.0</ele><time>2026-04-26T09:37:06.294Z</time></trkpt><trkpt lat="44.7990183" lon="9.282635"><ele>759.8</ele><time>2026-04-26T09:37:07.294Z</time></trkpt><trkpt lat="44.7990683" lon="9.2825667"><ele>756.5999999999999</ele><time>2026-04-26T09:37:08.294Z</time></trkpt><trkpt lat="44.79913" lon="9.2825067"><ele>753.4000000000001</ele><time>2026-04-26T09:37:09.294Z</time></trkpt><trkpt lat="44.7992033" lon="9.2824333"><ele>750.2</ele><time>2026-04-26T09:37:10.294Z</time></trkpt><trkpt lat="44.799295" lon="9.282355"><ele>747.0</ele><time>2026-04-26T09:37:11.294Z</time></trkpt><trkpt lat="44.7993817" lon="9.282255"><ele>746.2</ele><time>2026-04-26T09:37:12.294Z</time></trkpt><trkpt lat="44.7994667" lon="9.2821767"><ele>745.4000000000001</ele><time>2026-04-26T09:37:13.294Z</time></trkpt><trkpt lat="44.79955" lon="9.28213"><ele>744.5999999999999</ele><time>2026-04-26T09:37:14.294Z</time></trkpt><trkpt lat="44.79964" lon="9.2820933"><ele>743.8</ele><time>2026-04-26T09:37:15.294Z</time></trkpt><trkpt lat="44.7997367" lon="9.28206"><ele>743.0</ele><time>2026-04-26T09:37:16.294Z</time></trkpt><trkpt lat="44.7998233" lon="9.282005"><ele>743.0</ele><time>2026-04-26T09:37:17.294Z</time></trkpt><trkpt lat="44.7999133" lon="9.281935"><ele>743.0</ele><time>2026-04-26T09:37:18.294Z</time></trkpt><trkpt lat="44.8000067" lon="9.281835"><ele>743.0</ele><time>2026-04-26T09:37:19.294Z</time></trkpt><trkpt lat="44.8001067" lon="9.2817333"><ele>743.0</ele><time>2026-04-26T09:37:20.294Z</time></trkpt><trkpt lat="44.8001983" lon="9.2816383"><ele>740.75</ele><time>2026-04-26T09:37:21.294Z</time></trkpt><trkpt lat="44.8003017" lon="9.2815567"><ele>738.5</ele><time>2026-04-26T09:37:22.294Z</time></trkpt><trkpt lat="44.8004167" lon="9.2814783"><ele>736.25</ele><time>2026-04-26T09:37:23.294Z</time></trkpt><trkpt lat="44.8005267" lon="9.28142"><ele>734.0</ele><time>2026-04-26T09:37:24.294Z</time></trkpt><trkpt lat="44.8006333" lon="9.281365"><ele>734.0</ele><time>2026-04-26T09:37:25.294Z</time></trkpt><trkpt lat="44.800745" lon="9.28133"><ele>734.0</ele><time>2026-04-26T09:37:26.294Z</time></trkpt><trkpt lat="44.800845" lon="9.2813117"><ele>734.0</ele><time>2026-04-26T09:37:27.294Z</time></trkpt><trkpt lat="44.8009517" lon="9.2813067"><ele>734.0</ele><time>2026-04-26T09:37:28.294Z</time></trkpt><trkpt lat="44.8010683" lon="9.281315"><ele>734.0</ele><time>2026-04-26T09:37:29.294Z</time></trkpt><trkpt lat="44.80119" lon="9.281335"><ele>734.5</ele><time>2026-04-26T09:37:30.294Z</time></trkpt><trkpt lat="44.8013083" lon="9.2813667"><ele>735.0</ele><time>2026-04-26T09:37:31.294Z</time></trkpt><trkpt lat="44.8014267" lon="9.2813833"><ele>735.5</ele><time>2026-04-26T09:37:32.294Z</time></trkpt><trkpt lat="44.8015367" lon="9.2813917"><ele>736.0</ele><time>2026-04-26T09:37:33.294Z</time></trkpt><trkpt lat="44.8016467" lon="9.281395"><ele>736.0</ele><time>2026-04-26T09:37:34.294Z</time></trkpt><trkpt lat="44.8017517" lon="9.2813917"><ele>736.0</ele><time>2026-04-26T09:37:35.293Z</time></trkpt><trkpt lat="44.80186" lon="9.281365"><ele>736.0</ele><time>2026-04-26T09:37:36.294Z</time></trkpt><trkpt lat="44.8019717" lon="9.28133"><ele>736.0</ele><time>2026-04-26T09:37:37.294Z</time></trkpt><trkpt lat="44.8020783" lon="9.2812683"><ele>736.0</ele><time>2026-04-26T09:37:38.294Z</time></trkpt><trkpt lat="44.8021883" lon="9.2812"><ele>737.1999999999999</ele><time>2026-04-26T09:37:39.294Z</time></trkpt><trkpt lat="44.8022933" lon="9.2811317"><ele>738.4</ele><time>2026-04-26T09:37:40.294Z</time></trkpt><trkpt lat="44.8023967" lon="9.28104"><ele>739.6</ele><time>2026-04-26T09:37:41.294Z</time></trkpt><trkpt lat="44.80247" lon="9.2809417"><ele>740.8</ele><time>2026-04-26T09:37:42.294Z</time></trkpt><trkpt lat="44.8025167" lon="9.2808317"><ele>742.0</ele><time>2026-04-26T09:37:43.294Z</time></trkpt><trkpt lat="44.80255" lon="9.2806917"><ele>740.0</ele><time>2026-04-26T09:37:44.294Z</time></trkpt><trkpt lat="44.8025717" lon="9.280535"><ele>738.0</ele><time>2026-04-26T09:37:45.294Z</time></trkpt><trkpt lat="44.8025967" lon="9.2803683"><ele>736.0</ele><time>2026-04-26T09:37:46.294Z</time></trkpt><trkpt lat="44.80262" lon="9.280195"><ele>734.0</ele><time>2026-04-26T09:37:47.294Z</time></trkpt><trkpt lat="44.8026467" lon="9.2800283"><ele>735.1666666666666</ele><time>2026-04-26T09:37:48.294Z</time></trkpt><trkpt lat="44.8026717" lon="9.2798817"><ele>736.3333333333333</ele><time>2026-04-26T09:37:49.294Z</time></trkpt><trkpt lat="44.8027067" lon="9.2797533"><ele>737.5</ele><time>2026-04-26T09:37:50.294Z</time></trkpt><trkpt lat="44.8027417" lon="9.27966"><ele>738.6666666666666</ele><time>2026-04-26T09:37:51.294Z</time></trkpt><trkpt lat="44.802825" lon="9.2795833"><ele>739.8333333333334</ele><time>2026-04-26T09:37:53.294Z</time></trkpt><trkpt lat="44.8028917" lon="9.2796033"><ele>741.0</ele><time>2026-04-26T09:37:54.294Z</time></trkpt><trkpt lat="44.8029833" lon="9.2796567"><ele>737.8</ele><time>2026-04-26T09:37:55.294Z</time></trkpt><trkpt lat="44.8030783" lon="9.2797133"><ele>734.5999999999999</ele><time>2026-04-26T09:37:56.294Z</time></trkpt><trkpt lat="44.8031683" lon="9.2797483"><ele>731.4</ele><time>2026-04-26T09:37:57.293Z</time></trkpt><trkpt lat="44.8032717" lon="9.27976"><ele>728.2</ele><time>2026-04-26T09:37:58.294Z</time></trkpt><trkpt lat="44.8033833" lon="9.2797617"><ele>725.0</ele><time>2026-04-26T09:37:59.294Z</time></trkpt><trkpt lat="44.8034883" lon="9.2797533"><ele>726.4</ele><time>2026-04-26T09:38:00.294Z</time></trkpt><trkpt lat="44.8035867" lon="9.279735"><ele>727.8</ele><time>2026-04-26T09:38:01.294Z</time></trkpt><trkpt lat="44.803675" lon="9.2796817"><ele>729.2</ele><time>2026-04-26T09:38:02.294Z</time></trkpt><trkpt lat="44.80375" lon="9.2796"><ele>730.6</ele><time>2026-04-26T09:38:03.294Z</time></trkpt><trkpt lat="44.8038183" lon="9.2794683"><ele>732.0</ele><time>2026-04-26T09:38:04.294Z</time></trkpt><trkpt lat="44.803865" lon="9.2793167"><ele>732.0</ele><time>2026-04-26T09:38:05.294Z</time></trkpt><trkpt lat="44.8039033" lon="9.2791583"><ele>732.0</ele><time>2026-04-26T09:38:06.294Z</time></trkpt><trkpt lat="44.80394" lon="9.279"><ele>732.0</ele><time>2026-04-26T09:38:07.294Z</time></trkpt><trkpt lat="44.80397" lon="9.278895"><ele>732.0</ele><time>2026-04-26T09:38:08.294Z</time></trkpt><trkpt lat="44.8040117" lon="9.2788283"><ele>732.0</ele><time>2026-04-26T09:38:09.294Z</time></trkpt><trkpt lat="44.80407" lon="9.2787883"><ele>732.0</ele><time>2026-04-26T09:38:10.294Z</time></trkpt><trkpt lat="44.80414" lon="9.2787683"><ele>730.8</ele><time>2026-04-26T09:38:11.294Z</time></trkpt><trkpt lat="44.804215" lon="9.2787483"><ele>729.6</ele><time>2026-04-26T09:38:12.294Z</time></trkpt><trkpt lat="44.8042883" lon="9.278685"><ele>728.4</ele><time>2026-04-26T09:38:13.294Z</time></trkpt><trkpt lat="44.80436" lon="9.2785933"><ele>727.1999999999999</ele><time>2026-04-26T09:38:14.294Z</time></trkpt><trkpt lat="44.8044117" lon="9.2784733"><ele>726.0</ele><time>2026-04-26T09:38:15.294Z</time></trkpt><trkpt lat="44.8044483" lon="9.27832"><ele>726.0</ele><time>2026-04-26T09:38:16.294Z</time></trkpt><trkpt lat="44.8044833" lon="9.278175"><ele>726.0</ele><time>2026-04-26T09:38:17.294Z</time></trkpt><trkpt lat="44.8045367" lon="9.2780517"><ele>726.0</ele><time>2026-04-26T09:38:18.294Z</time></trkpt><trkpt lat="44.804615" lon="9.27794"><ele>726.0</ele><time>2026-04-26T09:38:19.294Z</time></trkpt><trkpt lat="44.8047167" lon="9.27785"><ele>726.0</ele><time>2026-04-26T09:38:20.294Z</time></trkpt><trkpt lat="44.80483" lon="9.2777767"><ele>722.0</ele><time>2026-04-26T09:38:21.294Z</time></trkpt><trkpt lat="44.8049383" lon="9.2777217"><ele>718.0</ele><time>2026-04-26T09:38:22.294Z</time></trkpt><trkpt lat="44.8050483" lon="9.2776983"><ele>714.0</ele><time>2026-04-26T09:38:23.294Z</time></trkpt><trkpt lat="44.805175" lon="9.2777067"><ele>710.0</ele><time>2026-04-26T09:38:24.294Z</time></trkpt><trkpt lat="44.8053083" lon="9.2777117"><ele>710.0</ele><time>2026-04-26T09:38:25.294Z</time></trkpt><trkpt lat="44.8054467" lon="9.2777083"><ele>710.0</ele><time>2026-04-26T09:38:26.294Z</time></trkpt><trkpt lat="44.80559" lon="9.2777033"><ele>710.0</ele><time>2026-04-26T09:38:27.294Z</time></trkpt><trkpt lat="44.8057383" lon="9.2776867"><ele>710.0</ele><time>2026-04-26T09:38:28.294Z</time></trkpt><trkpt lat="44.8058717" lon="9.277675"><ele>710.0</ele><time>2026-04-26T09:38:29.294Z</time></trkpt><trkpt lat="44.8059867" lon="9.2776617"><ele>710.0</ele><time>2026-04-26T09:38:30.294Z</time></trkpt><trkpt lat="44.806085" lon="9.277655"><ele>710.0</ele><time>2026-04-26T09:38:31.294Z</time></trkpt><trkpt lat="44.8061617" lon="9.2776417"><ele>710.0</ele><time>2026-04-26T09:38:32.294Z</time></trkpt><trkpt lat="44.8062367" lon="9.2776083"><ele>710.0</ele><time>2026-04-26T09:38:33.294Z</time></trkpt><trkpt lat="44.8063367" lon="9.2774983"><ele>710.8</ele><time>2026-04-26T09:38:35.294Z</time></trkpt><trkpt lat="44.806355" lon="9.2774"><ele>711.6</ele><time>2026-04-26T09:38:36.294Z</time></trkpt><trkpt lat="44.8063533" lon="9.2772783"><ele>712.4000000000001</ele><time>2026-04-26T09:38:37.294Z</time></trkpt><trkpt lat="44.8063217" lon="9.2771117"><ele>713.2</ele><time>2026-04-26T09:38:38.294Z</time></trkpt><trkpt lat="44.8063" lon="9.2769333"><ele>714.0</ele><time>2026-04-26T09:38:39.294Z</time></trkpt><trkpt lat="44.8063067" lon="9.276775"><ele>714.0</ele><time>2026-04-26T09:38:40.294Z</time></trkpt><trkpt lat="44.80632" lon="9.2766467"><ele>714.0</ele><time>2026-04-26T09:38:41.294Z</time></trkpt><trkpt lat="44.8063617" lon="9.2765083"><ele>714.0</ele><time>2026-04-26T09:38:42.294Z</time></trkpt><trkpt lat="44.806435" lon="9.2763733"><ele>714.0</ele><time>2026-04-26T09:38:43.294Z</time></trkpt><trkpt lat="44.80649" lon="9.2762283"><ele>714.0</ele><time>2026-04-26T09:38:44.294Z</time></trkpt><trkpt lat="44.8065333" lon="9.2760883"><ele>711.25</ele><time>2026-04-26T09:38:45.294Z</time></trkpt><trkpt lat="44.8065567" lon="9.275935"><ele>708.5</ele><time>2026-04-26T09:38:46.293Z</time></trkpt><trkpt lat="44.8065583" lon="9.27577"><ele>705.75</ele><time>2026-04-26T09:38:47.294Z</time></trkpt><trkpt lat="44.8065533" lon="9.2755867"><ele>703.0</ele><time>2026-04-26T09:38:48.294Z</time></trkpt><trkpt lat="44.8065483" lon="9.2754217"><ele>700.75</ele><time>2026-04-26T09:38:49.294Z</time></trkpt><trkpt lat="44.8065617" lon="9.2752583"><ele>698.5</ele><time>2026-04-26T09:38:50.293Z</time></trkpt><trkpt lat="44.806595" lon="9.2750917"><ele>696.25</ele><time>2026-04-26T09:38:51.293Z</time></trkpt><trkpt lat="44.806635" lon="9.2749183"><ele>694.0</ele><time>2026-04-26T09:38:52.293Z</time></trkpt><trkpt lat="44.8066683" lon="9.27475"><ele>693.25</ele><time>2026-04-26T09:38:53.293Z</time></trkpt><trkpt lat="44.8066683" lon="9.2745917"><ele>692.5</ele><time>2026-04-26T09:38:54.293Z</time></trkpt><trkpt lat="44.806665" lon="9.2744333"><ele>691.75</ele><time>2026-04-26T09:38:55.293Z</time></trkpt><trkpt lat="44.8066433" lon="9.2742717"><ele>691.0</ele><time>2026-04-26T09:38:56.293Z</time></trkpt><trkpt lat="44.8066067" lon="9.2741217"><ele>691.0</ele><time>2026-04-26T09:38:57.293Z</time></trkpt><trkpt lat="44.80657" lon="9.2739717"><ele>691.0</ele><time>2026-04-26T09:38:58.293Z</time></trkpt><trkpt lat="44.80655" lon="9.2738283"><ele>691.0</ele><time>2026-04-26T09:38:59.293Z</time></trkpt><trkpt lat="44.8065533" lon="9.2736967"><ele>691.0</ele><time>2026-04-26T09:39:00.293Z</time></trkpt><trkpt lat="44.8065767" lon="9.2735733"><ele>691.0</ele><time>2026-04-26T09:39:01.292Z</time></trkpt><trkpt lat="44.806615" lon="9.27345"><ele>689.25</ele><time>2026-04-26T09:39:02.293Z</time></trkpt><trkpt lat="44.8066967" lon="9.27337"><ele>687.5</ele><time>2026-04-26T09:39:03.292Z</time></trkpt><trkpt lat="44.8068017" lon="9.2733167"><ele>685.75</ele><time>2026-04-26T09:39:04.292Z</time></trkpt><trkpt lat="44.8069233" lon="9.2732833"><ele>684.0</ele><time>2026-04-26T09:39:05.293Z</time></trkpt><trkpt lat="44.8070567" lon="9.2732917"><ele>684.0</ele><time>2026-04-26T09:39:06.292Z</time></trkpt><trkpt lat="44.8071933" lon="9.2733333"><ele>684.0</ele><time>2026-04-26T09:39:07.292Z</time></trkpt><trkpt lat="44.80731" lon="9.2733783"><ele>684.0</ele><time>2026-04-26T09:39:08.293Z</time></trkpt><trkpt lat="44.8074083" lon="9.2734083"><ele>684.0</ele><time>2026-04-26T09:39:09.293Z</time></trkpt><trkpt lat="44.8074917" lon="9.2734233"><ele>684.0</ele><time>2026-04-26T09:39:10.293Z</time></trkpt><trkpt lat="44.8075767" lon="9.273415"><ele>684.0</ele><time>2026-04-26T09:39:11.293Z</time></trkpt><trkpt lat="44.80765" lon="9.2733767"><ele>684.0</ele><time>2026-04-26T09:39:12.293Z</time></trkpt><trkpt lat="44.807725" lon="9.2733"><ele>684.0</ele><time>2026-04-26T09:39:13.292Z</time></trkpt><trkpt lat="44.80779" lon="9.273175"><ele>684.0</ele><time>2026-04-26T09:39:14.293Z</time></trkpt><trkpt lat="44.8078517" lon="9.2730467"><ele>684.0</ele><time>2026-04-26T09:39:15.293Z</time></trkpt><trkpt lat="44.807895" lon="9.2729017"><ele>687.75</ele><time>2026-04-26T09:39:16.293Z</time></trkpt><trkpt lat="44.8079233" lon="9.27274"><ele>691.5</ele><time>2026-04-26T09:39:17.293Z</time></trkpt><trkpt lat="44.8079233" lon="9.2725783"><ele>695.25</ele><time>2026-04-26T09:39:18.293Z</time></trkpt><trkpt lat="44.80791" lon="9.2724233"><ele>699.0</ele><time>2026-04-26T09:39:19.293Z</time></trkpt><trkpt lat="44.8078983" lon="9.2722733"><ele>699.75</ele><time>2026-04-26T09:39:20.293Z</time></trkpt><trkpt lat="44.807915" lon="9.2721167"><ele>700.5</ele><time>2026-04-26T09:39:21.293Z</time></trkpt><trkpt lat="44.8079383" lon="9.2719567"><ele>701.25</ele><time>2026-04-26T09:39:22.293Z</time></trkpt><trkpt lat="44.8079483" lon="9.27179"><ele>702.0</ele><time>2026-04-26T09:39:23.293Z</time></trkpt><trkpt lat="44.807945" lon="9.27161"><ele>702.0</ele><time>2026-04-26T09:39:24.292Z</time></trkpt><trkpt lat="44.8079633" lon="9.271445"><ele>702.0</ele><time>2026-04-26T09:39:25.293Z</time></trkpt><trkpt lat="44.8079967" lon="9.2712767"><ele>702.0</ele><time>2026-04-26T09:39:26.293Z</time></trkpt><trkpt lat="44.8080333" lon="9.27112"><ele>702.0</ele><time>2026-04-26T09:39:27.293Z</time></trkpt><trkpt lat="44.808065" lon="9.2709667"><ele>701.8</ele><time>2026-04-26T09:39:28.293Z</time></trkpt><trkpt lat="44.8081017" lon="9.2708267"><ele>701.6</ele><time>2026-04-26T09:39:29.293Z</time></trkpt><trkpt lat="44.8081333" lon="9.2706867"><ele>701.4</ele><time>2026-04-26T09:39:30.293Z</time></trkpt><trkpt lat="44.808165" lon="9.270565"><ele>701.1999999999999</ele><time>2026-04-26T09:39:31.293Z</time></trkpt><trkpt lat="44.8082067" lon="9.2704733"><ele>701.0</ele><time>2026-04-26T09:39:32.292Z</time></trkpt><trkpt lat="44.8082683" lon="9.2703883"><ele>702.75</ele><time>2026-04-26T09:39:33.292Z</time></trkpt><trkpt lat="44.80835" lon="9.270315"><ele>704.5</ele><time>2026-04-26T09:39:34.293Z</time></trkpt><trkpt lat="44.8084417" lon="9.2702417"><ele>706.25</ele><time>2026-04-26T09:39:35.293Z</time></trkpt><trkpt lat="44.80855" lon="9.2701617"><ele>708.0</ele><time>2026-04-26T09:39:36.293Z</time></trkpt><trkpt lat="44.808665" lon="9.27007"><ele>708.0</ele><time>2026-04-26T09:39:37.293Z</time></trkpt><trkpt lat="44.8087833" lon="9.2699717"><ele>708.0</ele><time>2026-04-26T09:39:38.293Z</time></trkpt><trkpt lat="44.80889" lon="9.2698767"><ele>708.0</ele><time>2026-04-26T09:39:39.293Z</time></trkpt><trkpt lat="44.8090033" lon="9.26976"><ele>708.0</ele><time>2026-04-26T09:39:40.293Z</time></trkpt><trkpt lat="44.8090933" lon="9.2696167"><ele>709.75</ele><time>2026-04-26T09:39:41.293Z</time></trkpt><trkpt lat="44.8091883" lon="9.2694833"><ele>711.5</ele><time>2026-04-26T09:39:42.293Z</time></trkpt><trkpt lat="44.8092517" lon="9.2693467"><ele>713.25</ele><time>2026-04-26T09:39:43.293Z</time></trkpt><trkpt lat="44.8093183" lon="9.2692283"><ele>715.0</ele><time>2026-04-26T09:39:44.293Z</time></trkpt><trkpt lat="44.8093817" lon="9.2691283"><ele>715.0</ele><time>2026-04-26T09:39:45.293Z</time></trkpt><trkpt lat="44.8094433" lon="9.2690317"><ele>715.0</ele><time>2026-04-26T09:39:46.293Z</time></trkpt><trkpt lat="44.8094917" lon="9.2689717"><ele>715.0</ele><time>2026-04-26T09:39:47.293Z</time></trkpt><trkpt lat="44.8095617" lon="9.26889"><ele>715.0</ele><time>2026-04-26T09:39:49.293Z</time></trkpt><trkpt lat="44.80962" lon="9.2688083"><ele>715.0</ele><time>2026-04-26T09:39:51.293Z</time></trkpt><trkpt lat="44.8096633" lon="9.26874"><ele>715.0</ele><time>2026-04-26T09:39:52.293Z</time></trkpt><trkpt lat="44.8097217" lon="9.2686517"><ele>711.8</ele><time>2026-04-26T09:39:53.293Z</time></trkpt><trkpt lat="44.8097917" lon="9.26855"><ele>708.6</ele><time>2026-04-26T09:39:54.293Z</time></trkpt><trkpt lat="44.8098633" lon="9.2684433"><ele>705.4000000000001</ele><time>2026-04-26T09:39:55.293Z</time></trkpt><trkpt lat="44.8099367" lon="9.26835"><ele>702.2</ele><time>2026-04-26T09:39:56.293Z</time></trkpt><trkpt lat="44.810015" lon="9.2682783"><ele>699.0</ele><time>2026-04-26T09:39:57.293Z</time></trkpt><trkpt lat="44.8101067" lon="9.2682133"><ele>699.25</ele><time>2026-04-26T09:39:58.292Z</time></trkpt><trkpt lat="44.8102167" lon="9.268155"><ele>699.5</ele><time>2026-04-26T09:39:59.292Z</time></trkpt><trkpt lat="44.8103383" lon="9.2680983"><ele>699.75</ele><time>2026-04-26T09:40:00.293Z</time></trkpt><trkpt lat="44.8104633" lon="9.2680433"><ele>700.0</ele><time>2026-04-26T09:40:01.293Z</time></trkpt><trkpt lat="44.8105917" lon="9.2679917"><ele>700.0</ele><time>2026-04-26T09:40:02.293Z</time></trkpt><trkpt lat="44.8107233" lon="9.2679467"><ele>700.0</ele><time>2026-04-26T09:40:03.293Z</time></trkpt><trkpt lat="44.8108567" lon="9.2678983"><ele>700.0</ele><time>2026-04-26T09:40:04.293Z</time></trkpt><trkpt lat="44.8109783" lon="9.2678533"><ele>700.0</ele><time>2026-04-26T09:40:05.293Z</time></trkpt><trkpt lat="44.8110767" lon="9.267815"><ele>702.8</ele><time>2026-04-26T09:40:06.293Z</time></trkpt><trkpt lat="44.8111717" lon="9.2677783"><ele>705.6</ele><time>2026-04-26T09:40:07.293Z</time></trkpt><trkpt lat="44.8112567" lon="9.2677317"><ele>708.4000000000001</ele><time>2026-04-26T09:40:08.293Z</time></trkpt><trkpt lat="44.8113367" lon="9.2676833"><ele>711.2</ele><time>2026-04-26T09:40:09.293Z</time></trkpt><trkpt lat="44.8114217" lon="9.2676267"><ele>714.0</ele><time>2026-04-26T09:40:10.293Z</time></trkpt><trkpt lat="44.8115067" lon="9.2675817"><ele>714.0</ele><time>2026-04-26T09:40:11.293Z</time></trkpt><trkpt lat="44.8115917" lon="9.2675417"><ele>714.0</ele><time>2026-04-26T09:40:12.293Z</time></trkpt><trkpt lat="44.8116733" lon="9.2674933"><ele>714.0</ele><time>2026-04-26T09:40:13.293Z</time></trkpt><trkpt lat="44.811765" lon="9.2674767"><ele>714.0</ele><time>2026-04-26T09:40:14.293Z</time></trkpt><trkpt lat="44.81186" lon="9.2674967"><ele>714.0</ele><time>2026-04-26T09:40:15.293Z</time></trkpt><trkpt lat="44.8119633" lon="9.2675333"><ele>715.25</ele><time>2026-04-26T09:40:16.293Z</time></trkpt><trkpt lat="44.8120683" lon="9.26759"><ele>716.5</ele><time>2026-04-26T09:40:17.293Z</time></trkpt><trkpt lat="44.8121867" lon="9.267655"><ele>717.75</ele><time>2026-04-26T09:40:18.293Z</time></trkpt><trkpt lat="44.8123117" lon="9.2677067"><ele>719.0</ele><time>2026-04-26T09:40:19.293Z</time></trkpt><trkpt lat="44.81244" lon="9.2677667"><ele>719.0</ele><time>2026-04-26T09:40:20.293Z</time></trkpt><trkpt lat="44.8125733" lon="9.26783"><ele>719.0</ele><time>2026-04-26T09:40:21.293Z</time></trkpt><trkpt lat="44.812695" lon="9.2679067"><ele>719.0</ele><time>2026-04-26T09:40:22.293Z</time></trkpt><trkpt lat="44.8128083" lon="9.2679933"><ele>719.0</ele><time>2026-04-26T09:40:23.293Z</time></trkpt><trkpt lat="44.8129067" lon="9.2680917"><ele>721.8000000000001</ele><time>2026-04-26T09:40:24.293Z</time></trkpt><trkpt lat="44.8130017" lon="9.26818"><ele>724.6</ele><time>2026-04-26T09:40:25.293Z</time></trkpt><trkpt lat="44.813095" lon="9.2682567"><ele>727.4</ele><time>2026-04-26T09:40:26.293Z</time></trkpt><trkpt lat="44.8131933" lon="9.268305"><ele>730.2</ele><time>2026-04-26T09:40:27.293Z</time></trkpt><trkpt lat="44.8132917" lon="9.2683283"><ele>733.0</ele><time>2026-04-26T09:40:28.293Z</time></trkpt><trkpt lat="44.8133933" lon="9.26835"><ele>735.2</ele><time>2026-04-26T09:40:29.293Z</time></trkpt><trkpt lat="44.8134933" lon="9.2683667"><ele>737.4</ele><time>2026-04-26T09:40:30.293Z</time></trkpt><trkpt lat="44.8135883" lon="9.2683717"><ele>739.6</ele><time>2026-04-26T09:40:31.293Z</time></trkpt><trkpt lat="44.8136817" lon="9.2683817"><ele>741.8000000000001</ele><time>2026-04-26T09:40:32.292Z</time></trkpt><trkpt lat="44.8137767" lon="9.2683833"><ele>744.0</ele><time>2026-04-26T09:40:33.293Z</time></trkpt><trkpt lat="44.8138733" lon="9.2683633"><ele>744.0</ele><time>2026-04-26T09:40:34.293Z</time></trkpt><trkpt lat="44.81397" lon="9.2683033"><ele>744.0</ele><time>2026-04-26T09:40:35.293Z</time></trkpt><trkpt lat="44.8140617" lon="9.2682367"><ele>744.0</ele><time>2026-04-26T09:40:36.292Z</time></trkpt><trkpt lat="44.8141617" lon="9.2681417"><ele>744.0</ele><time>2026-04-26T09:40:37.293Z</time></trkpt><trkpt lat="44.8142633" lon="9.2680667"><ele>744.0</ele><time>2026-04-26T09:40:38.292Z</time></trkpt><trkpt lat="44.814365" lon="9.2680033"><ele>747.75</ele><time>2026-04-26T09:40:39.293Z</time></trkpt><trkpt lat="44.8144567" lon="9.2679233"><ele>751.5</ele><time>2026-04-26T09:40:40.293Z</time></trkpt><trkpt lat="44.81455" lon="9.26784"><ele>755.25</ele><time>2026-04-26T09:40:41.293Z</time></trkpt><trkpt lat="44.81465" lon="9.26775"><ele>759.0</ele><time>2026-04-26T09:40:42.293Z</time></trkpt><trkpt lat="44.8147467" lon="9.2676533"><ele>759.0</ele><time>2026-04-26T09:40:43.292Z</time></trkpt><trkpt lat="44.814835" lon="9.2675567"><ele>759.0</ele><time>2026-04-26T09:40:44.293Z</time></trkpt><trkpt lat="44.81492" lon="9.2674517"><ele>759.0</ele><time>2026-04-26T09:40:45.293Z</time></trkpt><trkpt lat="44.815" lon="9.2673467"><ele>759.0</ele><time>2026-04-26T09:40:46.293Z</time></trkpt><trkpt lat="44.8150683" lon="9.267235"><ele>759.0</ele><time>2026-04-26T09:40:47.293Z</time></trkpt><trkpt lat="44.815125" lon="9.2671233"><ele>764.0</ele><time>2026-04-26T09:40:48.293Z</time></trkpt><trkpt lat="44.815175" lon="9.2670133"><ele>769.0</ele><time>2026-04-26T09:40:49.293Z</time></trkpt><trkpt lat="44.8152117" lon="9.2669167"><ele>774.0</ele><time>2026-04-26T09:40:50.293Z</time></trkpt><trkpt lat="44.8152417" lon="9.2668017"><ele>779.0</ele><time>2026-04-26T09:40:51.293Z</time></trkpt><trkpt lat="44.8152467" lon="9.266665"><ele>784.0</ele><time>2026-04-26T09:40:52.293Z</time></trkpt><trkpt lat="44.8152417" lon="9.2665017"><ele>784.0</ele><time>2026-04-26T09:40:53.293Z</time></trkpt><trkpt lat="44.81524" lon="9.2663333"><ele>784.0</ele><time>2026-04-26T09:40:54.293Z</time></trkpt><trkpt lat="44.8152317" lon="9.26618"><ele>784.0</ele><time>2026-04-26T09:40:55.293Z</time></trkpt><trkpt lat="44.8152233" lon="9.266015"><ele>784.0</ele><time>2026-04-26T09:40:56.293Z</time></trkpt><trkpt lat="44.8151933" lon="9.2658517"><ele>782.75</ele><time>2026-04-26T09:40:57.293Z</time></trkpt><trkpt lat="44.815145" lon="9.2657"><ele>781.5</ele><time>2026-04-26T09:40:58.293Z</time></trkpt><trkpt lat="44.8150917" lon="9.2655433"><ele>780.25</ele><time>2026-04-26T09:40:59.293Z</time></trkpt><trkpt lat="44.815065" lon="9.2653917"><ele>779.0</ele><time>2026-04-26T09:41:00.292Z</time></trkpt><trkpt lat="44.8150467" lon="9.2652333"><ele>779.0</ele><time>2026-04-26T09:41:01.293Z</time></trkpt><trkpt lat="44.8150267" lon="9.2650867"><ele>779.0</ele><time>2026-04-26T09:41:02.293Z</time></trkpt><trkpt lat="44.815" lon="9.26494"><ele>779.0</ele><time>2026-04-26T09:41:03.293Z</time></trkpt><trkpt lat="44.8149833" lon="9.2648"><ele>779.0</ele><time>2026-04-26T09:41:04.293Z</time></trkpt><trkpt lat="44.8149733" lon="9.264685"><ele>779.0</ele><time>2026-04-26T09:41:05.293Z</time></trkpt><trkpt lat="44.81498" lon="9.2645683"><ele>780.2</ele><time>2026-04-26T09:41:06.292Z</time></trkpt><trkpt lat="44.8150033" lon="9.2644333"><ele>781.4000000000001</ele><time>2026-04-26T09:41:07.293Z</time></trkpt><trkpt lat="44.8150433" lon="9.2642867"><ele>782.6</ele><time>2026-04-26T09:41:08.293Z</time></trkpt><trkpt lat="44.8150933" lon="9.2641417"><ele>783.8</ele><time>2026-04-26T09:41:09.293Z</time></trkpt><trkpt lat="44.8151533" lon="9.263995"><ele>785.0</ele><time>2026-04-26T09:41:10.293Z</time></trkpt><trkpt lat="44.8152133" lon="9.26385"><ele>789.25</ele><time>2026-04-26T09:41:11.293Z</time></trkpt><trkpt lat="44.8152733" lon="9.263695"><ele>793.5</ele><time>2026-04-26T09:41:12.293Z</time></trkpt><trkpt lat="44.81533" lon="9.26354"><ele>797.75</ele><time>2026-04-26T09:41:13.293Z</time></trkpt><trkpt lat="44.815385" lon="9.263385"><ele>802.0</ele><time>2026-04-26T09:41:14.293Z</time></trkpt><trkpt lat="44.8154433" lon="9.2632217"><ele>802.75</ele><time>2026-04-26T09:41:15.292Z</time></trkpt><trkpt lat="44.8154967" lon="9.26306"><ele>803.5</ele><time>2026-04-26T09:41:16.293Z</time></trkpt><trkpt lat="44.81555" lon="9.2629167"><ele>804.25</ele><time>2026-04-26T09:41:17.293Z</time></trkpt><trkpt lat="44.8156033" lon="9.2627717"><ele>805.0</ele><time>2026-04-26T09:41:18.292Z</time></trkpt><trkpt lat="44.8156567" lon="9.2626267"><ele>805.0</ele><time>2026-04-26T09:41:19.293Z</time></trkpt><trkpt lat="44.8157183" lon="9.262475"><ele>805.0</ele><time>2026-04-26T09:41:20.293Z</time></trkpt><trkpt lat="44.8157817" lon="9.2623333"><ele>805.0</ele><time>2026-04-26T09:41:21.292Z</time></trkpt><trkpt lat="44.8158417" lon="9.2622017"><ele>805.0</ele><time>2026-04-26T09:41:22.293Z</time></trkpt><trkpt lat="44.815905" lon="9.2620767"><ele>804.4</ele><time>2026-04-26T09:41:23.293Z</time></trkpt><trkpt lat="44.81597" lon="9.2619667"><ele>803.8</ele><time>2026-04-26T09:41:24.293Z</time></trkpt><trkpt lat="44.8160283" lon="9.26189"><ele>803.2</ele><time>2026-04-26T09:41:25.293Z</time></trkpt><trkpt lat="44.8161283" lon="9.2618317"><ele>802.6</ele><time>2026-04-26T09:41:27.293Z</time></trkpt><trkpt lat="44.8162133" lon="9.2619017"><ele>802.0</ele><time>2026-04-26T09:41:29.293Z</time></trkpt><trkpt lat="44.8162483" lon="9.2620683"><ele>805.1666666666666</ele><time>2026-04-26T09:41:31.293Z</time></trkpt><trkpt lat="44.81627" lon="9.2621667"><ele>808.3333333333333</ele><time>2026-04-26T09:41:32.293Z</time></trkpt><trkpt lat="44.816295" lon="9.262265"><ele>811.5</ele><time>2026-04-26T09:41:33.293Z</time></trkpt><trkpt lat="44.8163217" lon="9.26235"><ele>814.6666666666667</ele><time>2026-04-26T09:41:34.293Z</time></trkpt><trkpt lat="44.8163717" lon="9.26243"><ele>817.8333333333334</ele><time>2026-04-26T09:41:36.293Z</time></trkpt><trkpt lat="44.816445" lon="9.2623867"><ele>821.0</ele><time>2026-04-26T09:41:39.293Z</time></trkpt><trkpt lat="44.816515" lon="9.2622617"><ele>821.0</ele><time>2026-04-26T09:41:41.293Z</time></trkpt><trkpt lat="44.8165617" lon="9.2621783"><ele>821.0</ele><time>2026-04-26T09:41:42.293Z</time></trkpt><trkpt lat="44.81662" lon="9.262075"><ele>821.0</ele><time>2026-04-26T09:41:43.293Z</time></trkpt><trkpt lat="44.8166867" lon="9.2619733"><ele>821.0</ele><time>2026-04-26T09:41:44.293Z</time></trkpt><trkpt lat="44.8167567" lon="9.26188"><ele>821.0</ele><time>2026-04-26T09:41:45.293Z</time></trkpt><trkpt lat="44.8168367" lon="9.2617833"><ele>825.5999999999999</ele><time>2026-04-26T09:41:46.293Z</time></trkpt><trkpt lat="44.8169217" lon="9.2616833"><ele>830.2</ele><time>2026-04-26T09:41:47.293Z</time></trkpt><trkpt lat="44.8169983" lon="9.261585"><ele>834.8</ele><time>2026-04-26T09:41:48.293Z</time></trkpt><trkpt lat="44.8170633" lon="9.2614817"><ele>839.4000000000001</ele><time>2026-04-26T09:41:49.293Z</time></trkpt><trkpt lat="44.8171167" lon="9.2613683"><ele>844.0</ele><time>2026-04-26T09:41:50.293Z</time></trkpt><trkpt lat="44.8171483" lon="9.2612383"><ele>845.2</ele><time>2026-04-26T09:41:51.293Z</time></trkpt><trkpt lat="44.8171633" lon="9.2611033"><ele>846.4000000000001</ele><time>2026-04-26T09:41:52.293Z</time></trkpt><trkpt lat="44.8171667" lon="9.260965"><ele>847.6</ele><time>2026-04-26T09:41:53.293Z</time></trkpt><trkpt lat="44.817165" lon="9.2608067"><ele>848.8</ele><time>2026-04-26T09:41:54.293Z</time></trkpt><trkpt lat="44.8171683" lon="9.2606417"><ele>850.0</ele><time>2026-04-26T09:41:55.293Z</time></trkpt><trkpt lat="44.81718" lon="9.2604967"><ele>853.2</ele><time>2026-04-26T09:41:56.293Z</time></trkpt><trkpt lat="44.81717" lon="9.2603617"><ele>856.4</ele><time>2026-04-26T09:41:57.293Z</time></trkpt><trkpt lat="44.8171433" lon="9.2602233"><ele>859.5999999999999</ele><time>2026-04-26T09:41:58.293Z</time></trkpt><trkpt lat="44.8171117" lon="9.2600883"><ele>862.8</ele><time>2026-04-26T09:41:59.293Z</time></trkpt><trkpt lat="44.8170767" lon="9.2599517"><ele>866.0</ele><time>2026-04-26T09:42:00.292Z</time></trkpt><trkpt lat="44.81705" lon="9.2598083"><ele>868.0</ele><time>2026-04-26T09:42:01.293Z</time></trkpt><trkpt lat="44.8170183" lon="9.25967"><ele>869.9999999999999</ele><time>2026-04-26T09:42:02.293Z</time></trkpt><trkpt lat="44.81699" lon="9.2595267"><ele>871.9999999999999</ele><time>2026-04-26T09:42:03.292Z</time></trkpt><trkpt lat="44.8169617" lon="9.25938"><ele>874.0</ele><time>2026-04-26T09:42:04.293Z</time></trkpt><trkpt lat="44.8169283" lon="9.259225"><ele>876.0</ele><time>2026-04-26T09:42:05.293Z</time></trkpt><trkpt lat="44.8168867" lon="9.259065"><ele>875.5999999999999</ele><time>2026-04-26T09:42:06.293Z</time></trkpt><trkpt lat="44.81682" lon="9.258915"><ele>875.1999999999999</ele><time>2026-04-26T09:42:07.292Z</time></trkpt><trkpt lat="44.8167567" lon="9.25878"><ele>874.8000000000001</ele><time>2026-04-26T09:42:08.293Z</time></trkpt><trkpt lat="44.8167233" lon="9.25864"><ele>874.4000000000001</ele><time>2026-04-26T09:42:09.293Z</time></trkpt><trkpt lat="44.81671" lon="9.258495"><ele>874.0</ele><time>2026-04-26T09:42:10.293Z</time></trkpt><trkpt lat="44.81672" lon="9.2583617"><ele>870.4000000000001</ele><time>2026-04-26T09:42:11.293Z</time></trkpt><trkpt lat="44.8167567" lon="9.25824"><ele>866.8000000000001</ele><time>2026-04-26T09:42:12.293Z</time></trkpt><trkpt lat="44.8168133" lon="9.25813"><ele>863.1999999999999</ele><time>2026-04-26T09:42:13.293Z</time></trkpt><trkpt lat="44.8168917" lon="9.2580383"><ele>859.5999999999999</ele><time>2026-04-26T09:42:14.293Z</time></trkpt><trkpt lat="44.8169817" lon="9.2579733"><ele>856.0</ele><time>2026-04-26T09:42:15.293Z</time></trkpt><trkpt lat="44.8170867" lon="9.2579267"><ele>856.0</ele><time>2026-04-26T09:42:16.293Z</time></trkpt><trkpt lat="44.8171967" lon="9.257885"><ele>856.0</ele><time>2026-04-26T09:42:17.293Z</time></trkpt><trkpt lat="44.817315" lon="9.2578367"><ele>856.0</ele><time>2026-04-26T09:42:18.293Z</time></trkpt><trkpt lat="44.8174383" lon="9.25778"><ele>856.0</ele><time>2026-04-26T09:42:19.293Z</time></trkpt><trkpt lat="44.8175617" lon="9.2577183"><ele>859.0</ele><time>2026-04-26T09:42:20.293Z</time></trkpt><trkpt lat="44.8176817" lon="9.2576517"><ele>862.0</ele><time>2026-04-26T09:42:21.293Z</time></trkpt><trkpt lat="44.8177933" lon="9.2575717"><ele>865.0</ele><time>2026-04-26T09:42:22.292Z</time></trkpt><trkpt lat="44.8179233" lon="9.25748"><ele>868.0</ele><time>2026-04-26T09:42:23.293Z</time></trkpt><trkpt lat="44.8180467" lon="9.2573783"><ele>864.5</ele><time>2026-04-26T09:42:24.293Z</time></trkpt><trkpt lat="44.8181617" lon="9.2572783"><ele>861.0</ele><time>2026-04-26T09:42:25.293Z</time></trkpt><trkpt lat="44.8182583" lon="9.2571667"><ele>857.5</ele><time>2026-04-26T09:42:26.293Z</time></trkpt><trkpt lat="44.8183217" lon="9.2570367"><ele>854.0</ele><time>2026-04-26T09:42:27.293Z</time></trkpt><trkpt lat="44.8183933" lon="9.2568967"><ele>854.0</ele><time>2026-04-26T09:42:28.292Z</time></trkpt><trkpt lat="44.81845" lon="9.2567417"><ele>854.0</ele><time>2026-04-26T09:42:29.293Z</time></trkpt><trkpt lat="44.81851" lon="9.2566017"><ele>854.0</ele><time>2026-04-26T09:42:30.292Z</time></trkpt><trkpt lat="44.8185817" lon="9.25646"><ele>854.0</ele><time>2026-04-26T09:42:31.293Z</time></trkpt><trkpt lat="44.818665" lon="9.25632"><ele>856.0</ele><time>2026-04-26T09:42:32.292Z</time></trkpt><trkpt lat="44.8187383" lon="9.256175"><ele>858.0</ele><time>2026-04-26T09:42:33.293Z</time></trkpt><trkpt lat="44.8187983" lon="9.2560117"><ele>860.0</ele><time>2026-04-26T09:42:34.293Z</time></trkpt><trkpt lat="44.818835" lon="9.2558483"><ele>862.0</ele><time>2026-04-26T09:42:35.293Z</time></trkpt><trkpt lat="44.8188533" lon="9.2556833"><ele>860.4000000000001</ele><time>2026-04-26T09:42:36.292Z</time></trkpt><trkpt lat="44.8188667" lon="9.2555217"><ele>858.8000000000001</ele><time>2026-04-26T09:42:37.293Z</time></trkpt><trkpt lat="44.8188867" lon="9.2553683"><ele>857.2</ele><time>2026-04-26T09:42:38.293Z</time></trkpt><trkpt lat="44.8189233" lon="9.2552317"><ele>855.6</ele><time>2026-04-26T09:42:39.292Z</time></trkpt><trkpt lat="44.81898" lon="9.2551033"><ele>854.0</ele><time>2026-04-26T09:42:40.293Z</time></trkpt><trkpt lat="44.81905" lon="9.2549917"><ele>854.0</ele><time>2026-04-26T09:42:41.293Z</time></trkpt><trkpt lat="44.819135" lon="9.2549017"><ele>854.0</ele><time>2026-04-26T09:42:42.293Z</time></trkpt><trkpt lat="44.81924" lon="9.25483"><ele>854.0</ele><time>2026-04-26T09:42:43.293Z</time></trkpt><trkpt lat="44.819365" lon="9.2547817"><ele>854.0</ele><time>2026-04-26T09:42:44.293Z</time></trkpt><trkpt lat="44.8195067" lon="9.2547367"><ele>850.6666666666667</ele><time>2026-04-26T09:42:45.293Z</time></trkpt><trkpt lat="44.81966" lon="9.2546917"><ele>847.3333333333333</ele><time>2026-04-26T09:42:46.293Z</time></trkpt><trkpt lat="44.8198183" lon="9.254645"><ele>844.0</ele><time>2026-04-26T09:42:47.293Z</time></trkpt><trkpt lat="44.8199767" lon="9.254595"><ele>844.0</ele><time>2026-04-26T09:42:48.293Z</time></trkpt><trkpt lat="44.8201183" lon="9.2545417"><ele>844.0</ele><time>2026-04-26T09:42:49.293Z</time></trkpt><trkpt lat="44.82022" lon="9.2544883"><ele>844.0</ele><time>2026-04-26T09:42:50.292Z</time></trkpt><trkpt lat="44.82028" lon="9.2544383"><ele>844.0</ele><time>2026-04-26T09:42:51.293Z</time></trkpt><trkpt lat="44.8203217" lon="9.25437"><ele>844.0</ele><time>2026-04-26T09:42:52.293Z</time></trkpt><trkpt lat="44.8203317" lon="9.2542783"><ele>845.0</ele><time>2026-04-26T09:42:53.293Z</time></trkpt><trkpt lat="44.8203067" lon="9.254155"><ele>846.0</ele><time>2026-04-26T09:42:54.293Z</time></trkpt><trkpt lat="44.820265" lon="9.2540017"><ele>847.0</ele><time>2026-04-26T09:42:55.293Z</time></trkpt><trkpt lat="44.8202017" lon="9.2538183"><ele>848.0</ele><time>2026-04-26T09:42:56.293Z</time></trkpt><trkpt lat="44.8201417" lon="9.2536433"><ele>845.3333333333334</ele><time>2026-04-26T09:42:57.293Z</time></trkpt><trkpt lat="44.8200817" lon="9.2534433"><ele>842.6666666666667</ele><time>2026-04-26T09:42:58.292Z</time></trkpt><trkpt lat="44.8200317" lon="9.2532283"><ele>840.0</ele><time>2026-04-26T09:42:59.293Z</time></trkpt><trkpt lat="44.8199867" lon="9.253"><ele>839.0</ele><time>2026-04-26T09:43:00.293Z</time></trkpt><trkpt lat="44.8199517" lon="9.2527717"><ele>838.0</ele><time>2026-04-26T09:43:01.293Z</time></trkpt><trkpt lat="44.819925" lon="9.2525533"><ele>837.0</ele><time>2026-04-26T09:43:02.293Z</time></trkpt><trkpt lat="44.8199033" lon="9.2523467"><ele>837.0</ele><time>2026-04-26T09:43:03.293Z</time></trkpt><trkpt lat="44.8198917" lon="9.2521483"><ele>837.0</ele><time>2026-04-26T09:43:04.292Z</time></trkpt><trkpt lat="44.8198967" lon="9.251955"><ele>837.0</ele><time>2026-04-26T09:43:05.292Z</time></trkpt><trkpt lat="44.8199017" lon="9.2517683"><ele>837.0</ele><time>2026-04-26T09:43:06.293Z</time></trkpt><trkpt lat="44.8198983" lon="9.2515933"><ele>835.5</ele><time>2026-04-26T09:43:07.293Z</time></trkpt><trkpt lat="44.8198933" lon="9.2514267"><ele>834.0</ele><time>2026-04-26T09:43:08.293Z</time></trkpt><trkpt lat="44.819885" lon="9.2512683"><ele>832.5</ele><time>2026-04-26T09:43:09.293Z</time></trkpt><trkpt lat="44.8198717" lon="9.25111"><ele>831.0</ele><time>2026-04-26T09:43:10.293Z</time></trkpt><trkpt lat="44.8198517" lon="9.2509517"><ele>831.0</ele><time>2026-04-26T09:43:11.293Z</time></trkpt><trkpt lat="44.8198133" lon="9.2507983"><ele>831.0</ele><time>2026-04-26T09:43:12.293Z</time></trkpt><trkpt lat="44.819755" lon="9.2506433"><ele>831.0</ele><time>2026-04-26T09:43:13.292Z</time></trkpt><trkpt lat="44.8196917" lon="9.2504783"><ele>831.0</ele><time>2026-04-26T09:43:14.293Z</time></trkpt><trkpt lat="44.819625" lon="9.2503"><ele>828.5</ele><time>2026-04-26T09:43:15.293Z</time></trkpt><trkpt lat="44.81956" lon="9.2501217"><ele>826.0</ele><time>2026-04-26T09:43:16.293Z</time></trkpt><trkpt lat="44.819505" lon="9.2499367"><ele>823.5</ele><time>2026-04-26T09:43:17.293Z</time></trkpt><trkpt lat="44.8194483" lon="9.2497583"><ele>821.0</ele><time>2026-04-26T09:43:18.293Z</time></trkpt><trkpt lat="44.8193883" lon="9.2495817"><ele>821.25</ele><time>2026-04-26T09:43:19.293Z</time></trkpt><trkpt lat="44.8193317" lon="9.2494117"><ele>821.5</ele><time>2026-04-26T09:43:20.293Z</time></trkpt><trkpt lat="44.8192867" lon="9.2492333"><ele>821.75</ele><time>2026-04-26T09:43:21.293Z</time></trkpt><trkpt lat="44.8192567" lon="9.24904"><ele>822.0</ele><time>2026-04-26T09:43:22.293Z</time></trkpt><trkpt lat="44.8192417" lon="9.24882"><ele>819.3333333333333</ele><time>2026-04-26T09:43:23.293Z</time></trkpt><trkpt lat="44.8192383" lon="9.2485767"><ele>816.6666666666666</ele><time>2026-04-26T09:43:24.293Z</time></trkpt><trkpt lat="44.819245" lon="9.24832"><ele>814.0</ele><time>2026-04-26T09:43:25.293Z</time></trkpt><trkpt lat="44.8192533" lon="9.248045"><ele>813.0</ele><time>2026-04-26T09:43:26.293Z</time></trkpt><trkpt lat="44.8192583" lon="9.2477867"><ele>812.0</ele><time>2026-04-26T09:43:27.293Z</time></trkpt><trkpt lat="44.8192583" lon="9.2475567"><ele>811.0</ele><time>2026-04-26T09:43:28.293Z</time></trkpt><trkpt lat="44.8192517" lon="9.2473417"><ele>811.0</ele><time>2026-04-26T09:43:29.293Z</time></trkpt><trkpt lat="44.8192433" lon="9.2471483"><ele>811.0</ele><time>2026-04-26T09:43:30.293Z</time></trkpt><trkpt lat="44.8192317" lon="9.2469683"><ele>811.0</ele><time>2026-04-26T09:43:31.293Z</time></trkpt><trkpt lat="44.8192217" lon="9.2467983"><ele>811.0</ele><time>2026-04-26T09:43:32.293Z</time></trkpt><trkpt lat="44.819205" lon="9.2466433"><ele>811.0</ele><time>2026-04-26T09:43:33.292Z</time></trkpt><trkpt lat="44.8191883" lon="9.246485"><ele>811.0</ele><time>2026-04-26T09:43:34.293Z</time></trkpt><trkpt lat="44.8191767" lon="9.2463217"><ele>811.0</ele><time>2026-04-26T09:43:35.293Z</time></trkpt><trkpt lat="44.81917" lon="9.2461617"><ele>811.0</ele><time>2026-04-26T09:43:36.293Z</time></trkpt><trkpt lat="44.81917" lon="9.24601"><ele>810.1666666666666</ele><time>2026-04-26T09:43:37.293Z</time></trkpt><trkpt lat="44.81918" lon="9.2458817"><ele>809.3333333333333</ele><time>2026-04-26T09:43:38.293Z</time></trkpt><trkpt lat="44.8191967" lon="9.2457883"><ele>808.5</ele><time>2026-04-26T09:43:39.293Z</time></trkpt><trkpt lat="44.8192683" lon="9.245685"><ele>807.6666666666667</ele><time>2026-04-26T09:43:41.292Z</time></trkpt><trkpt lat="44.8193333" lon="9.2456883"><ele>806.8333333333334</ele><time>2026-04-26T09:43:42.293Z</time></trkpt><trkpt lat="44.819415" lon="9.24576"><ele>806.0</ele><time>2026-04-26T09:43:43.293Z</time></trkpt><trkpt lat="44.81951" lon="9.2458567"><ele>804.3333333333334</ele><time>2026-04-26T09:43:44.293Z</time></trkpt><trkpt lat="44.8196233" lon="9.2459767"><ele>802.6666666666667</ele><time>2026-04-26T09:43:45.293Z</time></trkpt><trkpt lat="44.81974" lon="9.246115"><ele>801.0</ele><time>2026-04-26T09:43:46.292Z</time></trkpt><trkpt lat="44.8198633" lon="9.24627"><ele>801.0</ele><time>2026-04-26T09:43:47.293Z</time></trkpt><trkpt lat="44.819985" lon="9.2464133"><ele>801.0</ele><time>2026-04-26T09:43:48.293Z</time></trkpt><trkpt lat="44.8201067" lon="9.246565"><ele>801.0</ele><time>2026-04-26T09:43:49.293Z</time></trkpt><trkpt lat="44.82023" lon="9.2467117"><ele>800.75</ele><time>2026-04-26T09:43:50.293Z</time></trkpt><trkpt lat="44.8203483" lon="9.2468467"><ele>800.5</ele><time>2026-04-26T09:43:51.293Z</time></trkpt><trkpt lat="44.8204583" lon="9.2469667"><ele>800.25</ele><time>2026-04-26T09:43:52.293Z</time></trkpt><trkpt lat="44.820565" lon="9.2470783"><ele>800.0</ele><time>2026-04-26T09:43:53.293Z</time></trkpt><trkpt lat="44.8206717" lon="9.2471867"><ele>799.25</ele><time>2026-04-26T09:43:54.293Z</time></trkpt><trkpt lat="44.8207783" lon="9.2473017"><ele>798.5</ele><time>2026-04-26T09:43:55.293Z</time></trkpt><trkpt lat="44.820885" lon="9.2474183"><ele>797.75</ele><time>2026-04-26T09:43:56.293Z</time></trkpt><trkpt lat="44.8209917" lon="9.2475367"><ele>797.0</ele><time>2026-04-26T09:43:57.293Z</time></trkpt><trkpt lat="44.8210967" lon="9.24765"><ele>797.0</ele><time>2026-04-26T09:43:58.293Z</time></trkpt><trkpt lat="44.8211933" lon="9.2477517"><ele>797.0</ele><time>2026-04-26T09:43:59.293Z</time></trkpt><trkpt lat="44.8212867" lon="9.247845"><ele>797.0</ele><time>2026-04-26T09:44:00.293Z</time></trkpt><trkpt lat="44.8213783" lon="9.2479333"><ele>797.0</ele><time>2026-04-26T09:44:01.293Z</time></trkpt><trkpt lat="44.8214767" lon="9.248015"><ele>797.0</ele><time>2026-04-26T09:44:02.293Z</time></trkpt><trkpt lat="44.82158" lon="9.248095"><ele>797.0</ele><time>2026-04-26T09:44:03.293Z</time></trkpt><trkpt lat="44.821685" lon="9.2481667"><ele>797.0</ele><time>2026-04-26T09:44:04.293Z</time></trkpt><trkpt lat="44.821785" lon="9.2482383"><ele>797.0</ele><time>2026-04-26T09:44:05.293Z</time></trkpt><trkpt lat="44.82188" lon="9.24831"><ele>796.0</ele><time>2026-04-26T09:44:06.293Z</time></trkpt><trkpt lat="44.8219667" lon="9.2483917"><ele>795.0</ele><time>2026-04-26T09:44:07.293Z</time></trkpt><trkpt lat="44.822045" lon="9.2484833"><ele>794.0</ele><time>2026-04-26T09:44:08.293Z</time></trkpt><trkpt lat="44.8221083" lon="9.2486"><ele>793.0</ele><time>2026-04-26T09:44:09.293Z</time></trkpt><trkpt lat="44.822175" lon="9.2487283"><ele>792.0</ele><time>2026-04-26T09:44:10.292Z</time></trkpt><trkpt lat="44.822255" lon="9.2488433"><ele>792.0</ele><time>2026-04-26T09:44:11.293Z</time></trkpt><trkpt lat="44.8223583" lon="9.2489317"><ele>792.0</ele><time>2026-04-26T09:44:12.293Z</time></trkpt><trkpt lat="44.8224717" lon="9.249005"><ele>792.0</ele><time>2026-04-26T09:44:13.293Z</time></trkpt><trkpt lat="44.8225867" lon="9.249075"><ele>792.0</ele><time>2026-04-26T09:44:14.293Z</time></trkpt><trkpt lat="44.8227067" lon="9.2491533"><ele>792.5</ele><time>2026-04-26T09:44:15.293Z</time></trkpt><trkpt lat="44.82283" lon="9.2492367"><ele>793.0</ele><time>2026-04-26T09:44:16.293Z</time></trkpt><trkpt lat="44.82295" lon="9.2493117"><ele>793.5</ele><time>2026-04-26T09:44:17.293Z</time></trkpt><trkpt lat="44.8230717" lon="9.2493717"><ele>794.0</ele><time>2026-04-26T09:44:18.292Z</time></trkpt><trkpt lat="44.8231933" lon="9.24943"><ele>794.0</ele><time>2026-04-26T09:44:19.293Z</time></trkpt><trkpt lat="44.8233067" lon="9.249495"><ele>794.0</ele><time>2026-04-26T09:44:20.293Z</time></trkpt><trkpt lat="44.82342" lon="9.2495667"><ele>794.0</ele><time>2026-04-26T09:44:21.293Z</time></trkpt><trkpt lat="44.8235367" lon="9.2496133"><ele>794.0</ele><time>2026-04-26T09:44:22.293Z</time></trkpt><trkpt lat="44.823655" lon="9.2496267"><ele>793.4000000000001</ele><time>2026-04-26T09:44:23.293Z</time></trkpt><trkpt lat="44.8237667" lon="9.24962"><ele>792.8</ele><time>2026-04-26T09:44:24.293Z</time></trkpt><trkpt lat="44.823875" lon="9.249605"><ele>792.2</ele><time>2026-04-26T09:44:25.293Z</time></trkpt><trkpt lat="44.823975" lon="9.2496083"><ele>791.5999999999999</ele><time>2026-04-26T09:44:26.293Z</time></trkpt><trkpt lat="44.8240783" lon="9.2496383"><ele>791.0</ele><time>2026-04-26T09:44:27.293Z</time></trkpt><trkpt lat="44.8241733" lon="9.2497017"><ele>791.0</ele><time>2026-04-26T09:44:28.293Z</time></trkpt><trkpt lat="44.8242667" lon="9.2497817"><ele>791.0</ele><time>2026-04-26T09:44:29.293Z</time></trkpt><trkpt lat="44.8243683" lon="9.249895"><ele>791.0</ele><time>2026-04-26T09:44:30.293Z</time></trkpt><trkpt lat="44.8244833" lon="9.2499917"><ele>791.0</ele><time>2026-04-26T09:44:31.292Z</time></trkpt><trkpt lat="44.824605" lon="9.250075"><ele>791.25</ele><time>2026-04-26T09:44:32.293Z</time></trkpt><trkpt lat="44.8247367" lon="9.250135"><ele>791.5</ele><time>2026-04-26T09:44:33.293Z</time></trkpt><trkpt lat="44.8248633" lon="9.2501717"><ele>791.75</ele><time>2026-04-26T09:44:34.293Z</time></trkpt><trkpt lat="44.8249883" lon="9.2501883"><ele>792.0</ele><time>2026-04-26T09:44:35.293Z</time></trkpt><trkpt lat="44.82511" lon="9.2501717"><ele>790.0</ele><time>2026-04-26T09:44:36.293Z</time></trkpt><trkpt lat="44.8252267" lon="9.2501267"><ele>788.0</ele><time>2026-04-26T09:44:37.293Z</time></trkpt><trkpt lat="44.8253417" lon="9.2500733"><ele>786.0</ele><time>2026-04-26T09:44:38.293Z</time></trkpt><trkpt lat="44.825455" lon="9.2500317"><ele>784.0</ele><time>2026-04-26T09:44:39.293Z</time></trkpt><trkpt lat="44.825555" lon="9.2500017"><ele>784.0</ele><time>2026-04-26T09:44:40.293Z</time></trkpt><trkpt lat="44.8256433" lon="9.249975"><ele>784.0</ele><time>2026-04-26T09:44:41.293Z</time></trkpt><trkpt lat="44.8257067" lon="9.24992"><ele>784.0</ele><time>2026-04-26T09:44:42.293Z</time></trkpt><trkpt lat="44.82575" lon="9.24985"><ele>784.0</ele><time>2026-04-26T09:44:43.292Z</time></trkpt><trkpt lat="44.8257383" lon="9.249655"><ele>784.0</ele><time>2026-04-26T09:44:45.292Z</time></trkpt><trkpt lat="44.825675" lon="9.2495433"><ele>782.4000000000001</ele><time>2026-04-26T09:44:46.293Z</time></trkpt><trkpt lat="44.8256033" lon="9.2494467"><ele>780.8</ele><time>2026-04-26T09:44:47.292Z</time></trkpt><trkpt lat="44.8255233" lon="9.24937"><ele>779.2</ele><time>2026-04-26T09:44:48.292Z</time></trkpt><trkpt lat="44.825415" lon="9.2492967"><ele>777.5999999999999</ele><time>2026-04-26T09:44:49.293Z</time></trkpt><trkpt lat="44.82531" lon="9.2492217"><ele>776.0</ele><time>2026-04-26T09:44:50.293Z</time></trkpt><trkpt lat="44.82523" lon="9.2491317"><ele>776.0</ele><time>2026-04-26T09:44:51.293Z</time></trkpt><trkpt lat="44.82517" lon="9.2490183"><ele>776.0</ele><time>2026-04-26T09:44:52.293Z</time></trkpt><trkpt lat="44.8251483" lon="9.2488817"><ele>776.0</ele><time>2026-04-26T09:44:53.293Z</time></trkpt><trkpt lat="44.8251433" lon="9.24874"><ele>776.0</ele><time>2026-04-26T09:44:54.293Z</time></trkpt><trkpt lat="44.8251467" lon="9.2485933"><ele>776.0</ele><time>2026-04-26T09:44:55.293Z</time></trkpt><trkpt lat="44.825175" lon="9.24845"><ele>775.0</ele><time>2026-04-26T09:44:56.293Z</time></trkpt><trkpt lat="44.82522" lon="9.2483483"><ele>774.0</ele><time>2026-04-26T09:44:57.293Z</time></trkpt><trkpt lat="44.82529" lon="9.24827"><ele>773.0</ele><time>2026-04-26T09:44:58.293Z</time></trkpt><trkpt lat="44.825375" lon="9.2482267"><ele>772.0</ele><time>2026-04-26T09:44:59.293Z</time></trkpt><trkpt lat="44.82547" lon="9.2482133"><ele>771.0</ele><time>2026-04-26T09:45:00.293Z</time></trkpt><trkpt lat="44.8255717" lon="9.2482467"><ele>771.0</ele><time>2026-04-26T09:45:01.293Z</time></trkpt><trkpt lat="44.825695" lon="9.2483133"><ele>771.0</ele><time>2026-04-26T09:45:02.292Z</time></trkpt><trkpt lat="44.82584" lon="9.2484117"><ele>771.0</ele><time>2026-04-26T09:45:03.293Z</time></trkpt><trkpt lat="44.8259833" lon="9.248495"><ele>771.0</ele><time>2026-04-26T09:45:04.293Z</time></trkpt><trkpt lat="44.82612" lon="9.2485733"><ele>768.25</ele><time>2026-04-26T09:45:05.293Z</time></trkpt><trkpt lat="44.8262617" lon="9.24866"><ele>765.5</ele><time>2026-04-26T09:45:06.293Z</time></trkpt><trkpt lat="44.8263817" lon="9.24874"><ele>762.75</ele><time>2026-04-26T09:45:07.293Z</time></trkpt><trkpt lat="44.8264967" lon="9.2488183"><ele>760.0</ele><time>2026-04-26T09:45:08.293Z</time></trkpt><trkpt lat="44.8266033" lon="9.2489033"><ele>761.4</ele><time>2026-04-26T09:45:09.293Z</time></trkpt><trkpt lat="44.826695" lon="9.2489867"><ele>762.8</ele><time>2026-04-26T09:45:10.292Z</time></trkpt><trkpt lat="44.8267717" lon="9.2490733"><ele>764.2</ele><time>2026-04-26T09:45:11.292Z</time></trkpt><trkpt lat="44.8268383" lon="9.249175"><ele>765.6</ele><time>2026-04-26T09:45:12.293Z</time></trkpt><trkpt lat="44.8269" lon="9.2492967"><ele>767.0</ele><time>2026-04-26T09:45:13.293Z</time></trkpt><trkpt lat="44.8269683" lon="9.2494283"><ele>764.75</ele><time>2026-04-26T09:45:14.293Z</time></trkpt><trkpt lat="44.8270583" lon="9.24955"><ele>762.5</ele><time>2026-04-26T09:45:15.293Z</time></trkpt><trkpt lat="44.827155" lon="9.249655"><ele>760.25</ele><time>2026-04-26T09:45:16.293Z</time></trkpt><trkpt lat="44.82724" lon="9.2497533"><ele>758.0</ele><time>2026-04-26T09:45:17.292Z</time></trkpt><trkpt lat="44.827315" lon="9.2498717"><ele>758.0</ele><time>2026-04-26T09:45:18.293Z</time></trkpt><trkpt lat="44.8273867" lon="9.2500067"><ele>758.0</ele><time>2026-04-26T09:45:19.293Z</time></trkpt><trkpt lat="44.82746" lon="9.250145"><ele>758.0</ele><time>2026-04-26T09:45:20.293Z</time></trkpt><trkpt lat="44.82754" lon="9.2502717"><ele>758.0</ele><time>2026-04-26T09:45:21.293Z</time></trkpt><trkpt lat="44.8276167" lon="9.2503733"><ele>757.3333333333333</ele><time>2026-04-26T09:45:22.293Z</time></trkpt><trkpt lat="44.82769" lon="9.2504483"><ele>756.6666666666666</ele><time>2026-04-26T09:45:23.293Z</time></trkpt><trkpt lat="44.8277617" lon="9.2504967"><ele>756.0</ele><time>2026-04-26T09:45:24.293Z</time></trkpt><trkpt lat="44.8278317" lon="9.2505133"><ele>755.3333333333334</ele><time>2026-04-26T09:45:25.293Z</time></trkpt><trkpt lat="44.82791" lon="9.2504717"><ele>754.6666666666667</ele><time>2026-04-26T09:45:26.293Z</time></trkpt><trkpt lat="44.828" lon="9.250395"><ele>754.0</ele><time>2026-04-26T09:45:27.293Z</time></trkpt><trkpt lat="44.8280983" lon="9.2503117"><ele>754.0</ele><time>2026-04-26T09:45:28.293Z</time></trkpt><trkpt lat="44.828205" lon="9.2502433"><ele>754.0</ele><time>2026-04-26T09:45:29.293Z</time></trkpt><trkpt lat="44.82832" lon="9.250185"><ele>754.0</ele><time>2026-04-26T09:45:30.293Z</time></trkpt><trkpt lat="44.82845" lon="9.2501483"><ele>754.0</ele><time>2026-04-26T09:45:31.293Z</time></trkpt><trkpt lat="44.8285783" lon="9.2501217"><ele>755.0</ele><time>2026-04-26T09:45:32.293Z</time></trkpt><trkpt lat="44.8287" lon="9.2500833"><ele>756.0</ele><time>2026-04-26T09:45:33.293Z</time></trkpt><trkpt lat="44.8288083" lon="9.2500217"><ele>757.0</ele><time>2026-04-26T09:45:34.293Z</time></trkpt><trkpt lat="44.828905" lon="9.2499417"><ele>758.0</ele><time>2026-04-26T09:45:35.293Z</time></trkpt><trkpt lat="44.828995" lon="9.2498617"><ele>756.5</ele><time>2026-04-26T09:45:36.293Z</time></trkpt><trkpt lat="44.8290733" lon="9.2497867"><ele>755.0</ele><time>2026-04-26T09:45:37.293Z</time></trkpt><trkpt lat="44.8291367" lon="9.2497083"><ele>753.5</ele><time>2026-04-26T09:45:38.293Z</time></trkpt><trkpt lat="44.829185" lon="9.2496133"><ele>752.0</ele><time>2026-04-26T09:45:39.293Z</time></trkpt><trkpt lat="44.8292267" lon="9.249505"><ele>750.5</ele><time>2026-04-26T09:45:40.293Z</time></trkpt><trkpt lat="44.8292667" lon="9.249415"><ele>749.0</ele><time>2026-04-26T09:45:41.293Z</time></trkpt><trkpt lat="44.8293083" lon="9.2493467"><ele>749.4000000000001</ele><time>2026-04-26T09:45:42.293Z</time></trkpt><trkpt lat="44.8293567" lon="9.249215"><ele>749.8</ele><time>2026-04-26T09:45:44.293Z</time></trkpt><trkpt lat="44.8293133" lon="9.2490483"><ele>750.2</ele><time>2026-04-26T09:45:46.293Z</time></trkpt><trkpt lat="44.829285" lon="9.2489383"><ele>750.5999999999999</ele><time>2026-04-26T09:45:47.293Z</time></trkpt><trkpt lat="44.829255" lon="9.2488267"><ele>751.0</ele><time>2026-04-26T09:45:48.293Z</time></trkpt><trkpt lat="44.8292367" lon="9.248725"><ele>748.25</ele><time>2026-04-26T09:45:49.293Z</time></trkpt><trkpt lat="44.8292467" lon="9.2485733"><ele>745.5</ele><time>2026-04-26T09:45:51.293Z</time></trkpt><trkpt lat="44.8293583" lon="9.2484667"><ele>742.75</ele><time>2026-04-26T09:45:53.292Z</time></trkpt><trkpt lat="44.8294683" lon="9.2484183"><ele>740.0</ele><time>2026-04-26T09:45:54.293Z</time></trkpt><trkpt lat="44.8295683" lon="9.2483433"><ele>740.0</ele><time>2026-04-26T09:45:55.292Z</time></trkpt><trkpt lat="44.8296717" lon="9.2482333"><ele>740.0</ele><time>2026-04-26T09:45:56.292Z</time></trkpt><trkpt lat="44.8297817" lon="9.248125"><ele>740.0</ele><time>2026-04-26T09:45:57.293Z</time></trkpt><trkpt lat="44.8298917" lon="9.2480283"><ele>740.0</ele><time>2026-04-26T09:45:58.293Z</time></trkpt><trkpt lat="44.8299967" lon="9.2479383"><ele>738.0</ele><time>2026-04-26T09:45:59.293Z</time></trkpt><trkpt lat="44.8300967" lon="9.2478517"><ele>736.0</ele><time>2026-04-26T09:46:00.293Z</time></trkpt><trkpt lat="44.830195" lon="9.2477617"><ele>734.0</ele><time>2026-04-26T09:46:01.293Z</time></trkpt><trkpt lat="44.8302917" lon="9.2476617"><ele>732.0</ele><time>2026-04-26T09:46:02.293Z</time></trkpt><trkpt lat="44.8303833" lon="9.2475433"><ele>731.5</ele><time>2026-04-26T09:46:03.293Z</time></trkpt><trkpt lat="44.830475" lon="9.247405"><ele>731.0</ele><time>2026-04-26T09:46:04.293Z</time></trkpt><trkpt lat="44.83057" lon="9.2472683"><ele>730.5</ele><time>2026-04-26T09:46:05.292Z</time></trkpt><trkpt lat="44.8306717" lon="9.24715"><ele>730.0</ele><time>2026-04-26T09:46:06.293Z</time></trkpt><trkpt lat="44.8307833" lon="9.2470633"><ele>729.0</ele><time>2026-04-26T09:46:07.293Z</time></trkpt><trkpt lat="44.8309067" lon="9.2470083"><ele>728.0</ele><time>2026-04-26T09:46:08.293Z</time></trkpt><trkpt lat="44.8310383" lon="9.246965"><ele>727.0</ele><time>2026-04-26T09:46:09.293Z</time></trkpt><trkpt lat="44.8311767" lon="9.2469317"><ele>726.0</ele><time>2026-04-26T09:46:10.293Z</time></trkpt><trkpt lat="44.8313117" lon="9.24691"><ele>726.0</ele><time>2026-04-26T09:46:11.293Z</time></trkpt><trkpt lat="44.8314433" lon="9.2468983"><ele>726.0</ele><time>2026-04-26T09:46:12.293Z</time></trkpt><trkpt lat="44.8315717" lon="9.2468917"><ele>726.0</ele><time>2026-04-26T09:46:13.293Z</time></trkpt><trkpt lat="44.8317017" lon="9.2468733"><ele>726.0</ele><time>2026-04-26T09:46:14.293Z</time></trkpt><trkpt lat="44.8318283" lon="9.2468383"><ele>726.75</ele><time>2026-04-26T09:46:15.293Z</time></trkpt><trkpt lat="44.831955" lon="9.2467867"><ele>727.5</ele><time>2026-04-26T09:46:16.293Z</time></trkpt><trkpt lat="44.832085" lon="9.2467317"><ele>728.25</ele><time>2026-04-26T09:46:17.293Z</time></trkpt><trkpt lat="44.832215" lon="9.2466817"><ele>729.0</ele><time>2026-04-26T09:46:18.292Z</time></trkpt><trkpt lat="44.8323417" lon="9.2466467"><ele>729.0</ele><time>2026-04-26T09:46:19.293Z</time></trkpt><trkpt lat="44.8324667" lon="9.2466467"><ele>729.0</ele><time>2026-04-26T09:46:20.293Z</time></trkpt><trkpt lat="44.8325933" lon="9.2466783"><ele>729.0</ele><time>2026-04-26T09:46:21.292Z</time></trkpt><trkpt lat="44.8327167" lon="9.246715"><ele>729.0</ele><time>2026-04-26T09:46:22.293Z</time></trkpt><trkpt lat="44.832835" lon="9.246725"><ele>729.6</ele><time>2026-04-26T09:46:23.292Z</time></trkpt><trkpt lat="44.83294" lon="9.2466933"><ele>730.2</ele><time>2026-04-26T09:46:24.293Z</time></trkpt><trkpt lat="44.8330267" lon="9.2466233"><ele>730.8000000000001</ele><time>2026-04-26T09:46:25.293Z</time></trkpt><trkpt lat="44.8331133" lon="9.2465367"><ele>731.4000000000001</ele><time>2026-04-26T09:46:26.293Z</time></trkpt><trkpt lat="44.8331983" lon="9.24645"><ele>732.0</ele><time>2026-04-26T09:46:27.293Z</time></trkpt><trkpt lat="44.8332883" lon="9.2463583"><ele>732.0</ele><time>2026-04-26T09:46:28.293Z</time></trkpt><trkpt lat="44.833375" lon="9.2462667"><ele>732.0</ele><time>2026-04-26T09:46:29.292Z</time></trkpt><trkpt lat="44.8334617" lon="9.2461917"><ele>732.0</ele><time>2026-04-26T09:46:30.293Z</time></trkpt><trkpt lat="44.8335567" lon="9.246155"><ele>732.0</ele><time>2026-04-26T09:46:31.293Z</time></trkpt><trkpt lat="44.8336633" lon="9.24615"><ele>732.0</ele><time>2026-04-26T09:46:32.293Z</time></trkpt><trkpt lat="44.8337733" lon="9.2461617"><ele>733.5</ele><time>2026-04-26T09:46:33.293Z</time></trkpt><trkpt lat="44.8338883" lon="9.2461767"><ele>735.0</ele><time>2026-04-26T09:46:34.293Z</time></trkpt><trkpt lat="44.8340117" lon="9.246195"><ele>736.5</ele><time>2026-04-26T09:46:35.293Z</time></trkpt><trkpt lat="44.8341483" lon="9.246215"><ele>738.0</ele><time>2026-04-26T09:46:36.293Z</time></trkpt><trkpt lat="44.8342733" lon="9.24624"><ele>739.5</ele><time>2026-04-26T09:46:37.293Z</time></trkpt><trkpt lat="44.8343917" lon="9.24623"><ele>741.0</ele><time>2026-04-26T09:46:38.293Z</time></trkpt><trkpt lat="44.834495" lon="9.2461917"><ele>742.5</ele><time>2026-04-26T09:46:39.293Z</time></trkpt><trkpt lat="44.8346033" lon="9.2461333"><ele>744.0</ele><time>2026-04-26T09:46:40.293Z</time></trkpt><trkpt lat="44.8347083" lon="9.246075"><ele>744.0</ele><time>2026-04-26T09:46:41.293Z</time></trkpt><trkpt lat="44.8348117" lon="9.2460167"><ele>744.0</ele><time>2026-04-26T09:46:42.292Z</time></trkpt><trkpt lat="44.8349217" lon="9.2459567"><ele>744.0</ele><time>2026-04-26T09:46:43.293Z</time></trkpt><trkpt lat="44.8350283" lon="9.2458867"><ele>744.0</ele><time>2026-04-26T09:46:44.293Z</time></trkpt><trkpt lat="44.8351267" lon="9.2458167"><ele>743.2</ele><time>2026-04-26T09:46:45.293Z</time></trkpt><trkpt lat="44.83522" lon="9.245745"><ele>742.4000000000001</ele><time>2026-04-26T09:46:46.293Z</time></trkpt><trkpt lat="44.8353083" lon="9.2456733"><ele>741.6</ele><time>2026-04-26T09:46:47.292Z</time></trkpt><trkpt lat="44.835395" lon="9.2456033"><ele>740.8</ele><time>2026-04-26T09:46:48.293Z</time></trkpt><trkpt lat="44.835475" lon="9.245535"><ele>740.0</ele><time>2026-04-26T09:46:49.293Z</time></trkpt><trkpt lat="44.83555" lon="9.24546"><ele>740.0</ele><time>2026-04-26T09:46:50.293Z</time></trkpt><trkpt lat="44.8356217" lon="9.2453717"><ele>740.0</ele><time>2026-04-26T09:46:51.292Z</time></trkpt><trkpt lat="44.8356867" lon="9.2452633"><ele>740.0</ele><time>2026-04-26T09:46:52.293Z</time></trkpt><trkpt lat="44.83574" lon="9.2451233"><ele>740.0</ele><time>2026-04-26T09:46:53.292Z</time></trkpt><trkpt lat="44.8357833" lon="9.2449483"><ele>740.0</ele><time>2026-04-26T09:46:54.293Z</time></trkpt><trkpt lat="44.835815" lon="9.2447533"><ele>739.75</ele><time>2026-04-26T09:46:55.293Z</time></trkpt><trkpt lat="44.8358417" lon="9.2445467"><ele>739.5</ele><time>2026-04-26T09:46:56.293Z</time></trkpt><trkpt lat="44.8358717" lon="9.2443467"><ele>739.25</ele><time>2026-04-26T09:46:57.293Z</time></trkpt><trkpt lat="44.8359067" lon="9.2441567"><ele>739.0</ele><time>2026-04-26T09:46:58.292Z</time></trkpt><trkpt lat="44.8359583" lon="9.2439833"><ele>737.5</ele><time>2026-04-26T09:46:59.292Z</time></trkpt><trkpt lat="44.836035" lon="9.2438233"><ele>736.0</ele><time>2026-04-26T09:47:00.293Z</time></trkpt><trkpt lat="44.83612" lon="9.2436683"><ele>734.5</ele><time>2026-04-26T09:47:01.293Z</time></trkpt><trkpt lat="44.836205" lon="9.243525"><ele>733.0</ele><time>2026-04-26T09:47:02.293Z</time></trkpt><trkpt lat="44.83628" lon="9.2434017"><ele>733.0</ele><time>2026-04-26T09:47:03.293Z</time></trkpt><trkpt lat="44.83634" lon="9.2433067"><ele>733.0</ele><time>2026-04-26T09:47:04.293Z</time></trkpt><trkpt lat="44.8363933" lon="9.2432367"><ele>733.0</ele><time>2026-04-26T09:47:05.293Z</time></trkpt><trkpt lat="44.83645" lon="9.2431733"><ele>733.0</ele><time>2026-04-26T09:47:06.293Z</time></trkpt><trkpt lat="44.836515" lon="9.24314"><ele>733.0</ele><time>2026-04-26T09:47:07.293Z</time></trkpt><trkpt lat="44.8366067" lon="9.2431233"><ele>733.0</ele><time>2026-04-26T09:47:08.293Z</time></trkpt><trkpt lat="44.836725" lon="9.2431233"><ele>732.25</ele><time>2026-04-26T09:47:09.292Z</time></trkpt><trkpt lat="44.8368483" lon="9.2431183"><ele>731.5</ele><time>2026-04-26T09:47:10.293Z</time></trkpt><trkpt lat="44.836955" lon="9.2430917"><ele>730.75</ele><time>2026-04-26T09:47:11.292Z</time></trkpt><trkpt lat="44.8370617" lon="9.2430383"><ele>730.0</ele><time>2026-04-26T09:47:12.293Z</time></trkpt><trkpt lat="44.837155" lon="9.2429483"><ele>730.0</ele><time>2026-04-26T09:47:13.293Z</time></trkpt><trkpt lat="44.8372367" lon="9.2428483"><ele>730.0</ele><time>2026-04-26T09:47:14.293Z</time></trkpt><trkpt lat="44.8373083" lon="9.242735"><ele>730.0</ele><time>2026-04-26T09:47:15.293Z</time></trkpt><trkpt lat="44.8373717" lon="9.242615"><ele>730.0</ele><time>2026-04-26T09:47:16.293Z</time></trkpt><trkpt lat="44.837435" lon="9.2424983"><ele>730.0</ele><time>2026-04-26T09:47:17.293Z</time></trkpt><trkpt lat="44.8375" lon="9.2423833"><ele>729.6</ele><time>2026-04-26T09:47:18.293Z</time></trkpt><trkpt lat="44.83756" lon="9.24227"><ele>729.2</ele><time>2026-04-26T09:47:19.293Z</time></trkpt><trkpt lat="44.8376267" lon="9.2421517"><ele>728.8</ele><time>2026-04-26T09:47:20.293Z</time></trkpt><trkpt lat="44.837695" lon="9.2420417"><ele>728.4</ele><time>2026-04-26T09:47:21.293Z</time></trkpt><trkpt lat="44.83776" lon="9.2419367"><ele>728.0</ele><time>2026-04-26T09:47:22.293Z</time></trkpt><trkpt lat="44.837815" lon="9.2418367"><ele>727.4</ele><time>2026-04-26T09:47:23.293Z</time></trkpt><trkpt lat="44.8378617" lon="9.2417533"><ele>726.8</ele><time>2026-04-26T09:47:24.292Z</time></trkpt><trkpt lat="44.8379233" lon="9.241645"><ele>726.2</ele><time>2026-04-26T09:47:26.293Z</time></trkpt><trkpt lat="44.837895" lon="9.2415183"><ele>725.6</ele><time>2026-04-26T09:47:29.292Z</time></trkpt><trkpt lat="44.8378133" lon="9.2413783"><ele>725.0</ele><time>2026-04-26T09:47:31.293Z</time></trkpt><trkpt lat="44.8377717" lon="9.24128"><ele>724.0</ele><time>2026-04-26T09:47:32.293Z</time></trkpt><trkpt lat="44.8377233" lon="9.2411383"><ele>723.0</ele><time>2026-04-26T09:47:33.293Z</time></trkpt><trkpt lat="44.8376867" lon="9.2409733"><ele>722.0</ele><time>2026-04-26T09:47:34.292Z</time></trkpt><trkpt lat="44.83765" lon="9.2407967"><ele>721.0</ele><time>2026-04-26T09:47:35.293Z</time></trkpt><trkpt lat="44.8376183" lon="9.2406233"><ele>721.0</ele><time>2026-04-26T09:47:36.293Z</time></trkpt><trkpt lat="44.8375883" lon="9.2404533"><ele>721.0</ele><time>2026-04-26T09:47:37.293Z</time></trkpt><trkpt lat="44.837565" lon="9.2402783"><ele>721.0</ele><time>2026-04-26T09:47:38.293Z</time></trkpt><trkpt lat="44.8375483" lon="9.2401017"><ele>721.0</ele><time>2026-04-26T09:47:39.293Z</time></trkpt><trkpt lat="44.83755" lon="9.2399267"><ele>720.75</ele><time>2026-04-26T09:47:40.293Z</time></trkpt><trkpt lat="44.837555" lon="9.2397567"><ele>720.5</ele><time>2026-04-26T09:47:41.293Z</time></trkpt><trkpt lat="44.8375583" lon="9.2395917"><ele>720.25</ele><time>2026-04-26T09:47:42.292Z</time></trkpt><trkpt lat="44.837555" lon="9.2394317"><ele>720.0</ele><time>2026-04-26T09:47:43.292Z</time></trkpt><trkpt lat="44.8375383" lon="9.2392783"><ele>720.0</ele><time>2026-04-26T09:47:44.292Z</time></trkpt><trkpt lat="44.83751" lon="9.239125"><ele>720.0</ele><time>2026-04-26T09:47:45.292Z</time></trkpt><trkpt lat="44.8374767" lon="9.2389633"><ele>720.0</ele><time>2026-04-26T09:47:46.292Z</time></trkpt><trkpt lat="44.8374317" lon="9.2387967"><ele>720.0</ele><time>2026-04-26T09:47:47.292Z</time></trkpt><trkpt lat="44.8373733" lon="9.2386317"><ele>719.5</ele><time>2026-04-26T09:47:48.292Z</time></trkpt><trkpt lat="44.837305" lon="9.2384717"><ele>719.0</ele><time>2026-04-26T09:47:49.292Z</time></trkpt><trkpt lat="44.8372383" lon="9.2383167"><ele>718.5</ele><time>2026-04-26T09:47:50.292Z</time></trkpt><trkpt lat="44.8371717" lon="9.2381633"><ele>718.0</ele><time>2026-04-26T09:47:51.292Z</time></trkpt><trkpt lat="44.8371117" lon="9.2380083"><ele>717.0</ele><time>2026-04-26T09:47:52.292Z</time></trkpt><trkpt lat="44.8370633" lon="9.23785"><ele>716.0</ele><time>2026-04-26T09:47:53.292Z</time></trkpt><trkpt lat="44.8370317" lon="9.2376833"><ele>715.0</ele><time>2026-04-26T09:47:54.292Z</time></trkpt><trkpt lat="44.8370183" lon="9.2375017"><ele>714.0</ele><time>2026-04-26T09:47:55.292Z</time></trkpt><trkpt lat="44.8370017" lon="9.2373067"><ele>712.6666666666666</ele><time>2026-04-26T09:47:56.292Z</time></trkpt><trkpt lat="44.8369833" lon="9.2370983"><ele>711.3333333333333</ele><time>2026-04-26T09:47:57.292Z</time></trkpt><trkpt lat="44.8369633" lon="9.2368767"><ele>710.0</ele><time>2026-04-26T09:47:58.292Z</time></trkpt><trkpt lat="44.8369417" lon="9.23664"><ele>710.0</ele><time>2026-04-26T09:47:59.292Z</time></trkpt><trkpt lat="44.8369167" lon="9.2364017"><ele>710.0</ele><time>2026-04-26T09:48:00.292Z</time></trkpt><trkpt lat="44.8368917" lon="9.236165"><ele>710.0</ele><time>2026-04-26T09:48:01.292Z</time></trkpt><trkpt lat="44.8368683" lon="9.2359333"><ele>710.0</ele><time>2026-04-26T09:48:02.292Z</time></trkpt><trkpt lat="44.8368433" lon="9.2357083"><ele>710.0</ele><time>2026-04-26T09:48:03.291Z</time></trkpt><trkpt lat="44.836815" lon="9.2354917"><ele>710.0</ele><time>2026-04-26T09:48:04.292Z</time></trkpt><trkpt lat="44.836775" lon="9.2352833"><ele>707.0</ele><time>2026-04-26T09:48:05.292Z</time></trkpt><trkpt lat="44.8367167" lon="9.2350967"><ele>704.0</ele><time>2026-04-26T09:48:06.292Z</time></trkpt><trkpt lat="44.83664" lon="9.23493"><ele>701.0</ele><time>2026-04-26T09:48:07.292Z</time></trkpt><trkpt lat="44.8365467" lon="9.23478"><ele>698.0</ele><time>2026-04-26T09:48:08.292Z</time></trkpt><trkpt lat="44.836435" lon="9.2346483"><ele>698.0</ele><time>2026-04-26T09:48:09.292Z</time></trkpt><trkpt lat="44.83631" lon="9.234535"><ele>698.0</ele><time>2026-04-26T09:48:10.292Z</time></trkpt><trkpt lat="44.83619" lon="9.2344167"><ele>698.0</ele><time>2026-04-26T09:48:11.292Z</time></trkpt><trkpt lat="44.8360817" lon="9.2342917"><ele>698.0</ele><time>2026-04-26T09:48:12.292Z</time></trkpt><trkpt lat="44.8359833" lon="9.23416"><ele>694.75</ele><time>2026-04-26T09:48:13.292Z</time></trkpt><trkpt lat="44.8358917" lon="9.2340233"><ele>691.5</ele><time>2026-04-26T09:48:14.292Z</time></trkpt><trkpt lat="44.8358117" lon="9.233875"><ele>688.25</ele><time>2026-04-26T09:48:15.292Z</time></trkpt><trkpt lat="44.835745" lon="9.2337233"><ele>685.0</ele><time>2026-04-26T09:48:16.292Z</time></trkpt><trkpt lat="44.8356917" lon="9.233565"><ele>685.0</ele><time>2026-04-26T09:48:17.292Z</time></trkpt><trkpt lat="44.835645" lon="9.233405"><ele>685.0</ele><time>2026-04-26T09:48:18.292Z</time></trkpt><trkpt lat="44.83562" lon="9.2332267"><ele>685.0</ele><time>2026-04-26T09:48:19.292Z</time></trkpt><trkpt lat="44.835615" lon="9.2330367"><ele>685.0</ele><time>2026-04-26T09:48:20.292Z</time></trkpt><trkpt lat="44.8356083" lon="9.23285"><ele>684.75</ele><time>2026-04-26T09:48:21.292Z</time></trkpt><trkpt lat="44.8355733" lon="9.2326717"><ele>684.5</ele><time>2026-04-26T09:48:22.291Z</time></trkpt><trkpt lat="44.835505" lon="9.2325083"><ele>684.25</ele><time>2026-04-26T09:48:23.292Z</time></trkpt><trkpt lat="44.8354167" lon="9.2323683"><ele>684.0</ele><time>2026-04-26T09:48:24.292Z</time></trkpt><trkpt lat="44.8353167" lon="9.232245"><ele>685.0</ele><time>2026-04-26T09:48:25.292Z</time></trkpt><trkpt lat="44.8352217" lon="9.2321283"><ele>686.0</ele><time>2026-04-26T09:48:26.291Z</time></trkpt><trkpt lat="44.8351333" lon="9.2319933"><ele>687.0</ele><time>2026-04-26T09:48:27.292Z</time></trkpt><trkpt lat="44.8350567" lon="9.2318283"><ele>688.0</ele><time>2026-04-26T09:48:28.291Z</time></trkpt><trkpt lat="44.8349867" lon="9.2316367"><ele>682.6666666666667</ele><time>2026-04-26T09:48:29.292Z</time></trkpt><trkpt lat="44.8349217" lon="9.23142"><ele>677.3333333333334</ele><time>2026-04-26T09:48:30.292Z</time></trkpt><trkpt lat="44.8348583" lon="9.231195"><ele>672.0</ele><time>2026-04-26T09:48:31.292Z</time></trkpt><trkpt lat="44.834795" lon="9.2309567"><ele>672.0</ele><time>2026-04-26T09:48:32.292Z</time></trkpt><trkpt lat="44.8347283" lon="9.2307083"><ele>672.0</ele><time>2026-04-26T09:48:33.292Z</time></trkpt><trkpt lat="44.834665" lon="9.2304517"><ele>672.0</ele><time>2026-04-26T09:48:34.292Z</time></trkpt><trkpt lat="44.8346" lon="9.230195"><ele>671.0</ele><time>2026-04-26T09:48:35.292Z</time></trkpt><trkpt lat="44.8345417" lon="9.2299467"><ele>670.0</ele><time>2026-04-26T09:48:36.292Z</time></trkpt><trkpt lat="44.834485" lon="9.2297033"><ele>669.0</ele><time>2026-04-26T09:48:37.292Z</time></trkpt><trkpt lat="44.8344317" lon="9.2294683"><ele>669.0</ele><time>2026-04-26T09:48:38.291Z</time></trkpt><trkpt lat="44.834375" lon="9.2292433"><ele>669.0</ele><time>2026-04-26T09:48:39.291Z</time></trkpt><trkpt lat="44.83432" lon="9.2290267"><ele>669.0</ele><time>2026-04-26T09:48:40.292Z</time></trkpt><trkpt lat="44.834265" lon="9.2288167"><ele>665.0</ele><time>2026-04-26T09:48:41.292Z</time></trkpt><trkpt lat="44.83421" lon="9.2286133"><ele>661.0</ele><time>2026-04-26T09:48:42.292Z</time></trkpt><trkpt lat="44.83416" lon="9.2284117"><ele>657.0</ele><time>2026-04-26T09:48:43.292Z</time></trkpt><trkpt lat="44.83411" lon="9.2282133"><ele>658.0</ele><time>2026-04-26T09:48:44.292Z</time></trkpt><trkpt lat="44.83406" lon="9.22802"><ele>659.0</ele><time>2026-04-26T09:48:45.292Z</time></trkpt><trkpt lat="44.834" lon="9.2278517"><ele>660.0</ele><time>2026-04-26T09:48:46.292Z</time></trkpt><trkpt lat="44.8339217" lon="9.2277083"><ele>661.0</ele><time>2026-04-26T09:48:47.292Z</time></trkpt><trkpt lat="44.8338283" lon="9.2275817"><ele>661.0</ele><time>2026-04-26T09:48:48.292Z</time></trkpt><trkpt lat="44.8337217" lon="9.227465"><ele>661.0</ele><time>2026-04-26T09:48:49.292Z</time></trkpt><trkpt lat="44.8336317" lon="9.227345"><ele>661.0</ele><time>2026-04-26T09:48:50.292Z</time></trkpt><trkpt lat="44.8335567" lon="9.2272033"><ele>661.0</ele><time>2026-04-26T09:48:51.292Z</time></trkpt><trkpt lat="44.8335033" lon="9.22703"><ele>658.75</ele><time>2026-04-26T09:48:52.291Z</time></trkpt><trkpt lat="44.8334633" lon="9.2268517"><ele>656.5</ele><time>2026-04-26T09:48:53.292Z</time></trkpt><trkpt lat="44.8334017" lon="9.226685"><ele>654.25</ele><time>2026-04-26T09:48:54.292Z</time></trkpt><trkpt lat="44.8333283" lon="9.2265283"><ele>652.0</ele><time>2026-04-26T09:48:55.291Z</time></trkpt><trkpt lat="44.8332433" lon="9.22638"><ele>652.0</ele><time>2026-04-26T09:48:56.292Z</time></trkpt><trkpt lat="44.8331517" lon="9.2262417"><ele>652.0</ele><time>2026-04-26T09:48:57.292Z</time></trkpt><trkpt lat="44.8330533" lon="9.2261133"><ele>652.0</ele><time>2026-04-26T09:48:58.292Z</time></trkpt><trkpt lat="44.832945" lon="9.2259917"><ele>652.0</ele><time>2026-04-26T09:48:59.292Z</time></trkpt><trkpt lat="44.8328317" lon="9.2258667"><ele>652.0</ele><time>2026-04-26T09:49:00.292Z</time></trkpt><trkpt lat="44.8327067" lon="9.2257433"><ele>652.0</ele><time>2026-04-26T09:49:01.292Z</time></trkpt><trkpt lat="44.8325833" lon="9.225615"><ele>652.0</ele><time>2026-04-26T09:49:02.292Z</time></trkpt><trkpt lat="44.832465" lon="9.225485"><ele>649.25</ele><time>2026-04-26T09:49:03.291Z</time></trkpt><trkpt lat="44.8323467" lon="9.2253567"><ele>646.5</ele><time>2026-04-26T09:49:04.292Z</time></trkpt><trkpt lat="44.832245" lon="9.2252133"><ele>643.75</ele><time>2026-04-26T09:49:05.291Z</time></trkpt><trkpt lat="44.8321533" lon="9.225055"><ele>641.0</ele><time>2026-04-26T09:49:06.292Z</time></trkpt><trkpt lat="44.8320767" lon="9.224875"><ele>641.25</ele><time>2026-04-26T09:49:07.292Z</time></trkpt><trkpt lat="44.8320017" lon="9.2246883"><ele>641.5</ele><time>2026-04-26T09:49:08.291Z</time></trkpt><trkpt lat="44.8319233" lon="9.2245133"><ele>641.75</ele><time>2026-04-26T09:49:09.292Z</time></trkpt><trkpt lat="44.8318433" lon="9.22434"><ele>642.0</ele><time>2026-04-26T09:49:10.292Z</time></trkpt><trkpt lat="44.83177" lon="9.2241717"><ele>638.75</ele><time>2026-04-26T09:49:11.292Z</time></trkpt><trkpt lat="44.8316967" lon="9.2240033"><ele>635.5</ele><time>2026-04-26T09:49:12.292Z</time></trkpt><trkpt lat="44.831625" lon="9.2238383"><ele>632.25</ele><time>2026-04-26T09:49:13.292Z</time></trkpt><trkpt lat="44.8315467" lon="9.2236767"><ele>629.0</ele><time>2026-04-26T09:49:14.292Z</time></trkpt><trkpt lat="44.8314533" lon="9.2235317"><ele>629.0</ele><time>2026-04-26T09:49:15.292Z</time></trkpt><trkpt lat="44.8313583" lon="9.2233983"><ele>629.0</ele><time>2026-04-26T09:49:16.292Z</time></trkpt><trkpt lat="44.831265" lon="9.2232967"><ele>629.0</ele><time>2026-04-26T09:49:17.292Z</time></trkpt><trkpt lat="44.8311767" lon="9.2232267"><ele>629.0</ele><time>2026-04-26T09:49:18.292Z</time></trkpt><trkpt lat="44.8310917" lon="9.22319"><ele>629.0</ele><time>2026-04-26T09:49:19.292Z</time></trkpt><trkpt lat="44.8309983" lon="9.2232017"><ele>626.0</ele><time>2026-04-26T09:49:20.292Z</time></trkpt><trkpt lat="44.8308983" lon="9.2232467"><ele>623.0</ele><time>2026-04-26T09:49:21.292Z</time></trkpt><trkpt lat="44.8307783" lon="9.2233167"><ele>620.0</ele><time>2026-04-26T09:49:22.292Z</time></trkpt><trkpt lat="44.83066" lon="9.22334"><ele>617.0</ele><time>2026-04-26T09:49:23.292Z</time></trkpt><trkpt lat="44.8305517" lon="9.2233017"><ele>617.0</ele><time>2026-04-26T09:49:24.291Z</time></trkpt><trkpt lat="44.8304533" lon="9.22321"><ele>617.0</ele><time>2026-04-26T09:49:25.292Z</time></trkpt><trkpt lat="44.8303767" lon="9.22306"><ele>617.0</ele><time>2026-04-26T09:49:26.292Z</time></trkpt><trkpt lat="44.830305" lon="9.222885"><ele>617.0</ele><time>2026-04-26T09:49:27.291Z</time></trkpt><trkpt lat="44.830225" lon="9.2226967"><ele>616.75</ele><time>2026-04-26T09:49:28.292Z</time></trkpt><trkpt lat="44.8301533" lon="9.2225383"><ele>616.5</ele><time>2026-04-26T09:49:29.292Z</time></trkpt><trkpt lat="44.8300733" lon="9.2224283"><ele>616.25</ele><time>2026-04-26T09:49:30.291Z</time></trkpt><trkpt lat="44.8299733" lon="9.2223483"><ele>616.0</ele><time>2026-04-26T09:49:31.292Z</time></trkpt><trkpt lat="44.8298583" lon="9.2223"><ele>617.25</ele><time>2026-04-26T09:49:32.291Z</time></trkpt><trkpt lat="44.8297433" lon="9.2222567"><ele>618.5</ele><time>2026-04-26T09:49:33.292Z</time></trkpt><trkpt lat="44.8296483" lon="9.2221867"><ele>619.75</ele><time>2026-04-26T09:49:34.292Z</time></trkpt><trkpt lat="44.8295683" lon="9.2220867"><ele>621.0</ele><time>2026-04-26T09:49:35.292Z</time></trkpt><trkpt lat="44.8295083" lon="9.2219433"><ele>621.0</ele><time>2026-04-26T09:49:36.292Z</time></trkpt><trkpt lat="44.829465" lon="9.2217917"><ele>621.0</ele><time>2026-04-26T09:49:37.292Z</time></trkpt><trkpt lat="44.8294233" lon="9.2216433"><ele>621.0</ele><time>2026-04-26T09:49:38.292Z</time></trkpt><trkpt lat="44.8293917" lon="9.2214983"><ele>621.0</ele><time>2026-04-26T09:49:39.292Z</time></trkpt><trkpt lat="44.829375" lon="9.2213467"><ele>621.0</ele><time>2026-04-26T09:49:40.291Z</time></trkpt><trkpt lat="44.8293783" lon="9.2212017"><ele>617.75</ele><time>2026-04-26T09:49:41.291Z</time></trkpt><trkpt lat="44.8294167" lon="9.2210567"><ele>614.5</ele><time>2026-04-26T09:49:42.292Z</time></trkpt><trkpt lat="44.8294817" lon="9.2209083"><ele>611.25</ele><time>2026-04-26T09:49:43.292Z</time></trkpt><trkpt lat="44.8295733" lon="9.2207567"><ele>608.0</ele><time>2026-04-26T09:49:44.291Z</time></trkpt><trkpt lat="44.8296683" lon="9.2206133"><ele>607.4</ele><time>2026-04-26T09:49:45.292Z</time></trkpt><trkpt lat="44.8297517" lon="9.2204583"><ele>606.8</ele><time>2026-04-26T09:49:46.292Z</time></trkpt><trkpt lat="44.8298117" lon="9.22032"><ele>606.2</ele><time>2026-04-26T09:49:47.292Z</time></trkpt><trkpt lat="44.829835" lon="9.2201717"><ele>605.6</ele><time>2026-04-26T09:49:48.291Z</time></trkpt><trkpt lat="44.829835" lon="9.220055"><ele>605.0</ele><time>2026-04-26T09:49:49.292Z</time></trkpt><trkpt lat="44.8298033" lon="9.2199333"><ele>605.0</ele><time>2026-04-26T09:49:50.292Z</time></trkpt><trkpt lat="44.82973" lon="9.2198217"><ele>605.0</ele><time>2026-04-26T09:49:51.292Z</time></trkpt><trkpt lat="44.8296017" lon="9.2197367"><ele>605.0</ele><time>2026-04-26T09:49:52.292Z</time></trkpt><trkpt lat="44.8294583" lon="9.2196483"><ele>605.0</ele><time>2026-04-26T09:49:53.292Z</time></trkpt><trkpt lat="44.8293183" lon="9.219545"><ele>602.25</ele><time>2026-04-26T09:49:54.292Z</time></trkpt><trkpt lat="44.8292033" lon="9.21946"><ele>599.5</ele><time>2026-04-26T09:49:55.292Z</time></trkpt><trkpt lat="44.829095" lon="9.219375"><ele>596.75</ele><time>2026-04-26T09:49:56.291Z</time></trkpt><trkpt lat="44.8289983" lon="9.2192817"><ele>594.0</ele><time>2026-04-26T09:49:57.292Z</time></trkpt><trkpt lat="44.828915" lon="9.2191583"><ele>594.0</ele><time>2026-04-26T09:49:58.292Z</time></trkpt><trkpt lat="44.8288467" lon="9.2190117"><ele>594.0</ele><time>2026-04-26T09:49:59.292Z</time></trkpt><trkpt lat="44.8287917" lon="9.2188617"><ele>594.0</ele><time>2026-04-26T09:50:00.292Z</time></trkpt><trkpt lat="44.82873" lon="9.2187233"><ele>594.0</ele><time>2026-04-26T09:50:01.292Z</time></trkpt><trkpt lat="44.8286517" lon="9.2186017"><ele>592.5</ele><time>2026-04-26T09:50:02.292Z</time></trkpt><trkpt lat="44.8285517" lon="9.2185"><ele>591.0</ele><time>2026-04-26T09:50:03.292Z</time></trkpt><trkpt lat="44.8284317" lon="9.2184167"><ele>589.5</ele><time>2026-04-26T09:50:04.292Z</time></trkpt><trkpt lat="44.8283033" lon="9.2183383"><ele>588.0</ele><time>2026-04-26T09:50:05.292Z</time></trkpt><trkpt lat="44.8281783" lon="9.2182583"><ele>588.0</ele><time>2026-04-26T09:50:06.292Z</time></trkpt><trkpt lat="44.8280583" lon="9.218175"><ele>588.0</ele><time>2026-04-26T09:50:07.292Z</time></trkpt><trkpt lat="44.8279483" lon="9.2180967"><ele>588.0</ele><time>2026-04-26T09:50:08.292Z</time></trkpt><trkpt lat="44.8278417" lon="9.218025"><ele>588.0</ele><time>2026-04-26T09:50:09.292Z</time></trkpt><trkpt lat="44.82773" lon="9.2179683"><ele>588.0</ele><time>2026-04-26T09:50:10.292Z</time></trkpt><trkpt lat="44.82761" lon="9.2179367"><ele>588.0</ele><time>2026-04-26T09:50:11.292Z</time></trkpt><trkpt lat="44.8274767" lon="9.2179333"><ele>588.0</ele><time>2026-04-26T09:50:12.292Z</time></trkpt><trkpt lat="44.8273417" lon="9.2179367"><ele>588.0</ele><time>2026-04-26T09:50:13.292Z</time></trkpt><trkpt lat="44.82721" lon="9.217945"><ele>588.0</ele><time>2026-04-26T09:50:14.292Z</time></trkpt><trkpt lat="44.8270817" lon="9.2179467"><ele>588.0</ele><time>2026-04-26T09:50:15.292Z</time></trkpt><trkpt lat="44.8269567" lon="9.217935"><ele>588.0</ele><time>2026-04-26T09:50:16.292Z</time></trkpt><trkpt lat="44.8268283" lon="9.2179117"><ele>588.0</ele><time>2026-04-26T09:50:17.292Z</time></trkpt><trkpt lat="44.826705" lon="9.21788"><ele>585.5</ele><time>2026-04-26T09:50:18.292Z</time></trkpt><trkpt lat="44.8265833" lon="9.217845"><ele>583.0</ele><time>2026-04-26T09:50:19.292Z</time></trkpt><trkpt lat="44.82647" lon="9.2178167"><ele>580.5</ele><time>2026-04-26T09:50:20.292Z</time></trkpt><trkpt lat="44.82636" lon="9.2177833"><ele>578.0</ele><time>2026-04-26T09:50:21.292Z</time></trkpt><trkpt lat="44.8262567" lon="9.2177533"><ele>578.0</ele><time>2026-04-26T09:50:22.292Z</time></trkpt><trkpt lat="44.8261517" lon="9.2177067"><ele>578.0</ele><time>2026-04-26T09:50:23.292Z</time></trkpt><trkpt lat="44.8260333" lon="9.2176517"><ele>578.0</ele><time>2026-04-26T09:50:24.292Z</time></trkpt><trkpt lat="44.8259233" lon="9.217585"><ele>578.0</ele><time>2026-04-26T09:50:25.292Z</time></trkpt><trkpt lat="44.825815" lon="9.21751"><ele>576.6</ele><time>2026-04-26T09:50:26.292Z</time></trkpt><trkpt lat="44.8257083" lon="9.2174283"><ele>575.1999999999999</ele><time>2026-04-26T09:50:27.292Z</time></trkpt><trkpt lat="44.8256233" lon="9.2173567"><ele>573.8</ele><time>2026-04-26T09:50:28.292Z</time></trkpt><trkpt lat="44.82556" lon="9.2172867"><ele>572.4</ele><time>2026-04-26T09:50:29.292Z</time></trkpt><trkpt lat="44.8255183" lon="9.2172033"><ele>571.0</ele><time>2026-04-26T09:50:30.292Z</time></trkpt><trkpt lat="44.8255067" lon="9.21709"><ele>571.0</ele><time>2026-04-26T09:50:31.292Z</time></trkpt><trkpt lat="44.8255167" lon="9.2169583"><ele>571.0</ele><time>2026-04-26T09:50:32.292Z</time></trkpt><trkpt lat="44.8255467" lon="9.2168117"><ele>571.0</ele><time>2026-04-26T09:50:33.292Z</time></trkpt><trkpt lat="44.8255833" lon="9.2166617"><ele>571.0</ele><time>2026-04-26T09:50:34.292Z</time></trkpt><trkpt lat="44.82562" lon="9.2165167"><ele>571.0</ele><time>2026-04-26T09:50:35.292Z</time></trkpt><trkpt lat="44.8256517" lon="9.2163767"><ele>571.0</ele><time>2026-04-26T09:50:36.292Z</time></trkpt><trkpt lat="44.82567" lon="9.2162433"><ele>571.0</ele><time>2026-04-26T09:50:37.292Z</time></trkpt><trkpt lat="44.8256717" lon="9.2161133"><ele>571.0</ele><time>2026-04-26T09:50:38.292Z</time></trkpt><trkpt lat="44.8256667" lon="9.2159833"><ele>571.0</ele><time>2026-04-26T09:50:39.292Z</time></trkpt><trkpt lat="44.825645" lon="9.21584"><ele>571.0</ele><time>2026-04-26T09:50:40.292Z</time></trkpt><trkpt lat="44.82562" lon="9.2156917"><ele>571.0</ele><time>2026-04-26T09:50:41.292Z</time></trkpt><trkpt lat="44.8255833" lon="9.2155417"><ele>571.0</ele><time>2026-04-26T09:50:42.292Z</time></trkpt><trkpt lat="44.825535" lon="9.2154017"><ele>571.0</ele><time>2026-04-26T09:50:43.292Z</time></trkpt><trkpt lat="44.8254867" lon="9.2152717"><ele>571.0</ele><time>2026-04-26T09:50:44.292Z</time></trkpt><trkpt lat="44.8254383" lon="9.2151683"><ele>571.0</ele><time>2026-04-26T09:50:45.292Z</time></trkpt><trkpt lat="44.8253733" lon="9.215105"><ele>571.0</ele><time>2026-04-26T09:50:46.292Z</time></trkpt><trkpt lat="44.8252883" lon="9.2150817"><ele>571.0</ele><time>2026-04-26T09:50:47.292Z</time></trkpt><trkpt lat="44.8251917" lon="9.215085"><ele>571.0</ele><time>2026-04-26T09:50:48.292Z</time></trkpt><trkpt lat="44.825085" lon="9.2150717"><ele>571.0</ele><time>2026-04-26T09:50:49.292Z</time></trkpt><trkpt lat="44.8249667" lon="9.2150467"><ele>571.0</ele><time>2026-04-26T09:50:50.292Z</time></trkpt><trkpt lat="44.8248433" lon="9.2150117"><ele>567.0</ele><time>2026-04-26T09:50:51.292Z</time></trkpt><trkpt lat="44.8247017" lon="9.2150083"><ele>563.0</ele><time>2026-04-26T09:50:52.292Z</time></trkpt><trkpt lat="44.8245433" lon="9.2150233"><ele>559.0</ele><time>2026-04-26T09:50:53.292Z</time></trkpt><trkpt lat="44.8242067" lon="9.2150283"><ele>556.6666666666667</ele><time>2026-04-26T09:50:55.292Z</time></trkpt><trkpt lat="44.82404" lon="9.215025"><ele>554.3333333333334</ele><time>2026-04-26T09:50:56.292Z</time></trkpt><trkpt lat="44.8238967" lon="9.21502"><ele>552.0</ele><time>2026-04-26T09:50:57.292Z</time></trkpt><trkpt lat="44.823755" lon="9.2150067"><ele>552.0</ele><time>2026-04-26T09:50:58.292Z</time></trkpt><trkpt lat="44.8236217" lon="9.2149733"><ele>552.0</ele><time>2026-04-26T09:50:59.292Z</time></trkpt><trkpt lat="44.823495" lon="9.214905"><ele>552.0</ele><time>2026-04-26T09:51:00.292Z</time></trkpt><trkpt lat="44.8232767" lon="9.2147"><ele>552.0</ele><time>2026-04-26T09:51:02.292Z</time></trkpt><trkpt lat="44.8231817" lon="9.2145883"><ele>552.0</ele><time>2026-04-26T09:51:03.291Z</time></trkpt><trkpt lat="44.8231" lon="9.2144883"><ele>552.0</ele><time>2026-04-26T09:51:04.292Z</time></trkpt><trkpt lat="44.82299" lon="9.21424"><ele>552.0</ele><time>2026-04-26T09:51:06.292Z</time></trkpt><trkpt lat="44.8229617" lon="9.2140883"><ele>550.75</ele><time>2026-04-26T09:51:07.292Z</time></trkpt><trkpt lat="44.8229533" lon="9.2139317"><ele>549.5</ele><time>2026-04-26T09:51:08.292Z</time></trkpt><trkpt lat="44.8229567" lon="9.2137667"><ele>548.25</ele><time>2026-04-26T09:51:09.291Z</time></trkpt><trkpt lat="44.8229733" lon="9.21359"><ele>547.0</ele><time>2026-04-26T09:51:10.292Z</time></trkpt><trkpt lat="44.8229967" lon="9.213405"><ele>547.0</ele><time>2026-04-26T09:51:11.292Z</time></trkpt><trkpt lat="44.823015" lon="9.21322"><ele>547.0</ele><time>2026-04-26T09:51:12.292Z</time></trkpt><trkpt lat="44.8230167" lon="9.21304"><ele>547.0</ele><time>2026-04-26T09:51:13.292Z</time></trkpt><trkpt lat="44.82301" lon="9.212885"><ele>547.0</ele><time>2026-04-26T09:51:14.292Z</time></trkpt><trkpt lat="44.8229867" lon="9.2127233"><ele>544.5</ele><time>2026-04-26T09:51:15.292Z</time></trkpt><trkpt lat="44.8229483" lon="9.21256"><ele>542.0</ele><time>2026-04-26T09:51:16.291Z</time></trkpt><trkpt lat="44.8228867" lon="9.2124133"><ele>539.5</ele><time>2026-04-26T09:51:17.292Z</time></trkpt><trkpt lat="44.82281" lon="9.2122867"><ele>537.0</ele><time>2026-04-26T09:51:18.292Z</time></trkpt><trkpt lat="44.8226167" lon="9.2120817"><ele>536.5</ele><time>2026-04-26T09:51:20.292Z</time></trkpt><trkpt lat="44.8225033" lon="9.2119867"><ele>536.0</ele><time>2026-04-26T09:51:21.292Z</time></trkpt><trkpt lat="44.8223883" lon="9.2118917"><ele>535.5</ele><time>2026-04-26T09:51:22.292Z</time></trkpt><trkpt lat="44.8222783" lon="9.2118"><ele>535.0</ele><time>2026-04-26T09:51:23.292Z</time></trkpt><trkpt lat="44.82218" lon="9.2117033"><ele>535.0</ele><time>2026-04-26T09:51:24.292Z</time></trkpt><trkpt lat="44.8220933" lon="9.2116033"><ele>535.0</ele><time>2026-04-26T09:51:25.292Z</time></trkpt><trkpt lat="44.82201" lon="9.2115033"><ele>535.0</ele><time>2026-04-26T09:51:26.292Z</time></trkpt><trkpt lat="44.821865" lon="9.2112933"><ele>535.0</ele><time>2026-04-26T09:51:28.292Z</time></trkpt><trkpt lat="44.8218183" lon="9.2111817"><ele>534.0</ele><time>2026-04-26T09:51:29.291Z</time></trkpt><trkpt lat="44.8218083" lon="9.21106"><ele>533.0</ele><time>2026-04-26T09:51:30.292Z</time></trkpt><trkpt lat="44.8218217" lon="9.2109417"><ele>532.0</ele><time>2026-04-26T09:51:31.292Z</time></trkpt><trkpt lat="44.8218617" lon="9.21082"><ele>531.0</ele><time>2026-04-26T09:51:32.292Z</time></trkpt><trkpt lat="44.8219367" lon="9.2107017"><ele>530.0</ele><time>2026-04-26T09:51:33.292Z</time></trkpt><trkpt lat="44.8220867" lon="9.21058"><ele>526.0</ele><time>2026-04-26T09:51:34.292Z</time></trkpt><trkpt lat="44.8222217" lon="9.2104633"><ele>522.0</ele><time>2026-04-26T09:51:35.292Z</time></trkpt><trkpt lat="44.8223567" lon="9.2103517"><ele>518.0</ele><time>2026-04-26T09:51:36.292Z</time></trkpt><trkpt lat="44.8224833" lon="9.210265"><ele>518.0</ele><time>2026-04-26T09:51:37.292Z</time></trkpt><trkpt lat="44.82259" lon="9.2101933"><ele>518.0</ele><time>2026-04-26T09:51:38.292Z</time></trkpt><trkpt lat="44.822685" lon="9.210155"><ele>518.0</ele><time>2026-04-26T09:51:39.292Z</time></trkpt><trkpt lat="44.822775" lon="9.2101617"><ele>518.0</ele><time>2026-04-26T09:51:40.292Z</time></trkpt><trkpt lat="44.822865" lon="9.2101917"><ele>518.0</ele><time>2026-04-26T09:51:41.292Z</time></trkpt><trkpt lat="44.8229467" lon="9.210275"><ele>518.5</ele><time>2026-04-26T09:51:42.291Z</time></trkpt><trkpt lat="44.8230117" lon="9.2104183"><ele>519.0</ele><time>2026-04-26T09:51:43.292Z</time></trkpt><trkpt lat="44.823065" lon="9.2106083"><ele>519.5</ele><time>2026-04-26T09:51:44.292Z</time></trkpt><trkpt lat="44.8231133" lon="9.2107933"><ele>520.0</ele><time>2026-04-26T09:51:45.292Z</time></trkpt><trkpt lat="44.8231833" lon="9.210945"><ele>520.0</ele><time>2026-04-26T09:51:46.292Z</time></trkpt><trkpt lat="44.82325" lon="9.21108"><ele>520.0</ele><time>2026-04-26T09:51:47.292Z</time></trkpt><trkpt lat="44.8233133" lon="9.2111983"><ele>520.0</ele><time>2026-04-26T09:51:48.291Z</time></trkpt><trkpt lat="44.8233883" lon="9.2113083"><ele>520.0</ele><time>2026-04-26T09:51:49.292Z</time></trkpt><trkpt lat="44.8234783" lon="9.2114017"><ele>520.0</ele><time>2026-04-26T09:51:50.292Z</time></trkpt><trkpt lat="44.8235867" lon="9.211475"><ele>520.75</ele><time>2026-04-26T09:51:51.292Z</time></trkpt><trkpt lat="44.8237067" lon="9.2115283"><ele>521.5</ele><time>2026-04-26T09:51:52.292Z</time></trkpt><trkpt lat="44.8238283" lon="9.2115533"><ele>522.25</ele><time>2026-04-26T09:51:53.292Z</time></trkpt><trkpt lat="44.8239467" lon="9.2115517"><ele>523.0</ele><time>2026-04-26T09:51:54.292Z</time></trkpt><trkpt lat="44.8240683" lon="9.2115367"><ele>523.0</ele><time>2026-04-26T09:51:55.292Z</time></trkpt><trkpt lat="44.8241833" lon="9.2114967"><ele>523.0</ele><time>2026-04-26T09:51:56.292Z</time></trkpt><trkpt lat="44.8243017" lon="9.2114217"><ele>523.0</ele><time>2026-04-26T09:51:57.292Z</time></trkpt><trkpt lat="44.8244133" lon="9.2113217"><ele>523.0</ele><time>2026-04-26T09:51:58.292Z</time></trkpt><trkpt lat="44.8245133" lon="9.2111933"><ele>522.0</ele><time>2026-04-26T09:51:59.292Z</time></trkpt><trkpt lat="44.8245983" lon="9.2110383"><ele>521.0</ele><time>2026-04-26T09:52:00.292Z</time></trkpt><trkpt lat="44.8247767" lon="9.2107167"><ele>520.0</ele><time>2026-04-26T09:52:02.291Z</time></trkpt><trkpt lat="44.824875" lon="9.2105917"><ele>517.0</ele><time>2026-04-26T09:52:03.292Z</time></trkpt><trkpt lat="44.8250817" lon="9.2103517"><ele>514.0</ele><time>2026-04-26T09:52:05.292Z</time></trkpt><trkpt lat="44.825195" lon="9.2102283"><ele>511.0</ele><time>2026-04-26T09:52:06.292Z</time></trkpt><trkpt lat="44.825305" lon="9.21011"><ele>510.25</ele><time>2026-04-26T09:52:07.292Z</time></trkpt><trkpt lat="44.82541" lon="9.2099867"><ele>509.5</ele><time>2026-04-26T09:52:08.292Z</time></trkpt><trkpt lat="44.8255033" lon="9.2098633"><ele>508.75</ele><time>2026-04-26T09:52:09.292Z</time></trkpt><trkpt lat="44.8255817" lon="9.2097383"><ele>508.0</ele><time>2026-04-26T09:52:10.292Z</time></trkpt><trkpt lat="44.8256417" lon="9.2096167"><ele>507.2</ele><time>2026-04-26T09:52:11.292Z</time></trkpt><trkpt lat="44.8256833" lon="9.2094833"><ele>506.4</ele><time>2026-04-26T09:52:12.292Z</time></trkpt><trkpt lat="44.8257217" lon="9.2093433"><ele>505.59999999999997</ele><time>2026-04-26T09:52:13.292Z</time></trkpt><trkpt lat="44.8257533" lon="9.2091883"><ele>504.79999999999995</ele><time>2026-04-26T09:52:14.292Z</time></trkpt><trkpt lat="44.8257683" lon="9.2090233"><ele>504.0</ele><time>2026-04-26T09:52:15.292Z</time></trkpt><trkpt lat="44.8257617" lon="9.2088683"><ele>502.2</ele><time>2026-04-26T09:52:16.292Z</time></trkpt><trkpt lat="44.8257433" lon="9.2087267"><ele>500.4</ele><time>2026-04-26T09:52:17.292Z</time></trkpt><trkpt lat="44.825705" lon="9.2086017"><ele>498.6</ele><time>2026-04-26T09:52:18.291Z</time></trkpt><trkpt lat="44.82565" lon="9.2084983"><ele>496.8</ele><time>2026-04-26T09:52:19.292Z</time></trkpt><trkpt lat="44.825575" lon="9.20843"><ele>495.0</ele><time>2026-04-26T09:52:20.292Z</time></trkpt><trkpt lat="44.8254783" lon="9.208395"><ele>495.0</ele><time>2026-04-26T09:52:21.292Z</time></trkpt><trkpt lat="44.825355" lon="9.2084067"><ele>495.0</ele><time>2026-04-26T09:52:22.292Z</time></trkpt><trkpt lat="44.825205" lon="9.20846"><ele>495.0</ele><time>2026-04-26T09:52:23.291Z</time></trkpt><trkpt lat="44.8250617" lon="9.2085333"><ele>495.0</ele><time>2026-04-26T09:52:24.292Z</time></trkpt><trkpt lat="44.8249317" lon="9.2086233"><ele>494.5</ele><time>2026-04-26T09:52:25.292Z</time></trkpt><trkpt lat="44.824815" lon="9.2087233"><ele>494.0</ele><time>2026-04-26T09:52:26.292Z</time></trkpt><trkpt lat="44.82471" lon="9.2088283"><ele>493.5</ele><time>2026-04-26T09:52:27.292Z</time></trkpt><trkpt lat="44.8246017" lon="9.2089217"><ele>493.0</ele><time>2026-04-26T09:52:28.292Z</time></trkpt><trkpt lat="44.824495" lon="9.2089833"><ele>492.59999999999997</ele><time>2026-04-26T09:52:29.292Z</time></trkpt><trkpt lat="44.8243917" lon="9.209005"><ele>492.19999999999993</ele><time>2026-04-26T09:52:30.292Z</time></trkpt><trkpt lat="44.8242967" lon="9.20898"><ele>491.8</ele><time>2026-04-26T09:52:31.292Z</time></trkpt><trkpt lat="44.8242117" lon="9.2088967"><ele>491.4</ele><time>2026-04-26T09:52:32.292Z</time></trkpt><trkpt lat="44.824135" lon="9.2087617"><ele>491.0</ele><time>2026-04-26T09:52:33.292Z</time></trkpt><trkpt lat="44.8240583" lon="9.2086183"><ele>491.0</ele><time>2026-04-26T09:52:34.291Z</time></trkpt><trkpt lat="44.823985" lon="9.2084817"><ele>491.0</ele><time>2026-04-26T09:52:35.292Z</time></trkpt><trkpt lat="44.82391" lon="9.2083583"><ele>491.0</ele><time>2026-04-26T09:52:36.292Z</time></trkpt><trkpt lat="44.8238367" lon="9.2082383"><ele>491.0</ele><time>2026-04-26T09:52:37.292Z</time></trkpt><trkpt lat="44.8237483" lon="9.208125"><ele>489.0</ele><time>2026-04-26T09:52:38.292Z</time></trkpt><trkpt lat="44.8236383" lon="9.208025"><ele>487.0</ele><time>2026-04-26T09:52:39.292Z</time></trkpt><trkpt lat="44.8235217" lon="9.2079317"><ele>485.0</ele><time>2026-04-26T09:52:40.292Z</time></trkpt><trkpt lat="44.8234017" lon="9.20782"><ele>483.0</ele><time>2026-04-26T09:52:41.292Z</time></trkpt><trkpt lat="44.8233083" lon="9.2076883"><ele>483.0</ele><time>2026-04-26T09:52:42.292Z</time></trkpt><trkpt lat="44.82322" lon="9.2075583"><ele>482.99999999999994</ele><time>2026-04-26T09:52:43.292Z</time></trkpt><trkpt lat="44.8231367" lon="9.2074367"><ele>482.99999999999994</ele><time>2026-04-26T09:52:44.292Z</time></trkpt><trkpt lat="44.823065" lon="9.2073333"><ele>483.0</ele><time>2026-04-26T09:52:45.292Z</time></trkpt><trkpt lat="44.82301" lon="9.2072417"><ele>483.0</ele><time>2026-04-26T09:52:46.292Z</time></trkpt><trkpt lat="44.8229833" lon="9.207155"><ele>480.5</ele><time>2026-04-26T09:52:47.292Z</time></trkpt><trkpt lat="44.8230033" lon="9.20701"><ele>478.0</ele><time>2026-04-26T09:52:49.292Z</time></trkpt><trkpt lat="44.8231133" lon="9.2069583"><ele>475.5</ele><time>2026-04-26T09:52:51.292Z</time></trkpt><trkpt lat="44.8231983" lon="9.2069733"><ele>473.0</ele><time>2026-04-26T09:52:52.292Z</time></trkpt><trkpt lat="44.823335" lon="9.2070433"><ele>472.0</ele><time>2026-04-26T09:52:53.292Z</time></trkpt><trkpt lat="44.8235217" lon="9.20715"><ele>471.0</ele><time>2026-04-26T09:52:54.292Z</time></trkpt><trkpt lat="44.8237183" lon="9.20724"><ele>470.0</ele><time>2026-04-26T09:52:55.292Z</time></trkpt><trkpt lat="44.8238717" lon="9.20727"><ele>470.0</ele><time>2026-04-26T09:52:56.292Z</time></trkpt><trkpt lat="44.823995" lon="9.2072733"><ele>470.0</ele><time>2026-04-26T09:52:57.292Z</time></trkpt><trkpt lat="44.8241017" lon="9.207255"><ele>470.0</ele><time>2026-04-26T09:52:58.292Z</time></trkpt><trkpt lat="44.8241917" lon="9.2072167"><ele>470.0</ele><time>2026-04-26T09:52:59.292Z</time></trkpt><trkpt lat="44.8242717" lon="9.2071633"><ele>470.0</ele><time>2026-04-26T09:53:00.292Z</time></trkpt><trkpt lat="44.82433" lon="9.2070817"><ele>470.6</ele><time>2026-04-26T09:53:01.292Z</time></trkpt><trkpt lat="44.8243733" lon="9.2069733"><ele>471.2</ele><time>2026-04-26T09:53:02.292Z</time></trkpt><trkpt lat="44.8243983" lon="9.2068367"><ele>471.79999999999995</ele><time>2026-04-26T09:53:03.292Z</time></trkpt><trkpt lat="44.8244317" lon="9.2066967"><ele>472.4</ele><time>2026-04-26T09:53:04.292Z</time></trkpt><trkpt lat="44.82448" lon="9.206565"><ele>473.0</ele><time>2026-04-26T09:53:05.292Z</time></trkpt><trkpt lat="44.8245317" lon="9.206445"><ele>470.59999999999997</ele><time>2026-04-26T09:53:06.292Z</time></trkpt><trkpt lat="44.8245667" lon="9.2063383"><ele>468.19999999999993</ele><time>2026-04-26T09:53:07.292Z</time></trkpt><trkpt lat="44.82458" lon="9.2062433"><ele>465.8</ele><time>2026-04-26T09:53:08.292Z</time></trkpt><trkpt lat="44.8245367" lon="9.206105"><ele>463.4</ele><time>2026-04-26T09:53:10.292Z</time></trkpt><trkpt lat="44.8244433" lon="9.206075"><ele>461.0</ele><time>2026-04-26T09:53:11.292Z</time></trkpt><trkpt lat="44.824315" lon="9.2060433"><ele>461.4</ele><time>2026-04-26T09:53:12.292Z</time></trkpt><trkpt lat="44.8242083" lon="9.2060083"><ele>461.8</ele><time>2026-04-26T09:53:13.292Z</time></trkpt><trkpt lat="44.824125" lon="9.2059467"><ele>462.19999999999993</ele><time>2026-04-26T09:53:14.292Z</time></trkpt><trkpt lat="44.8240617" lon="9.205855"><ele>462.59999999999997</ele><time>2026-04-26T09:53:15.292Z</time></trkpt><trkpt lat="44.8240133" lon="9.205735"><ele>463.0</ele><time>2026-04-26T09:53:16.292Z</time></trkpt><trkpt lat="44.8239817" lon="9.2055983"><ele>461.59999999999997</ele><time>2026-04-26T09:53:17.292Z</time></trkpt><trkpt lat="44.8239483" lon="9.20547"><ele>460.19999999999993</ele><time>2026-04-26T09:53:18.292Z</time></trkpt><trkpt lat="44.823905" lon="9.205365"><ele>458.8</ele><time>2026-04-26T09:53:19.292Z</time></trkpt><trkpt lat="44.8238367" lon="9.2052833"><ele>457.4</ele><time>2026-04-26T09:53:20.292Z</time></trkpt><trkpt lat="44.8237333" lon="9.2052467"><ele>456.0</ele><time>2026-04-26T09:53:21.292Z</time></trkpt><trkpt lat="44.8235983" lon="9.20524"><ele>455.0</ele><time>2026-04-26T09:53:22.292Z</time></trkpt><trkpt lat="44.8234767" lon="9.2052267"><ele>454.0</ele><time>2026-04-26T09:53:23.292Z</time></trkpt><trkpt lat="44.8233733" lon="9.205195"><ele>453.0</ele><time>2026-04-26T09:53:24.292Z</time></trkpt><trkpt lat="44.8232733" lon="9.2051683"><ele>452.0</ele><time>2026-04-26T09:53:25.292Z</time></trkpt><trkpt lat="44.8231733" lon="9.205165"><ele>451.0</ele><time>2026-04-26T09:53:26.292Z</time></trkpt><trkpt lat="44.82307" lon="9.2051967"><ele>451.0</ele><time>2026-04-26T09:53:27.292Z</time></trkpt><trkpt lat="44.8229667" lon="9.2052667"><ele>451.0</ele><time>2026-04-26T09:53:28.292Z</time></trkpt><trkpt lat="44.822875" lon="9.205375"><ele>451.0</ele><time>2026-04-26T09:53:29.292Z</time></trkpt><trkpt lat="44.8227883" lon="9.2055217"><ele>451.0</ele><time>2026-04-26T09:53:30.292Z</time></trkpt><trkpt lat="44.8226983" lon="9.2056833"><ele>450.75</ele><time>2026-04-26T09:53:31.292Z</time></trkpt><trkpt lat="44.8226117" lon="9.2058417"><ele>450.5</ele><time>2026-04-26T09:53:32.292Z</time></trkpt><trkpt lat="44.8225283" lon="9.2059883"><ele>450.25</ele><time>2026-04-26T09:53:33.292Z</time></trkpt><trkpt lat="44.8224467" lon="9.20612"><ele>450.0</ele><time>2026-04-26T09:53:34.292Z</time></trkpt><trkpt lat="44.8223683" lon="9.20623"><ele>450.0</ele><time>2026-04-26T09:53:35.292Z</time></trkpt><trkpt lat="44.822275" lon="9.2063233"><ele>450.0</ele><time>2026-04-26T09:53:36.292Z</time></trkpt><trkpt lat="44.82217" lon="9.20639"><ele>450.0</ele><time>2026-04-26T09:53:37.292Z</time></trkpt><trkpt lat="44.8220617" lon="9.2064517"><ele>450.0</ele><time>2026-04-26T09:53:38.292Z</time></trkpt><trkpt lat="44.8219583" lon="9.2065233"><ele>448.75</ele><time>2026-04-26T09:53:39.292Z</time></trkpt><trkpt lat="44.821865" lon="9.2066167"><ele>447.5</ele><time>2026-04-26T09:53:40.292Z</time></trkpt><trkpt lat="44.82177" lon="9.2067267"><ele>446.25</ele><time>2026-04-26T09:53:41.292Z</time></trkpt><trkpt lat="44.8216717" lon="9.206855"><ele>445.0</ele><time>2026-04-26T09:53:42.292Z</time></trkpt><trkpt lat="44.8215733" lon="9.206985"><ele>445.0</ele><time>2026-04-26T09:53:43.292Z</time></trkpt><trkpt lat="44.8214783" lon="9.207105"><ele>445.0</ele><time>2026-04-26T09:53:44.292Z</time></trkpt><trkpt lat="44.8213967" lon="9.207215"><ele>445.0</ele><time>2026-04-26T09:53:45.292Z</time></trkpt><trkpt lat="44.8213283" lon="9.207295"><ele>445.0</ele><time>2026-04-26T09:53:46.292Z</time></trkpt><trkpt lat="44.8212617" lon="9.20735"><ele>445.0</ele><time>2026-04-26T09:53:47.292Z</time></trkpt><trkpt lat="44.8211433" lon="9.2073433"><ele>445.0</ele><time>2026-04-26T09:53:49.292Z</time></trkpt><trkpt lat="44.82111" lon="9.2072033"><ele>445.0</ele><time>2026-04-26T09:53:51.292Z</time></trkpt><trkpt lat="44.82114" lon="9.2070867"><ele>445.0</ele><time>2026-04-26T09:53:52.292Z</time></trkpt><trkpt lat="44.8212083" lon="9.2069467"><ele>445.0</ele><time>2026-04-26T09:53:53.292Z</time></trkpt><trkpt lat="44.8213017" lon="9.2067983"><ele>445.0</ele><time>2026-04-26T09:53:54.292Z</time></trkpt><trkpt lat="44.8214217" lon="9.2066267"><ele>445.0</ele><time>2026-04-26T09:53:55.291Z</time></trkpt><trkpt lat="44.8215167" lon="9.2064617"><ele>445.0</ele><time>2026-04-26T09:53:56.292Z</time></trkpt><trkpt lat="44.8216067" lon="9.2063"><ele>446.25</ele><time>2026-04-26T09:53:57.292Z</time></trkpt><trkpt lat="44.8216967" lon="9.2061533"><ele>447.5</ele><time>2026-04-26T09:53:58.292Z</time></trkpt><trkpt lat="44.82178" lon="9.2060117"><ele>448.75</ele><time>2026-04-26T09:53:59.292Z</time></trkpt><trkpt lat="44.8218417" lon="9.2058833"><ele>450.0</ele><time>2026-04-26T09:54:00.292Z</time></trkpt><trkpt lat="44.821885" lon="9.2057417"><ele>447.5</ele><time>2026-04-26T09:54:01.292Z</time></trkpt><trkpt lat="44.821895" lon="9.2055683"><ele>445.0</ele><time>2026-04-26T09:54:02.292Z</time></trkpt><trkpt lat="44.8218983" lon="9.2053933"><ele>442.5</ele><time>2026-04-26T09:54:03.292Z</time></trkpt><trkpt lat="44.8219083" lon="9.2052183"><ele>440.0</ele><time>2026-04-26T09:54:04.292Z</time></trkpt><trkpt lat="44.8219367" lon="9.2050533"><ele>440.0</ele><time>2026-04-26T09:54:05.292Z</time></trkpt><trkpt lat="44.8219767" lon="9.2048917"><ele>440.0</ele><time>2026-04-26T09:54:06.292Z</time></trkpt><trkpt lat="44.8220233" lon="9.2047333"><ele>440.0</ele><time>2026-04-26T09:54:07.292Z</time></trkpt><trkpt lat="44.8220667" lon="9.204575"><ele>440.0</ele><time>2026-04-26T09:54:08.291Z</time></trkpt><trkpt lat="44.8221017" lon="9.2044183"><ele>437.75</ele><time>2026-04-26T09:54:09.292Z</time></trkpt><trkpt lat="44.8221383" lon="9.2042583"><ele>435.5</ele><time>2026-04-26T09:54:10.292Z</time></trkpt><trkpt lat="44.822175" lon="9.2041033"><ele>433.25</ele><time>2026-04-26T09:54:11.292Z</time></trkpt><trkpt lat="44.8221983" lon="9.2039433"><ele>431.0</ele><time>2026-04-26T09:54:12.292Z</time></trkpt><trkpt lat="44.82222" lon="9.203805"><ele>429.66666666666663</ele><time>2026-04-26T09:54:13.292Z</time></trkpt><trkpt lat="44.822245" lon="9.2036883"><ele>428.3333333333333</ele><time>2026-04-26T09:54:14.292Z</time></trkpt><trkpt lat="44.822265" lon="9.2035883"><ele>427.0</ele><time>2026-04-26T09:54:15.292Z</time></trkpt><trkpt lat="44.8222633" lon="9.2034783"><ele>425.66666666666663</ele><time>2026-04-26T09:54:17.292Z</time></trkpt><trkpt lat="44.8222717" lon="9.2033667"><ele>424.3333333333333</ele><time>2026-04-26T09:54:30.292Z</time></trkpt><trkpt lat="44.82222" lon="9.203235"><ele>423.0</ele><time>2026-04-26T09:54:46.292Z</time></trkpt><trkpt lat="44.8222367" lon="9.2030817"><ele>423.0</ele><time>2026-04-26T09:54:48.292Z</time></trkpt><trkpt lat="44.8222567" lon="9.2029883"><ele>423.0</ele><time>2026-04-26T09:54:49.292Z</time></trkpt><trkpt lat="44.822285" lon="9.2028733"><ele>423.0</ele><time>2026-04-26T09:54:50.292Z</time></trkpt><trkpt lat="44.822325" lon="9.2027283"><ele>423.0</ele><time>2026-04-26T09:54:51.292Z</time></trkpt><trkpt lat="44.8223817" lon="9.20255"><ele>423.0</ele><time>2026-04-26T09:54:52.292Z</time></trkpt><trkpt lat="44.8224417" lon="9.2023517"><ele>422.25</ele><time>2026-04-26T09:54:53.292Z</time></trkpt><trkpt lat="44.8225" lon="9.2021733"><ele>421.5</ele><time>2026-04-26T09:54:54.292Z</time></trkpt><trkpt lat="44.8225567" lon="9.202"><ele>420.75</ele><time>2026-04-26T09:54:55.292Z</time></trkpt><trkpt lat="44.8226083" lon="9.2018467"><ele>420.0</ele><time>2026-04-26T09:54:56.292Z</time></trkpt><trkpt lat="44.82264" lon="9.2017"><ele>419.8</ele><time>2026-04-26T09:54:57.292Z</time></trkpt><trkpt lat="44.8226717" lon="9.2015533"><ele>419.6</ele><time>2026-04-26T09:54:58.292Z</time></trkpt><trkpt lat="44.8227067" lon="9.2014083"><ele>419.4</ele><time>2026-04-26T09:54:59.292Z</time></trkpt><trkpt lat="44.82274" lon="9.2012683"><ele>419.2</ele><time>2026-04-26T09:55:00.292Z</time></trkpt><trkpt lat="44.822775" lon="9.201135"><ele>419.0</ele><time>2026-04-26T09:55:01.291Z</time></trkpt><trkpt lat="44.82281" lon="9.20101"><ele>418.99999999999994</ele><time>2026-04-26T09:55:02.292Z</time></trkpt><trkpt lat="44.82284" lon="9.2008933"><ele>419.0</ele><time>2026-04-26T09:55:03.292Z</time></trkpt><trkpt lat="44.8228633" lon="9.200785"><ele>419.0</ele><time>2026-04-26T09:55:04.292Z</time></trkpt><trkpt lat="44.8228767" lon="9.2006883"><ele>419.0</ele><time>2026-04-26T09:55:05.292Z</time></trkpt><trkpt lat="44.8228683" lon="9.20054"><ele>418.99999999999994</ele><time>2026-04-26T09:55:07.292Z</time></trkpt><trkpt lat="44.822815" lon="9.2004617"><ele>419.0</ele><time>2026-04-26T09:55:09.291Z</time></trkpt><trkpt lat="44.8227517" lon="9.2004433"><ele>418.79999999999995</ele><time>2026-04-26T09:55:10.292Z</time></trkpt><trkpt lat="44.82267" lon="9.20042"><ele>418.59999999999997</ele><time>2026-04-26T09:55:11.292Z</time></trkpt><trkpt lat="44.8225767" lon="9.2003917"><ele>418.4</ele><time>2026-04-26T09:55:12.292Z</time></trkpt><trkpt lat="44.8224767" lon="9.200345"><ele>418.2</ele><time>2026-04-26T09:55:13.291Z</time></trkpt><trkpt lat="44.82238" lon="9.2002883"><ele>418.0</ele><time>2026-04-26T09:55:14.292Z</time></trkpt><trkpt lat="44.8222083" lon="9.2001783"><ele>417.33333333333337</ele><time>2026-04-26T09:55:16.292Z</time></trkpt><trkpt lat="44.8221317" lon="9.2001417"><ele>416.6666666666667</ele><time>2026-04-26T09:55:17.291Z</time></trkpt><trkpt lat="44.8220617" lon="9.2001033"><ele>416.0</ele><time>2026-04-26T09:55:18.292Z</time></trkpt><trkpt lat="44.822" lon="9.2000617"><ele>415.33333333333337</ele><time>2026-04-26T09:55:19.292Z</time></trkpt><trkpt lat="44.82194" lon="9.2000283"><ele>414.6666666666667</ele><time>2026-04-26T09:55:20.292Z</time></trkpt><trkpt lat="44.8218217" lon="9.1999583"><ele>414.0</ele><time>2026-04-26T09:55:22.292Z</time></trkpt><trkpt lat="44.8217633" lon="9.1999167"><ele>412.6666666666667</ele><time>2026-04-26T09:55:23.292Z</time></trkpt><trkpt lat="44.8216867" lon="9.1997933"><ele>411.33333333333337</ele><time>2026-04-26T09:55:25.29Z</time></trkpt><trkpt lat="44.8216667" lon="9.199685"><ele>410.0</ele><time>2026-04-26T09:55:27.291Z</time></trkpt><trkpt lat="44.8217367" lon="9.199605"><ele>408.6666666666667</ele><time>2026-04-26T09:55:30.291Z</time></trkpt><trkpt lat="44.82179" lon="9.1995133"><ele>407.33333333333337</ele><time>2026-04-26T09:55:33.291Z</time></trkpt><trkpt lat="44.8218033" lon="9.1994033"><ele>406.0</ele><time>2026-04-26T09:55:35.291Z</time></trkpt><trkpt lat="44.8218083" lon="9.1992533"><ele>406.6666666666667</ele><time>2026-04-26T09:55:37.291Z</time></trkpt><trkpt lat="44.821825" lon="9.1990883"><ele>407.33333333333337</ele><time>2026-04-26T09:55:39.291Z</time></trkpt><trkpt lat="44.821845" lon="9.1989117"><ele>408.0</ele><time>2026-04-26T09:55:41.291Z</time></trkpt><trkpt lat="44.8218533" lon="9.1988183"><ele>408.66666666666663</ele><time>2026-04-26T09:55:42.291Z</time></trkpt><trkpt lat="44.8218633" lon="9.198725"><ele>409.3333333333333</ele><time>2026-04-26T09:55:43.291Z</time></trkpt><trkpt lat="44.8218783" lon="9.1986333"><ele>410.0</ele><time>2026-04-26T09:55:44.29Z</time></trkpt><trkpt lat="44.8218933" lon="9.198545"><ele>410.0</ele><time>2026-04-26T09:55:45.29Z</time></trkpt><trkpt lat="44.8219233" lon="9.1983883"><ele>410.0</ele><time>2026-04-26T09:55:47.291Z</time></trkpt><trkpt lat="44.82195" lon="9.1982517"><ele>410.0</ele><time>2026-04-26T09:55:49.291Z</time></trkpt><trkpt lat="44.82195" lon="9.1981567"><ele>410.0</ele><time>2026-04-26T09:55:51.291Z</time></trkpt><trkpt lat="44.8219833" lon="9.1980367"><ele>410.0</ele><time>2026-04-26T09:55:54.291Z</time></trkpt><trkpt lat="44.82201" lon="9.1979317"><ele>408.0</ele><time>2026-04-26T09:55:57.291Z</time></trkpt></trkseg></trk></gpx>